<?xml version="1.0" encoding="UTF-8" standalone="no" ?>
<gpx xmlns="http://www.topografix.com/GPX/1/1" xmlns:xsi="http://www.w3.org/2001/XMLSchema-instance" xsi:schemaLocation="http://www.topografix.com/GPX/1/1 http://www.topografix.com/GPX/1/1/gpx.xsd" version="1.1" creator="VisuGPX - https://www.visugpx.com">
  <metadata>
    <name>Fer à Cheval,Pupillin,Arbois</name>
  </metadata>
  <trk>
    <name><![CDATA[Fer à Cheval,Pupillin,Arbois_1]]></name>
    <extensions>
      <line xmlns="http://www.topografix.com/GPX/gpx_style/0/2">
        <color>0000FF</color>
        <width>4</width>
      </line>
    </extensions>
    <trkseg>
      <trkpt lat="46.86673" lon="5.80997">
        <ele>542.4</ele>
        <time>2021-05-09T11:26:21Z</time>
      </trkpt>
      <trkpt lat="46.86679" lon="5.80996">
        <ele>542.2</ele>
        <time>2021-05-09T11:27:10Z</time>
      </trkpt>
      <trkpt lat="46.86677" lon="5.81002">
        <ele>541.6</ele>
        <time>2021-05-09T11:27:19Z</time>
      </trkpt>
      <trkpt lat="46.86672" lon="5.81003">
        <ele>540.6</ele>
        <time>2021-05-09T11:27:30Z</time>
      </trkpt>
      <trkpt lat="46.86669" lon="5.8101">
        <ele>540.6</ele>
        <time>2021-05-09T11:27:35Z</time>
      </trkpt>
      <trkpt lat="46.86664" lon="5.81016">
        <ele>540.6</ele>
        <time>2021-05-09T11:27:39Z</time>
      </trkpt>
      <trkpt lat="46.86659" lon="5.81022">
        <ele>540.8</ele>
        <time>2021-05-09T11:27:43Z</time>
      </trkpt>
      <trkpt lat="46.86654" lon="5.81029">
        <ele>540.8</ele>
        <time>2021-05-09T11:27:47Z</time>
      </trkpt>
      <trkpt lat="46.8665" lon="5.81032">
        <ele>540.9</ele>
        <time>2021-05-09T11:27:51Z</time>
      </trkpt>
      <trkpt lat="46.86647" lon="5.81038">
        <ele>540.6</ele>
        <time>2021-05-09T11:27:57Z</time>
      </trkpt>
      <trkpt lat="46.86642" lon="5.81039">
        <ele>540.2</ele>
        <time>2021-05-09T11:28:03Z</time>
      </trkpt>
      <trkpt lat="46.86638" lon="5.81037">
        <ele>540.3</ele>
        <time>2021-05-09T11:28:11Z</time>
      </trkpt>
      <trkpt lat="46.86634" lon="5.81035">
        <ele>540.8</ele>
        <time>2021-05-09T11:28:20Z</time>
      </trkpt>
      <trkpt lat="46.86632" lon="5.81029">
        <ele>541.1</ele>
        <time>2021-05-09T11:28:28Z</time>
      </trkpt>
      <trkpt lat="46.86627" lon="5.81028">
        <ele>540.6</ele>
        <time>2021-05-09T11:28:35Z</time>
      </trkpt>
      <trkpt lat="46.86623" lon="5.81025">
        <ele>540.1</ele>
        <time>2021-05-09T11:28:40Z</time>
      </trkpt>
      <trkpt lat="46.86618" lon="5.81022">
        <ele>540.1</ele>
        <time>2021-05-09T11:28:46Z</time>
      </trkpt>
      <trkpt lat="46.86611" lon="5.8102">
        <ele>545</ele>
        <time>2021-05-09T11:29:01Z</time>
      </trkpt>
      <trkpt lat="46.86607" lon="5.81022">
        <ele>557.2</ele>
        <time>2021-05-09T11:29:14Z</time>
      </trkpt>
      <trkpt lat="46.86608" lon="5.81016">
        <ele>556.1</ele>
        <time>2021-05-09T11:29:39Z</time>
      </trkpt>
      <trkpt lat="46.86605" lon="5.8101">
        <ele>555.5</ele>
        <time>2021-05-09T11:29:49Z</time>
      </trkpt>
      <trkpt lat="46.866" lon="5.81009">
        <ele>555.3</ele>
        <time>2021-05-09T11:29:53Z</time>
      </trkpt>
      <trkpt lat="46.86595" lon="5.81008">
        <ele>555.3</ele>
        <time>2021-05-09T11:29:58Z</time>
      </trkpt>
      <trkpt lat="46.86592" lon="5.81002">
        <ele>555.3</ele>
        <time>2021-05-09T11:30:03Z</time>
      </trkpt>
      <trkpt lat="46.86588" lon="5.80998">
        <ele>555.1</ele>
        <time>2021-05-09T11:30:08Z</time>
      </trkpt>
      <trkpt lat="46.86585" lon="5.80993">
        <ele>554.3</ele>
        <time>2021-05-09T11:30:12Z</time>
      </trkpt>
      <trkpt lat="46.86583" lon="5.80986">
        <ele>554</ele>
        <time>2021-05-09T11:30:16Z</time>
      </trkpt>
      <trkpt lat="46.86582" lon="5.80979">
        <ele>553.4</ele>
        <time>2021-05-09T11:30:22Z</time>
      </trkpt>
      <trkpt lat="46.86583" lon="5.80972">
        <ele>552.4</ele>
        <time>2021-05-09T11:30:39Z</time>
      </trkpt>
      <trkpt lat="46.86585" lon="5.80963">
        <ele>550.3</ele>
        <time>2021-05-09T11:30:44Z</time>
      </trkpt>
      <trkpt lat="46.86583" lon="5.80947">
        <ele>548.1</ele>
        <time>2021-05-09T11:30:48Z</time>
      </trkpt>
      <trkpt lat="46.86585" lon="5.8094">
        <ele>547.4</ele>
        <time>2021-05-09T11:30:52Z</time>
      </trkpt>
      <trkpt lat="46.86588" lon="5.80935">
        <ele>547.1</ele>
        <time>2021-05-09T11:31:01Z</time>
      </trkpt>
      <trkpt lat="46.86588" lon="5.80928">
        <ele>547.7</ele>
        <time>2021-05-09T11:31:06Z</time>
      </trkpt>
      <trkpt lat="46.8659" lon="5.80921">
        <ele>549.3</ele>
        <time>2021-05-09T11:31:16Z</time>
      </trkpt>
      <trkpt lat="46.86591" lon="5.80915">
        <ele>548.6</ele>
        <time>2021-05-09T11:31:27Z</time>
      </trkpt>
      <trkpt lat="46.86592" lon="5.80908">
        <ele>548.1</ele>
        <time>2021-05-09T11:31:32Z</time>
      </trkpt>
      <trkpt lat="46.86591" lon="5.80897">
        <ele>547.5</ele>
        <time>2021-05-09T11:31:36Z</time>
      </trkpt>
      <trkpt lat="46.86588" lon="5.80886">
        <ele>546.8</ele>
        <time>2021-05-09T11:31:40Z</time>
      </trkpt>
      <trkpt lat="46.86581" lon="5.80858">
        <ele>547.2</ele>
        <time>2021-05-09T11:31:44Z</time>
      </trkpt>
      <trkpt lat="46.86573" lon="5.80838">
        <ele>548.1</ele>
        <time>2021-05-09T11:31:48Z</time>
      </trkpt>
      <trkpt lat="46.86569" lon="5.80831">
        <ele>549.9</ele>
        <time>2021-05-09T11:31:52Z</time>
      </trkpt>
      <trkpt lat="46.86564" lon="5.8083">
        <ele>552.4</ele>
        <time>2021-05-09T11:32:06Z</time>
      </trkpt>
      <trkpt lat="46.86559" lon="5.80829">
        <ele>553.3</ele>
        <time>2021-05-09T11:32:11Z</time>
      </trkpt>
      <trkpt lat="46.86555" lon="5.80825">
        <ele>556</ele>
        <time>2021-05-09T11:32:19Z</time>
      </trkpt>
      <trkpt lat="46.86551" lon="5.8082">
        <ele>558.1</ele>
        <time>2021-05-09T11:32:24Z</time>
      </trkpt>
      <trkpt lat="46.86548" lon="5.80815">
        <ele>560.4</ele>
        <time>2021-05-09T11:32:29Z</time>
      </trkpt>
      <trkpt lat="46.86544" lon="5.80811">
        <ele>560.4</ele>
        <time>2021-05-09T11:32:34Z</time>
      </trkpt>
      <trkpt lat="46.86539" lon="5.80808">
        <ele>557.6</ele>
        <time>2021-05-09T11:32:41Z</time>
      </trkpt>
      <trkpt lat="46.86536" lon="5.80803">
        <ele>553.5</ele>
        <time>2021-05-09T11:32:48Z</time>
      </trkpt>
      <trkpt lat="46.86533" lon="5.80797">
        <ele>551.9</ele>
        <time>2021-05-09T11:32:56Z</time>
      </trkpt>
      <trkpt lat="46.86529" lon="5.80794">
        <ele>551.6</ele>
        <time>2021-05-09T11:33:01Z</time>
      </trkpt>
      <trkpt lat="46.86523" lon="5.80795">
        <ele>551.8</ele>
        <time>2021-05-09T11:33:05Z</time>
      </trkpt>
      <trkpt lat="46.86518" lon="5.80796">
        <ele>552.9</ele>
        <time>2021-05-09T11:33:10Z</time>
      </trkpt>
      <trkpt lat="46.86514" lon="5.80786">
        <ele>555.8</ele>
        <time>2021-05-09T11:33:16Z</time>
      </trkpt>
      <trkpt lat="46.86511" lon="5.80777">
        <ele>558.3</ele>
        <time>2021-05-09T11:33:20Z</time>
      </trkpt>
      <trkpt lat="46.86507" lon="5.80774">
        <ele>561.2</ele>
        <time>2021-05-09T11:33:30Z</time>
      </trkpt>
      <trkpt lat="46.86501" lon="5.80769">
        <ele>562.1</ele>
        <time>2021-05-09T11:33:36Z</time>
      </trkpt>
      <trkpt lat="46.86495" lon="5.80767">
        <ele>562.8</ele>
        <time>2021-05-09T11:33:40Z</time>
      </trkpt>
      <trkpt lat="46.8649" lon="5.80766">
        <ele>563.9</ele>
        <time>2021-05-09T11:33:46Z</time>
      </trkpt>
      <trkpt lat="46.86485" lon="5.80761">
        <ele>565.5</ele>
        <time>2021-05-09T11:33:51Z</time>
      </trkpt>
      <trkpt lat="46.86481" lon="5.80756">
        <ele>566.4</ele>
        <time>2021-05-09T11:33:55Z</time>
      </trkpt>
      <trkpt lat="46.86478" lon="5.80751">
        <ele>567</ele>
        <time>2021-05-09T11:33:59Z</time>
      </trkpt>
      <trkpt lat="46.86474" lon="5.80747">
        <ele>567.2</ele>
        <time>2021-05-09T11:34:03Z</time>
      </trkpt>
      <trkpt lat="46.86469" lon="5.80742">
        <ele>566.8</ele>
        <time>2021-05-09T11:34:09Z</time>
      </trkpt>
      <trkpt lat="46.86467" lon="5.80735">
        <ele>567.4</ele>
        <time>2021-05-09T11:34:13Z</time>
      </trkpt>
      <trkpt lat="46.86464" lon="5.80727">
        <ele>569.3</ele>
        <time>2021-05-09T11:34:17Z</time>
      </trkpt>
      <trkpt lat="46.86461" lon="5.80722">
        <ele>570.8</ele>
        <time>2021-05-09T11:34:23Z</time>
      </trkpt>
      <trkpt lat="46.86456" lon="5.80718">
        <ele>571</ele>
        <time>2021-05-09T11:34:28Z</time>
      </trkpt>
      <trkpt lat="46.86453" lon="5.80713">
        <ele>569.8</ele>
        <time>2021-05-09T11:34:33Z</time>
      </trkpt>
      <trkpt lat="46.8645" lon="5.80709">
        <ele>568.8</ele>
        <time>2021-05-09T11:34:37Z</time>
      </trkpt>
      <trkpt lat="46.86445" lon="5.80703">
        <ele>567.7</ele>
        <time>2021-05-09T11:34:50Z</time>
      </trkpt>
      <trkpt lat="46.86437" lon="5.80693">
        <ele>567.3</ele>
        <time>2021-05-09T11:34:55Z</time>
      </trkpt>
      <trkpt lat="46.86431" lon="5.80683">
        <ele>566.8</ele>
        <time>2021-05-09T11:34:59Z</time>
      </trkpt>
      <trkpt lat="46.86428" lon="5.80677">
        <ele>566.9</ele>
        <time>2021-05-09T11:35:03Z</time>
      </trkpt>
      <trkpt lat="46.86426" lon="5.8067">
        <ele>566.7</ele>
        <time>2021-05-09T11:35:08Z</time>
      </trkpt>
      <trkpt lat="46.86423" lon="5.80664">
        <ele>565.8</ele>
        <time>2021-05-09T11:35:15Z</time>
      </trkpt>
      <trkpt lat="46.86418" lon="5.80662">
        <ele>564.7</ele>
        <time>2021-05-09T11:35:22Z</time>
      </trkpt>
      <trkpt lat="46.86414" lon="5.80658">
        <ele>564</ele>
        <time>2021-05-09T11:35:28Z</time>
      </trkpt>
      <trkpt lat="46.86409" lon="5.80657">
        <ele>563.5</ele>
        <time>2021-05-09T11:35:35Z</time>
      </trkpt>
      <trkpt lat="46.86404" lon="5.80655">
        <ele>563.5</ele>
        <time>2021-05-09T11:35:39Z</time>
      </trkpt>
      <trkpt lat="46.86398" lon="5.80654">
        <ele>564</ele>
        <time>2021-05-09T11:35:43Z</time>
      </trkpt>
      <trkpt lat="46.86393" lon="5.80653">
        <ele>563.9</ele>
        <time>2021-05-09T11:35:47Z</time>
      </trkpt>
      <trkpt lat="46.86388" lon="5.80655">
        <ele>564.5</ele>
        <time>2021-05-09T11:35:51Z</time>
      </trkpt>
      <trkpt lat="46.86384" lon="5.80659">
        <ele>565.6</ele>
        <time>2021-05-09T11:35:58Z</time>
      </trkpt>
      <trkpt lat="46.8638" lon="5.80662">
        <ele>565.4</ele>
        <time>2021-05-09T11:36:02Z</time>
      </trkpt>
      <trkpt lat="46.86375" lon="5.80664">
        <ele>565.7</ele>
        <time>2021-05-09T11:36:06Z</time>
      </trkpt>
      <trkpt lat="46.86368" lon="5.80667">
        <ele>567.2</ele>
        <time>2021-05-09T11:36:10Z</time>
      </trkpt>
      <trkpt lat="46.86363" lon="5.80667">
        <ele>568.4</ele>
        <time>2021-05-09T11:36:15Z</time>
      </trkpt>
      <trkpt lat="46.86358" lon="5.80666">
        <ele>569.2</ele>
        <time>2021-05-09T11:36:20Z</time>
      </trkpt>
      <trkpt lat="46.86353" lon="5.80665">
        <ele>570.1</ele>
        <time>2021-05-09T11:36:25Z</time>
      </trkpt>
      <trkpt lat="46.86347" lon="5.80665">
        <ele>570.3</ele>
        <time>2021-05-09T11:36:29Z</time>
      </trkpt>
      <trkpt lat="46.86342" lon="5.80665">
        <ele>569.1</ele>
        <time>2021-05-09T11:36:36Z</time>
      </trkpt>
      <trkpt lat="46.86337" lon="5.80666">
        <ele>568.4</ele>
        <time>2021-05-09T11:36:42Z</time>
      </trkpt>
      <trkpt lat="46.86332" lon="5.80667">
        <ele>567.7</ele>
        <time>2021-05-09T11:36:51Z</time>
      </trkpt>
      <trkpt lat="46.86327" lon="5.80665">
        <ele>567.2</ele>
        <time>2021-05-09T11:36:55Z</time>
      </trkpt>
      <trkpt lat="46.86322" lon="5.80666">
        <ele>567</ele>
        <time>2021-05-09T11:36:59Z</time>
      </trkpt>
      <trkpt lat="46.86317" lon="5.80667">
        <ele>567.1</ele>
        <time>2021-05-09T11:37:04Z</time>
      </trkpt>
      <trkpt lat="46.86311" lon="5.80668">
        <ele>567.3</ele>
        <time>2021-05-09T11:37:08Z</time>
      </trkpt>
      <trkpt lat="46.86307" lon="5.80666">
        <ele>567.9</ele>
        <time>2021-05-09T11:37:13Z</time>
      </trkpt>
      <trkpt lat="46.86301" lon="5.80668">
        <ele>568.4</ele>
        <time>2021-05-09T11:37:19Z</time>
      </trkpt>
      <trkpt lat="46.86297" lon="5.80672">
        <ele>568.8</ele>
        <time>2021-05-09T11:37:24Z</time>
      </trkpt>
      <trkpt lat="46.86293" lon="5.80675">
        <ele>568.7</ele>
        <time>2021-05-09T11:37:30Z</time>
      </trkpt>
      <trkpt lat="46.86289" lon="5.80677">
        <ele>568.4</ele>
        <time>2021-05-09T11:37:34Z</time>
      </trkpt>
      <trkpt lat="46.86284" lon="5.80677">
        <ele>568</ele>
        <time>2021-05-09T11:37:39Z</time>
      </trkpt>
      <trkpt lat="46.86279" lon="5.80676">
        <ele>566.5</ele>
        <time>2021-05-09T11:37:47Z</time>
      </trkpt>
      <trkpt lat="46.86274" lon="5.80674">
        <ele>565.7</ele>
        <time>2021-05-09T11:37:55Z</time>
      </trkpt>
      <trkpt lat="46.86269" lon="5.80674">
        <ele>565.7</ele>
        <time>2021-05-09T11:38:01Z</time>
      </trkpt>
      <trkpt lat="46.86264" lon="5.80673">
        <ele>566.1</ele>
        <time>2021-05-09T11:38:06Z</time>
      </trkpt>
      <trkpt lat="46.86259" lon="5.80671">
        <ele>567.2</ele>
        <time>2021-05-09T11:38:13Z</time>
      </trkpt>
      <trkpt lat="46.86255" lon="5.80669">
        <ele>567.9</ele>
        <time>2021-05-09T11:38:20Z</time>
      </trkpt>
      <trkpt lat="46.86251" lon="5.80665">
        <ele>567.4</ele>
        <time>2021-05-09T11:38:27Z</time>
      </trkpt>
      <trkpt lat="46.86246" lon="5.80664">
        <ele>567.3</ele>
        <time>2021-05-09T11:38:32Z</time>
      </trkpt>
      <trkpt lat="46.86241" lon="5.80662">
        <ele>567.4</ele>
        <time>2021-05-09T11:38:37Z</time>
      </trkpt>
      <trkpt lat="46.86236" lon="5.80661">
        <ele>567.4</ele>
        <time>2021-05-09T11:38:41Z</time>
      </trkpt>
      <trkpt lat="46.86231" lon="5.80659">
        <ele>567.2</ele>
        <time>2021-05-09T11:38:45Z</time>
      </trkpt>
      <trkpt lat="46.86227" lon="5.80657">
        <ele>567.3</ele>
        <time>2021-05-09T11:38:50Z</time>
      </trkpt>
      <trkpt lat="46.86221" lon="5.80656">
        <ele>567.8</ele>
        <time>2021-05-09T11:38:56Z</time>
      </trkpt>
      <trkpt lat="46.86216" lon="5.80657">
        <ele>568.4</ele>
        <time>2021-05-09T11:39:01Z</time>
      </trkpt>
      <trkpt lat="46.86211" lon="5.80657">
        <ele>568.5</ele>
        <time>2021-05-09T11:39:06Z</time>
      </trkpt>
      <trkpt lat="46.86206" lon="5.80656">
        <ele>568</ele>
        <time>2021-05-09T11:39:11Z</time>
      </trkpt>
      <trkpt lat="46.862" lon="5.80653">
        <ele>567.7</ele>
        <time>2021-05-09T11:39:17Z</time>
      </trkpt>
      <trkpt lat="46.86194" lon="5.80648">
        <ele>567.6</ele>
        <time>2021-05-09T11:39:21Z</time>
      </trkpt>
      <trkpt lat="46.86189" lon="5.80642">
        <ele>567.5</ele>
        <time>2021-05-09T11:39:25Z</time>
      </trkpt>
      <trkpt lat="46.86184" lon="5.80639">
        <ele>567.5</ele>
        <time>2021-05-09T11:39:29Z</time>
      </trkpt>
      <trkpt lat="46.8618" lon="5.80636">
        <ele>567.6</ele>
        <time>2021-05-09T11:39:34Z</time>
      </trkpt>
      <trkpt lat="46.86175" lon="5.80636">
        <ele>567.8</ele>
        <time>2021-05-09T11:39:41Z</time>
      </trkpt>
      <trkpt lat="46.86171" lon="5.80632">
        <ele>568</ele>
        <time>2021-05-09T11:39:47Z</time>
      </trkpt>
      <trkpt lat="46.86166" lon="5.8063">
        <ele>568.8</ele>
        <time>2021-05-09T11:39:51Z</time>
      </trkpt>
      <trkpt lat="46.86158" lon="5.80639">
        <ele>571.4</ele>
        <time>2021-05-09T11:39:56Z</time>
      </trkpt>
      <trkpt lat="46.86155" lon="5.80645">
        <ele>573</ele>
        <time>2021-05-09T11:40:00Z</time>
      </trkpt>
      <trkpt lat="46.86152" lon="5.80639">
        <ele>574.1</ele>
        <time>2021-05-09T11:40:05Z</time>
      </trkpt>
      <trkpt lat="46.8615" lon="5.80633">
        <ele>574</ele>
        <time>2021-05-09T11:40:09Z</time>
      </trkpt>
      <trkpt lat="46.86146" lon="5.80628">
        <ele>572.8</ele>
        <time>2021-05-09T11:40:14Z</time>
      </trkpt>
      <trkpt lat="46.86141" lon="5.80627">
        <ele>571.4</ele>
        <time>2021-05-09T11:40:20Z</time>
      </trkpt>
      <trkpt lat="46.86136" lon="5.80627">
        <ele>571.6</ele>
        <time>2021-05-09T11:40:25Z</time>
      </trkpt>
      <trkpt lat="46.86131" lon="5.80626">
        <ele>572.7</ele>
        <time>2021-05-09T11:40:33Z</time>
      </trkpt>
      <trkpt lat="46.86126" lon="5.80627">
        <ele>573.9</ele>
        <time>2021-05-09T11:40:37Z</time>
      </trkpt>
      <trkpt lat="46.86117" lon="5.80628">
        <ele>575.4</ele>
        <time>2021-05-09T11:40:41Z</time>
      </trkpt>
      <trkpt lat="46.86112" lon="5.80628">
        <ele>577.5</ele>
        <time>2021-05-09T11:40:45Z</time>
      </trkpt>
      <trkpt lat="46.86108" lon="5.80627">
        <ele>580.5</ele>
        <time>2021-05-09T11:40:53Z</time>
      </trkpt>
      <trkpt lat="46.86104" lon="5.80622">
        <ele>582.5</ele>
        <time>2021-05-09T11:41:02Z</time>
      </trkpt>
      <trkpt lat="46.86099" lon="5.80619">
        <ele>583</ele>
        <time>2021-05-09T11:41:11Z</time>
      </trkpt>
      <trkpt lat="46.86095" lon="5.80614">
        <ele>583.3</ele>
        <time>2021-05-09T11:41:16Z</time>
      </trkpt>
      <trkpt lat="46.8609" lon="5.8061">
        <ele>583.9</ele>
        <time>2021-05-09T11:41:20Z</time>
      </trkpt>
      <trkpt lat="46.86085" lon="5.80609">
        <ele>584.5</ele>
        <time>2021-05-09T11:41:25Z</time>
      </trkpt>
      <trkpt lat="46.86069" lon="5.80605">
        <ele>583.4</ele>
        <time>2021-05-09T11:41:29Z</time>
      </trkpt>
      <trkpt lat="46.86064" lon="5.80605">
        <ele>583.2</ele>
        <time>2021-05-09T11:41:33Z</time>
      </trkpt>
      <trkpt lat="46.86059" lon="5.80604">
        <ele>583.9</ele>
        <time>2021-05-09T11:41:39Z</time>
      </trkpt>
      <trkpt lat="46.86055" lon="5.80604">
        <ele>584.8</ele>
        <time>2021-05-09T11:41:44Z</time>
      </trkpt>
      <trkpt lat="46.8605" lon="5.80604">
        <ele>585.8</ele>
        <time>2021-05-09T11:41:50Z</time>
      </trkpt>
      <trkpt lat="46.86045" lon="5.80604">
        <ele>587</ele>
        <time>2021-05-09T11:41:57Z</time>
      </trkpt>
      <trkpt lat="46.8604" lon="5.80605">
        <ele>587.1</ele>
        <time>2021-05-09T11:42:01Z</time>
      </trkpt>
      <trkpt lat="46.86035" lon="5.80606">
        <ele>588.2</ele>
        <time>2021-05-09T11:42:06Z</time>
      </trkpt>
      <trkpt lat="46.86031" lon="5.80602">
        <ele>589.6</ele>
        <time>2021-05-09T11:42:11Z</time>
      </trkpt>
      <trkpt lat="46.86029" lon="5.80596">
        <ele>590.7</ele>
        <time>2021-05-09T11:42:16Z</time>
      </trkpt>
      <trkpt lat="46.86028" lon="5.8059">
        <ele>591.3</ele>
        <time>2021-05-09T11:42:22Z</time>
      </trkpt>
      <trkpt lat="46.86026" lon="5.80583">
        <ele>590.8</ele>
        <time>2021-05-09T11:42:28Z</time>
      </trkpt>
      <trkpt lat="46.86022" lon="5.80579">
        <ele>590</ele>
        <time>2021-05-09T11:42:34Z</time>
      </trkpt>
      <trkpt lat="46.86018" lon="5.80575">
        <ele>589.9</ele>
        <time>2021-05-09T11:42:40Z</time>
      </trkpt>
      <trkpt lat="46.86014" lon="5.8057">
        <ele>590.1</ele>
        <time>2021-05-09T11:42:48Z</time>
      </trkpt>
      <trkpt lat="46.86009" lon="5.80553">
        <ele>588.5</ele>
        <time>2021-05-09T11:42:52Z</time>
      </trkpt>
      <trkpt lat="46.86006" lon="5.80547">
        <ele>587.8</ele>
        <time>2021-05-09T11:42:56Z</time>
      </trkpt>
      <trkpt lat="46.86002" lon="5.80541">
        <ele>587.1</ele>
        <time>2021-05-09T11:43:01Z</time>
      </trkpt>
      <trkpt lat="46.86" lon="5.80534">
        <ele>586.1</ele>
        <time>2021-05-09T11:43:05Z</time>
      </trkpt>
      <trkpt lat="46.85998" lon="5.80528">
        <ele>585.2</ele>
        <time>2021-05-09T11:43:09Z</time>
      </trkpt>
      <trkpt lat="46.85995" lon="5.80523">
        <ele>584.7</ele>
        <time>2021-05-09T11:43:15Z</time>
      </trkpt>
      <trkpt lat="46.85991" lon="5.80518">
        <ele>584.6</ele>
        <time>2021-05-09T11:43:19Z</time>
      </trkpt>
      <trkpt lat="46.85987" lon="5.80514">
        <ele>584.1</ele>
        <time>2021-05-09T11:43:23Z</time>
      </trkpt>
      <trkpt lat="46.85983" lon="5.8051">
        <ele>583</ele>
        <time>2021-05-09T11:43:27Z</time>
      </trkpt>
      <trkpt lat="46.85979" lon="5.80506">
        <ele>582.4</ele>
        <time>2021-05-09T11:43:31Z</time>
      </trkpt>
      <trkpt lat="46.85975" lon="5.80502">
        <ele>581.6</ele>
        <time>2021-05-09T11:43:39Z</time>
      </trkpt>
      <trkpt lat="46.8597" lon="5.80497">
        <ele>581.5</ele>
        <time>2021-05-09T11:43:46Z</time>
      </trkpt>
      <trkpt lat="46.85966" lon="5.80493">
        <ele>581.9</ele>
        <time>2021-05-09T11:43:50Z</time>
      </trkpt>
      <trkpt lat="46.85962" lon="5.80488">
        <ele>582.5</ele>
        <time>2021-05-09T11:43:55Z</time>
      </trkpt>
      <trkpt lat="46.85959" lon="5.80484">
        <ele>582.1</ele>
        <time>2021-05-09T11:44:01Z</time>
      </trkpt>
      <trkpt lat="46.85955" lon="5.8048">
        <ele>580.6</ele>
        <time>2021-05-09T11:44:09Z</time>
      </trkpt>
      <trkpt lat="46.85951" lon="5.80477">
        <ele>578.1</ele>
        <time>2021-05-09T11:44:22Z</time>
      </trkpt>
      <trkpt lat="46.85947" lon="5.80475">
        <ele>576.8</ele>
        <time>2021-05-09T11:44:29Z</time>
      </trkpt>
      <trkpt lat="46.85943" lon="5.8047">
        <ele>575.5</ele>
        <time>2021-05-09T11:44:36Z</time>
      </trkpt>
      <trkpt lat="46.85938" lon="5.80465">
        <ele>573.7</ele>
        <time>2021-05-09T11:44:41Z</time>
      </trkpt>
      <trkpt lat="46.85933" lon="5.8046">
        <ele>572.1</ele>
        <time>2021-05-09T11:44:45Z</time>
      </trkpt>
      <trkpt lat="46.85929" lon="5.80454">
        <ele>570.4</ele>
        <time>2021-05-09T11:44:49Z</time>
      </trkpt>
      <trkpt lat="46.85925" lon="5.80449">
        <ele>568.5</ele>
        <time>2021-05-09T11:44:53Z</time>
      </trkpt>
      <trkpt lat="46.8592" lon="5.80445">
        <ele>566.7</ele>
        <time>2021-05-09T11:44:57Z</time>
      </trkpt>
      <trkpt lat="46.85916" lon="5.80442">
        <ele>564.8</ele>
        <time>2021-05-09T11:45:01Z</time>
      </trkpt>
      <trkpt lat="46.85911" lon="5.80439">
        <ele>562.8</ele>
        <time>2021-05-09T11:45:05Z</time>
      </trkpt>
      <trkpt lat="46.85908" lon="5.80435">
        <ele>561</ele>
        <time>2021-05-09T11:45:09Z</time>
      </trkpt>
      <trkpt lat="46.85903" lon="5.80432">
        <ele>559.2</ele>
        <time>2021-05-09T11:45:13Z</time>
      </trkpt>
      <trkpt lat="46.859" lon="5.80428">
        <ele>557.2</ele>
        <time>2021-05-09T11:45:18Z</time>
      </trkpt>
      <trkpt lat="46.85896" lon="5.80421">
        <ele>555.4</ele>
        <time>2021-05-09T11:45:23Z</time>
      </trkpt>
      <trkpt lat="46.85877" lon="5.8039">
        <ele>556.5</ele>
        <time>2021-05-09T11:45:27Z</time>
      </trkpt>
      <trkpt lat="46.85873" lon="5.80384">
        <ele>556.3</ele>
        <time>2021-05-09T11:45:31Z</time>
      </trkpt>
      <trkpt lat="46.85869" lon="5.80379">
        <ele>556.1</ele>
        <time>2021-05-09T11:45:38Z</time>
      </trkpt>
      <trkpt lat="46.85863" lon="5.80372">
        <ele>559.4</ele>
        <time>2021-05-09T11:45:42Z</time>
      </trkpt>
      <trkpt lat="46.8586" lon="5.80368">
        <ele>561</ele>
        <time>2021-05-09T11:45:47Z</time>
      </trkpt>
      <trkpt lat="46.85856" lon="5.80364">
        <ele>561.8</ele>
        <time>2021-05-09T11:45:51Z</time>
      </trkpt>
      <trkpt lat="46.85852" lon="5.8036">
        <ele>562.4</ele>
        <time>2021-05-09T11:45:55Z</time>
      </trkpt>
      <trkpt lat="46.85847" lon="5.80356">
        <ele>562.9</ele>
        <time>2021-05-09T11:46:00Z</time>
      </trkpt>
      <trkpt lat="46.85843" lon="5.80351">
        <ele>563.1</ele>
        <time>2021-05-09T11:46:05Z</time>
      </trkpt>
      <trkpt lat="46.85839" lon="5.80349">
        <ele>563.2</ele>
        <time>2021-05-09T11:46:10Z</time>
      </trkpt>
      <trkpt lat="46.85834" lon="5.80347">
        <ele>563.2</ele>
        <time>2021-05-09T11:46:14Z</time>
      </trkpt>
      <trkpt lat="46.8583" lon="5.80344">
        <ele>563.2</ele>
        <time>2021-05-09T11:46:18Z</time>
      </trkpt>
      <trkpt lat="46.85825" lon="5.8034">
        <ele>563.2</ele>
        <time>2021-05-09T11:46:24Z</time>
      </trkpt>
      <trkpt lat="46.85821" lon="5.80335">
        <ele>563.2</ele>
        <time>2021-05-09T11:46:29Z</time>
      </trkpt>
      <trkpt lat="46.85817" lon="5.8033">
        <ele>563.6</ele>
        <time>2021-05-09T11:46:33Z</time>
      </trkpt>
      <trkpt lat="46.85813" lon="5.80325">
        <ele>563.6</ele>
        <time>2021-05-09T11:46:37Z</time>
      </trkpt>
      <trkpt lat="46.85807" lon="5.80321">
        <ele>563.7</ele>
        <time>2021-05-09T11:46:41Z</time>
      </trkpt>
      <trkpt lat="46.85802" lon="5.80318">
        <ele>564.4</ele>
        <time>2021-05-09T11:46:45Z</time>
      </trkpt>
      <trkpt lat="46.85796" lon="5.80314">
        <ele>565.5</ele>
        <time>2021-05-09T11:46:49Z</time>
      </trkpt>
      <trkpt lat="46.85791" lon="5.80309">
        <ele>566.3</ele>
        <time>2021-05-09T11:46:53Z</time>
      </trkpt>
      <trkpt lat="46.85787" lon="5.80305">
        <ele>567</ele>
        <time>2021-05-09T11:46:57Z</time>
      </trkpt>
      <trkpt lat="46.85782" lon="5.80301">
        <ele>568.1</ele>
        <time>2021-05-09T11:47:02Z</time>
      </trkpt>
      <trkpt lat="46.85777" lon="5.80297">
        <ele>568.1</ele>
        <time>2021-05-09T11:47:07Z</time>
      </trkpt>
      <trkpt lat="46.85774" lon="5.80291">
        <ele>566.8</ele>
        <time>2021-05-09T11:47:11Z</time>
      </trkpt>
      <trkpt lat="46.8577" lon="5.80286">
        <ele>565.1</ele>
        <time>2021-05-09T11:47:15Z</time>
      </trkpt>
      <trkpt lat="46.85766" lon="5.80281">
        <ele>563.1</ele>
        <time>2021-05-09T11:47:20Z</time>
      </trkpt>
      <trkpt lat="46.85763" lon="5.80277">
        <ele>561.4</ele>
        <time>2021-05-09T11:47:24Z</time>
      </trkpt>
      <trkpt lat="46.85759" lon="5.80273">
        <ele>559.8</ele>
        <time>2021-05-09T11:47:28Z</time>
      </trkpt>
      <trkpt lat="46.85755" lon="5.80269">
        <ele>558.5</ele>
        <time>2021-05-09T11:47:32Z</time>
      </trkpt>
      <trkpt lat="46.85752" lon="5.80264">
        <ele>557.3</ele>
        <time>2021-05-09T11:47:36Z</time>
      </trkpt>
      <trkpt lat="46.85748" lon="5.8026">
        <ele>556.4</ele>
        <time>2021-05-09T11:47:40Z</time>
      </trkpt>
      <trkpt lat="46.85744" lon="5.80256">
        <ele>555.5</ele>
        <time>2021-05-09T11:47:44Z</time>
      </trkpt>
      <trkpt lat="46.8574" lon="5.80252">
        <ele>554.8</ele>
        <time>2021-05-09T11:47:48Z</time>
      </trkpt>
      <trkpt lat="46.85736" lon="5.80249">
        <ele>554.8</ele>
        <time>2021-05-09T11:47:52Z</time>
      </trkpt>
      <trkpt lat="46.85732" lon="5.80244">
        <ele>555.1</ele>
        <time>2021-05-09T11:47:57Z</time>
      </trkpt>
      <trkpt lat="46.85729" lon="5.8024">
        <ele>554.3</ele>
        <time>2021-05-09T11:48:01Z</time>
      </trkpt>
      <trkpt lat="46.85726" lon="5.80233">
        <ele>552.7</ele>
        <time>2021-05-09T11:48:06Z</time>
      </trkpt>
      <trkpt lat="46.8573" lon="5.8023">
        <ele>550.8</ele>
        <time>2021-05-09T11:48:15Z</time>
      </trkpt>
      <trkpt lat="46.85735" lon="5.80229">
        <ele>549.1</ele>
        <time>2021-05-09T11:48:21Z</time>
      </trkpt>
      <trkpt lat="46.8574" lon="5.80225">
        <ele>549.1</ele>
        <time>2021-05-09T11:48:26Z</time>
      </trkpt>
      <trkpt lat="46.85745" lon="5.80217">
        <ele>555</ele>
        <time>2021-05-09T11:48:30Z</time>
      </trkpt>
      <trkpt lat="46.85749" lon="5.80213">
        <ele>561.3</ele>
        <time>2021-05-09T11:48:35Z</time>
      </trkpt>
      <trkpt lat="46.85753" lon="5.80208">
        <ele>564.7</ele>
        <time>2021-05-09T11:48:55Z</time>
      </trkpt>
      <trkpt lat="46.85758" lon="5.80206">
        <ele>563.6</ele>
        <time>2021-05-09T11:49:00Z</time>
      </trkpt>
      <trkpt lat="46.85762" lon="5.80202">
        <ele>562.4</ele>
        <time>2021-05-09T11:49:05Z</time>
      </trkpt>
      <trkpt lat="46.85765" lon="5.80196">
        <ele>561.4</ele>
        <time>2021-05-09T11:49:09Z</time>
      </trkpt>
      <trkpt lat="46.85769" lon="5.80192">
        <ele>562.2</ele>
        <time>2021-05-09T11:49:14Z</time>
      </trkpt>
      <trkpt lat="46.85774" lon="5.80191">
        <ele>564.1</ele>
        <time>2021-05-09T11:49:20Z</time>
      </trkpt>
      <trkpt lat="46.85781" lon="5.80186">
        <ele>563.5</ele>
        <time>2021-05-09T11:49:28Z</time>
      </trkpt>
      <trkpt lat="46.85787" lon="5.80182">
        <ele>564.1</ele>
        <time>2021-05-09T11:49:32Z</time>
      </trkpt>
      <trkpt lat="46.85791" lon="5.80177">
        <ele>564.8</ele>
        <time>2021-05-09T11:49:36Z</time>
      </trkpt>
      <trkpt lat="46.85794" lon="5.80172">
        <ele>566.8</ele>
        <time>2021-05-09T11:49:42Z</time>
      </trkpt>
      <trkpt lat="46.85793" lon="5.80166">
        <ele>570.1</ele>
        <time>2021-05-09T11:49:50Z</time>
      </trkpt>
      <trkpt lat="46.85789" lon="5.80161">
        <ele>574.4</ele>
        <time>2021-05-09T11:50:11Z</time>
      </trkpt>
      <trkpt lat="46.85794" lon="5.80162">
        <ele>566.8</ele>
        <time>2021-05-09T11:50:26Z</time>
      </trkpt>
      <trkpt lat="46.85801" lon="5.80161">
        <ele>559.8</ele>
        <time>2021-05-09T11:50:30Z</time>
      </trkpt>
      <trkpt lat="46.85804" lon="5.80155">
        <ele>550.6</ele>
        <time>2021-05-09T11:50:40Z</time>
      </trkpt>
      <trkpt lat="46.85808" lon="5.80152">
        <ele>548.1</ele>
        <time>2021-05-09T11:50:47Z</time>
      </trkpt>
      <trkpt lat="46.85813" lon="5.80149">
        <ele>546.5</ele>
        <time>2021-05-09T11:50:52Z</time>
      </trkpt>
      <trkpt lat="46.85817" lon="5.80146">
        <ele>545.1</ele>
        <time>2021-05-09T11:50:57Z</time>
      </trkpt>
      <trkpt lat="46.85822" lon="5.80142">
        <ele>543.8</ele>
        <time>2021-05-09T11:51:02Z</time>
      </trkpt>
      <trkpt lat="46.85826" lon="5.8014">
        <ele>542.3</ele>
        <time>2021-05-09T11:51:09Z</time>
      </trkpt>
      <trkpt lat="46.8583" lon="5.80133">
        <ele>542.3</ele>
        <time>2021-05-09T11:51:13Z</time>
      </trkpt>
      <trkpt lat="46.85836" lon="5.80123">
        <ele>543.6</ele>
        <time>2021-05-09T11:51:17Z</time>
      </trkpt>
      <trkpt lat="46.85842" lon="5.80116">
        <ele>545.5</ele>
        <time>2021-05-09T11:51:21Z</time>
      </trkpt>
      <trkpt lat="46.85847" lon="5.80112">
        <ele>547</ele>
        <time>2021-05-09T11:51:25Z</time>
      </trkpt>
      <trkpt lat="46.85852" lon="5.80109">
        <ele>547.9</ele>
        <time>2021-05-09T11:51:29Z</time>
      </trkpt>
      <trkpt lat="46.85856" lon="5.80106">
        <ele>548.3</ele>
        <time>2021-05-09T11:51:35Z</time>
      </trkpt>
      <trkpt lat="46.85861" lon="5.80104">
        <ele>547</ele>
        <time>2021-05-09T11:51:41Z</time>
      </trkpt>
      <trkpt lat="46.85866" lon="5.80102">
        <ele>545.6</ele>
        <time>2021-05-09T11:51:45Z</time>
      </trkpt>
      <trkpt lat="46.8587" lon="5.80099">
        <ele>543.8</ele>
        <time>2021-05-09T11:51:49Z</time>
      </trkpt>
      <trkpt lat="46.85873" lon="5.80094">
        <ele>537.9</ele>
        <time>2021-05-09T11:51:58Z</time>
      </trkpt>
      <trkpt lat="46.85876" lon="5.80088">
        <ele>534.9</ele>
        <time>2021-05-09T11:52:05Z</time>
      </trkpt>
      <trkpt lat="46.85879" lon="5.80083">
        <ele>532.9</ele>
        <time>2021-05-09T11:52:11Z</time>
      </trkpt>
      <trkpt lat="46.85883" lon="5.80073">
        <ele>533.4</ele>
        <time>2021-05-09T11:52:15Z</time>
      </trkpt>
      <trkpt lat="46.85885" lon="5.80067">
        <ele>532.8</ele>
        <time>2021-05-09T11:52:19Z</time>
      </trkpt>
      <trkpt lat="46.85888" lon="5.8006">
        <ele>531.6</ele>
        <time>2021-05-09T11:52:23Z</time>
      </trkpt>
      <trkpt lat="46.85891" lon="5.8005">
        <ele>528.1</ele>
        <time>2021-05-09T11:52:27Z</time>
      </trkpt>
      <trkpt lat="46.85894" lon="5.80045">
        <ele>526.2</ele>
        <time>2021-05-09T11:52:31Z</time>
      </trkpt>
      <trkpt lat="46.85898" lon="5.80041">
        <ele>525.3</ele>
        <time>2021-05-09T11:52:38Z</time>
      </trkpt>
      <trkpt lat="46.85903" lon="5.80036">
        <ele>525</ele>
        <time>2021-05-09T11:52:45Z</time>
      </trkpt>
      <trkpt lat="46.85907" lon="5.80031">
        <ele>525</ele>
        <time>2021-05-09T11:52:50Z</time>
      </trkpt>
      <trkpt lat="46.85911" lon="5.80027">
        <ele>525.5</ele>
        <time>2021-05-09T11:52:54Z</time>
      </trkpt>
      <trkpt lat="46.85914" lon="5.8002">
        <ele>525.8</ele>
        <time>2021-05-09T11:53:01Z</time>
      </trkpt>
      <trkpt lat="46.85919" lon="5.80017">
        <ele>525.2</ele>
        <time>2021-05-09T11:53:07Z</time>
      </trkpt>
      <trkpt lat="46.85922" lon="5.80012">
        <ele>524.4</ele>
        <time>2021-05-09T11:53:12Z</time>
      </trkpt>
      <trkpt lat="46.85926" lon="5.80008">
        <ele>523.9</ele>
        <time>2021-05-09T11:53:16Z</time>
      </trkpt>
      <trkpt lat="46.85931" lon="5.80005">
        <ele>524.1</ele>
        <time>2021-05-09T11:53:20Z</time>
      </trkpt>
      <trkpt lat="46.85935" lon="5.80003">
        <ele>524.4</ele>
        <time>2021-05-09T11:53:24Z</time>
      </trkpt>
      <trkpt lat="46.8594" lon="5.79999">
        <ele>526.3</ele>
        <time>2021-05-09T11:53:28Z</time>
      </trkpt>
      <trkpt lat="46.85944" lon="5.79994">
        <ele>528.7</ele>
        <time>2021-05-09T11:53:33Z</time>
      </trkpt>
      <trkpt lat="46.85949" lon="5.79992">
        <ele>530.7</ele>
        <time>2021-05-09T11:53:38Z</time>
      </trkpt>
      <trkpt lat="46.85954" lon="5.79991">
        <ele>532.9</ele>
        <time>2021-05-09T11:53:46Z</time>
      </trkpt>
      <trkpt lat="46.85959" lon="5.79988">
        <ele>534.7</ele>
        <time>2021-05-09T11:53:54Z</time>
      </trkpt>
      <trkpt lat="46.85966" lon="5.79978">
        <ele>539.5</ele>
        <time>2021-05-09T11:53:58Z</time>
      </trkpt>
      <trkpt lat="46.85971" lon="5.79973">
        <ele>543.4</ele>
        <time>2021-05-09T11:54:02Z</time>
      </trkpt>
      <trkpt lat="46.85976" lon="5.79966">
        <ele>547.6</ele>
        <time>2021-05-09T11:54:06Z</time>
      </trkpt>
      <trkpt lat="46.85979" lon="5.79961">
        <ele>550.3</ele>
        <time>2021-05-09T11:54:11Z</time>
      </trkpt>
      <trkpt lat="46.85982" lon="5.79956">
        <ele>552.8</ele>
        <time>2021-05-09T11:54:21Z</time>
      </trkpt>
      <trkpt lat="46.85985" lon="5.79951">
        <ele>553.5</ele>
        <time>2021-05-09T11:54:29Z</time>
      </trkpt>
      <trkpt lat="46.85988" lon="5.79945">
        <ele>554.3</ele>
        <time>2021-05-09T11:54:36Z</time>
      </trkpt>
      <trkpt lat="46.85991" lon="5.7994">
        <ele>555.2</ele>
        <time>2021-05-09T11:54:43Z</time>
      </trkpt>
      <trkpt lat="46.85995" lon="5.79935">
        <ele>555.6</ele>
        <time>2021-05-09T11:54:49Z</time>
      </trkpt>
      <trkpt lat="46.86" lon="5.79932">
        <ele>555.7</ele>
        <time>2021-05-09T11:54:53Z</time>
      </trkpt>
      <trkpt lat="46.86007" lon="5.79927">
        <ele>555.7</ele>
        <time>2021-05-09T11:54:57Z</time>
      </trkpt>
      <trkpt lat="46.86013" lon="5.79924">
        <ele>555.9</ele>
        <time>2021-05-09T11:55:01Z</time>
      </trkpt>
      <trkpt lat="46.86017" lon="5.7992">
        <ele>556.3</ele>
        <time>2021-05-09T11:55:05Z</time>
      </trkpt>
      <trkpt lat="46.86023" lon="5.79919">
        <ele>556.8</ele>
        <time>2021-05-09T11:55:11Z</time>
      </trkpt>
      <trkpt lat="46.86027" lon="5.79916">
        <ele>557</ele>
        <time>2021-05-09T11:55:15Z</time>
      </trkpt>
      <trkpt lat="46.86032" lon="5.79915">
        <ele>556.8</ele>
        <time>2021-05-09T11:55:20Z</time>
      </trkpt>
      <trkpt lat="46.86036" lon="5.79913">
        <ele>556.3</ele>
        <time>2021-05-09T11:55:30Z</time>
      </trkpt>
      <trkpt lat="46.86041" lon="5.7991">
        <ele>556.3</ele>
        <time>2021-05-09T11:55:36Z</time>
      </trkpt>
      <trkpt lat="46.86046" lon="5.79906">
        <ele>556.4</ele>
        <time>2021-05-09T11:55:41Z</time>
      </trkpt>
      <trkpt lat="46.8605" lon="5.79903">
        <ele>556.3</ele>
        <time>2021-05-09T11:55:46Z</time>
      </trkpt>
      <trkpt lat="46.86055" lon="5.79902">
        <ele>556.1</ele>
        <time>2021-05-09T11:55:52Z</time>
      </trkpt>
      <trkpt lat="46.8606" lon="5.799">
        <ele>556</ele>
        <time>2021-05-09T11:55:57Z</time>
      </trkpt>
      <trkpt lat="46.86082" lon="5.79886">
        <ele>568</ele>
        <time>2021-05-09T11:56:01Z</time>
      </trkpt>
      <trkpt lat="46.86087" lon="5.79886">
        <ele>573.6</ele>
        <time>2021-05-09T11:56:05Z</time>
      </trkpt>
      <trkpt lat="46.86092" lon="5.79889">
        <ele>579.5</ele>
        <time>2021-05-09T11:56:13Z</time>
      </trkpt>
      <trkpt lat="46.86097" lon="5.79891">
        <ele>581.1</ele>
        <time>2021-05-09T11:56:18Z</time>
      </trkpt>
      <trkpt lat="46.86102" lon="5.79892">
        <ele>581.8</ele>
        <time>2021-05-09T11:56:23Z</time>
      </trkpt>
      <trkpt lat="46.86106" lon="5.79895">
        <ele>582.5</ele>
        <time>2021-05-09T11:56:28Z</time>
      </trkpt>
      <trkpt lat="46.86108" lon="5.79901">
        <ele>582.9</ele>
        <time>2021-05-09T11:56:35Z</time>
      </trkpt>
      <trkpt lat="46.86113" lon="5.79902">
        <ele>578.6</ele>
        <time>2021-05-09T11:56:40Z</time>
      </trkpt>
      <trkpt lat="46.86117" lon="5.79904">
        <ele>576.9</ele>
        <time>2021-05-09T11:56:46Z</time>
      </trkpt>
      <trkpt lat="46.86122" lon="5.79908">
        <ele>576.7</ele>
        <time>2021-05-09T11:56:51Z</time>
      </trkpt>
      <trkpt lat="46.86126" lon="5.79911">
        <ele>576.7</ele>
        <time>2021-05-09T11:56:55Z</time>
      </trkpt>
      <trkpt lat="46.86129" lon="5.79916">
        <ele>576.3</ele>
        <time>2021-05-09T11:57:01Z</time>
      </trkpt>
      <trkpt lat="46.86131" lon="5.79923">
        <ele>574.2</ele>
        <time>2021-05-09T11:57:12Z</time>
      </trkpt>
      <trkpt lat="46.86135" lon="5.79928">
        <ele>572.9</ele>
        <time>2021-05-09T11:57:19Z</time>
      </trkpt>
      <trkpt lat="46.86138" lon="5.79933">
        <ele>572.4</ele>
        <time>2021-05-09T11:57:24Z</time>
      </trkpt>
      <trkpt lat="46.86143" lon="5.79936">
        <ele>572.3</ele>
        <time>2021-05-09T11:57:30Z</time>
      </trkpt>
      <trkpt lat="46.86148" lon="5.7994">
        <ele>571.7</ele>
        <time>2021-05-09T11:57:35Z</time>
      </trkpt>
      <trkpt lat="46.86152" lon="5.79944">
        <ele>570.7</ele>
        <time>2021-05-09T11:57:39Z</time>
      </trkpt>
      <trkpt lat="46.86156" lon="5.79949">
        <ele>569.6</ele>
        <time>2021-05-09T11:57:43Z</time>
      </trkpt>
      <trkpt lat="46.8616" lon="5.79951">
        <ele>568</ele>
        <time>2021-05-09T11:57:47Z</time>
      </trkpt>
      <trkpt lat="46.86165" lon="5.79955">
        <ele>566.2</ele>
        <time>2021-05-09T11:57:52Z</time>
      </trkpt>
      <trkpt lat="46.8617" lon="5.79957">
        <ele>564.6</ele>
        <time>2021-05-09T11:57:57Z</time>
      </trkpt>
      <trkpt lat="46.86174" lon="5.7996">
        <ele>563.3</ele>
        <time>2021-05-09T11:58:03Z</time>
      </trkpt>
      <trkpt lat="46.86179" lon="5.79962">
        <ele>562.7</ele>
        <time>2021-05-09T11:58:09Z</time>
      </trkpt>
      <trkpt lat="46.86183" lon="5.79966">
        <ele>562.4</ele>
        <time>2021-05-09T11:58:16Z</time>
      </trkpt>
      <trkpt lat="46.86188" lon="5.7997">
        <ele>561.7</ele>
        <time>2021-05-09T11:58:22Z</time>
      </trkpt>
      <trkpt lat="46.8619" lon="5.79976">
        <ele>561</ele>
        <time>2021-05-09T11:58:29Z</time>
      </trkpt>
      <trkpt lat="46.86203" lon="5.79979">
        <ele>562.1</ele>
        <time>2021-05-09T11:58:33Z</time>
      </trkpt>
      <trkpt lat="46.86211" lon="5.7998">
        <ele>562.9</ele>
        <time>2021-05-09T11:58:37Z</time>
      </trkpt>
      <trkpt lat="46.86216" lon="5.79981">
        <ele>563.5</ele>
        <time>2021-05-09T11:58:52Z</time>
      </trkpt>
      <trkpt lat="46.86221" lon="5.7998">
        <ele>563.6</ele>
        <time>2021-05-09T11:58:56Z</time>
      </trkpt>
      <trkpt lat="46.86225" lon="5.79982">
        <ele>564.4</ele>
        <time>2021-05-09T11:59:00Z</time>
      </trkpt>
      <trkpt lat="46.86229" lon="5.79986">
        <ele>565</ele>
        <time>2021-05-09T11:59:06Z</time>
      </trkpt>
      <trkpt lat="46.86234" lon="5.79987">
        <ele>565.7</ele>
        <time>2021-05-09T11:59:12Z</time>
      </trkpt>
      <trkpt lat="46.86238" lon="5.79989">
        <ele>566.2</ele>
        <time>2021-05-09T11:59:18Z</time>
      </trkpt>
      <trkpt lat="46.86244" lon="5.79992">
        <ele>565.8</ele>
        <time>2021-05-09T11:59:22Z</time>
      </trkpt>
      <trkpt lat="46.86249" lon="5.79993">
        <ele>565.6</ele>
        <time>2021-05-09T11:59:28Z</time>
      </trkpt>
      <trkpt lat="46.86254" lon="5.79994">
        <ele>566.9</ele>
        <time>2021-05-09T11:59:37Z</time>
      </trkpt>
      <trkpt lat="46.86258" lon="5.79995">
        <ele>569.9</ele>
        <time>2021-05-09T11:59:45Z</time>
      </trkpt>
      <trkpt lat="46.8627" lon="5.79989">
        <ele>572.7</ele>
        <time>2021-05-09T11:59:50Z</time>
      </trkpt>
      <trkpt lat="46.86279" lon="5.79983">
        <ele>575</ele>
        <time>2021-05-09T11:59:54Z</time>
      </trkpt>
      <trkpt lat="46.86284" lon="5.79983">
        <ele>577.6</ele>
        <time>2021-05-09T12:00:02Z</time>
      </trkpt>
      <trkpt lat="46.86288" lon="5.79986">
        <ele>579.1</ele>
        <time>2021-05-09T12:00:11Z</time>
      </trkpt>
      <trkpt lat="46.86292" lon="5.79991">
        <ele>580.3</ele>
        <time>2021-05-09T12:00:18Z</time>
      </trkpt>
      <trkpt lat="46.86296" lon="5.7999">
        <ele>580.8</ele>
        <time>2021-05-09T12:00:26Z</time>
      </trkpt>
      <trkpt lat="46.86302" lon="5.79988">
        <ele>580.6</ele>
        <time>2021-05-09T12:00:31Z</time>
      </trkpt>
      <trkpt lat="46.86307" lon="5.79989">
        <ele>579.9</ele>
        <time>2021-05-09T12:00:35Z</time>
      </trkpt>
      <trkpt lat="46.86312" lon="5.79989">
        <ele>579.1</ele>
        <time>2021-05-09T12:00:40Z</time>
      </trkpt>
      <trkpt lat="46.86319" lon="5.79985">
        <ele>576.9</ele>
        <time>2021-05-09T12:00:44Z</time>
      </trkpt>
      <trkpt lat="46.86324" lon="5.79983">
        <ele>574.8</ele>
        <time>2021-05-09T12:00:48Z</time>
      </trkpt>
      <trkpt lat="46.86329" lon="5.79982">
        <ele>572.9</ele>
        <time>2021-05-09T12:00:54Z</time>
      </trkpt>
      <trkpt lat="46.86333" lon="5.79982">
        <ele>572.6</ele>
        <time>2021-05-09T12:00:58Z</time>
      </trkpt>
      <trkpt lat="46.86338" lon="5.79983">
        <ele>571.5</ele>
        <time>2021-05-09T12:01:05Z</time>
      </trkpt>
      <trkpt lat="46.86342" lon="5.79977">
        <ele>570.5</ele>
        <time>2021-05-09T12:01:16Z</time>
      </trkpt>
      <trkpt lat="46.86345" lon="5.79971">
        <ele>569.8</ele>
        <time>2021-05-09T12:01:20Z</time>
      </trkpt>
      <trkpt lat="46.86349" lon="5.79968">
        <ele>567.9</ele>
        <time>2021-05-09T12:01:25Z</time>
      </trkpt>
      <trkpt lat="46.86354" lon="5.7997">
        <ele>565.6</ele>
        <time>2021-05-09T12:01:31Z</time>
      </trkpt>
      <trkpt lat="46.86359" lon="5.79971">
        <ele>563.6</ele>
        <time>2021-05-09T12:01:37Z</time>
      </trkpt>
      <trkpt lat="46.86363" lon="5.79969">
        <ele>561</ele>
        <time>2021-05-09T12:01:45Z</time>
      </trkpt>
      <trkpt lat="46.86368" lon="5.79968">
        <ele>559.9</ele>
        <time>2021-05-09T12:01:52Z</time>
      </trkpt>
      <trkpt lat="46.86372" lon="5.79964">
        <ele>558.9</ele>
        <time>2021-05-09T12:01:56Z</time>
      </trkpt>
      <trkpt lat="46.86377" lon="5.79959">
        <ele>558.3</ele>
        <time>2021-05-09T12:02:00Z</time>
      </trkpt>
      <trkpt lat="46.86381" lon="5.79955">
        <ele>558.3</ele>
        <time>2021-05-09T12:02:04Z</time>
      </trkpt>
      <trkpt lat="46.86385" lon="5.79949">
        <ele>558.3</ele>
        <time>2021-05-09T12:02:09Z</time>
      </trkpt>
      <trkpt lat="46.86389" lon="5.79945">
        <ele>558.5</ele>
        <time>2021-05-09T12:02:13Z</time>
      </trkpt>
      <trkpt lat="46.86393" lon="5.79932">
        <ele>562.3</ele>
        <time>2021-05-09T12:02:19Z</time>
      </trkpt>
      <trkpt lat="46.86395" lon="5.79921">
        <ele>566</ele>
        <time>2021-05-09T12:02:23Z</time>
      </trkpt>
      <trkpt lat="46.86399" lon="5.79916">
        <ele>568.9</ele>
        <time>2021-05-09T12:02:30Z</time>
      </trkpt>
      <trkpt lat="46.86403" lon="5.79911">
        <ele>569.3</ele>
        <time>2021-05-09T12:02:34Z</time>
      </trkpt>
      <trkpt lat="46.86406" lon="5.79907">
        <ele>569.6</ele>
        <time>2021-05-09T12:02:40Z</time>
      </trkpt>
      <trkpt lat="46.86408" lon="5.799">
        <ele>570</ele>
        <time>2021-05-09T12:02:47Z</time>
      </trkpt>
      <trkpt lat="46.86412" lon="5.79897">
        <ele>570.2</ele>
        <time>2021-05-09T12:02:55Z</time>
      </trkpt>
      <trkpt lat="46.86417" lon="5.79897">
        <ele>570.5</ele>
        <time>2021-05-09T12:03:01Z</time>
      </trkpt>
      <trkpt lat="46.86426" lon="5.79895">
        <ele>569.4</ele>
        <time>2021-05-09T12:03:07Z</time>
      </trkpt>
      <trkpt lat="46.86434" lon="5.79892">
        <ele>568</ele>
        <time>2021-05-09T12:03:11Z</time>
      </trkpt>
      <trkpt lat="46.86439" lon="5.7989">
        <ele>566.8</ele>
        <time>2021-05-09T12:03:16Z</time>
      </trkpt>
      <trkpt lat="46.86444" lon="5.79891">
        <ele>566.2</ele>
        <time>2021-05-09T12:03:21Z</time>
      </trkpt>
      <trkpt lat="46.86448" lon="5.79894">
        <ele>565.9</ele>
        <time>2021-05-09T12:03:27Z</time>
      </trkpt>
      <trkpt lat="46.86453" lon="5.79896">
        <ele>565.8</ele>
        <time>2021-05-09T12:03:35Z</time>
      </trkpt>
      <trkpt lat="46.86457" lon="5.79901">
        <ele>565.8</ele>
        <time>2021-05-09T12:03:42Z</time>
      </trkpt>
      <trkpt lat="46.86461" lon="5.79904">
        <ele>565.4</ele>
        <time>2021-05-09T12:03:49Z</time>
      </trkpt>
      <trkpt lat="46.86468" lon="5.79904">
        <ele>564.5</ele>
        <time>2021-05-09T12:04:02Z</time>
      </trkpt>
      <trkpt lat="46.86475" lon="5.79901">
        <ele>564</ele>
        <time>2021-05-09T12:04:06Z</time>
      </trkpt>
      <trkpt lat="46.8648" lon="5.79899">
        <ele>563.7</ele>
        <time>2021-05-09T12:04:10Z</time>
      </trkpt>
      <trkpt lat="46.86485" lon="5.79901">
        <ele>563.3</ele>
        <time>2021-05-09T12:04:16Z</time>
      </trkpt>
      <trkpt lat="46.8649" lon="5.79901">
        <ele>562.7</ele>
        <time>2021-05-09T12:04:21Z</time>
      </trkpt>
      <trkpt lat="46.86495" lon="5.79899">
        <ele>561.9</ele>
        <time>2021-05-09T12:04:25Z</time>
      </trkpt>
      <trkpt lat="46.86499" lon="5.79896">
        <ele>560.9</ele>
        <time>2021-05-09T12:04:29Z</time>
      </trkpt>
      <trkpt lat="46.86504" lon="5.79892">
        <ele>559.4</ele>
        <time>2021-05-09T12:04:34Z</time>
      </trkpt>
      <trkpt lat="46.86509" lon="5.79889">
        <ele>557.8</ele>
        <time>2021-05-09T12:04:39Z</time>
      </trkpt>
      <trkpt lat="46.86514" lon="5.79888">
        <ele>556.4</ele>
        <time>2021-05-09T12:04:44Z</time>
      </trkpt>
      <trkpt lat="46.86518" lon="5.79883">
        <ele>554.6</ele>
        <time>2021-05-09T12:04:49Z</time>
      </trkpt>
      <trkpt lat="46.86522" lon="5.79878">
        <ele>552.5</ele>
        <time>2021-05-09T12:04:54Z</time>
      </trkpt>
      <trkpt lat="46.86526" lon="5.79873">
        <ele>550.7</ele>
        <time>2021-05-09T12:04:59Z</time>
      </trkpt>
      <trkpt lat="46.8653" lon="5.79869">
        <ele>548.8</ele>
        <time>2021-05-09T12:05:05Z</time>
      </trkpt>
      <trkpt lat="46.86533" lon="5.79865">
        <ele>545.9</ele>
        <time>2021-05-09T12:05:18Z</time>
      </trkpt>
      <trkpt lat="46.86538" lon="5.79862">
        <ele>544.8</ele>
        <time>2021-05-09T12:05:25Z</time>
      </trkpt>
      <trkpt lat="46.86542" lon="5.79859">
        <ele>543.1</ele>
        <time>2021-05-09T12:05:31Z</time>
      </trkpt>
      <trkpt lat="46.86548" lon="5.79857">
        <ele>542.4</ele>
        <time>2021-05-09T12:05:35Z</time>
      </trkpt>
      <trkpt lat="46.86554" lon="5.79853">
        <ele>541.6</ele>
        <time>2021-05-09T12:05:39Z</time>
      </trkpt>
      <trkpt lat="46.86558" lon="5.79852">
        <ele>540.3</ele>
        <time>2021-05-09T12:05:48Z</time>
      </trkpt>
      <trkpt lat="46.86561" lon="5.79847">
        <ele>538.3</ele>
        <time>2021-05-09T12:06:24Z</time>
      </trkpt>
      <trkpt lat="46.86565" lon="5.7984">
        <ele>537.2</ele>
        <time>2021-05-09T12:06:28Z</time>
      </trkpt>
      <trkpt lat="46.86567" lon="5.79833">
        <ele>536</ele>
        <time>2021-05-09T12:06:34Z</time>
      </trkpt>
      <trkpt lat="46.86569" lon="5.79826">
        <ele>535.5</ele>
        <time>2021-05-09T12:06:41Z</time>
      </trkpt>
      <trkpt lat="46.86573" lon="5.7982">
        <ele>535.2</ele>
        <time>2021-05-09T12:06:46Z</time>
      </trkpt>
      <trkpt lat="46.86577" lon="5.79815">
        <ele>534.8</ele>
        <time>2021-05-09T12:06:51Z</time>
      </trkpt>
      <trkpt lat="46.8658" lon="5.79809">
        <ele>533.8</ele>
        <time>2021-05-09T12:06:57Z</time>
      </trkpt>
      <trkpt lat="46.86584" lon="5.79806">
        <ele>533</ele>
        <time>2021-05-09T12:07:04Z</time>
      </trkpt>
      <trkpt lat="46.86588" lon="5.79799">
        <ele>532.2</ele>
        <time>2021-05-09T12:07:09Z</time>
      </trkpt>
      <trkpt lat="46.86591" lon="5.79794">
        <ele>531.7</ele>
        <time>2021-05-09T12:07:13Z</time>
      </trkpt>
      <trkpt lat="46.86596" lon="5.79791">
        <ele>531</ele>
        <time>2021-05-09T12:07:19Z</time>
      </trkpt>
      <trkpt lat="46.866" lon="5.79789">
        <ele>532.2</ele>
        <time>2021-05-09T12:07:26Z</time>
      </trkpt>
      <trkpt lat="46.86605" lon="5.79787">
        <ele>533</ele>
        <time>2021-05-09T12:07:30Z</time>
      </trkpt>
      <trkpt lat="46.86609" lon="5.79786">
        <ele>534.3</ele>
        <time>2021-05-09T12:07:35Z</time>
      </trkpt>
      <trkpt lat="46.86612" lon="5.79781">
        <ele>536</ele>
        <time>2021-05-09T12:07:42Z</time>
      </trkpt>
      <trkpt lat="46.86615" lon="5.79775">
        <ele>537.9</ele>
        <time>2021-05-09T12:07:50Z</time>
      </trkpt>
      <trkpt lat="46.86619" lon="5.79771">
        <ele>538.7</ele>
        <time>2021-05-09T12:07:59Z</time>
      </trkpt>
      <trkpt lat="46.86623" lon="5.79766">
        <ele>538.8</ele>
        <time>2021-05-09T12:08:04Z</time>
      </trkpt>
      <trkpt lat="46.86627" lon="5.7976">
        <ele>538.7</ele>
        <time>2021-05-09T12:08:10Z</time>
      </trkpt>
      <trkpt lat="46.86631" lon="5.79758">
        <ele>538.9</ele>
        <time>2021-05-09T12:08:17Z</time>
      </trkpt>
      <trkpt lat="46.86636" lon="5.79756">
        <ele>539.6</ele>
        <time>2021-05-09T12:08:22Z</time>
      </trkpt>
      <trkpt lat="46.86641" lon="5.79754">
        <ele>540.2</ele>
        <time>2021-05-09T12:08:26Z</time>
      </trkpt>
      <trkpt lat="46.86645" lon="5.79752">
        <ele>540.7</ele>
        <time>2021-05-09T12:08:30Z</time>
      </trkpt>
      <trkpt lat="46.8665" lon="5.7975">
        <ele>541</ele>
        <time>2021-05-09T12:08:34Z</time>
      </trkpt>
      <trkpt lat="46.86655" lon="5.79748">
        <ele>541.1</ele>
        <time>2021-05-09T12:08:38Z</time>
      </trkpt>
      <trkpt lat="46.8666" lon="5.79745">
        <ele>540.9</ele>
        <time>2021-05-09T12:08:43Z</time>
      </trkpt>
      <trkpt lat="46.86665" lon="5.79742">
        <ele>540.8</ele>
        <time>2021-05-09T12:08:47Z</time>
      </trkpt>
      <trkpt lat="46.86672" lon="5.79737">
        <ele>540.6</ele>
        <time>2021-05-09T12:08:51Z</time>
      </trkpt>
      <trkpt lat="46.86676" lon="5.79731">
        <ele>540.4</ele>
        <time>2021-05-09T12:08:55Z</time>
      </trkpt>
      <trkpt lat="46.86678" lon="5.79726">
        <ele>540.6</ele>
        <time>2021-05-09T12:08:59Z</time>
      </trkpt>
      <trkpt lat="46.86682" lon="5.79721">
        <ele>541.2</ele>
        <time>2021-05-09T12:09:03Z</time>
      </trkpt>
      <trkpt lat="46.86686" lon="5.79717">
        <ele>541.9</ele>
        <time>2021-05-09T12:09:10Z</time>
      </trkpt>
      <trkpt lat="46.86691" lon="5.79715">
        <ele>541.8</ele>
        <time>2021-05-09T12:09:16Z</time>
      </trkpt>
      <trkpt lat="46.86696" lon="5.79711">
        <ele>541.3</ele>
        <time>2021-05-09T12:09:22Z</time>
      </trkpt>
      <trkpt lat="46.867" lon="5.79706">
        <ele>540.9</ele>
        <time>2021-05-09T12:09:26Z</time>
      </trkpt>
      <trkpt lat="46.86703" lon="5.797">
        <ele>540.8</ele>
        <time>2021-05-09T12:09:31Z</time>
      </trkpt>
      <trkpt lat="46.86707" lon="5.79697">
        <ele>540.7</ele>
        <time>2021-05-09T12:09:36Z</time>
      </trkpt>
      <trkpt lat="46.86712" lon="5.79694">
        <ele>540.5</ele>
        <time>2021-05-09T12:09:41Z</time>
      </trkpt>
      <trkpt lat="46.86716" lon="5.79692">
        <ele>540.1</ele>
        <time>2021-05-09T12:09:46Z</time>
      </trkpt>
      <trkpt lat="46.86722" lon="5.79691">
        <ele>539.1</ele>
        <time>2021-05-09T12:09:50Z</time>
      </trkpt>
      <trkpt lat="46.86728" lon="5.79685">
        <ele>538.8</ele>
        <time>2021-05-09T12:09:54Z</time>
      </trkpt>
      <trkpt lat="46.86732" lon="5.79682">
        <ele>539.3</ele>
        <time>2021-05-09T12:10:00Z</time>
      </trkpt>
      <trkpt lat="46.86742" lon="5.79679">
        <ele>540</ele>
        <time>2021-05-09T12:10:08Z</time>
      </trkpt>
      <trkpt lat="46.86753" lon="5.79673">
        <ele>540</ele>
        <time>2021-05-09T12:10:12Z</time>
      </trkpt>
      <trkpt lat="46.86758" lon="5.79671">
        <ele>540.4</ele>
        <time>2021-05-09T12:10:17Z</time>
      </trkpt>
      <trkpt lat="46.86761" lon="5.79666">
        <ele>541</ele>
        <time>2021-05-09T12:10:22Z</time>
      </trkpt>
      <trkpt lat="46.86764" lon="5.79657">
        <ele>546.6</ele>
        <time>2021-05-09T12:10:26Z</time>
      </trkpt>
      <trkpt lat="46.86768" lon="5.79652">
        <ele>550.4</ele>
        <time>2021-05-09T12:10:31Z</time>
      </trkpt>
      <trkpt lat="46.86771" lon="5.79647">
        <ele>554.8</ele>
        <time>2021-05-09T12:10:40Z</time>
      </trkpt>
      <trkpt lat="46.86776" lon="5.79643">
        <ele>556.4</ele>
        <time>2021-05-09T12:10:44Z</time>
      </trkpt>
      <trkpt lat="46.8678" lon="5.79637">
        <ele>557.6</ele>
        <time>2021-05-09T12:10:48Z</time>
      </trkpt>
      <trkpt lat="46.86784" lon="5.79633">
        <ele>558.8</ele>
        <time>2021-05-09T12:10:52Z</time>
      </trkpt>
      <trkpt lat="46.86789" lon="5.79632">
        <ele>560.5</ele>
        <time>2021-05-09T12:10:58Z</time>
      </trkpt>
      <trkpt lat="46.86793" lon="5.79632">
        <ele>562.1</ele>
        <time>2021-05-09T12:11:05Z</time>
      </trkpt>
      <trkpt lat="46.86798" lon="5.79631">
        <ele>563.6</ele>
        <time>2021-05-09T12:11:12Z</time>
      </trkpt>
      <trkpt lat="46.86802" lon="5.79629">
        <ele>564.1</ele>
        <time>2021-05-09T12:11:18Z</time>
      </trkpt>
      <trkpt lat="46.86807" lon="5.79627">
        <ele>564.5</ele>
        <time>2021-05-09T12:11:23Z</time>
      </trkpt>
      <trkpt lat="46.86811" lon="5.79626">
        <ele>565.3</ele>
        <time>2021-05-09T12:11:30Z</time>
      </trkpt>
      <trkpt lat="46.86816" lon="5.79622">
        <ele>565.9</ele>
        <time>2021-05-09T12:11:37Z</time>
      </trkpt>
      <trkpt lat="46.86823" lon="5.79616">
        <ele>565</ele>
        <time>2021-05-09T12:11:48Z</time>
      </trkpt>
      <trkpt lat="46.86827" lon="5.79611">
        <ele>563.8</ele>
        <time>2021-05-09T12:11:52Z</time>
      </trkpt>
      <trkpt lat="46.86831" lon="5.79607">
        <ele>562.7</ele>
        <time>2021-05-09T12:11:56Z</time>
      </trkpt>
      <trkpt lat="46.86835" lon="5.79604">
        <ele>561.6</ele>
        <time>2021-05-09T12:12:00Z</time>
      </trkpt>
      <trkpt lat="46.8684" lon="5.79602">
        <ele>560.7</ele>
        <time>2021-05-09T12:12:05Z</time>
      </trkpt>
      <trkpt lat="46.86844" lon="5.79599">
        <ele>560.1</ele>
        <time>2021-05-09T12:12:10Z</time>
      </trkpt>
      <trkpt lat="46.8685" lon="5.79594">
        <ele>559.9</ele>
        <time>2021-05-09T12:12:14Z</time>
      </trkpt>
      <trkpt lat="46.86854" lon="5.7959">
        <ele>559.4</ele>
        <time>2021-05-09T12:12:19Z</time>
      </trkpt>
      <trkpt lat="46.86858" lon="5.79587">
        <ele>559</ele>
        <time>2021-05-09T12:12:24Z</time>
      </trkpt>
      <trkpt lat="46.86863" lon="5.79583">
        <ele>557.9</ele>
        <time>2021-05-09T12:12:31Z</time>
      </trkpt>
      <trkpt lat="46.86868" lon="5.79578">
        <ele>556.9</ele>
        <time>2021-05-09T12:12:35Z</time>
      </trkpt>
      <trkpt lat="46.86873" lon="5.79573">
        <ele>555.9</ele>
        <time>2021-05-09T12:12:39Z</time>
      </trkpt>
      <trkpt lat="46.86877" lon="5.7957">
        <ele>554.9</ele>
        <time>2021-05-09T12:12:44Z</time>
      </trkpt>
      <trkpt lat="46.86882" lon="5.79567">
        <ele>553.4</ele>
        <time>2021-05-09T12:12:50Z</time>
      </trkpt>
      <trkpt lat="46.86887" lon="5.79565">
        <ele>552</ele>
        <time>2021-05-09T12:12:55Z</time>
      </trkpt>
      <trkpt lat="46.86892" lon="5.79563">
        <ele>550.8</ele>
        <time>2021-05-09T12:13:00Z</time>
      </trkpt>
      <trkpt lat="46.86897" lon="5.79562">
        <ele>549.6</ele>
        <time>2021-05-09T12:13:05Z</time>
      </trkpt>
      <trkpt lat="46.86902" lon="5.7956">
        <ele>548.4</ele>
        <time>2021-05-09T12:13:10Z</time>
      </trkpt>
      <trkpt lat="46.86906" lon="5.79556">
        <ele>546.8</ele>
        <time>2021-05-09T12:13:17Z</time>
      </trkpt>
      <trkpt lat="46.8691" lon="5.79554">
        <ele>545.9</ele>
        <time>2021-05-09T12:13:24Z</time>
      </trkpt>
      <trkpt lat="46.86916" lon="5.79551">
        <ele>545.2</ele>
        <time>2021-05-09T12:13:29Z</time>
      </trkpt>
      <trkpt lat="46.86924" lon="5.79544">
        <ele>544.4</ele>
        <time>2021-05-09T12:13:33Z</time>
      </trkpt>
      <trkpt lat="46.86929" lon="5.79542">
        <ele>543.6</ele>
        <time>2021-05-09T12:13:37Z</time>
      </trkpt>
      <trkpt lat="46.86934" lon="5.7954">
        <ele>542.7</ele>
        <time>2021-05-09T12:13:41Z</time>
      </trkpt>
      <trkpt lat="46.86939" lon="5.79538">
        <ele>541.7</ele>
        <time>2021-05-09T12:13:46Z</time>
      </trkpt>
      <trkpt lat="46.86943" lon="5.79534">
        <ele>540.6</ele>
        <time>2021-05-09T12:13:52Z</time>
      </trkpt>
      <trkpt lat="46.86947" lon="5.7953">
        <ele>539.6</ele>
        <time>2021-05-09T12:13:57Z</time>
      </trkpt>
      <trkpt lat="46.86952" lon="5.79527">
        <ele>538.8</ele>
        <time>2021-05-09T12:14:02Z</time>
      </trkpt>
      <trkpt lat="46.86956" lon="5.79524">
        <ele>538.6</ele>
        <time>2021-05-09T12:14:08Z</time>
      </trkpt>
      <trkpt lat="46.8696" lon="5.7952">
        <ele>538.9</ele>
        <time>2021-05-09T12:14:18Z</time>
      </trkpt>
      <trkpt lat="46.86965" lon="5.79518">
        <ele>539.1</ele>
        <time>2021-05-09T12:14:23Z</time>
      </trkpt>
      <trkpt lat="46.8697" lon="5.79515">
        <ele>539.2</ele>
        <time>2021-05-09T12:14:27Z</time>
      </trkpt>
      <trkpt lat="46.86974" lon="5.79514">
        <ele>539.4</ele>
        <time>2021-05-09T12:14:32Z</time>
      </trkpt>
      <trkpt lat="46.86979" lon="5.79515">
        <ele>539.6</ele>
        <time>2021-05-09T12:14:38Z</time>
      </trkpt>
      <trkpt lat="46.86984" lon="5.79513">
        <ele>539.9</ele>
        <time>2021-05-09T12:14:42Z</time>
      </trkpt>
      <trkpt lat="46.86989" lon="5.7951">
        <ele>539.8</ele>
        <time>2021-05-09T12:14:47Z</time>
      </trkpt>
      <trkpt lat="46.86996" lon="5.79507">
        <ele>539.5</ele>
        <time>2021-05-09T12:14:57Z</time>
      </trkpt>
      <trkpt lat="46.87002" lon="5.79506">
        <ele>539.6</ele>
        <time>2021-05-09T12:15:01Z</time>
      </trkpt>
      <trkpt lat="46.87006" lon="5.79502">
        <ele>539.9</ele>
        <time>2021-05-09T12:15:05Z</time>
      </trkpt>
      <trkpt lat="46.87011" lon="5.79497">
        <ele>540.1</ele>
        <time>2021-05-09T12:15:09Z</time>
      </trkpt>
      <trkpt lat="46.87015" lon="5.79492">
        <ele>539.9</ele>
        <time>2021-05-09T12:15:13Z</time>
      </trkpt>
      <trkpt lat="46.87019" lon="5.79487">
        <ele>539.7</ele>
        <time>2021-05-09T12:15:17Z</time>
      </trkpt>
      <trkpt lat="46.87025" lon="5.79482">
        <ele>540.8</ele>
        <time>2021-05-09T12:15:22Z</time>
      </trkpt>
      <trkpt lat="46.87029" lon="5.79477">
        <ele>541.9</ele>
        <time>2021-05-09T12:15:26Z</time>
      </trkpt>
      <trkpt lat="46.87032" lon="5.79472">
        <ele>543.3</ele>
        <time>2021-05-09T12:15:30Z</time>
      </trkpt>
      <trkpt lat="46.87034" lon="5.79466">
        <ele>544.9</ele>
        <time>2021-05-09T12:15:35Z</time>
      </trkpt>
      <trkpt lat="46.87037" lon="5.79461">
        <ele>546.1</ele>
        <time>2021-05-09T12:15:40Z</time>
      </trkpt>
      <trkpt lat="46.87042" lon="5.79459">
        <ele>546.8</ele>
        <time>2021-05-09T12:15:45Z</time>
      </trkpt>
      <trkpt lat="46.87046" lon="5.79455">
        <ele>547.3</ele>
        <time>2021-05-09T12:15:50Z</time>
      </trkpt>
      <trkpt lat="46.8705" lon="5.79451">
        <ele>547.1</ele>
        <time>2021-05-09T12:15:54Z</time>
      </trkpt>
      <trkpt lat="46.87054" lon="5.79447">
        <ele>546</ele>
        <time>2021-05-09T12:15:58Z</time>
      </trkpt>
      <trkpt lat="46.87059" lon="5.79444">
        <ele>544.7</ele>
        <time>2021-05-09T12:16:02Z</time>
      </trkpt>
      <trkpt lat="46.87064" lon="5.79442">
        <ele>543.9</ele>
        <time>2021-05-09T12:16:06Z</time>
      </trkpt>
      <trkpt lat="46.87069" lon="5.7944">
        <ele>544.3</ele>
        <time>2021-05-09T12:16:11Z</time>
      </trkpt>
      <trkpt lat="46.87073" lon="5.79438">
        <ele>545.4</ele>
        <time>2021-05-09T12:16:17Z</time>
      </trkpt>
      <trkpt lat="46.87078" lon="5.79436">
        <ele>545.6</ele>
        <time>2021-05-09T12:16:21Z</time>
      </trkpt>
      <trkpt lat="46.87083" lon="5.79433">
        <ele>545.5</ele>
        <time>2021-05-09T12:16:25Z</time>
      </trkpt>
      <trkpt lat="46.87088" lon="5.79431">
        <ele>545.6</ele>
        <time>2021-05-09T12:16:29Z</time>
      </trkpt>
      <trkpt lat="46.87093" lon="5.79432">
        <ele>546.4</ele>
        <time>2021-05-09T12:16:52Z</time>
      </trkpt>
      <trkpt lat="46.87096" lon="5.79427">
        <ele>548.2</ele>
        <time>2021-05-09T12:17:00Z</time>
      </trkpt>
      <trkpt lat="46.87098" lon="5.7942">
        <ele>549</ele>
        <time>2021-05-09T12:17:08Z</time>
      </trkpt>
      <trkpt lat="46.871" lon="5.79414">
        <ele>549.3</ele>
        <time>2021-05-09T12:17:12Z</time>
      </trkpt>
      <trkpt lat="46.871" lon="5.79403">
        <ele>549.3</ele>
        <time>2021-05-09T12:17:16Z</time>
      </trkpt>
      <trkpt lat="46.87104" lon="5.79398">
        <ele>550.1</ele>
        <time>2021-05-09T12:17:25Z</time>
      </trkpt>
      <trkpt lat="46.87107" lon="5.79393">
        <ele>551.7</ele>
        <time>2021-05-09T12:17:30Z</time>
      </trkpt>
      <trkpt lat="46.87108" lon="5.79386">
        <ele>554</ele>
        <time>2021-05-09T12:17:36Z</time>
      </trkpt>
      <trkpt lat="46.87108" lon="5.79378">
        <ele>555</ele>
        <time>2021-05-09T12:17:41Z</time>
      </trkpt>
      <trkpt lat="46.87108" lon="5.7937">
        <ele>555.5</ele>
        <time>2021-05-09T12:17:46Z</time>
      </trkpt>
      <trkpt lat="46.87108" lon="5.79363">
        <ele>555.4</ele>
        <time>2021-05-09T12:17:51Z</time>
      </trkpt>
      <trkpt lat="46.8711" lon="5.79357">
        <ele>555.1</ele>
        <time>2021-05-09T12:17:55Z</time>
      </trkpt>
      <trkpt lat="46.87111" lon="5.79351">
        <ele>555</ele>
        <time>2021-05-09T12:17:59Z</time>
      </trkpt>
      <trkpt lat="46.87112" lon="5.79344">
        <ele>554.9</ele>
        <time>2021-05-09T12:18:03Z</time>
      </trkpt>
      <trkpt lat="46.87113" lon="5.79338">
        <ele>555.4</ele>
        <time>2021-05-09T12:18:07Z</time>
      </trkpt>
      <trkpt lat="46.87114" lon="5.79331">
        <ele>556.6</ele>
        <time>2021-05-09T12:18:13Z</time>
      </trkpt>
      <trkpt lat="46.87115" lon="5.79324">
        <ele>558.2</ele>
        <time>2021-05-09T12:18:26Z</time>
      </trkpt>
      <trkpt lat="46.87114" lon="5.79317">
        <ele>558.2</ele>
        <time>2021-05-09T12:18:32Z</time>
      </trkpt>
      <trkpt lat="46.87111" lon="5.79311">
        <ele>557.8</ele>
        <time>2021-05-09T12:18:37Z</time>
      </trkpt>
      <trkpt lat="46.87107" lon="5.79305">
        <ele>557.5</ele>
        <time>2021-05-09T12:18:41Z</time>
      </trkpt>
      <trkpt lat="46.87103" lon="5.79301">
        <ele>556.8</ele>
        <time>2021-05-09T12:18:45Z</time>
      </trkpt>
      <trkpt lat="46.87099" lon="5.79297">
        <ele>555.8</ele>
        <time>2021-05-09T12:18:49Z</time>
      </trkpt>
      <trkpt lat="46.87095" lon="5.79293">
        <ele>554.1</ele>
        <time>2021-05-09T12:18:54Z</time>
      </trkpt>
      <trkpt lat="46.8709" lon="5.79289">
        <ele>552.7</ele>
        <time>2021-05-09T12:18:58Z</time>
      </trkpt>
      <trkpt lat="46.87086" lon="5.79285">
        <ele>552.3</ele>
        <time>2021-05-09T12:19:02Z</time>
      </trkpt>
      <trkpt lat="46.87082" lon="5.79282">
        <ele>552.5</ele>
        <time>2021-05-09T12:19:06Z</time>
      </trkpt>
      <trkpt lat="46.87079" lon="5.79277">
        <ele>552.9</ele>
        <time>2021-05-09T12:19:11Z</time>
      </trkpt>
      <trkpt lat="46.87077" lon="5.79269">
        <ele>553.2</ele>
        <time>2021-05-09T12:19:15Z</time>
      </trkpt>
      <trkpt lat="46.87073" lon="5.79264">
        <ele>553.6</ele>
        <time>2021-05-09T12:19:19Z</time>
      </trkpt>
      <trkpt lat="46.87069" lon="5.79261">
        <ele>554.5</ele>
        <time>2021-05-09T12:19:23Z</time>
      </trkpt>
      <trkpt lat="46.87067" lon="5.79254">
        <ele>554.7</ele>
        <time>2021-05-09T12:19:28Z</time>
      </trkpt>
      <trkpt lat="46.87062" lon="5.7925">
        <ele>554.2</ele>
        <time>2021-05-09T12:19:33Z</time>
      </trkpt>
      <trkpt lat="46.87058" lon="5.79246">
        <ele>553.8</ele>
        <time>2021-05-09T12:19:38Z</time>
      </trkpt>
      <trkpt lat="46.87055" lon="5.7924">
        <ele>554</ele>
        <time>2021-05-09T12:19:42Z</time>
      </trkpt>
      <trkpt lat="46.8705" lon="5.79234">
        <ele>554.2</ele>
        <time>2021-05-09T12:19:46Z</time>
      </trkpt>
      <trkpt lat="46.87046" lon="5.79229">
        <ele>554.2</ele>
        <time>2021-05-09T12:19:50Z</time>
      </trkpt>
      <trkpt lat="46.87042" lon="5.79224">
        <ele>554.3</ele>
        <time>2021-05-09T12:19:54Z</time>
      </trkpt>
      <trkpt lat="46.87039" lon="5.7922">
        <ele>554.2</ele>
        <time>2021-05-09T12:19:58Z</time>
      </trkpt>
      <trkpt lat="46.87034" lon="5.79216">
        <ele>554.2</ele>
        <time>2021-05-09T12:20:03Z</time>
      </trkpt>
      <trkpt lat="46.8703" lon="5.79211">
        <ele>554.4</ele>
        <time>2021-05-09T12:20:08Z</time>
      </trkpt>
      <trkpt lat="46.87026" lon="5.79206">
        <ele>554.6</ele>
        <time>2021-05-09T12:20:13Z</time>
      </trkpt>
      <trkpt lat="46.87023" lon="5.79202">
        <ele>554.6</ele>
        <time>2021-05-09T12:20:17Z</time>
      </trkpt>
      <trkpt lat="46.87018" lon="5.79198">
        <ele>554.2</ele>
        <time>2021-05-09T12:20:22Z</time>
      </trkpt>
      <trkpt lat="46.87014" lon="5.79193">
        <ele>553.7</ele>
        <time>2021-05-09T12:20:27Z</time>
      </trkpt>
      <trkpt lat="46.8701" lon="5.79189">
        <ele>553.2</ele>
        <time>2021-05-09T12:20:32Z</time>
      </trkpt>
      <trkpt lat="46.87006" lon="5.79184">
        <ele>552.7</ele>
        <time>2021-05-09T12:20:37Z</time>
      </trkpt>
      <trkpt lat="46.87002" lon="5.79178">
        <ele>552.3</ele>
        <time>2021-05-09T12:20:42Z</time>
      </trkpt>
      <trkpt lat="46.86999" lon="5.79172">
        <ele>551.3</ele>
        <time>2021-05-09T12:20:47Z</time>
      </trkpt>
      <trkpt lat="46.86996" lon="5.79166">
        <ele>549.9</ele>
        <time>2021-05-09T12:20:51Z</time>
      </trkpt>
      <trkpt lat="46.86994" lon="5.7916">
        <ele>547.4</ele>
        <time>2021-05-09T12:20:56Z</time>
      </trkpt>
      <trkpt lat="46.8699" lon="5.79157">
        <ele>545.9</ele>
        <time>2021-05-09T12:21:00Z</time>
      </trkpt>
      <trkpt lat="46.86984" lon="5.79153">
        <ele>544.8</ele>
        <time>2021-05-09T12:21:04Z</time>
      </trkpt>
      <trkpt lat="46.86979" lon="5.7915">
        <ele>545.1</ele>
        <time>2021-05-09T12:21:08Z</time>
      </trkpt>
      <trkpt lat="46.86977" lon="5.79143">
        <ele>545.3</ele>
        <time>2021-05-09T12:21:14Z</time>
      </trkpt>
      <trkpt lat="46.86973" lon="5.79138">
        <ele>545.2</ele>
        <time>2021-05-09T12:21:19Z</time>
      </trkpt>
      <trkpt lat="46.86968" lon="5.79136">
        <ele>545.4</ele>
        <time>2021-05-09T12:21:25Z</time>
      </trkpt>
      <trkpt lat="46.86963" lon="5.79131">
        <ele>546.9</ele>
        <time>2021-05-09T12:21:30Z</time>
      </trkpt>
      <trkpt lat="46.86959" lon="5.79125">
        <ele>547.9</ele>
        <time>2021-05-09T12:21:34Z</time>
      </trkpt>
      <trkpt lat="46.86955" lon="5.79119">
        <ele>549</ele>
        <time>2021-05-09T12:21:38Z</time>
      </trkpt>
      <trkpt lat="46.86952" lon="5.79114">
        <ele>549.9</ele>
        <time>2021-05-09T12:21:42Z</time>
      </trkpt>
      <trkpt lat="46.86948" lon="5.79109">
        <ele>550.4</ele>
        <time>2021-05-09T12:21:47Z</time>
      </trkpt>
      <trkpt lat="46.86944" lon="5.79104">
        <ele>550.5</ele>
        <time>2021-05-09T12:21:52Z</time>
      </trkpt>
      <trkpt lat="46.8694" lon="5.791">
        <ele>550.3</ele>
        <time>2021-05-09T12:21:56Z</time>
      </trkpt>
      <trkpt lat="46.86937" lon="5.79096">
        <ele>549.8</ele>
        <time>2021-05-09T12:22:00Z</time>
      </trkpt>
      <trkpt lat="46.86933" lon="5.79092">
        <ele>549.5</ele>
        <time>2021-05-09T12:22:04Z</time>
      </trkpt>
      <trkpt lat="46.86928" lon="5.79087">
        <ele>549.4</ele>
        <time>2021-05-09T12:22:09Z</time>
      </trkpt>
      <trkpt lat="46.86924" lon="5.79084">
        <ele>549.8</ele>
        <time>2021-05-09T12:22:13Z</time>
      </trkpt>
      <trkpt lat="46.8692" lon="5.7908">
        <ele>550</ele>
        <time>2021-05-09T12:22:17Z</time>
      </trkpt>
      <trkpt lat="46.86916" lon="5.79076">
        <ele>549.9</ele>
        <time>2021-05-09T12:22:22Z</time>
      </trkpt>
      <trkpt lat="46.86913" lon="5.7907">
        <ele>550.1</ele>
        <time>2021-05-09T12:22:26Z</time>
      </trkpt>
      <trkpt lat="46.8691" lon="5.79066">
        <ele>550.8</ele>
        <time>2021-05-09T12:22:30Z</time>
      </trkpt>
      <trkpt lat="46.86905" lon="5.79062">
        <ele>551.3</ele>
        <time>2021-05-09T12:22:34Z</time>
      </trkpt>
      <trkpt lat="46.869" lon="5.79057">
        <ele>552</ele>
        <time>2021-05-09T12:22:38Z</time>
      </trkpt>
      <trkpt lat="46.86897" lon="5.79053">
        <ele>552.6</ele>
        <time>2021-05-09T12:22:42Z</time>
      </trkpt>
      <trkpt lat="46.86893" lon="5.79047">
        <ele>553.6</ele>
        <time>2021-05-09T12:22:47Z</time>
      </trkpt>
      <trkpt lat="46.8689" lon="5.79041">
        <ele>555.3</ele>
        <time>2021-05-09T12:22:52Z</time>
      </trkpt>
      <trkpt lat="46.86892" lon="5.79035">
        <ele>557.2</ele>
        <time>2021-05-09T12:22:58Z</time>
      </trkpt>
      <trkpt lat="46.86894" lon="5.79029">
        <ele>557.6</ele>
        <time>2021-05-09T12:23:05Z</time>
      </trkpt>
      <trkpt lat="46.86897" lon="5.79024">
        <ele>557.1</ele>
        <time>2021-05-09T12:23:15Z</time>
      </trkpt>
      <trkpt lat="46.86901" lon="5.79019">
        <ele>556.8</ele>
        <time>2021-05-09T12:23:21Z</time>
      </trkpt>
      <trkpt lat="46.86904" lon="5.79014">
        <ele>556.7</ele>
        <time>2021-05-09T12:23:26Z</time>
      </trkpt>
      <trkpt lat="46.86909" lon="5.79011">
        <ele>555.9</ele>
        <time>2021-05-09T12:23:32Z</time>
      </trkpt>
      <trkpt lat="46.86912" lon="5.79007">
        <ele>554.2</ele>
        <time>2021-05-09T12:23:39Z</time>
      </trkpt>
      <trkpt lat="46.86916" lon="5.79001">
        <ele>553.2</ele>
        <time>2021-05-09T12:23:44Z</time>
      </trkpt>
      <trkpt lat="46.86919" lon="5.78996">
        <ele>552.6</ele>
        <time>2021-05-09T12:23:49Z</time>
      </trkpt>
      <trkpt lat="46.86923" lon="5.78991">
        <ele>552.4</ele>
        <time>2021-05-09T12:23:55Z</time>
      </trkpt>
      <trkpt lat="46.86926" lon="5.78987">
        <ele>552.8</ele>
        <time>2021-05-09T12:24:03Z</time>
      </trkpt>
      <trkpt lat="46.8693" lon="5.78981">
        <ele>553.5</ele>
        <time>2021-05-09T12:24:09Z</time>
      </trkpt>
      <trkpt lat="46.86934" lon="5.78976">
        <ele>553.4</ele>
        <time>2021-05-09T12:24:15Z</time>
      </trkpt>
      <trkpt lat="46.86937" lon="5.7897">
        <ele>552.7</ele>
        <time>2021-05-09T12:24:20Z</time>
      </trkpt>
      <trkpt lat="46.86941" lon="5.78967">
        <ele>551.1</ele>
        <time>2021-05-09T12:24:27Z</time>
      </trkpt>
      <trkpt lat="46.86946" lon="5.78965">
        <ele>550</ele>
        <time>2021-05-09T12:24:32Z</time>
      </trkpt>
      <trkpt lat="46.86949" lon="5.7896">
        <ele>549.2</ele>
        <time>2021-05-09T12:24:37Z</time>
      </trkpt>
      <trkpt lat="46.86952" lon="5.78953">
        <ele>548.9</ele>
        <time>2021-05-09T12:24:43Z</time>
      </trkpt>
      <trkpt lat="46.86951" lon="5.78945">
        <ele>549.4</ele>
        <time>2021-05-09T12:24:47Z</time>
      </trkpt>
      <trkpt lat="46.86952" lon="5.78937">
        <ele>556.5</ele>
        <time>2021-05-09T12:24:52Z</time>
      </trkpt>
      <trkpt lat="46.86956" lon="5.78933">
        <ele>566.2</ele>
        <time>2021-05-09T12:24:59Z</time>
      </trkpt>
      <trkpt lat="46.86958" lon="5.78927">
        <ele>570.2</ele>
        <time>2021-05-09T12:25:06Z</time>
      </trkpt>
      <trkpt lat="46.86959" lon="5.78921">
        <ele>571.4</ele>
        <time>2021-05-09T12:25:13Z</time>
      </trkpt>
      <trkpt lat="46.86957" lon="5.78915">
        <ele>571.8</ele>
        <time>2021-05-09T12:25:19Z</time>
      </trkpt>
      <trkpt lat="46.86952" lon="5.78915">
        <ele>571.6</ele>
        <time>2021-05-09T12:25:32Z</time>
      </trkpt>
      <trkpt lat="46.86957" lon="5.78911">
        <ele>568.4</ele>
        <time>2021-05-09T12:26:08Z</time>
      </trkpt>
      <trkpt lat="46.86962" lon="5.78908">
        <ele>567.8</ele>
        <time>2021-05-09T12:26:12Z</time>
      </trkpt>
      <trkpt lat="46.86966" lon="5.78903">
        <ele>567.1</ele>
        <time>2021-05-09T12:26:17Z</time>
      </trkpt>
      <trkpt lat="46.8697" lon="5.78897">
        <ele>566.3</ele>
        <time>2021-05-09T12:26:23Z</time>
      </trkpt>
      <trkpt lat="46.86973" lon="5.78892">
        <ele>566</ele>
        <time>2021-05-09T12:26:28Z</time>
      </trkpt>
      <trkpt lat="46.86975" lon="5.78886">
        <ele>565.4</ele>
        <time>2021-05-09T12:26:35Z</time>
      </trkpt>
      <trkpt lat="46.86979" lon="5.78882">
        <ele>564.8</ele>
        <time>2021-05-09T12:26:44Z</time>
      </trkpt>
      <trkpt lat="46.86983" lon="5.78878">
        <ele>564.5</ele>
        <time>2021-05-09T12:26:50Z</time>
      </trkpt>
      <trkpt lat="46.86987" lon="5.78873">
        <ele>563.9</ele>
        <time>2021-05-09T12:26:56Z</time>
      </trkpt>
      <trkpt lat="46.86991" lon="5.78869">
        <ele>563.2</ele>
        <time>2021-05-09T12:27:03Z</time>
      </trkpt>
      <trkpt lat="46.86993" lon="5.78863">
        <ele>562.7</ele>
        <time>2021-05-09T12:27:14Z</time>
      </trkpt>
      <trkpt lat="46.86996" lon="5.78856">
        <ele>562.8</ele>
        <time>2021-05-09T12:27:24Z</time>
      </trkpt>
      <trkpt lat="46.86999" lon="5.78851">
        <ele>563.1</ele>
        <time>2021-05-09T12:27:30Z</time>
      </trkpt>
      <trkpt lat="46.87002" lon="5.78846">
        <ele>564.6</ele>
        <time>2021-05-09T12:27:38Z</time>
      </trkpt>
      <trkpt lat="46.87006" lon="5.78841">
        <ele>565.9</ele>
        <time>2021-05-09T12:27:44Z</time>
      </trkpt>
      <trkpt lat="46.8701" lon="5.78836">
        <ele>566.9</ele>
        <time>2021-05-09T12:27:50Z</time>
      </trkpt>
      <trkpt lat="46.87012" lon="5.78831">
        <ele>567.6</ele>
        <time>2021-05-09T12:27:55Z</time>
      </trkpt>
      <trkpt lat="46.87015" lon="5.78824">
        <ele>568.2</ele>
        <time>2021-05-09T12:28:03Z</time>
      </trkpt>
      <trkpt lat="46.87018" lon="5.78819">
        <ele>568</ele>
        <time>2021-05-09T12:28:08Z</time>
      </trkpt>
      <trkpt lat="46.8702" lon="5.78813">
        <ele>567.8</ele>
        <time>2021-05-09T12:28:12Z</time>
      </trkpt>
      <trkpt lat="46.87023" lon="5.78807">
        <ele>567.6</ele>
        <time>2021-05-09T12:28:17Z</time>
      </trkpt>
      <trkpt lat="46.87027" lon="5.78802">
        <ele>567.2</ele>
        <time>2021-05-09T12:28:22Z</time>
      </trkpt>
      <trkpt lat="46.87029" lon="5.78796">
        <ele>567.1</ele>
        <time>2021-05-09T12:28:27Z</time>
      </trkpt>
      <trkpt lat="46.87031" lon="5.7879">
        <ele>567</ele>
        <time>2021-05-09T12:28:32Z</time>
      </trkpt>
      <trkpt lat="46.87034" lon="5.78784">
        <ele>566.7</ele>
        <time>2021-05-09T12:28:37Z</time>
      </trkpt>
      <trkpt lat="46.87037" lon="5.78779">
        <ele>566.5</ele>
        <time>2021-05-09T12:28:43Z</time>
      </trkpt>
      <trkpt lat="46.87042" lon="5.78779">
        <ele>565.7</ele>
        <time>2021-05-09T12:28:52Z</time>
      </trkpt>
      <trkpt lat="46.87045" lon="5.78785">
        <ele>563.7</ele>
        <time>2021-05-09T12:29:23Z</time>
      </trkpt>
      <trkpt lat="46.87046" lon="5.78792">
        <ele>563.4</ele>
        <time>2021-05-09T12:29:33Z</time>
      </trkpt>
      <trkpt lat="46.87046" lon="5.788">
        <ele>563.5</ele>
        <time>2021-05-09T12:29:40Z</time>
      </trkpt>
      <trkpt lat="46.87043" lon="5.78805">
        <ele>563.6</ele>
        <time>2021-05-09T12:29:44Z</time>
      </trkpt>
      <trkpt lat="46.8704" lon="5.78811">
        <ele>563.9</ele>
        <time>2021-05-09T12:29:50Z</time>
      </trkpt>
      <trkpt lat="46.87034" lon="5.78816">
        <ele>564.1</ele>
        <time>2021-05-09T12:30:05Z</time>
      </trkpt>
      <trkpt lat="46.87028" lon="5.78816">
        <ele>563.8</ele>
        <time>2021-05-09T12:30:09Z</time>
      </trkpt>
      <trkpt lat="46.8703" lon="5.7881">
        <ele>563.6</ele>
        <time>2021-05-09T12:30:20Z</time>
      </trkpt>
      <trkpt lat="46.87035" lon="5.7881">
        <ele>567.6</ele>
        <time>2021-05-09T12:30:24Z</time>
      </trkpt>
      <trkpt lat="46.87034" lon="5.78817">
        <ele>573.7</ele>
        <time>2021-05-09T12:31:00Z</time>
      </trkpt>
      <trkpt lat="46.87029" lon="5.7882">
        <ele>574.8</ele>
        <time>2021-05-09T12:31:11Z</time>
      </trkpt>
      <trkpt lat="46.87029" lon="5.78813">
        <ele>575.5</ele>
        <time>2021-05-09T12:31:19Z</time>
      </trkpt>
      <trkpt lat="46.87034" lon="5.78813">
        <ele>575.8</ele>
        <time>2021-05-09T12:31:23Z</time>
      </trkpt>
      <trkpt lat="46.87039" lon="5.78812">
        <ele>575.9</ele>
        <time>2021-05-09T12:31:28Z</time>
      </trkpt>
      <trkpt lat="46.87034" lon="5.78814">
        <ele>574.2</ele>
        <time>2021-05-09T12:31:36Z</time>
      </trkpt>
      <trkpt lat="46.87032" lon="5.7882">
        <ele>570.3</ele>
        <time>2021-05-09T12:31:57Z</time>
      </trkpt>
      <trkpt lat="46.87032" lon="5.78813">
        <ele>569.3</ele>
        <time>2021-05-09T12:32:05Z</time>
      </trkpt>
      <trkpt lat="46.87036" lon="5.78802">
        <ele>572.6</ele>
        <time>2021-05-09T12:34:12Z</time>
      </trkpt>
      <trkpt lat="46.8704" lon="5.78798">
        <ele>572</ele>
        <time>2021-05-09T12:35:01Z</time>
      </trkpt>
      <trkpt lat="46.87043" lon="5.78792">
        <ele>572.2</ele>
        <time>2021-05-09T12:35:09Z</time>
      </trkpt>
      <trkpt lat="46.87044" lon="5.78785">
        <ele>574.1</ele>
        <time>2021-05-09T12:35:25Z</time>
      </trkpt>
      <trkpt lat="46.87046" lon="5.78779">
        <ele>574.6</ele>
        <time>2021-05-09T12:35:54Z</time>
      </trkpt>
      <trkpt lat="46.8705" lon="5.78777">
        <ele>574.4</ele>
        <time>2021-05-09T12:36:04Z</time>
      </trkpt>
      <trkpt lat="46.87054" lon="5.78773">
        <ele>573.8</ele>
        <time>2021-05-09T12:36:10Z</time>
      </trkpt>
      <trkpt lat="46.87055" lon="5.78766">
        <ele>572.4</ele>
        <time>2021-05-09T12:36:20Z</time>
      </trkpt>
      <trkpt lat="46.87058" lon="5.7876">
        <ele>571.2</ele>
        <time>2021-05-09T12:36:31Z</time>
      </trkpt>
      <trkpt lat="46.87061" lon="5.78752">
        <ele>571</ele>
        <time>2021-05-09T12:36:35Z</time>
      </trkpt>
      <trkpt lat="46.87062" lon="5.78745">
        <ele>571.2</ele>
        <time>2021-05-09T12:36:39Z</time>
      </trkpt>
      <trkpt lat="46.87064" lon="5.78738">
        <ele>571.6</ele>
        <time>2021-05-09T12:36:44Z</time>
      </trkpt>
      <trkpt lat="46.87068" lon="5.78733">
        <ele>572.2</ele>
        <time>2021-05-09T12:36:50Z</time>
      </trkpt>
      <trkpt lat="46.87072" lon="5.78729">
        <ele>572.7</ele>
        <time>2021-05-09T12:36:56Z</time>
      </trkpt>
      <trkpt lat="46.87076" lon="5.78726">
        <ele>573.9</ele>
        <time>2021-05-09T12:37:05Z</time>
      </trkpt>
      <trkpt lat="46.8708" lon="5.78723">
        <ele>575.1</ele>
        <time>2021-05-09T12:37:12Z</time>
      </trkpt>
      <trkpt lat="46.87084" lon="5.78719">
        <ele>576.4</ele>
        <time>2021-05-09T12:37:18Z</time>
      </trkpt>
      <trkpt lat="46.87087" lon="5.78714">
        <ele>577.5</ele>
        <time>2021-05-09T12:37:25Z</time>
      </trkpt>
      <trkpt lat="46.87091" lon="5.7871">
        <ele>578</ele>
        <time>2021-05-09T12:37:32Z</time>
      </trkpt>
      <trkpt lat="46.87095" lon="5.78706">
        <ele>577.9</ele>
        <time>2021-05-09T12:37:38Z</time>
      </trkpt>
      <trkpt lat="46.87098" lon="5.787">
        <ele>577.7</ele>
        <time>2021-05-09T12:37:44Z</time>
      </trkpt>
      <trkpt lat="46.87101" lon="5.78694">
        <ele>577.2</ele>
        <time>2021-05-09T12:37:52Z</time>
      </trkpt>
      <trkpt lat="46.87105" lon="5.78691">
        <ele>576.5</ele>
        <time>2021-05-09T12:38:01Z</time>
      </trkpt>
      <trkpt lat="46.87109" lon="5.78687">
        <ele>575.9</ele>
        <time>2021-05-09T12:38:07Z</time>
      </trkpt>
      <trkpt lat="46.87111" lon="5.78681">
        <ele>575.2</ele>
        <time>2021-05-09T12:38:12Z</time>
      </trkpt>
      <trkpt lat="46.87114" lon="5.78675">
        <ele>574.8</ele>
        <time>2021-05-09T12:38:17Z</time>
      </trkpt>
      <trkpt lat="46.87116" lon="5.78668">
        <ele>574.7</ele>
        <time>2021-05-09T12:38:22Z</time>
      </trkpt>
      <trkpt lat="46.87114" lon="5.78661">
        <ele>576.2</ele>
        <time>2021-05-09T12:38:52Z</time>
      </trkpt>
      <trkpt lat="46.87111" lon="5.78655">
        <ele>578.2</ele>
        <time>2021-05-09T12:38:57Z</time>
      </trkpt>
      <trkpt lat="46.87106" lon="5.78651">
        <ele>581.7</ele>
        <time>2021-05-09T12:39:17Z</time>
      </trkpt>
      <trkpt lat="46.87104" lon="5.78644">
        <ele>583.4</ele>
        <time>2021-05-09T12:39:23Z</time>
      </trkpt>
      <trkpt lat="46.87101" lon="5.78639">
        <ele>584.8</ele>
        <time>2021-05-09T12:39:28Z</time>
      </trkpt>
      <trkpt lat="46.87098" lon="5.78634">
        <ele>585.8</ele>
        <time>2021-05-09T12:39:33Z</time>
      </trkpt>
      <trkpt lat="46.87095" lon="5.78628">
        <ele>586.3</ele>
        <time>2021-05-09T12:39:38Z</time>
      </trkpt>
      <trkpt lat="46.87093" lon="5.78621">
        <ele>586.4</ele>
        <time>2021-05-09T12:39:43Z</time>
      </trkpt>
      <trkpt lat="46.8709" lon="5.78616">
        <ele>586.2</ele>
        <time>2021-05-09T12:39:47Z</time>
      </trkpt>
      <trkpt lat="46.87085" lon="5.7861">
        <ele>585.8</ele>
        <time>2021-05-09T12:39:52Z</time>
      </trkpt>
      <trkpt lat="46.87082" lon="5.78605">
        <ele>585.5</ele>
        <time>2021-05-09T12:39:57Z</time>
      </trkpt>
      <trkpt lat="46.87079" lon="5.78599">
        <ele>585.2</ele>
        <time>2021-05-09T12:40:02Z</time>
      </trkpt>
      <trkpt lat="46.87076" lon="5.78594">
        <ele>585.2</ele>
        <time>2021-05-09T12:40:07Z</time>
      </trkpt>
      <trkpt lat="46.87072" lon="5.78589">
        <ele>585.6</ele>
        <time>2021-05-09T12:40:12Z</time>
      </trkpt>
      <trkpt lat="46.87069" lon="5.78583">
        <ele>585.6</ele>
        <time>2021-05-09T12:40:17Z</time>
      </trkpt>
      <trkpt lat="46.87065" lon="5.78579">
        <ele>585.6</ele>
        <time>2021-05-09T12:40:21Z</time>
      </trkpt>
      <trkpt lat="46.87061" lon="5.78574">
        <ele>585.7</ele>
        <time>2021-05-09T12:40:26Z</time>
      </trkpt>
      <trkpt lat="46.87059" lon="5.78567">
        <ele>585.7</ele>
        <time>2021-05-09T12:40:31Z</time>
      </trkpt>
      <trkpt lat="46.87057" lon="5.78561">
        <ele>585.6</ele>
        <time>2021-05-09T12:40:36Z</time>
      </trkpt>
      <trkpt lat="46.87057" lon="5.78554">
        <ele>585.5</ele>
        <time>2021-05-09T12:40:41Z</time>
      </trkpt>
      <trkpt lat="46.87058" lon="5.78546">
        <ele>585.3</ele>
        <time>2021-05-09T12:40:46Z</time>
      </trkpt>
      <trkpt lat="46.87058" lon="5.7854">
        <ele>585</ele>
        <time>2021-05-09T12:40:51Z</time>
      </trkpt>
      <trkpt lat="46.87059" lon="5.78533">
        <ele>584.5</ele>
        <time>2021-05-09T12:40:56Z</time>
      </trkpt>
      <trkpt lat="46.8706" lon="5.78526">
        <ele>584</ele>
        <time>2021-05-09T12:41:00Z</time>
      </trkpt>
      <trkpt lat="46.87059" lon="5.78518">
        <ele>583.2</ele>
        <time>2021-05-09T12:41:05Z</time>
      </trkpt>
      <trkpt lat="46.87059" lon="5.7851">
        <ele>582.4</ele>
        <time>2021-05-09T12:41:09Z</time>
      </trkpt>
      <trkpt lat="46.87061" lon="5.78503">
        <ele>581.5</ele>
        <time>2021-05-09T12:41:14Z</time>
      </trkpt>
      <trkpt lat="46.87063" lon="5.78496">
        <ele>580.4</ele>
        <time>2021-05-09T12:41:20Z</time>
      </trkpt>
      <trkpt lat="46.87066" lon="5.78491">
        <ele>580</ele>
        <time>2021-05-09T12:41:26Z</time>
      </trkpt>
      <trkpt lat="46.87069" lon="5.78484">
        <ele>579.7</ele>
        <time>2021-05-09T12:41:32Z</time>
      </trkpt>
      <trkpt lat="46.87072" lon="5.78477">
        <ele>579.8</ele>
        <time>2021-05-09T12:41:37Z</time>
      </trkpt>
      <trkpt lat="46.87075" lon="5.78472">
        <ele>579.8</ele>
        <time>2021-05-09T12:41:41Z</time>
      </trkpt>
      <trkpt lat="46.87078" lon="5.78467">
        <ele>579.6</ele>
        <time>2021-05-09T12:41:45Z</time>
      </trkpt>
      <trkpt lat="46.87082" lon="5.78463">
        <ele>579.1</ele>
        <time>2021-05-09T12:41:50Z</time>
      </trkpt>
      <trkpt lat="46.87085" lon="5.78457">
        <ele>578</ele>
        <time>2021-05-09T12:41:58Z</time>
      </trkpt>
      <trkpt lat="46.87088" lon="5.78451">
        <ele>576.9</ele>
        <time>2021-05-09T12:42:05Z</time>
      </trkpt>
      <trkpt lat="46.87091" lon="5.78445">
        <ele>575.7</ele>
        <time>2021-05-09T12:42:12Z</time>
      </trkpt>
      <trkpt lat="46.87093" lon="5.78437">
        <ele>575</ele>
        <time>2021-05-09T12:42:18Z</time>
      </trkpt>
      <trkpt lat="46.87096" lon="5.7843">
        <ele>574.5</ele>
        <time>2021-05-09T12:42:22Z</time>
      </trkpt>
      <trkpt lat="46.87099" lon="5.7842">
        <ele>574.3</ele>
        <time>2021-05-09T12:42:26Z</time>
      </trkpt>
      <trkpt lat="46.87102" lon="5.78413">
        <ele>574.5</ele>
        <time>2021-05-09T12:42:30Z</time>
      </trkpt>
      <trkpt lat="46.87103" lon="5.78406">
        <ele>574.4</ele>
        <time>2021-05-09T12:42:34Z</time>
      </trkpt>
      <trkpt lat="46.87103" lon="5.784">
        <ele>573.8</ele>
        <time>2021-05-09T12:42:38Z</time>
      </trkpt>
      <trkpt lat="46.87102" lon="5.78392">
        <ele>571.8</ele>
        <time>2021-05-09T12:42:45Z</time>
      </trkpt>
      <trkpt lat="46.87103" lon="5.78385">
        <ele>569.7</ele>
        <time>2021-05-09T12:42:52Z</time>
      </trkpt>
      <trkpt lat="46.87108" lon="5.78381">
        <ele>568.3</ele>
        <time>2021-05-09T12:42:56Z</time>
      </trkpt>
      <trkpt lat="46.87112" lon="5.78377">
        <ele>566.7</ele>
        <time>2021-05-09T12:43:01Z</time>
      </trkpt>
      <trkpt lat="46.87115" lon="5.78371">
        <ele>564.7</ele>
        <time>2021-05-09T12:43:07Z</time>
      </trkpt>
      <trkpt lat="46.87117" lon="5.78365">
        <ele>562.6</ele>
        <time>2021-05-09T12:43:14Z</time>
      </trkpt>
      <trkpt lat="46.87121" lon="5.7836">
        <ele>561</ele>
        <time>2021-05-09T12:43:19Z</time>
      </trkpt>
      <trkpt lat="46.87124" lon="5.78355">
        <ele>559.5</ele>
        <time>2021-05-09T12:43:24Z</time>
      </trkpt>
      <trkpt lat="46.87127" lon="5.78349">
        <ele>557.7</ele>
        <time>2021-05-09T12:43:30Z</time>
      </trkpt>
      <trkpt lat="46.87129" lon="5.78342">
        <ele>556.2</ele>
        <time>2021-05-09T12:43:35Z</time>
      </trkpt>
      <trkpt lat="46.87131" lon="5.78337">
        <ele>555.1</ele>
        <time>2021-05-09T12:43:40Z</time>
      </trkpt>
      <trkpt lat="46.87134" lon="5.78331">
        <ele>554.4</ele>
        <time>2021-05-09T12:43:45Z</time>
      </trkpt>
      <trkpt lat="46.87138" lon="5.78327">
        <ele>554</ele>
        <time>2021-05-09T12:43:50Z</time>
      </trkpt>
      <trkpt lat="46.87141" lon="5.7832">
        <ele>553.7</ele>
        <time>2021-05-09T12:43:55Z</time>
      </trkpt>
      <trkpt lat="46.87144" lon="5.78315">
        <ele>553.3</ele>
        <time>2021-05-09T12:44:00Z</time>
      </trkpt>
      <trkpt lat="46.87148" lon="5.78309">
        <ele>553</ele>
        <time>2021-05-09T12:44:05Z</time>
      </trkpt>
      <trkpt lat="46.8715" lon="5.78303">
        <ele>552.9</ele>
        <time>2021-05-09T12:44:09Z</time>
      </trkpt>
      <trkpt lat="46.87153" lon="5.78297">
        <ele>553</ele>
        <time>2021-05-09T12:44:15Z</time>
      </trkpt>
      <trkpt lat="46.87157" lon="5.78292">
        <ele>552.8</ele>
        <time>2021-05-09T12:44:20Z</time>
      </trkpt>
      <trkpt lat="46.8716" lon="5.78287">
        <ele>552.6</ele>
        <time>2021-05-09T12:44:26Z</time>
      </trkpt>
      <trkpt lat="46.87164" lon="5.78284">
        <ele>552.6</ele>
        <time>2021-05-09T12:44:32Z</time>
      </trkpt>
      <trkpt lat="46.87168" lon="5.78279">
        <ele>552.5</ele>
        <time>2021-05-09T12:44:38Z</time>
      </trkpt>
      <trkpt lat="46.87172" lon="5.78275">
        <ele>552.2</ele>
        <time>2021-05-09T12:44:43Z</time>
      </trkpt>
      <trkpt lat="46.87177" lon="5.78273">
        <ele>551.6</ele>
        <time>2021-05-09T12:44:49Z</time>
      </trkpt>
      <trkpt lat="46.87181" lon="5.78273">
        <ele>551.1</ele>
        <time>2021-05-09T12:44:55Z</time>
      </trkpt>
      <trkpt lat="46.87186" lon="5.7827">
        <ele>550.5</ele>
        <time>2021-05-09T12:45:01Z</time>
      </trkpt>
      <trkpt lat="46.87191" lon="5.78267">
        <ele>549.9</ele>
        <time>2021-05-09T12:45:06Z</time>
      </trkpt>
      <trkpt lat="46.87196" lon="5.78263">
        <ele>549.1</ele>
        <time>2021-05-09T12:45:10Z</time>
      </trkpt>
      <trkpt lat="46.87201" lon="5.7826">
        <ele>548.3</ele>
        <time>2021-05-09T12:45:14Z</time>
      </trkpt>
      <trkpt lat="46.87206" lon="5.78255">
        <ele>547.3</ele>
        <time>2021-05-09T12:45:18Z</time>
      </trkpt>
      <trkpt lat="46.8721" lon="5.7825">
        <ele>546.3</ele>
        <time>2021-05-09T12:45:22Z</time>
      </trkpt>
      <trkpt lat="46.87214" lon="5.78246">
        <ele>545.4</ele>
        <time>2021-05-09T12:45:26Z</time>
      </trkpt>
      <trkpt lat="46.87219" lon="5.78243">
        <ele>544.3</ele>
        <time>2021-05-09T12:45:31Z</time>
      </trkpt>
      <trkpt lat="46.87224" lon="5.78239">
        <ele>543.2</ele>
        <time>2021-05-09T12:45:35Z</time>
      </trkpt>
      <trkpt lat="46.87227" lon="5.78234">
        <ele>542.3</ele>
        <time>2021-05-09T12:45:39Z</time>
      </trkpt>
      <trkpt lat="46.87231" lon="5.7823">
        <ele>541.4</ele>
        <time>2021-05-09T12:45:43Z</time>
      </trkpt>
      <trkpt lat="46.87235" lon="5.78223">
        <ele>541.4</ele>
        <time>2021-05-09T12:45:47Z</time>
      </trkpt>
      <trkpt lat="46.87239" lon="5.78218">
        <ele>541.4</ele>
        <time>2021-05-09T12:45:52Z</time>
      </trkpt>
      <trkpt lat="46.87244" lon="5.78216">
        <ele>541.6</ele>
        <time>2021-05-09T12:45:57Z</time>
      </trkpt>
      <trkpt lat="46.87247" lon="5.7821">
        <ele>542.1</ele>
        <time>2021-05-09T12:46:01Z</time>
      </trkpt>
      <trkpt lat="46.87251" lon="5.78205">
        <ele>542.6</ele>
        <time>2021-05-09T12:46:05Z</time>
      </trkpt>
      <trkpt lat="46.87254" lon="5.78199">
        <ele>542.8</ele>
        <time>2021-05-09T12:46:09Z</time>
      </trkpt>
      <trkpt lat="46.87258" lon="5.78194">
        <ele>542.7</ele>
        <time>2021-05-09T12:46:14Z</time>
      </trkpt>
      <trkpt lat="46.87262" lon="5.7819">
        <ele>542.2</ele>
        <time>2021-05-09T12:46:19Z</time>
      </trkpt>
      <trkpt lat="46.87265" lon="5.78184">
        <ele>541.8</ele>
        <time>2021-05-09T12:46:24Z</time>
      </trkpt>
      <trkpt lat="46.87268" lon="5.78178">
        <ele>541.2</ele>
        <time>2021-05-09T12:46:29Z</time>
      </trkpt>
      <trkpt lat="46.87269" lon="5.78171">
        <ele>541</ele>
        <time>2021-05-09T12:46:33Z</time>
      </trkpt>
      <trkpt lat="46.8727" lon="5.78162">
        <ele>541</ele>
        <time>2021-05-09T12:46:37Z</time>
      </trkpt>
      <trkpt lat="46.87271" lon="5.78155">
        <ele>541.2</ele>
        <time>2021-05-09T12:46:41Z</time>
      </trkpt>
      <trkpt lat="46.87272" lon="5.78148">
        <ele>541.5</ele>
        <time>2021-05-09T12:46:45Z</time>
      </trkpt>
      <trkpt lat="46.87272" lon="5.7814">
        <ele>541.9</ele>
        <time>2021-05-09T12:46:49Z</time>
      </trkpt>
      <trkpt lat="46.87272" lon="5.78132">
        <ele>542.3</ele>
        <time>2021-05-09T12:46:54Z</time>
      </trkpt>
      <trkpt lat="46.87272" lon="5.78124">
        <ele>543</ele>
        <time>2021-05-09T12:46:58Z</time>
      </trkpt>
      <trkpt lat="46.87269" lon="5.78118">
        <ele>544.6</ele>
        <time>2021-05-09T12:47:03Z</time>
      </trkpt>
      <trkpt lat="46.87267" lon="5.78112">
        <ele>546.3</ele>
        <time>2021-05-09T12:47:10Z</time>
      </trkpt>
      <trkpt lat="46.87263" lon="5.78107">
        <ele>547.1</ele>
        <time>2021-05-09T12:47:14Z</time>
      </trkpt>
      <trkpt lat="46.87262" lon="5.781">
        <ele>547.1</ele>
        <time>2021-05-09T12:47:22Z</time>
      </trkpt>
      <trkpt lat="46.87261" lon="5.78094">
        <ele>547</ele>
        <time>2021-05-09T12:47:27Z</time>
      </trkpt>
      <trkpt lat="46.8726" lon="5.78087">
        <ele>547.3</ele>
        <time>2021-05-09T12:47:32Z</time>
      </trkpt>
      <trkpt lat="46.87258" lon="5.7808">
        <ele>547.4</ele>
        <time>2021-05-09T12:47:37Z</time>
      </trkpt>
      <trkpt lat="46.87256" lon="5.78074">
        <ele>547.1</ele>
        <time>2021-05-09T12:47:41Z</time>
      </trkpt>
      <trkpt lat="46.87254" lon="5.78066">
        <ele>547.1</ele>
        <time>2021-05-09T12:47:45Z</time>
      </trkpt>
      <trkpt lat="46.87253" lon="5.78057">
        <ele>547.4</ele>
        <time>2021-05-09T12:47:49Z</time>
      </trkpt>
      <trkpt lat="46.87253" lon="5.78048">
        <ele>547.6</ele>
        <time>2021-05-09T12:47:53Z</time>
      </trkpt>
      <trkpt lat="46.87253" lon="5.78041">
        <ele>547.6</ele>
        <time>2021-05-09T12:47:57Z</time>
      </trkpt>
      <trkpt lat="46.87253" lon="5.78034">
        <ele>547.9</ele>
        <time>2021-05-09T12:48:01Z</time>
      </trkpt>
      <trkpt lat="46.87252" lon="5.78026">
        <ele>548.1</ele>
        <time>2021-05-09T12:48:06Z</time>
      </trkpt>
      <trkpt lat="46.87252" lon="5.78019">
        <ele>548.3</ele>
        <time>2021-05-09T12:48:10Z</time>
      </trkpt>
      <trkpt lat="46.87253" lon="5.78012">
        <ele>548.5</ele>
        <time>2021-05-09T12:48:15Z</time>
      </trkpt>
      <trkpt lat="46.87254" lon="5.78005">
        <ele>549</ele>
        <time>2021-05-09T12:48:20Z</time>
      </trkpt>
      <trkpt lat="46.87255" lon="5.77999">
        <ele>549.5</ele>
        <time>2021-05-09T12:48:26Z</time>
      </trkpt>
      <trkpt lat="46.87257" lon="5.77992">
        <ele>549.9</ele>
        <time>2021-05-09T12:48:33Z</time>
      </trkpt>
      <trkpt lat="46.8726" lon="5.77986">
        <ele>549.9</ele>
        <time>2021-05-09T12:48:40Z</time>
      </trkpt>
      <trkpt lat="46.87265" lon="5.77981">
        <ele>549.9</ele>
        <time>2021-05-09T12:48:45Z</time>
      </trkpt>
      <trkpt lat="46.87268" lon="5.77976">
        <ele>549.7</ele>
        <time>2021-05-09T12:48:49Z</time>
      </trkpt>
      <trkpt lat="46.87271" lon="5.77969">
        <ele>549.3</ele>
        <time>2021-05-09T12:48:54Z</time>
      </trkpt>
      <trkpt lat="46.87273" lon="5.77963">
        <ele>548.9</ele>
        <time>2021-05-09T12:48:59Z</time>
      </trkpt>
      <trkpt lat="46.87277" lon="5.77958">
        <ele>548.6</ele>
        <time>2021-05-09T12:49:04Z</time>
      </trkpt>
      <trkpt lat="46.8728" lon="5.77951">
        <ele>548.3</ele>
        <time>2021-05-09T12:49:10Z</time>
      </trkpt>
      <trkpt lat="46.87282" lon="5.77946">
        <ele>548.2</ele>
        <time>2021-05-09T12:49:14Z</time>
      </trkpt>
      <trkpt lat="46.87285" lon="5.77941">
        <ele>547.9</ele>
        <time>2021-05-09T12:49:19Z</time>
      </trkpt>
      <trkpt lat="46.87287" lon="5.77934">
        <ele>547.3</ele>
        <time>2021-05-09T12:49:27Z</time>
      </trkpt>
      <trkpt lat="46.87289" lon="5.77927">
        <ele>546.8</ele>
        <time>2021-05-09T12:49:33Z</time>
      </trkpt>
      <trkpt lat="46.87291" lon="5.7792">
        <ele>546.1</ele>
        <time>2021-05-09T12:49:39Z</time>
      </trkpt>
      <trkpt lat="46.87294" lon="5.77915">
        <ele>545.1</ele>
        <time>2021-05-09T12:49:46Z</time>
      </trkpt>
      <trkpt lat="46.87299" lon="5.77911">
        <ele>544</ele>
        <time>2021-05-09T12:49:52Z</time>
      </trkpt>
      <trkpt lat="46.87303" lon="5.77907">
        <ele>543.2</ele>
        <time>2021-05-09T12:49:57Z</time>
      </trkpt>
      <trkpt lat="46.87307" lon="5.77903">
        <ele>542.5</ele>
        <time>2021-05-09T12:50:04Z</time>
      </trkpt>
      <trkpt lat="46.8731" lon="5.77898">
        <ele>541.8</ele>
        <time>2021-05-09T12:50:10Z</time>
      </trkpt>
      <trkpt lat="46.87313" lon="5.77891">
        <ele>541.1</ele>
        <time>2021-05-09T12:50:16Z</time>
      </trkpt>
      <trkpt lat="46.87316" lon="5.77883">
        <ele>540.8</ele>
        <time>2021-05-09T12:50:20Z</time>
      </trkpt>
      <trkpt lat="46.87321" lon="5.77871">
        <ele>541.2</ele>
        <time>2021-05-09T12:50:24Z</time>
      </trkpt>
      <trkpt lat="46.87322" lon="5.7786">
        <ele>542.1</ele>
        <time>2021-05-09T12:50:28Z</time>
      </trkpt>
      <trkpt lat="46.87322" lon="5.77853">
        <ele>543.1</ele>
        <time>2021-05-09T12:50:33Z</time>
      </trkpt>
      <trkpt lat="46.87324" lon="5.77846">
        <ele>544</ele>
        <time>2021-05-09T12:50:38Z</time>
      </trkpt>
      <trkpt lat="46.87326" lon="5.77838">
        <ele>544.3</ele>
        <time>2021-05-09T12:50:42Z</time>
      </trkpt>
      <trkpt lat="46.87327" lon="5.77831">
        <ele>545.3</ele>
        <time>2021-05-09T12:50:47Z</time>
      </trkpt>
      <trkpt lat="46.87326" lon="5.77825">
        <ele>547.1</ele>
        <time>2021-05-09T12:50:53Z</time>
      </trkpt>
      <trkpt lat="46.87328" lon="5.77817">
        <ele>551</ele>
        <time>2021-05-09T12:51:02Z</time>
      </trkpt>
      <trkpt lat="46.8733" lon="5.7781">
        <ele>553.8</ele>
        <time>2021-05-09T12:51:06Z</time>
      </trkpt>
      <trkpt lat="46.87332" lon="5.77805">
        <ele>556.3</ele>
        <time>2021-05-09T12:51:13Z</time>
      </trkpt>
      <trkpt lat="46.87336" lon="5.77799">
        <ele>557</ele>
        <time>2021-05-09T12:51:20Z</time>
      </trkpt>
      <trkpt lat="46.87339" lon="5.77794">
        <ele>557</ele>
        <time>2021-05-09T12:51:25Z</time>
      </trkpt>
      <trkpt lat="46.87342" lon="5.77788">
        <ele>558.3</ele>
        <time>2021-05-09T12:51:34Z</time>
      </trkpt>
      <trkpt lat="46.87343" lon="5.77781">
        <ele>558.5</ele>
        <time>2021-05-09T12:51:40Z</time>
      </trkpt>
      <trkpt lat="46.87345" lon="5.77774">
        <ele>558.4</ele>
        <time>2021-05-09T12:51:46Z</time>
      </trkpt>
      <trkpt lat="46.8734" lon="5.77776">
        <ele>559.7</ele>
        <time>2021-05-09T12:52:00Z</time>
      </trkpt>
      <trkpt lat="46.87336" lon="5.77779">
        <ele>562.2</ele>
        <time>2021-05-09T12:52:08Z</time>
      </trkpt>
      <trkpt lat="46.87331" lon="5.77781">
        <ele>564.4</ele>
        <time>2021-05-09T12:52:14Z</time>
      </trkpt>
      <trkpt lat="46.87326" lon="5.77784">
        <ele>568</ele>
        <time>2021-05-09T12:52:19Z</time>
      </trkpt>
      <trkpt lat="46.87322" lon="5.77786">
        <ele>573</ele>
        <time>2021-05-09T12:52:28Z</time>
      </trkpt>
      <trkpt lat="46.87317" lon="5.77783">
        <ele>577.9</ele>
        <time>2021-05-09T12:52:39Z</time>
      </trkpt>
      <trkpt lat="46.87313" lon="5.77782">
        <ele>581.6</ele>
        <time>2021-05-09T12:52:49Z</time>
      </trkpt>
      <trkpt lat="46.87308" lon="5.7778">
        <ele>583.8</ele>
        <time>2021-05-09T12:52:56Z</time>
      </trkpt>
      <trkpt lat="46.87305" lon="5.77775">
        <ele>585.1</ele>
        <time>2021-05-09T12:53:04Z</time>
      </trkpt>
      <trkpt lat="46.873" lon="5.7777">
        <ele>586</ele>
        <time>2021-05-09T12:53:10Z</time>
      </trkpt>
      <trkpt lat="46.87296" lon="5.77764">
        <ele>586.8</ele>
        <time>2021-05-09T12:53:14Z</time>
      </trkpt>
      <trkpt lat="46.87292" lon="5.77761">
        <ele>587.5</ele>
        <time>2021-05-09T12:53:18Z</time>
      </trkpt>
      <trkpt lat="46.87287" lon="5.77757">
        <ele>587.5</ele>
        <time>2021-05-09T12:53:24Z</time>
      </trkpt>
      <trkpt lat="46.87283" lon="5.77754">
        <ele>586.7</ele>
        <time>2021-05-09T12:53:30Z</time>
      </trkpt>
      <trkpt lat="46.87279" lon="5.77749">
        <ele>586</ele>
        <time>2021-05-09T12:53:36Z</time>
      </trkpt>
      <trkpt lat="46.87276" lon="5.77743">
        <ele>585.5</ele>
        <time>2021-05-09T12:53:40Z</time>
      </trkpt>
      <trkpt lat="46.87272" lon="5.77738">
        <ele>585.1</ele>
        <time>2021-05-09T12:53:45Z</time>
      </trkpt>
      <trkpt lat="46.87268" lon="5.77734">
        <ele>584.8</ele>
        <time>2021-05-09T12:53:49Z</time>
      </trkpt>
      <trkpt lat="46.87264" lon="5.77729">
        <ele>583.8</ele>
        <time>2021-05-09T12:53:55Z</time>
      </trkpt>
      <trkpt lat="46.87261" lon="5.77725">
        <ele>582.3</ele>
        <time>2021-05-09T12:54:02Z</time>
      </trkpt>
      <trkpt lat="46.87259" lon="5.77718">
        <ele>581.6</ele>
        <time>2021-05-09T12:54:07Z</time>
      </trkpt>
      <trkpt lat="46.87256" lon="5.77714">
        <ele>580.9</ele>
        <time>2021-05-09T12:54:12Z</time>
      </trkpt>
      <trkpt lat="46.87253" lon="5.77708">
        <ele>580.2</ele>
        <time>2021-05-09T12:54:17Z</time>
      </trkpt>
      <trkpt lat="46.87251" lon="5.77702">
        <ele>578.9</ele>
        <time>2021-05-09T12:54:23Z</time>
      </trkpt>
      <trkpt lat="46.87247" lon="5.77697">
        <ele>577.5</ele>
        <time>2021-05-09T12:54:30Z</time>
      </trkpt>
      <trkpt lat="46.87244" lon="5.77693">
        <ele>576.6</ele>
        <time>2021-05-09T12:54:36Z</time>
      </trkpt>
      <trkpt lat="46.87238" lon="5.77692">
        <ele>575.8</ele>
        <time>2021-05-09T12:54:43Z</time>
      </trkpt>
      <trkpt lat="46.87234" lon="5.77693">
        <ele>574.3</ele>
        <time>2021-05-09T12:54:58Z</time>
      </trkpt>
      <trkpt lat="46.87231" lon="5.77687">
        <ele>573.9</ele>
        <time>2021-05-09T12:55:07Z</time>
      </trkpt>
      <trkpt lat="46.87228" lon="5.77681">
        <ele>573.2</ele>
        <time>2021-05-09T12:55:13Z</time>
      </trkpt>
      <trkpt lat="46.87226" lon="5.77674">
        <ele>574.1</ele>
        <time>2021-05-09T12:55:27Z</time>
      </trkpt>
      <trkpt lat="46.87222" lon="5.77668">
        <ele>574.5</ele>
        <time>2021-05-09T12:55:32Z</time>
      </trkpt>
      <trkpt lat="46.87219" lon="5.77663">
        <ele>574.8</ele>
        <time>2021-05-09T12:55:38Z</time>
      </trkpt>
      <trkpt lat="46.87214" lon="5.77661">
        <ele>575.8</ele>
        <time>2021-05-09T12:55:44Z</time>
      </trkpt>
      <trkpt lat="46.87209" lon="5.77659">
        <ele>577</ele>
        <time>2021-05-09T12:55:48Z</time>
      </trkpt>
      <trkpt lat="46.87204" lon="5.77656">
        <ele>578.6</ele>
        <time>2021-05-09T12:55:53Z</time>
      </trkpt>
      <trkpt lat="46.87201" lon="5.77649">
        <ele>582.3</ele>
        <time>2021-05-09T12:56:20Z</time>
      </trkpt>
      <trkpt lat="46.87196" lon="5.77646">
        <ele>582.3</ele>
        <time>2021-05-09T12:56:24Z</time>
      </trkpt>
      <trkpt lat="46.87191" lon="5.77645">
        <ele>581.9</ele>
        <time>2021-05-09T12:56:29Z</time>
      </trkpt>
      <trkpt lat="46.87186" lon="5.77646">
        <ele>581.6</ele>
        <time>2021-05-09T12:56:34Z</time>
      </trkpt>
      <trkpt lat="46.87186" lon="5.77653">
        <ele>583.2</ele>
        <time>2021-05-09T12:57:17Z</time>
      </trkpt>
      <trkpt lat="46.87186" lon="5.77661">
        <ele>583.4</ele>
        <time>2021-05-09T12:57:22Z</time>
      </trkpt>
      <trkpt lat="46.87185" lon="5.77667">
        <ele>583.9</ele>
        <time>2021-05-09T12:57:26Z</time>
      </trkpt>
      <trkpt lat="46.87181" lon="5.77673">
        <ele>584.8</ele>
        <time>2021-05-09T12:57:31Z</time>
      </trkpt>
      <trkpt lat="46.87178" lon="5.77679">
        <ele>585.6</ele>
        <time>2021-05-09T12:57:35Z</time>
      </trkpt>
      <trkpt lat="46.87176" lon="5.77685">
        <ele>586.5</ele>
        <time>2021-05-09T12:57:41Z</time>
      </trkpt>
      <trkpt lat="46.87174" lon="5.77692">
        <ele>587</ele>
        <time>2021-05-09T12:57:46Z</time>
      </trkpt>
      <trkpt lat="46.87171" lon="5.77698">
        <ele>587.3</ele>
        <time>2021-05-09T12:57:50Z</time>
      </trkpt>
      <trkpt lat="46.87168" lon="5.77703">
        <ele>587.7</ele>
        <time>2021-05-09T12:57:54Z</time>
      </trkpt>
      <trkpt lat="46.87165" lon="5.77708">
        <ele>588.2</ele>
        <time>2021-05-09T12:57:59Z</time>
      </trkpt>
      <trkpt lat="46.87164" lon="5.77714">
        <ele>589.2</ele>
        <time>2021-05-09T12:58:04Z</time>
      </trkpt>
      <trkpt lat="46.87161" lon="5.77722">
        <ele>590.3</ele>
        <time>2021-05-09T12:58:09Z</time>
      </trkpt>
      <trkpt lat="46.8716" lon="5.77728">
        <ele>591.2</ele>
        <time>2021-05-09T12:58:13Z</time>
      </trkpt>
      <trkpt lat="46.87157" lon="5.77734">
        <ele>592.8</ele>
        <time>2021-05-09T12:58:19Z</time>
      </trkpt>
      <trkpt lat="46.87153" lon="5.77739">
        <ele>593.5</ele>
        <time>2021-05-09T12:58:25Z</time>
      </trkpt>
      <trkpt lat="46.87148" lon="5.77742">
        <ele>593.6</ele>
        <time>2021-05-09T12:58:30Z</time>
      </trkpt>
      <trkpt lat="46.87144" lon="5.77744">
        <ele>593.4</ele>
        <time>2021-05-09T12:58:35Z</time>
      </trkpt>
      <trkpt lat="46.87139" lon="5.77747">
        <ele>593.1</ele>
        <time>2021-05-09T12:58:42Z</time>
      </trkpt>
      <trkpt lat="46.87134" lon="5.77747">
        <ele>592.7</ele>
        <time>2021-05-09T12:58:48Z</time>
      </trkpt>
      <trkpt lat="46.87129" lon="5.77745">
        <ele>592.8</ele>
        <time>2021-05-09T12:58:55Z</time>
      </trkpt>
      <trkpt lat="46.87125" lon="5.77744">
        <ele>593.1</ele>
        <time>2021-05-09T12:59:01Z</time>
      </trkpt>
      <trkpt lat="46.87121" lon="5.77739">
        <ele>592.4</ele>
        <time>2021-05-09T12:59:20Z</time>
      </trkpt>
      <trkpt lat="46.87117" lon="5.77735">
        <ele>590.8</ele>
        <time>2021-05-09T12:59:27Z</time>
      </trkpt>
      <trkpt lat="46.87116" lon="5.77729">
        <ele>589</ele>
        <time>2021-05-09T12:59:35Z</time>
      </trkpt>
      <trkpt lat="46.87114" lon="5.77722">
        <ele>587.4</ele>
        <time>2021-05-09T12:59:43Z</time>
      </trkpt>
      <trkpt lat="46.87115" lon="5.77715">
        <ele>585.4</ele>
        <time>2021-05-09T12:59:53Z</time>
      </trkpt>
      <trkpt lat="46.87116" lon="5.77708">
        <ele>583.6</ele>
        <time>2021-05-09T13:00:02Z</time>
      </trkpt>
      <trkpt lat="46.87116" lon="5.777">
        <ele>582</ele>
        <time>2021-05-09T13:00:10Z</time>
      </trkpt>
      <trkpt lat="46.87114" lon="5.77694">
        <ele>581</ele>
        <time>2021-05-09T13:00:20Z</time>
      </trkpt>
      <trkpt lat="46.87114" lon="5.777">
        <ele>582.2</ele>
        <time>2021-05-09T13:00:47Z</time>
      </trkpt>
      <trkpt lat="46.87115" lon="5.77708">
        <ele>583.5</ele>
        <time>2021-05-09T13:00:54Z</time>
      </trkpt>
      <trkpt lat="46.87116" lon="5.77715">
        <ele>585.4</ele>
        <time>2021-05-09T13:01:00Z</time>
      </trkpt>
      <trkpt lat="46.87116" lon="5.77722">
        <ele>586.9</ele>
        <time>2021-05-09T13:01:05Z</time>
      </trkpt>
      <trkpt lat="46.87117" lon="5.77729">
        <ele>588.1</ele>
        <time>2021-05-09T13:01:10Z</time>
      </trkpt>
      <trkpt lat="46.87119" lon="5.77736">
        <ele>589.4</ele>
        <time>2021-05-09T13:01:16Z</time>
      </trkpt>
      <trkpt lat="46.87123" lon="5.7774">
        <ele>590.1</ele>
        <time>2021-05-09T13:01:21Z</time>
      </trkpt>
      <trkpt lat="46.87127" lon="5.77744">
        <ele>590.8</ele>
        <time>2021-05-09T13:01:28Z</time>
      </trkpt>
      <trkpt lat="46.87132" lon="5.77746">
        <ele>591.8</ele>
        <time>2021-05-09T13:01:36Z</time>
      </trkpt>
      <trkpt lat="46.87137" lon="5.77744">
        <ele>592.2</ele>
        <time>2021-05-09T13:01:44Z</time>
      </trkpt>
      <trkpt lat="46.87142" lon="5.77743">
        <ele>592.4</ele>
        <time>2021-05-09T13:01:49Z</time>
      </trkpt>
      <trkpt lat="46.87146" lon="5.77743">
        <ele>592.3</ele>
        <time>2021-05-09T13:02:01Z</time>
      </trkpt>
      <trkpt lat="46.87152" lon="5.77744">
        <ele>591.8</ele>
        <time>2021-05-09T13:02:20Z</time>
      </trkpt>
      <trkpt lat="46.87157" lon="5.77742">
        <ele>591.5</ele>
        <time>2021-05-09T13:02:24Z</time>
      </trkpt>
      <trkpt lat="46.87162" lon="5.77738">
        <ele>591.1</ele>
        <time>2021-05-09T13:02:30Z</time>
      </trkpt>
      <trkpt lat="46.87166" lon="5.77733">
        <ele>590.5</ele>
        <time>2021-05-09T13:02:35Z</time>
      </trkpt>
      <trkpt lat="46.87168" lon="5.77726">
        <ele>589.8</ele>
        <time>2021-05-09T13:02:41Z</time>
      </trkpt>
      <trkpt lat="46.8717" lon="5.7772">
        <ele>589.2</ele>
        <time>2021-05-09T13:02:45Z</time>
      </trkpt>
      <trkpt lat="46.87171" lon="5.77713">
        <ele>588.5</ele>
        <time>2021-05-09T13:02:50Z</time>
      </trkpt>
      <trkpt lat="46.87172" lon="5.77706">
        <ele>587.9</ele>
        <time>2021-05-09T13:02:55Z</time>
      </trkpt>
      <trkpt lat="46.87175" lon="5.777">
        <ele>587.4</ele>
        <time>2021-05-09T13:03:01Z</time>
      </trkpt>
      <trkpt lat="46.87178" lon="5.77694">
        <ele>587</ele>
        <time>2021-05-09T13:03:06Z</time>
      </trkpt>
      <trkpt lat="46.87181" lon="5.77689">
        <ele>586.5</ele>
        <time>2021-05-09T13:03:12Z</time>
      </trkpt>
      <trkpt lat="46.87185" lon="5.77684">
        <ele>585.9</ele>
        <time>2021-05-09T13:03:17Z</time>
      </trkpt>
      <trkpt lat="46.87188" lon="5.7768">
        <ele>585.2</ele>
        <time>2021-05-09T13:03:22Z</time>
      </trkpt>
      <trkpt lat="46.87191" lon="5.77673">
        <ele>584.2</ele>
        <time>2021-05-09T13:03:27Z</time>
      </trkpt>
      <trkpt lat="46.87195" lon="5.77668">
        <ele>583.3</ele>
        <time>2021-05-09T13:03:32Z</time>
      </trkpt>
      <trkpt lat="46.87199" lon="5.77665">
        <ele>582.7</ele>
        <time>2021-05-09T13:03:37Z</time>
      </trkpt>
      <trkpt lat="46.87204" lon="5.77661">
        <ele>582.2</ele>
        <time>2021-05-09T13:03:42Z</time>
      </trkpt>
      <trkpt lat="46.87207" lon="5.77656">
        <ele>581.8</ele>
        <time>2021-05-09T13:03:48Z</time>
      </trkpt>
      <trkpt lat="46.8721" lon="5.7765">
        <ele>581.6</ele>
        <time>2021-05-09T13:03:55Z</time>
      </trkpt>
      <trkpt lat="46.87214" lon="5.77645">
        <ele>581</ele>
        <time>2021-05-09T13:04:00Z</time>
      </trkpt>
      <trkpt lat="46.87218" lon="5.77641">
        <ele>578.1</ele>
        <time>2021-05-09T13:04:17Z</time>
      </trkpt>
      <trkpt lat="46.87216" lon="5.77635">
        <ele>577.2</ele>
        <time>2021-05-09T13:04:31Z</time>
      </trkpt>
      <trkpt lat="46.87215" lon="5.77628">
        <ele>577</ele>
        <time>2021-05-09T13:04:36Z</time>
      </trkpt>
      <trkpt lat="46.87212" lon="5.77623">
        <ele>576.6</ele>
        <time>2021-05-09T13:04:45Z</time>
      </trkpt>
      <trkpt lat="46.87209" lon="5.77618">
        <ele>576.9</ele>
        <time>2021-05-09T13:05:05Z</time>
      </trkpt>
      <trkpt lat="46.87214" lon="5.7762">
        <ele>578.6</ele>
        <time>2021-05-09T13:05:15Z</time>
      </trkpt>
      <trkpt lat="46.87216" lon="5.77626">
        <ele>580.3</ele>
        <time>2021-05-09T13:05:22Z</time>
      </trkpt>
      <trkpt lat="46.87221" lon="5.77629">
        <ele>581.7</ele>
        <time>2021-05-09T13:05:28Z</time>
      </trkpt>
      <trkpt lat="46.87226" lon="5.7763">
        <ele>583</ele>
        <time>2021-05-09T13:05:34Z</time>
      </trkpt>
      <trkpt lat="46.8723" lon="5.7763">
        <ele>583.9</ele>
        <time>2021-05-09T13:05:45Z</time>
      </trkpt>
      <trkpt lat="46.87234" lon="5.77625">
        <ele>584.2</ele>
        <time>2021-05-09T13:05:52Z</time>
      </trkpt>
      <trkpt lat="46.8724" lon="5.77623">
        <ele>584.6</ele>
        <time>2021-05-09T13:06:00Z</time>
      </trkpt>
      <trkpt lat="46.87247" lon="5.77619">
        <ele>584.8</ele>
        <time>2021-05-09T13:06:13Z</time>
      </trkpt>
      <trkpt lat="46.87254" lon="5.77613">
        <ele>584.8</ele>
        <time>2021-05-09T13:06:17Z</time>
      </trkpt>
      <trkpt lat="46.87258" lon="5.7761">
        <ele>584.9</ele>
        <time>2021-05-09T13:06:21Z</time>
      </trkpt>
      <trkpt lat="46.87262" lon="5.77606">
        <ele>584.8</ele>
        <time>2021-05-09T13:06:25Z</time>
      </trkpt>
      <trkpt lat="46.87268" lon="5.77603">
        <ele>584.5</ele>
        <time>2021-05-09T13:06:29Z</time>
      </trkpt>
      <trkpt lat="46.87274" lon="5.77601">
        <ele>584.4</ele>
        <time>2021-05-09T13:06:33Z</time>
      </trkpt>
      <trkpt lat="46.87279" lon="5.77599">
        <ele>584.3</ele>
        <time>2021-05-09T13:06:37Z</time>
      </trkpt>
      <trkpt lat="46.87284" lon="5.77597">
        <ele>584.1</ele>
        <time>2021-05-09T13:06:41Z</time>
      </trkpt>
      <trkpt lat="46.87289" lon="5.77594">
        <ele>584</ele>
        <time>2021-05-09T13:06:45Z</time>
      </trkpt>
      <trkpt lat="46.87294" lon="5.77592">
        <ele>583.5</ele>
        <time>2021-05-09T13:06:49Z</time>
      </trkpt>
      <trkpt lat="46.87298" lon="5.77589">
        <ele>582.9</ele>
        <time>2021-05-09T13:06:53Z</time>
      </trkpt>
      <trkpt lat="46.87303" lon="5.77586">
        <ele>582</ele>
        <time>2021-05-09T13:06:59Z</time>
      </trkpt>
      <trkpt lat="46.87308" lon="5.77585">
        <ele>581.9</ele>
        <time>2021-05-09T13:07:04Z</time>
      </trkpt>
      <trkpt lat="46.87312" lon="5.77586">
        <ele>581.9</ele>
        <time>2021-05-09T13:07:11Z</time>
      </trkpt>
      <trkpt lat="46.87318" lon="5.77585">
        <ele>582.1</ele>
        <time>2021-05-09T13:07:16Z</time>
      </trkpt>
      <trkpt lat="46.87322" lon="5.77584">
        <ele>582.1</ele>
        <time>2021-05-09T13:07:20Z</time>
      </trkpt>
      <trkpt lat="46.87327" lon="5.77582">
        <ele>582.1</ele>
        <time>2021-05-09T13:07:25Z</time>
      </trkpt>
      <trkpt lat="46.87332" lon="5.77579">
        <ele>582.6</ele>
        <time>2021-05-09T13:07:30Z</time>
      </trkpt>
      <trkpt lat="46.87337" lon="5.77578">
        <ele>582.8</ele>
        <time>2021-05-09T13:07:36Z</time>
      </trkpt>
      <trkpt lat="46.87341" lon="5.77577">
        <ele>582.6</ele>
        <time>2021-05-09T13:07:42Z</time>
      </trkpt>
      <trkpt lat="46.87348" lon="5.77571">
        <ele>582.1</ele>
        <time>2021-05-09T13:07:57Z</time>
      </trkpt>
      <trkpt lat="46.87353" lon="5.77563">
        <ele>581.6</ele>
        <time>2021-05-09T13:08:01Z</time>
      </trkpt>
      <trkpt lat="46.87357" lon="5.77558">
        <ele>581.2</ele>
        <time>2021-05-09T13:08:05Z</time>
      </trkpt>
      <trkpt lat="46.87362" lon="5.77555">
        <ele>580.7</ele>
        <time>2021-05-09T13:08:10Z</time>
      </trkpt>
      <trkpt lat="46.87366" lon="5.77553">
        <ele>580.3</ele>
        <time>2021-05-09T13:08:20Z</time>
      </trkpt>
      <trkpt lat="46.87372" lon="5.77547">
        <ele>581</ele>
        <time>2021-05-09T13:08:47Z</time>
      </trkpt>
      <trkpt lat="46.87375" lon="5.77542">
        <ele>582</ele>
        <time>2021-05-09T13:08:53Z</time>
      </trkpt>
      <trkpt lat="46.87376" lon="5.77535">
        <ele>583</ele>
        <time>2021-05-09T13:09:09Z</time>
      </trkpt>
      <trkpt lat="46.87377" lon="5.77528">
        <ele>583.6</ele>
        <time>2021-05-09T13:09:17Z</time>
      </trkpt>
      <trkpt lat="46.87378" lon="5.77521">
        <ele>583.6</ele>
        <time>2021-05-09T13:09:22Z</time>
      </trkpt>
      <trkpt lat="46.87379" lon="5.77514">
        <ele>582.5</ele>
        <time>2021-05-09T13:09:28Z</time>
      </trkpt>
      <trkpt lat="46.87379" lon="5.77507">
        <ele>581.8</ele>
        <time>2021-05-09T13:09:40Z</time>
      </trkpt>
      <trkpt lat="46.8738" lon="5.775">
        <ele>581.9</ele>
        <time>2021-05-09T13:09:53Z</time>
      </trkpt>
      <trkpt lat="46.87383" lon="5.77493">
        <ele>581.4</ele>
        <time>2021-05-09T13:09:58Z</time>
      </trkpt>
      <trkpt lat="46.87385" lon="5.77487">
        <ele>580.9</ele>
        <time>2021-05-09T13:10:03Z</time>
      </trkpt>
      <trkpt lat="46.87387" lon="5.77479">
        <ele>579.9</ele>
        <time>2021-05-09T13:10:09Z</time>
      </trkpt>
      <trkpt lat="46.87387" lon="5.77472">
        <ele>578.9</ele>
        <time>2021-05-09T13:10:16Z</time>
      </trkpt>
      <trkpt lat="46.87387" lon="5.77465">
        <ele>578.4</ele>
        <time>2021-05-09T13:10:25Z</time>
      </trkpt>
      <trkpt lat="46.87387" lon="5.77459">
        <ele>577.7</ele>
        <time>2021-05-09T13:10:30Z</time>
      </trkpt>
      <trkpt lat="46.87389" lon="5.77452">
        <ele>576.8</ele>
        <time>2021-05-09T13:10:35Z</time>
      </trkpt>
      <trkpt lat="46.87392" lon="5.77447">
        <ele>575.7</ele>
        <time>2021-05-09T13:10:42Z</time>
      </trkpt>
      <trkpt lat="46.87392" lon="5.77439">
        <ele>574.7</ele>
        <time>2021-05-09T13:10:49Z</time>
      </trkpt>
      <trkpt lat="46.87392" lon="5.77431">
        <ele>573.1</ele>
        <time>2021-05-09T13:10:55Z</time>
      </trkpt>
      <trkpt lat="46.87392" lon="5.77423">
        <ele>571.8</ele>
        <time>2021-05-09T13:10:59Z</time>
      </trkpt>
      <trkpt lat="46.87391" lon="5.77416">
        <ele>570.5</ele>
        <time>2021-05-09T13:11:03Z</time>
      </trkpt>
      <trkpt lat="46.87391" lon="5.77409">
        <ele>569</ele>
        <time>2021-05-09T13:11:08Z</time>
      </trkpt>
      <trkpt lat="46.87393" lon="5.77402">
        <ele>567</ele>
        <time>2021-05-09T13:11:15Z</time>
      </trkpt>
      <trkpt lat="46.87395" lon="5.77396">
        <ele>565.5</ele>
        <time>2021-05-09T13:11:20Z</time>
      </trkpt>
      <trkpt lat="46.87399" lon="5.77391">
        <ele>563.9</ele>
        <time>2021-05-09T13:11:24Z</time>
      </trkpt>
      <trkpt lat="46.87402" lon="5.77386">
        <ele>562.2</ele>
        <time>2021-05-09T13:11:29Z</time>
      </trkpt>
      <trkpt lat="46.87404" lon="5.7738">
        <ele>561.3</ele>
        <time>2021-05-09T13:11:34Z</time>
      </trkpt>
      <trkpt lat="46.87409" lon="5.77376">
        <ele>560.5</ele>
        <time>2021-05-09T13:11:52Z</time>
      </trkpt>
      <trkpt lat="46.87413" lon="5.77372">
        <ele>560.5</ele>
        <time>2021-05-09T13:11:57Z</time>
      </trkpt>
      <trkpt lat="46.87418" lon="5.77372">
        <ele>560.3</ele>
        <time>2021-05-09T13:12:06Z</time>
      </trkpt>
      <trkpt lat="46.87422" lon="5.77372">
        <ele>560.3</ele>
        <time>2021-05-09T13:12:15Z</time>
      </trkpt>
      <trkpt lat="46.8743" lon="5.77366">
        <ele>559</ele>
        <time>2021-05-09T13:12:39Z</time>
      </trkpt>
      <trkpt lat="46.87435" lon="5.77362">
        <ele>558.6</ele>
        <time>2021-05-09T13:12:43Z</time>
      </trkpt>
      <trkpt lat="46.87439" lon="5.7736">
        <ele>558.4</ele>
        <time>2021-05-09T13:12:49Z</time>
      </trkpt>
      <trkpt lat="46.87443" lon="5.77356">
        <ele>558.3</ele>
        <time>2021-05-09T13:12:54Z</time>
      </trkpt>
      <trkpt lat="46.87449" lon="5.77352">
        <ele>558.1</ele>
        <time>2021-05-09T13:13:00Z</time>
      </trkpt>
      <trkpt lat="46.87456" lon="5.77346">
        <ele>557.5</ele>
        <time>2021-05-09T13:13:04Z</time>
      </trkpt>
      <trkpt lat="46.87462" lon="5.77343">
        <ele>556.8</ele>
        <time>2021-05-09T13:13:08Z</time>
      </trkpt>
      <trkpt lat="46.87467" lon="5.77338">
        <ele>556.1</ele>
        <time>2021-05-09T13:13:12Z</time>
      </trkpt>
      <trkpt lat="46.87475" lon="5.77332">
        <ele>555.9</ele>
        <time>2021-05-09T13:13:16Z</time>
      </trkpt>
      <trkpt lat="46.87483" lon="5.77324">
        <ele>555.5</ele>
        <time>2021-05-09T13:13:20Z</time>
      </trkpt>
      <trkpt lat="46.8749" lon="5.77316">
        <ele>554.9</ele>
        <time>2021-05-09T13:13:24Z</time>
      </trkpt>
      <trkpt lat="46.87495" lon="5.7731">
        <ele>554</ele>
        <time>2021-05-09T13:13:28Z</time>
      </trkpt>
      <trkpt lat="46.87499" lon="5.77305">
        <ele>553.3</ele>
        <time>2021-05-09T13:13:32Z</time>
      </trkpt>
      <trkpt lat="46.87502" lon="5.77298">
        <ele>552.2</ele>
        <time>2021-05-09T13:13:37Z</time>
      </trkpt>
      <trkpt lat="46.87505" lon="5.77293">
        <ele>551</ele>
        <time>2021-05-09T13:13:42Z</time>
      </trkpt>
      <trkpt lat="46.87509" lon="5.77289">
        <ele>549.9</ele>
        <time>2021-05-09T13:13:46Z</time>
      </trkpt>
      <trkpt lat="46.87514" lon="5.77284">
        <ele>549</ele>
        <time>2021-05-09T13:13:50Z</time>
      </trkpt>
      <trkpt lat="46.8752" lon="5.77277">
        <ele>548.2</ele>
        <time>2021-05-09T13:13:54Z</time>
      </trkpt>
      <trkpt lat="46.87523" lon="5.77272">
        <ele>547.1</ele>
        <time>2021-05-09T13:13:59Z</time>
      </trkpt>
      <trkpt lat="46.87527" lon="5.77266">
        <ele>546.2</ele>
        <time>2021-05-09T13:14:05Z</time>
      </trkpt>
      <trkpt lat="46.8753" lon="5.77261">
        <ele>545.8</ele>
        <time>2021-05-09T13:14:09Z</time>
      </trkpt>
      <trkpt lat="46.87533" lon="5.77255">
        <ele>545.5</ele>
        <time>2021-05-09T13:14:13Z</time>
      </trkpt>
      <trkpt lat="46.87535" lon="5.77249">
        <ele>545.1</ele>
        <time>2021-05-09T13:14:18Z</time>
      </trkpt>
      <trkpt lat="46.87538" lon="5.77244">
        <ele>544.9</ele>
        <time>2021-05-09T13:14:23Z</time>
      </trkpt>
      <trkpt lat="46.87542" lon="5.77239">
        <ele>544.7</ele>
        <time>2021-05-09T13:14:29Z</time>
      </trkpt>
      <trkpt lat="46.87544" lon="5.77232">
        <ele>544.4</ele>
        <time>2021-05-09T13:14:34Z</time>
      </trkpt>
      <trkpt lat="46.87548" lon="5.77221">
        <ele>543.8</ele>
        <time>2021-05-09T13:14:45Z</time>
      </trkpt>
      <trkpt lat="46.87552" lon="5.77206">
        <ele>542.8</ele>
        <time>2021-05-09T13:14:49Z</time>
      </trkpt>
      <trkpt lat="46.87557" lon="5.77198">
        <ele>541.5</ele>
        <time>2021-05-09T13:14:53Z</time>
      </trkpt>
      <trkpt lat="46.87563" lon="5.77189">
        <ele>539.1</ele>
        <time>2021-05-09T13:14:57Z</time>
      </trkpt>
      <trkpt lat="46.87569" lon="5.77183">
        <ele>537.3</ele>
        <time>2021-05-09T13:15:01Z</time>
      </trkpt>
      <trkpt lat="46.87573" lon="5.77178">
        <ele>536.5</ele>
        <time>2021-05-09T13:15:05Z</time>
      </trkpt>
      <trkpt lat="46.87577" lon="5.77173">
        <ele>535.7</ele>
        <time>2021-05-09T13:15:09Z</time>
      </trkpt>
      <trkpt lat="46.87583" lon="5.77166">
        <ele>535.6</ele>
        <time>2021-05-09T13:15:13Z</time>
      </trkpt>
      <trkpt lat="46.8759" lon="5.7716">
        <ele>535.7</ele>
        <time>2021-05-09T13:15:17Z</time>
      </trkpt>
      <trkpt lat="46.87597" lon="5.77155">
        <ele>536</ele>
        <time>2021-05-09T13:15:21Z</time>
      </trkpt>
      <trkpt lat="46.87601" lon="5.77151">
        <ele>536.1</ele>
        <time>2021-05-09T13:15:25Z</time>
      </trkpt>
      <trkpt lat="46.87604" lon="5.77145">
        <ele>536.4</ele>
        <time>2021-05-09T13:15:30Z</time>
      </trkpt>
      <trkpt lat="46.87609" lon="5.7714">
        <ele>537</ele>
        <time>2021-05-09T13:15:35Z</time>
      </trkpt>
      <trkpt lat="46.87612" lon="5.77135">
        <ele>537.5</ele>
        <time>2021-05-09T13:15:39Z</time>
      </trkpt>
      <trkpt lat="46.87616" lon="5.7713">
        <ele>538.4</ele>
        <time>2021-05-09T13:15:43Z</time>
      </trkpt>
      <trkpt lat="46.8762" lon="5.77124">
        <ele>539.6</ele>
        <time>2021-05-09T13:15:48Z</time>
      </trkpt>
      <trkpt lat="46.87623" lon="5.77118">
        <ele>540.3</ele>
        <time>2021-05-09T13:15:53Z</time>
      </trkpt>
      <trkpt lat="46.87624" lon="5.77112">
        <ele>540.8</ele>
        <time>2021-05-09T13:16:11Z</time>
      </trkpt>
      <trkpt lat="46.87627" lon="5.77106">
        <ele>540.8</ele>
        <time>2021-05-09T13:16:15Z</time>
      </trkpt>
      <trkpt lat="46.8763" lon="5.77099">
        <ele>541.2</ele>
        <time>2021-05-09T13:16:19Z</time>
      </trkpt>
      <trkpt lat="46.87633" lon="5.77093">
        <ele>542</ele>
        <time>2021-05-09T13:16:23Z</time>
      </trkpt>
      <trkpt lat="46.87635" lon="5.77086">
        <ele>542.6</ele>
        <time>2021-05-09T13:16:27Z</time>
      </trkpt>
      <trkpt lat="46.87638" lon="5.77079">
        <ele>543.3</ele>
        <time>2021-05-09T13:16:33Z</time>
      </trkpt>
      <trkpt lat="46.87639" lon="5.77073">
        <ele>544.2</ele>
        <time>2021-05-09T13:16:38Z</time>
      </trkpt>
      <trkpt lat="46.87642" lon="5.77066">
        <ele>545</ele>
        <time>2021-05-09T13:16:43Z</time>
      </trkpt>
      <trkpt lat="46.87646" lon="5.77061">
        <ele>545.3</ele>
        <time>2021-05-09T13:16:47Z</time>
      </trkpt>
      <trkpt lat="46.87649" lon="5.77054">
        <ele>545.5</ele>
        <time>2021-05-09T13:16:51Z</time>
      </trkpt>
      <trkpt lat="46.8765" lon="5.77047">
        <ele>545.9</ele>
        <time>2021-05-09T13:16:55Z</time>
      </trkpt>
      <trkpt lat="46.87651" lon="5.7704">
        <ele>546.3</ele>
        <time>2021-05-09T13:17:00Z</time>
      </trkpt>
      <trkpt lat="46.87654" lon="5.77034">
        <ele>547.2</ele>
        <time>2021-05-09T13:17:05Z</time>
      </trkpt>
      <trkpt lat="46.87657" lon="5.77027">
        <ele>548.1</ele>
        <time>2021-05-09T13:17:11Z</time>
      </trkpt>
      <trkpt lat="46.87659" lon="5.7702">
        <ele>548.9</ele>
        <time>2021-05-09T13:17:16Z</time>
      </trkpt>
      <trkpt lat="46.8766" lon="5.77012">
        <ele>549.9</ele>
        <time>2021-05-09T13:17:20Z</time>
      </trkpt>
      <trkpt lat="46.87662" lon="5.77006">
        <ele>550.8</ele>
        <time>2021-05-09T13:17:24Z</time>
      </trkpt>
      <trkpt lat="46.87665" lon="5.76997">
        <ele>551.6</ele>
        <time>2021-05-09T13:17:28Z</time>
      </trkpt>
      <trkpt lat="46.87668" lon="5.7699">
        <ele>551.4</ele>
        <time>2021-05-09T13:17:32Z</time>
      </trkpt>
      <trkpt lat="46.8767" lon="5.76983">
        <ele>550.6</ele>
        <time>2021-05-09T13:17:36Z</time>
      </trkpt>
      <trkpt lat="46.8767" lon="5.76976">
        <ele>549.1</ele>
        <time>2021-05-09T13:17:44Z</time>
      </trkpt>
      <trkpt lat="46.87671" lon="5.76969">
        <ele>550.4</ele>
        <time>2021-05-09T13:17:51Z</time>
      </trkpt>
      <trkpt lat="46.87675" lon="5.76964">
        <ele>551.3</ele>
        <time>2021-05-09T13:17:58Z</time>
      </trkpt>
      <trkpt lat="46.87676" lon="5.76956">
        <ele>553.1</ele>
        <time>2021-05-09T13:18:05Z</time>
      </trkpt>
      <trkpt lat="46.87676" lon="5.76949">
        <ele>555.6</ele>
        <time>2021-05-09T13:18:11Z</time>
      </trkpt>
      <trkpt lat="46.87679" lon="5.76943">
        <ele>559.7</ele>
        <time>2021-05-09T13:18:18Z</time>
      </trkpt>
      <trkpt lat="46.87682" lon="5.76937">
        <ele>561.7</ele>
        <time>2021-05-09T13:18:25Z</time>
      </trkpt>
      <trkpt lat="46.87681" lon="5.7693">
        <ele>562.3</ele>
        <time>2021-05-09T13:18:30Z</time>
      </trkpt>
      <trkpt lat="46.87682" lon="5.76924">
        <ele>563.2</ele>
        <time>2021-05-09T13:18:37Z</time>
      </trkpt>
      <trkpt lat="46.87686" lon="5.76916">
        <ele>563.6</ele>
        <time>2021-05-09T13:18:43Z</time>
      </trkpt>
      <trkpt lat="46.87689" lon="5.76908">
        <ele>564.2</ele>
        <time>2021-05-09T13:18:47Z</time>
      </trkpt>
      <trkpt lat="46.87695" lon="5.76902">
        <ele>565.4</ele>
        <time>2021-05-09T13:18:51Z</time>
      </trkpt>
      <trkpt lat="46.87699" lon="5.76895">
        <ele>566.6</ele>
        <time>2021-05-09T13:18:55Z</time>
      </trkpt>
      <trkpt lat="46.87703" lon="5.76891">
        <ele>566.8</ele>
        <time>2021-05-09T13:19:00Z</time>
      </trkpt>
      <trkpt lat="46.87707" lon="5.76886">
        <ele>566.2</ele>
        <time>2021-05-09T13:19:06Z</time>
      </trkpt>
      <trkpt lat="46.87705" lon="5.7688">
        <ele>566</ele>
        <time>2021-05-09T13:19:11Z</time>
      </trkpt>
      <trkpt lat="46.87705" lon="5.76873">
        <ele>565.1</ele>
        <time>2021-05-09T13:19:17Z</time>
      </trkpt>
      <trkpt lat="46.87712" lon="5.76871">
        <ele>562.7</ele>
        <time>2021-05-09T13:19:21Z</time>
      </trkpt>
      <trkpt lat="46.87717" lon="5.76861">
        <ele>560.7</ele>
        <time>2021-05-09T13:19:25Z</time>
      </trkpt>
      <trkpt lat="46.87717" lon="5.76854">
        <ele>559.6</ele>
        <time>2021-05-09T13:19:32Z</time>
      </trkpt>
      <trkpt lat="46.87718" lon="5.76847">
        <ele>561.4</ele>
        <time>2021-05-09T13:19:45Z</time>
      </trkpt>
      <trkpt lat="46.87718" lon="5.7684">
        <ele>565.7</ele>
        <time>2021-05-09T13:20:21Z</time>
      </trkpt>
      <trkpt lat="46.8772" lon="5.76831">
        <ele>567.5</ele>
        <time>2021-05-09T13:21:09Z</time>
      </trkpt>
      <trkpt lat="46.87724" lon="5.76824">
        <ele>568.1</ele>
        <time>2021-05-09T13:21:13Z</time>
      </trkpt>
      <trkpt lat="46.87728" lon="5.76819">
        <ele>568.4</ele>
        <time>2021-05-09T13:21:17Z</time>
      </trkpt>
      <trkpt lat="46.87732" lon="5.76814">
        <ele>568</ele>
        <time>2021-05-09T13:21:22Z</time>
      </trkpt>
      <trkpt lat="46.87736" lon="5.76809">
        <ele>567.5</ele>
        <time>2021-05-09T13:21:27Z</time>
      </trkpt>
      <trkpt lat="46.8774" lon="5.76803">
        <ele>566.6</ele>
        <time>2021-05-09T13:21:32Z</time>
      </trkpt>
      <trkpt lat="46.87743" lon="5.76797">
        <ele>565.9</ele>
        <time>2021-05-09T13:21:37Z</time>
      </trkpt>
      <trkpt lat="46.87747" lon="5.76793">
        <ele>565.5</ele>
        <time>2021-05-09T13:21:44Z</time>
      </trkpt>
      <trkpt lat="46.87751" lon="5.76787">
        <ele>566</ele>
        <time>2021-05-09T13:21:51Z</time>
      </trkpt>
      <trkpt lat="46.87754" lon="5.76782">
        <ele>567.2</ele>
        <time>2021-05-09T13:21:56Z</time>
      </trkpt>
      <trkpt lat="46.87757" lon="5.76776">
        <ele>567.7</ele>
        <time>2021-05-09T13:22:00Z</time>
      </trkpt>
      <trkpt lat="46.8776" lon="5.7677">
        <ele>567.6</ele>
        <time>2021-05-09T13:22:05Z</time>
      </trkpt>
      <trkpt lat="46.87763" lon="5.76763">
        <ele>568.2</ele>
        <time>2021-05-09T13:22:10Z</time>
      </trkpt>
      <trkpt lat="46.87768" lon="5.76757">
        <ele>568.1</ele>
        <time>2021-05-09T13:22:14Z</time>
      </trkpt>
      <trkpt lat="46.87772" lon="5.76754">
        <ele>566.7</ele>
        <time>2021-05-09T13:22:18Z</time>
      </trkpt>
      <trkpt lat="46.87776" lon="5.7675">
        <ele>564.9</ele>
        <time>2021-05-09T13:22:23Z</time>
      </trkpt>
      <trkpt lat="46.87779" lon="5.76745">
        <ele>563.8</ele>
        <time>2021-05-09T13:22:29Z</time>
      </trkpt>
      <trkpt lat="46.87784" lon="5.7674">
        <ele>563.5</ele>
        <time>2021-05-09T13:22:34Z</time>
      </trkpt>
      <trkpt lat="46.87788" lon="5.76736">
        <ele>562.8</ele>
        <time>2021-05-09T13:22:38Z</time>
      </trkpt>
      <trkpt lat="46.87793" lon="5.76731">
        <ele>562.2</ele>
        <time>2021-05-09T13:22:42Z</time>
      </trkpt>
      <trkpt lat="46.87797" lon="5.76726">
        <ele>561.9</ele>
        <time>2021-05-09T13:22:46Z</time>
      </trkpt>
      <trkpt lat="46.878" lon="5.7672">
        <ele>561.4</ele>
        <time>2021-05-09T13:22:52Z</time>
      </trkpt>
      <trkpt lat="46.87803" lon="5.76715">
        <ele>561.6</ele>
        <time>2021-05-09T13:22:58Z</time>
      </trkpt>
      <trkpt lat="46.87806" lon="5.76709">
        <ele>562.3</ele>
        <time>2021-05-09T13:23:03Z</time>
      </trkpt>
      <trkpt lat="46.87813" lon="5.76706">
        <ele>561.8</ele>
        <time>2021-05-09T13:23:07Z</time>
      </trkpt>
      <trkpt lat="46.87817" lon="5.76704">
        <ele>561.2</ele>
        <time>2021-05-09T13:23:11Z</time>
      </trkpt>
      <trkpt lat="46.87822" lon="5.76703">
        <ele>559.7</ele>
        <time>2021-05-09T13:23:16Z</time>
      </trkpt>
      <trkpt lat="46.87826" lon="5.76699">
        <ele>558.4</ele>
        <time>2021-05-09T13:23:20Z</time>
      </trkpt>
      <trkpt lat="46.8783" lon="5.76693">
        <ele>556.9</ele>
        <time>2021-05-09T13:23:24Z</time>
      </trkpt>
      <trkpt lat="46.87834" lon="5.76687">
        <ele>555.4</ele>
        <time>2021-05-09T13:23:28Z</time>
      </trkpt>
      <trkpt lat="46.87838" lon="5.76681">
        <ele>553.9</ele>
        <time>2021-05-09T13:23:32Z</time>
      </trkpt>
      <trkpt lat="46.87841" lon="5.76676">
        <ele>552.5</ele>
        <time>2021-05-09T13:23:36Z</time>
      </trkpt>
      <trkpt lat="46.87844" lon="5.7667">
        <ele>551.7</ele>
        <time>2021-05-09T13:23:40Z</time>
      </trkpt>
      <trkpt lat="46.87846" lon="5.76664">
        <ele>550.6</ele>
        <time>2021-05-09T13:23:46Z</time>
      </trkpt>
      <trkpt lat="46.87848" lon="5.76658">
        <ele>550.3</ele>
        <time>2021-05-09T13:23:51Z</time>
      </trkpt>
      <trkpt lat="46.87851" lon="5.76651">
        <ele>550.1</ele>
        <time>2021-05-09T13:23:56Z</time>
      </trkpt>
      <trkpt lat="46.87853" lon="5.76644">
        <ele>549.7</ele>
        <time>2021-05-09T13:24:01Z</time>
      </trkpt>
      <trkpt lat="46.87856" lon="5.76638">
        <ele>549.3</ele>
        <time>2021-05-09T13:24:05Z</time>
      </trkpt>
      <trkpt lat="46.87859" lon="5.76632">
        <ele>548.2</ele>
        <time>2021-05-09T13:24:12Z</time>
      </trkpt>
      <trkpt lat="46.8786" lon="5.76625">
        <ele>547.6</ele>
        <time>2021-05-09T13:24:16Z</time>
      </trkpt>
      <trkpt lat="46.87862" lon="5.76618">
        <ele>547</ele>
        <time>2021-05-09T13:24:21Z</time>
      </trkpt>
      <trkpt lat="46.87865" lon="5.76612">
        <ele>546.7</ele>
        <time>2021-05-09T13:24:25Z</time>
      </trkpt>
      <trkpt lat="46.87867" lon="5.76604">
        <ele>546.3</ele>
        <time>2021-05-09T13:24:30Z</time>
      </trkpt>
      <trkpt lat="46.87869" lon="5.76597">
        <ele>545.7</ele>
        <time>2021-05-09T13:24:35Z</time>
      </trkpt>
      <trkpt lat="46.87868" lon="5.76588">
        <ele>546.3</ele>
        <time>2021-05-09T13:24:39Z</time>
      </trkpt>
      <trkpt lat="46.87867" lon="5.76576">
        <ele>547.1</ele>
        <time>2021-05-09T13:24:43Z</time>
      </trkpt>
      <trkpt lat="46.87869" lon="5.7657">
        <ele>547.4</ele>
        <time>2021-05-09T13:24:48Z</time>
      </trkpt>
      <trkpt lat="46.87872" lon="5.76564">
        <ele>547</ele>
        <time>2021-05-09T13:24:53Z</time>
      </trkpt>
      <trkpt lat="46.87875" lon="5.76558">
        <ele>547.1</ele>
        <time>2021-05-09T13:24:57Z</time>
      </trkpt>
      <trkpt lat="46.87878" lon="5.76553">
        <ele>547.4</ele>
        <time>2021-05-09T13:25:02Z</time>
      </trkpt>
      <trkpt lat="46.87881" lon="5.76547">
        <ele>547.5</ele>
        <time>2021-05-09T13:25:10Z</time>
      </trkpt>
      <trkpt lat="46.8788" lon="5.7654">
        <ele>547.7</ele>
        <time>2021-05-09T13:25:16Z</time>
      </trkpt>
      <trkpt lat="46.87876" lon="5.76531">
        <ele>548.9</ele>
        <time>2021-05-09T13:25:20Z</time>
      </trkpt>
      <trkpt lat="46.87871" lon="5.76523">
        <ele>551</ele>
        <time>2021-05-09T13:25:24Z</time>
      </trkpt>
      <trkpt lat="46.87866" lon="5.76513">
        <ele>556.1</ele>
        <time>2021-05-09T13:25:33Z</time>
      </trkpt>
      <trkpt lat="46.87862" lon="5.76507">
        <ele>558.9</ele>
        <time>2021-05-09T13:25:37Z</time>
      </trkpt>
      <trkpt lat="46.87867" lon="5.76505">
        <ele>563.3</ele>
        <time>2021-05-09T13:26:12Z</time>
      </trkpt>
      <trkpt lat="46.87871" lon="5.76502">
        <ele>565.7</ele>
        <time>2021-05-09T13:26:23Z</time>
      </trkpt>
      <trkpt lat="46.87876" lon="5.765">
        <ele>568.5</ele>
        <time>2021-05-09T13:27:07Z</time>
      </trkpt>
      <trkpt lat="46.87881" lon="5.76498">
        <ele>568.9</ele>
        <time>2021-05-09T13:27:12Z</time>
      </trkpt>
      <trkpt lat="46.87885" lon="5.76496">
        <ele>569.2</ele>
        <time>2021-05-09T13:27:16Z</time>
      </trkpt>
      <trkpt lat="46.8789" lon="5.76493">
        <ele>569.8</ele>
        <time>2021-05-09T13:27:23Z</time>
      </trkpt>
      <trkpt lat="46.87894" lon="5.7649">
        <ele>569</ele>
        <time>2021-05-09T13:27:35Z</time>
      </trkpt>
      <trkpt lat="46.87897" lon="5.76485">
        <ele>569.9</ele>
        <time>2021-05-09T13:27:41Z</time>
      </trkpt>
      <trkpt lat="46.87902" lon="5.76483">
        <ele>570.3</ele>
        <time>2021-05-09T13:27:46Z</time>
      </trkpt>
      <trkpt lat="46.87907" lon="5.76482">
        <ele>570.6</ele>
        <time>2021-05-09T13:27:51Z</time>
      </trkpt>
      <trkpt lat="46.87912" lon="5.7648">
        <ele>570.9</ele>
        <time>2021-05-09T13:27:57Z</time>
      </trkpt>
      <trkpt lat="46.87917" lon="5.76479">
        <ele>570.8</ele>
        <time>2021-05-09T13:28:01Z</time>
      </trkpt>
      <trkpt lat="46.87922" lon="5.76477">
        <ele>570.3</ele>
        <time>2021-05-09T13:28:05Z</time>
      </trkpt>
      <trkpt lat="46.87928" lon="5.76476">
        <ele>569.8</ele>
        <time>2021-05-09T13:28:09Z</time>
      </trkpt>
      <trkpt lat="46.87933" lon="5.76475">
        <ele>569.5</ele>
        <time>2021-05-09T13:28:13Z</time>
      </trkpt>
      <trkpt lat="46.87938" lon="5.76474">
        <ele>569.2</ele>
        <time>2021-05-09T13:28:20Z</time>
      </trkpt>
      <trkpt lat="46.87943" lon="5.76471">
        <ele>568.8</ele>
        <time>2021-05-09T13:28:25Z</time>
      </trkpt>
      <trkpt lat="46.87947" lon="5.7647">
        <ele>568.1</ele>
        <time>2021-05-09T13:28:33Z</time>
      </trkpt>
      <trkpt lat="46.87952" lon="5.7647">
        <ele>567.4</ele>
        <time>2021-05-09T13:28:39Z</time>
      </trkpt>
      <trkpt lat="46.87958" lon="5.76468">
        <ele>566.7</ele>
        <time>2021-05-09T13:28:43Z</time>
      </trkpt>
      <trkpt lat="46.87963" lon="5.76466">
        <ele>565.8</ele>
        <time>2021-05-09T13:28:47Z</time>
      </trkpt>
      <trkpt lat="46.87969" lon="5.76464">
        <ele>565.1</ele>
        <time>2021-05-09T13:28:51Z</time>
      </trkpt>
      <trkpt lat="46.87975" lon="5.76463">
        <ele>564.3</ele>
        <time>2021-05-09T13:28:55Z</time>
      </trkpt>
      <trkpt lat="46.87981" lon="5.76462">
        <ele>563.4</ele>
        <time>2021-05-09T13:28:59Z</time>
      </trkpt>
      <trkpt lat="46.87986" lon="5.76463">
        <ele>562.4</ele>
        <time>2021-05-09T13:29:04Z</time>
      </trkpt>
      <trkpt lat="46.87991" lon="5.76466">
        <ele>561.7</ele>
        <time>2021-05-09T13:29:08Z</time>
      </trkpt>
      <trkpt lat="46.87996" lon="5.76468">
        <ele>560.8</ele>
        <time>2021-05-09T13:29:12Z</time>
      </trkpt>
      <trkpt lat="46.88001" lon="5.76469">
        <ele>560</ele>
        <time>2021-05-09T13:29:16Z</time>
      </trkpt>
      <trkpt lat="46.88006" lon="5.76473">
        <ele>559.2</ele>
        <time>2021-05-09T13:29:21Z</time>
      </trkpt>
      <trkpt lat="46.8801" lon="5.76474">
        <ele>558.5</ele>
        <time>2021-05-09T13:29:27Z</time>
      </trkpt>
      <trkpt lat="46.88015" lon="5.76475">
        <ele>557.6</ele>
        <time>2021-05-09T13:29:33Z</time>
      </trkpt>
      <trkpt lat="46.88019" lon="5.7648">
        <ele>557.1</ele>
        <time>2021-05-09T13:29:38Z</time>
      </trkpt>
      <trkpt lat="46.88021" lon="5.76486">
        <ele>557</ele>
        <time>2021-05-09T13:29:42Z</time>
      </trkpt>
      <trkpt lat="46.88028" lon="5.76478">
        <ele>563.2</ele>
        <time>2021-05-09T13:29:46Z</time>
      </trkpt>
      <trkpt lat="46.88034" lon="5.76475">
        <ele>566.9</ele>
        <time>2021-05-09T13:29:50Z</time>
      </trkpt>
      <trkpt lat="46.8804" lon="5.76474">
        <ele>569.4</ele>
        <time>2021-05-09T13:29:55Z</time>
      </trkpt>
      <trkpt lat="46.88044" lon="5.76475">
        <ele>570.4</ele>
        <time>2021-05-09T13:29:59Z</time>
      </trkpt>
      <trkpt lat="46.88049" lon="5.7648">
        <ele>570.9</ele>
        <time>2021-05-09T13:30:04Z</time>
      </trkpt>
      <trkpt lat="46.88051" lon="5.76486">
        <ele>570.8</ele>
        <time>2021-05-09T13:30:10Z</time>
      </trkpt>
      <trkpt lat="46.88054" lon="5.76491">
        <ele>570.1</ele>
        <time>2021-05-09T13:30:18Z</time>
      </trkpt>
      <trkpt lat="46.88058" lon="5.76496">
        <ele>569.5</ele>
        <time>2021-05-09T13:30:22Z</time>
      </trkpt>
      <trkpt lat="46.88062" lon="5.765">
        <ele>568.4</ele>
        <time>2021-05-09T13:30:29Z</time>
      </trkpt>
      <trkpt lat="46.88067" lon="5.76503">
        <ele>567.8</ele>
        <time>2021-05-09T13:30:35Z</time>
      </trkpt>
      <trkpt lat="46.88071" lon="5.76504">
        <ele>566.9</ele>
        <time>2021-05-09T13:30:41Z</time>
      </trkpt>
      <trkpt lat="46.88076" lon="5.76508">
        <ele>566</ele>
        <time>2021-05-09T13:30:48Z</time>
      </trkpt>
      <trkpt lat="46.8808" lon="5.76513">
        <ele>565.3</ele>
        <time>2021-05-09T13:30:53Z</time>
      </trkpt>
      <trkpt lat="46.88084" lon="5.76517">
        <ele>563.9</ele>
        <time>2021-05-09T13:31:02Z</time>
      </trkpt>
      <trkpt lat="46.8809" lon="5.76517">
        <ele>563.8</ele>
        <time>2021-05-09T13:31:07Z</time>
      </trkpt>
      <trkpt lat="46.88094" lon="5.76517">
        <ele>563.8</ele>
        <time>2021-05-09T13:31:11Z</time>
      </trkpt>
      <trkpt lat="46.88113" lon="5.76519">
        <ele>560.9</ele>
        <time>2021-05-09T13:31:15Z</time>
      </trkpt>
      <trkpt lat="46.88119" lon="5.76521">
        <ele>558.3</ele>
        <time>2021-05-09T13:31:19Z</time>
      </trkpt>
      <trkpt lat="46.88124" lon="5.76523">
        <ele>553.2</ele>
        <time>2021-05-09T13:31:33Z</time>
      </trkpt>
      <trkpt lat="46.88128" lon="5.76525">
        <ele>551.2</ele>
        <time>2021-05-09T13:31:47Z</time>
      </trkpt>
      <trkpt lat="46.88133" lon="5.76521">
        <ele>550.6</ele>
        <time>2021-05-09T13:31:58Z</time>
      </trkpt>
      <trkpt lat="46.88137" lon="5.76525">
        <ele>550.2</ele>
        <time>2021-05-09T13:32:03Z</time>
      </trkpt>
      <trkpt lat="46.88141" lon="5.76529">
        <ele>549.2</ele>
        <time>2021-05-09T13:32:09Z</time>
      </trkpt>
      <trkpt lat="46.88146" lon="5.76532">
        <ele>548</ele>
        <time>2021-05-09T13:32:17Z</time>
      </trkpt>
      <trkpt lat="46.8815" lon="5.76535">
        <ele>546.9</ele>
        <time>2021-05-09T13:32:25Z</time>
      </trkpt>
      <trkpt lat="46.88154" lon="5.76539">
        <ele>546</ele>
        <time>2021-05-09T13:32:32Z</time>
      </trkpt>
      <trkpt lat="46.88158" lon="5.76541">
        <ele>544.8</ele>
        <time>2021-05-09T13:32:39Z</time>
      </trkpt>
      <trkpt lat="46.88163" lon="5.76545">
        <ele>543.6</ele>
        <time>2021-05-09T13:32:45Z</time>
      </trkpt>
      <trkpt lat="46.88166" lon="5.7655">
        <ele>542.8</ele>
        <time>2021-05-09T13:32:49Z</time>
      </trkpt>
      <trkpt lat="46.88173" lon="5.76559">
        <ele>540.8</ele>
        <time>2021-05-09T13:32:53Z</time>
      </trkpt>
      <trkpt lat="46.88179" lon="5.76562">
        <ele>539.9</ele>
        <time>2021-05-09T13:32:57Z</time>
      </trkpt>
      <trkpt lat="46.88183" lon="5.76566">
        <ele>539.2</ele>
        <time>2021-05-09T13:33:04Z</time>
      </trkpt>
      <trkpt lat="46.88185" lon="5.76572">
        <ele>539.1</ele>
        <time>2021-05-09T13:33:11Z</time>
      </trkpt>
      <trkpt lat="46.88189" lon="5.76577">
        <ele>538.8</ele>
        <time>2021-05-09T13:33:16Z</time>
      </trkpt>
      <trkpt lat="46.88194" lon="5.76578">
        <ele>538.5</ele>
        <time>2021-05-09T13:33:21Z</time>
      </trkpt>
      <trkpt lat="46.88199" lon="5.7658">
        <ele>538.1</ele>
        <time>2021-05-09T13:33:27Z</time>
      </trkpt>
      <trkpt lat="46.88206" lon="5.76582">
        <ele>538.5</ele>
        <time>2021-05-09T13:33:31Z</time>
      </trkpt>
      <trkpt lat="46.88211" lon="5.76583">
        <ele>539.2</ele>
        <time>2021-05-09T13:33:35Z</time>
      </trkpt>
      <trkpt lat="46.88216" lon="5.76586">
        <ele>539.8</ele>
        <time>2021-05-09T13:33:41Z</time>
      </trkpt>
      <trkpt lat="46.88222" lon="5.76587">
        <ele>539.9</ele>
        <time>2021-05-09T13:33:45Z</time>
      </trkpt>
      <trkpt lat="46.88227" lon="5.76591">
        <ele>539.4</ele>
        <time>2021-05-09T13:33:53Z</time>
      </trkpt>
      <trkpt lat="46.88242" lon="5.76593">
        <ele>538</ele>
        <time>2021-05-09T13:33:57Z</time>
      </trkpt>
      <trkpt lat="46.88246" lon="5.76598">
        <ele>537.1</ele>
        <time>2021-05-09T13:34:03Z</time>
      </trkpt>
      <trkpt lat="46.88248" lon="5.76605">
        <ele>536.7</ele>
        <time>2021-05-09T13:34:08Z</time>
      </trkpt>
      <trkpt lat="46.88251" lon="5.7661">
        <ele>536.2</ele>
        <time>2021-05-09T13:34:14Z</time>
      </trkpt>
      <trkpt lat="46.88256" lon="5.76613">
        <ele>535.3</ele>
        <time>2021-05-09T13:34:21Z</time>
      </trkpt>
      <trkpt lat="46.8826" lon="5.76615">
        <ele>534.4</ele>
        <time>2021-05-09T13:34:27Z</time>
      </trkpt>
      <trkpt lat="46.88265" lon="5.76614">
        <ele>533.6</ele>
        <time>2021-05-09T13:34:32Z</time>
      </trkpt>
      <trkpt lat="46.8827" lon="5.76614">
        <ele>532.9</ele>
        <time>2021-05-09T13:34:39Z</time>
      </trkpt>
      <trkpt lat="46.88286" lon="5.76608">
        <ele>536</ele>
        <time>2021-05-09T13:34:43Z</time>
      </trkpt>
      <trkpt lat="46.88291" lon="5.76606">
        <ele>537.5</ele>
        <time>2021-05-09T13:34:47Z</time>
      </trkpt>
      <trkpt lat="46.88295" lon="5.76609">
        <ele>539</ele>
        <time>2021-05-09T13:34:58Z</time>
      </trkpt>
      <trkpt lat="46.88299" lon="5.76611">
        <ele>539</ele>
        <time>2021-05-09T13:35:10Z</time>
      </trkpt>
      <trkpt lat="46.88304" lon="5.76614">
        <ele>539</ele>
        <time>2021-05-09T13:35:16Z</time>
      </trkpt>
      <trkpt lat="46.88308" lon="5.76616">
        <ele>538.8</ele>
        <time>2021-05-09T13:35:20Z</time>
      </trkpt>
      <trkpt lat="46.88312" lon="5.76619">
        <ele>538.7</ele>
        <time>2021-05-09T13:35:25Z</time>
      </trkpt>
      <trkpt lat="46.88317" lon="5.76622">
        <ele>538.3</ele>
        <time>2021-05-09T13:35:29Z</time>
      </trkpt>
      <trkpt lat="46.88324" lon="5.76624">
        <ele>537.9</ele>
        <time>2021-05-09T13:35:33Z</time>
      </trkpt>
      <trkpt lat="46.88328" lon="5.76626">
        <ele>537.6</ele>
        <time>2021-05-09T13:35:40Z</time>
      </trkpt>
      <trkpt lat="46.88333" lon="5.76629">
        <ele>537.5</ele>
        <time>2021-05-09T13:35:48Z</time>
      </trkpt>
      <trkpt lat="46.88338" lon="5.7663">
        <ele>537.2</ele>
        <time>2021-05-09T13:35:53Z</time>
      </trkpt>
      <trkpt lat="46.88343" lon="5.76629">
        <ele>536.8</ele>
        <time>2021-05-09T13:35:57Z</time>
      </trkpt>
      <trkpt lat="46.88348" lon="5.76627">
        <ele>536.2</ele>
        <time>2021-05-09T13:36:02Z</time>
      </trkpt>
      <trkpt lat="46.88353" lon="5.76624">
        <ele>536.1</ele>
        <time>2021-05-09T13:36:07Z</time>
      </trkpt>
      <trkpt lat="46.88357" lon="5.7662">
        <ele>537</ele>
        <time>2021-05-09T13:36:11Z</time>
      </trkpt>
      <trkpt lat="46.88361" lon="5.76617">
        <ele>538.4</ele>
        <time>2021-05-09T13:36:17Z</time>
      </trkpt>
      <trkpt lat="46.8837" lon="5.76616">
        <ele>539.2</ele>
        <time>2021-05-09T13:36:21Z</time>
      </trkpt>
      <trkpt lat="46.88376" lon="5.76615">
        <ele>539.7</ele>
        <time>2021-05-09T13:36:25Z</time>
      </trkpt>
      <trkpt lat="46.8838" lon="5.76615">
        <ele>539.4</ele>
        <time>2021-05-09T13:36:29Z</time>
      </trkpt>
      <trkpt lat="46.88385" lon="5.76616">
        <ele>538</ele>
        <time>2021-05-09T13:36:36Z</time>
      </trkpt>
      <trkpt lat="46.88389" lon="5.76613">
        <ele>536.5</ele>
        <time>2021-05-09T13:36:44Z</time>
      </trkpt>
      <trkpt lat="46.88394" lon="5.7661">
        <ele>536.2</ele>
        <time>2021-05-09T13:36:49Z</time>
      </trkpt>
      <trkpt lat="46.88398" lon="5.76607">
        <ele>535.7</ele>
        <time>2021-05-09T13:36:56Z</time>
      </trkpt>
      <trkpt lat="46.88404" lon="5.76607">
        <ele>534.6</ele>
        <time>2021-05-09T13:37:01Z</time>
      </trkpt>
      <trkpt lat="46.8841" lon="5.76606">
        <ele>532.1</ele>
        <time>2021-05-09T13:37:05Z</time>
      </trkpt>
      <trkpt lat="46.88415" lon="5.76606">
        <ele>527.6</ele>
        <time>2021-05-09T13:37:13Z</time>
      </trkpt>
      <trkpt lat="46.8842" lon="5.76605">
        <ele>526.1</ele>
        <time>2021-05-09T13:37:17Z</time>
      </trkpt>
      <trkpt lat="46.88425" lon="5.76603">
        <ele>524.8</ele>
        <time>2021-05-09T13:37:22Z</time>
      </trkpt>
      <trkpt lat="46.88431" lon="5.76602">
        <ele>523.5</ele>
        <time>2021-05-09T13:37:27Z</time>
      </trkpt>
      <trkpt lat="46.88436" lon="5.76605">
        <ele>521.9</ele>
        <time>2021-05-09T13:37:33Z</time>
      </trkpt>
      <trkpt lat="46.88441" lon="5.76604">
        <ele>520.8</ele>
        <time>2021-05-09T13:37:40Z</time>
      </trkpt>
      <trkpt lat="46.88445" lon="5.76602">
        <ele>520</ele>
        <time>2021-05-09T13:37:46Z</time>
      </trkpt>
      <trkpt lat="46.88449" lon="5.766">
        <ele>514.8</ele>
        <time>2021-05-09T13:38:15Z</time>
      </trkpt>
      <trkpt lat="46.88453" lon="5.76604">
        <ele>514.4</ele>
        <time>2021-05-09T13:38:25Z</time>
      </trkpt>
      <trkpt lat="46.88458" lon="5.76605">
        <ele>514.3</ele>
        <time>2021-05-09T13:38:32Z</time>
      </trkpt>
      <trkpt lat="46.88463" lon="5.76605">
        <ele>513.8</ele>
        <time>2021-05-09T13:38:40Z</time>
      </trkpt>
      <trkpt lat="46.88469" lon="5.76605">
        <ele>512.7</ele>
        <time>2021-05-09T13:38:44Z</time>
      </trkpt>
      <trkpt lat="46.88475" lon="5.76604">
        <ele>511</ele>
        <time>2021-05-09T13:38:48Z</time>
      </trkpt>
      <trkpt lat="46.8848" lon="5.76604">
        <ele>509.2</ele>
        <time>2021-05-09T13:38:52Z</time>
      </trkpt>
      <trkpt lat="46.88485" lon="5.76603">
        <ele>507.4</ele>
        <time>2021-05-09T13:38:56Z</time>
      </trkpt>
      <trkpt lat="46.88489" lon="5.76601">
        <ele>505.3</ele>
        <time>2021-05-09T13:39:01Z</time>
      </trkpt>
      <trkpt lat="46.88497" lon="5.76599">
        <ele>504.5</ele>
        <time>2021-05-09T13:39:05Z</time>
      </trkpt>
      <trkpt lat="46.88502" lon="5.76597">
        <ele>503.7</ele>
        <time>2021-05-09T13:39:09Z</time>
      </trkpt>
      <trkpt lat="46.88507" lon="5.76597">
        <ele>502.9</ele>
        <time>2021-05-09T13:39:13Z</time>
      </trkpt>
      <trkpt lat="46.88512" lon="5.76596">
        <ele>502.5</ele>
        <time>2021-05-09T13:39:17Z</time>
      </trkpt>
      <trkpt lat="46.88516" lon="5.76597">
        <ele>501.9</ele>
        <time>2021-05-09T13:39:21Z</time>
      </trkpt>
      <trkpt lat="46.88522" lon="5.76599">
        <ele>501.4</ele>
        <time>2021-05-09T13:39:26Z</time>
      </trkpt>
      <trkpt lat="46.88527" lon="5.766">
        <ele>501</ele>
        <time>2021-05-09T13:39:31Z</time>
      </trkpt>
      <trkpt lat="46.88532" lon="5.766">
        <ele>500.7</ele>
        <time>2021-05-09T13:39:36Z</time>
      </trkpt>
      <trkpt lat="46.88537" lon="5.76598">
        <ele>500.7</ele>
        <time>2021-05-09T13:39:42Z</time>
      </trkpt>
      <trkpt lat="46.88542" lon="5.76596">
        <ele>500.6</ele>
        <time>2021-05-09T13:39:47Z</time>
      </trkpt>
      <trkpt lat="46.88546" lon="5.76593">
        <ele>500.4</ele>
        <time>2021-05-09T13:39:52Z</time>
      </trkpt>
      <trkpt lat="46.8855" lon="5.76589">
        <ele>500</ele>
        <time>2021-05-09T13:40:03Z</time>
      </trkpt>
      <trkpt lat="46.88555" lon="5.76589">
        <ele>499.7</ele>
        <time>2021-05-09T13:40:17Z</time>
      </trkpt>
      <trkpt lat="46.88559" lon="5.76591">
        <ele>499.6</ele>
        <time>2021-05-09T13:40:24Z</time>
      </trkpt>
      <trkpt lat="46.88564" lon="5.76591">
        <ele>500.2</ele>
        <time>2021-05-09T13:42:06Z</time>
      </trkpt>
      <trkpt lat="46.88569" lon="5.76593">
        <ele>500.8</ele>
        <time>2021-05-09T13:43:12Z</time>
      </trkpt>
      <trkpt lat="46.88574" lon="5.76592">
        <ele>501.1</ele>
        <time>2021-05-09T13:43:18Z</time>
      </trkpt>
      <trkpt lat="46.88579" lon="5.76593">
        <ele>501.1</ele>
        <time>2021-05-09T13:43:23Z</time>
      </trkpt>
      <trkpt lat="46.88584" lon="5.76594">
        <ele>501</ele>
        <time>2021-05-09T13:43:28Z</time>
      </trkpt>
      <trkpt lat="46.88589" lon="5.76595">
        <ele>500.9</ele>
        <time>2021-05-09T13:43:34Z</time>
      </trkpt>
      <trkpt lat="46.88593" lon="5.76596">
        <ele>500.6</ele>
        <time>2021-05-09T13:43:41Z</time>
      </trkpt>
      <trkpt lat="46.88598" lon="5.76594">
        <ele>500.1</ele>
        <time>2021-05-09T13:43:46Z</time>
      </trkpt>
      <trkpt lat="46.88602" lon="5.76592">
        <ele>499.5</ele>
        <time>2021-05-09T13:43:51Z</time>
      </trkpt>
      <trkpt lat="46.88607" lon="5.76591">
        <ele>498.5</ele>
        <time>2021-05-09T13:43:55Z</time>
      </trkpt>
      <trkpt lat="46.88611" lon="5.76586">
        <ele>496</ele>
        <time>2021-05-09T13:43:59Z</time>
      </trkpt>
      <trkpt lat="46.88613" lon="5.7658">
        <ele>493</ele>
        <time>2021-05-09T13:44:07Z</time>
      </trkpt>
      <trkpt lat="46.88617" lon="5.76577">
        <ele>490.2</ele>
        <time>2021-05-09T13:44:16Z</time>
      </trkpt>
      <trkpt lat="46.88625" lon="5.76574">
        <ele>489.3</ele>
        <time>2021-05-09T13:44:23Z</time>
      </trkpt>
      <trkpt lat="46.8863" lon="5.76574">
        <ele>489.5</ele>
        <time>2021-05-09T13:44:27Z</time>
      </trkpt>
      <trkpt lat="46.88636" lon="5.76574">
        <ele>489.7</ele>
        <time>2021-05-09T13:44:35Z</time>
      </trkpt>
      <trkpt lat="46.8864" lon="5.76573">
        <ele>490</ele>
        <time>2021-05-09T13:44:39Z</time>
      </trkpt>
      <trkpt lat="46.88645" lon="5.76576">
        <ele>490</ele>
        <time>2021-05-09T13:44:50Z</time>
      </trkpt>
      <trkpt lat="46.88649" lon="5.76577">
        <ele>489.7</ele>
        <time>2021-05-09T13:44:55Z</time>
      </trkpt>
      <trkpt lat="46.88654" lon="5.76579">
        <ele>488.9</ele>
        <time>2021-05-09T13:45:01Z</time>
      </trkpt>
      <trkpt lat="46.88662" lon="5.7658">
        <ele>488.9</ele>
        <time>2021-05-09T13:45:05Z</time>
      </trkpt>
      <trkpt lat="46.88667" lon="5.76582">
        <ele>488.8</ele>
        <time>2021-05-09T13:45:10Z</time>
      </trkpt>
      <trkpt lat="46.88671" lon="5.76585">
        <ele>488</ele>
        <time>2021-05-09T13:45:16Z</time>
      </trkpt>
      <trkpt lat="46.88675" lon="5.7659">
        <ele>486.2</ele>
        <time>2021-05-09T13:45:25Z</time>
      </trkpt>
      <trkpt lat="46.88679" lon="5.76593">
        <ele>484.7</ele>
        <time>2021-05-09T13:45:33Z</time>
      </trkpt>
      <trkpt lat="46.88684" lon="5.76594">
        <ele>483.8</ele>
        <time>2021-05-09T13:45:39Z</time>
      </trkpt>
      <trkpt lat="46.88689" lon="5.76597">
        <ele>483.6</ele>
        <time>2021-05-09T13:45:43Z</time>
      </trkpt>
      <trkpt lat="46.88693" lon="5.76602">
        <ele>482.9</ele>
        <time>2021-05-09T13:45:52Z</time>
      </trkpt>
      <trkpt lat="46.88697" lon="5.76606">
        <ele>482.5</ele>
        <time>2021-05-09T13:45:57Z</time>
      </trkpt>
      <trkpt lat="46.88701" lon="5.76608">
        <ele>482</ele>
        <time>2021-05-09T13:46:02Z</time>
      </trkpt>
      <trkpt lat="46.88707" lon="5.7661">
        <ele>481.7</ele>
        <time>2021-05-09T13:46:06Z</time>
      </trkpt>
      <trkpt lat="46.88714" lon="5.76612">
        <ele>480.6</ele>
        <time>2021-05-09T13:46:10Z</time>
      </trkpt>
      <trkpt lat="46.8872" lon="5.76613">
        <ele>479.1</ele>
        <time>2021-05-09T13:46:14Z</time>
      </trkpt>
      <trkpt lat="46.88725" lon="5.76615">
        <ele>477.4</ele>
        <time>2021-05-09T13:46:19Z</time>
      </trkpt>
      <trkpt lat="46.88729" lon="5.76617">
        <ele>475.8</ele>
        <time>2021-05-09T13:46:24Z</time>
      </trkpt>
      <trkpt lat="46.88734" lon="5.76618">
        <ele>474</ele>
        <time>2021-05-09T13:46:29Z</time>
      </trkpt>
      <trkpt lat="46.88741" lon="5.76618">
        <ele>472.8</ele>
        <time>2021-05-09T13:46:35Z</time>
      </trkpt>
      <trkpt lat="46.88747" lon="5.76618">
        <ele>472.6</ele>
        <time>2021-05-09T13:46:39Z</time>
      </trkpt>
      <trkpt lat="46.88752" lon="5.76621">
        <ele>471.8</ele>
        <time>2021-05-09T13:46:45Z</time>
      </trkpt>
      <trkpt lat="46.88756" lon="5.76624">
        <ele>470.8</ele>
        <time>2021-05-09T13:46:51Z</time>
      </trkpt>
      <trkpt lat="46.88761" lon="5.76627">
        <ele>469.4</ele>
        <time>2021-05-09T13:46:57Z</time>
      </trkpt>
      <trkpt lat="46.88765" lon="5.76631">
        <ele>467.9</ele>
        <time>2021-05-09T13:47:03Z</time>
      </trkpt>
      <trkpt lat="46.88769" lon="5.76637">
        <ele>466.8</ele>
        <time>2021-05-09T13:47:08Z</time>
      </trkpt>
      <trkpt lat="46.88773" lon="5.76641">
        <ele>466.5</ele>
        <time>2021-05-09T13:47:12Z</time>
      </trkpt>
      <trkpt lat="46.88776" lon="5.76647">
        <ele>465.7</ele>
        <time>2021-05-09T13:47:17Z</time>
      </trkpt>
      <trkpt lat="46.88777" lon="5.76655">
        <ele>464.5</ele>
        <time>2021-05-09T13:47:23Z</time>
      </trkpt>
      <trkpt lat="46.88776" lon="5.76662">
        <ele>463.2</ele>
        <time>2021-05-09T13:47:30Z</time>
      </trkpt>
      <trkpt lat="46.88774" lon="5.76669">
        <ele>462.3</ele>
        <time>2021-05-09T13:47:35Z</time>
      </trkpt>
      <trkpt lat="46.88773" lon="5.76676">
        <ele>461.5</ele>
        <time>2021-05-09T13:47:40Z</time>
      </trkpt>
      <trkpt lat="46.88774" lon="5.76684">
        <ele>460.6</ele>
        <time>2021-05-09T13:47:46Z</time>
      </trkpt>
      <trkpt lat="46.88776" lon="5.76691">
        <ele>460</ele>
        <time>2021-05-09T13:47:52Z</time>
      </trkpt>
      <trkpt lat="46.88779" lon="5.76699">
        <ele>461.1</ele>
        <time>2021-05-09T13:47:56Z</time>
      </trkpt>
      <trkpt lat="46.88779" lon="5.76706">
        <ele>462.3</ele>
        <time>2021-05-09T13:48:02Z</time>
      </trkpt>
      <trkpt lat="46.88779" lon="5.76714">
        <ele>463</ele>
        <time>2021-05-09T13:48:08Z</time>
      </trkpt>
      <trkpt lat="46.8878" lon="5.76721">
        <ele>463.4</ele>
        <time>2021-05-09T13:48:13Z</time>
      </trkpt>
      <trkpt lat="46.88781" lon="5.76729">
        <ele>463.6</ele>
        <time>2021-05-09T13:48:18Z</time>
      </trkpt>
      <trkpt lat="46.88781" lon="5.76736">
        <ele>463.8</ele>
        <time>2021-05-09T13:48:23Z</time>
      </trkpt>
      <trkpt lat="46.8878" lon="5.76743">
        <ele>464</ele>
        <time>2021-05-09T13:48:28Z</time>
      </trkpt>
      <trkpt lat="46.88779" lon="5.7675">
        <ele>464</ele>
        <time>2021-05-09T13:48:34Z</time>
      </trkpt>
      <trkpt lat="46.88777" lon="5.76756">
        <ele>463.6</ele>
        <time>2021-05-09T13:48:39Z</time>
      </trkpt>
      <trkpt lat="46.88778" lon="5.76763">
        <ele>462.7</ele>
        <time>2021-05-09T13:48:47Z</time>
      </trkpt>
      <trkpt lat="46.88779" lon="5.7677">
        <ele>461.2</ele>
        <time>2021-05-09T13:48:56Z</time>
      </trkpt>
      <trkpt lat="46.88784" lon="5.76771">
        <ele>461</ele>
        <time>2021-05-09T13:49:03Z</time>
      </trkpt>
      <trkpt lat="46.88788" lon="5.76774">
        <ele>460.8</ele>
        <time>2021-05-09T13:49:11Z</time>
      </trkpt>
      <trkpt lat="46.88793" lon="5.76774">
        <ele>460.2</ele>
        <time>2021-05-09T13:49:17Z</time>
      </trkpt>
      <trkpt lat="46.88798" lon="5.76772">
        <ele>459.7</ele>
        <time>2021-05-09T13:49:22Z</time>
      </trkpt>
      <trkpt lat="46.88803" lon="5.7677">
        <ele>458.9</ele>
        <time>2021-05-09T13:49:28Z</time>
      </trkpt>
      <trkpt lat="46.88808" lon="5.76769">
        <ele>457.9</ele>
        <time>2021-05-09T13:49:35Z</time>
      </trkpt>
      <trkpt lat="46.88811" lon="5.76765">
        <ele>457.1</ele>
        <time>2021-05-09T13:49:41Z</time>
      </trkpt>
      <trkpt lat="46.88816" lon="5.7676">
        <ele>455.9</ele>
        <time>2021-05-09T13:49:48Z</time>
      </trkpt>
      <trkpt lat="46.8882" lon="5.76756">
        <ele>454.5</ele>
        <time>2021-05-09T13:49:56Z</time>
      </trkpt>
      <trkpt lat="46.88824" lon="5.76752">
        <ele>452.9</ele>
        <time>2021-05-09T13:50:04Z</time>
      </trkpt>
      <trkpt lat="46.88828" lon="5.76748">
        <ele>451.7</ele>
        <time>2021-05-09T13:50:13Z</time>
      </trkpt>
      <trkpt lat="46.88833" lon="5.76745">
        <ele>450.8</ele>
        <time>2021-05-09T13:50:19Z</time>
      </trkpt>
      <trkpt lat="46.88837" lon="5.76742">
        <ele>450.2</ele>
        <time>2021-05-09T13:50:25Z</time>
      </trkpt>
      <trkpt lat="46.88842" lon="5.76743">
        <ele>449.1</ele>
        <time>2021-05-09T13:50:35Z</time>
      </trkpt>
      <trkpt lat="46.88845" lon="5.76749">
        <ele>444.7</ele>
        <time>2021-05-09T13:51:06Z</time>
      </trkpt>
      <trkpt lat="46.8885" lon="5.76752">
        <ele>444.4</ele>
        <time>2021-05-09T13:51:12Z</time>
      </trkpt>
      <trkpt lat="46.88853" lon="5.76757">
        <ele>443.7</ele>
        <time>2021-05-09T13:51:19Z</time>
      </trkpt>
      <trkpt lat="46.88854" lon="5.76764">
        <ele>442.7</ele>
        <time>2021-05-09T13:51:25Z</time>
      </trkpt>
      <trkpt lat="46.88855" lon="5.76771">
        <ele>441.2</ele>
        <time>2021-05-09T13:51:32Z</time>
      </trkpt>
      <trkpt lat="46.88861" lon="5.76778">
        <ele>438.7</ele>
        <time>2021-05-09T13:51:39Z</time>
      </trkpt>
      <trkpt lat="46.88865" lon="5.76783">
        <ele>437</ele>
        <time>2021-05-09T13:51:43Z</time>
      </trkpt>
      <trkpt lat="46.88866" lon="5.76789">
        <ele>434.8</ele>
        <time>2021-05-09T13:51:50Z</time>
      </trkpt>
      <trkpt lat="46.88868" lon="5.76796">
        <ele>433.1</ele>
        <time>2021-05-09T13:51:58Z</time>
      </trkpt>
      <trkpt lat="46.8887" lon="5.76804">
        <ele>432.1</ele>
        <time>2021-05-09T13:52:04Z</time>
      </trkpt>
      <trkpt lat="46.88872" lon="5.7681">
        <ele>431.1</ele>
        <time>2021-05-09T13:52:10Z</time>
      </trkpt>
      <trkpt lat="46.88874" lon="5.76817">
        <ele>430.5</ele>
        <time>2021-05-09T13:52:16Z</time>
      </trkpt>
      <trkpt lat="46.88876" lon="5.76823">
        <ele>429.7</ele>
        <time>2021-05-09T13:52:22Z</time>
      </trkpt>
      <trkpt lat="46.88878" lon="5.76829">
        <ele>429.4</ele>
        <time>2021-05-09T13:52:29Z</time>
      </trkpt>
      <trkpt lat="46.88882" lon="5.76835">
        <ele>429</ele>
        <time>2021-05-09T13:52:36Z</time>
      </trkpt>
      <trkpt lat="46.88882" lon="5.76842">
        <ele>428.1</ele>
        <time>2021-05-09T13:52:42Z</time>
      </trkpt>
      <trkpt lat="46.88887" lon="5.7686">
        <ele>429.2</ele>
        <time>2021-05-09T13:52:46Z</time>
      </trkpt>
      <trkpt lat="46.8889" lon="5.76865">
        <ele>429.6</ele>
        <time>2021-05-09T13:52:50Z</time>
      </trkpt>
      <trkpt lat="46.88894" lon="5.7687">
        <ele>429.3</ele>
        <time>2021-05-09T13:52:56Z</time>
      </trkpt>
      <trkpt lat="46.88895" lon="5.76877">
        <ele>428.4</ele>
        <time>2021-05-09T13:53:04Z</time>
      </trkpt>
      <trkpt lat="46.88896" lon="5.76885">
        <ele>427.7</ele>
        <time>2021-05-09T13:53:11Z</time>
      </trkpt>
      <trkpt lat="46.88897" lon="5.76893">
        <ele>427.7</ele>
        <time>2021-05-09T13:53:15Z</time>
      </trkpt>
      <trkpt lat="46.88898" lon="5.76901">
        <ele>427.7</ele>
        <time>2021-05-09T13:53:20Z</time>
      </trkpt>
      <trkpt lat="46.889" lon="5.76907">
        <ele>427.8</ele>
        <time>2021-05-09T13:53:25Z</time>
      </trkpt>
      <trkpt lat="46.88902" lon="5.76914">
        <ele>427.6</ele>
        <time>2021-05-09T13:53:32Z</time>
      </trkpt>
      <trkpt lat="46.88905" lon="5.7692">
        <ele>427.4</ele>
        <time>2021-05-09T13:53:37Z</time>
      </trkpt>
      <trkpt lat="46.88907" lon="5.76928">
        <ele>426.9</ele>
        <time>2021-05-09T13:53:42Z</time>
      </trkpt>
      <trkpt lat="46.88908" lon="5.76934">
        <ele>426.3</ele>
        <time>2021-05-09T13:53:46Z</time>
      </trkpt>
      <trkpt lat="46.8891" lon="5.76941">
        <ele>425.3</ele>
        <time>2021-05-09T13:53:52Z</time>
      </trkpt>
      <trkpt lat="46.88912" lon="5.76948">
        <ele>424.7</ele>
        <time>2021-05-09T13:53:57Z</time>
      </trkpt>
      <trkpt lat="46.88916" lon="5.76954">
        <ele>424.4</ele>
        <time>2021-05-09T13:54:02Z</time>
      </trkpt>
      <trkpt lat="46.8892" lon="5.76959">
        <ele>424.1</ele>
        <time>2021-05-09T13:54:07Z</time>
      </trkpt>
      <trkpt lat="46.88922" lon="5.76964">
        <ele>423.6</ele>
        <time>2021-05-09T13:54:12Z</time>
      </trkpt>
      <trkpt lat="46.88925" lon="5.76971">
        <ele>423.4</ele>
        <time>2021-05-09T13:54:17Z</time>
      </trkpt>
      <trkpt lat="46.88929" lon="5.76976">
        <ele>423.2</ele>
        <time>2021-05-09T13:54:21Z</time>
      </trkpt>
      <trkpt lat="46.88932" lon="5.76982">
        <ele>423.1</ele>
        <time>2021-05-09T13:54:28Z</time>
      </trkpt>
      <trkpt lat="46.88932" lon="5.76989">
        <ele>423.1</ele>
        <time>2021-05-09T13:54:33Z</time>
      </trkpt>
      <trkpt lat="46.88934" lon="5.76995">
        <ele>423.2</ele>
        <time>2021-05-09T13:54:38Z</time>
      </trkpt>
      <trkpt lat="46.88937" lon="5.77">
        <ele>423.5</ele>
        <time>2021-05-09T13:54:42Z</time>
      </trkpt>
      <trkpt lat="46.8894" lon="5.77006">
        <ele>424.3</ele>
        <time>2021-05-09T13:54:49Z</time>
      </trkpt>
      <trkpt lat="46.88944" lon="5.77012">
        <ele>424.5</ele>
        <time>2021-05-09T13:55:08Z</time>
      </trkpt>
      <trkpt lat="46.88944" lon="5.77019">
        <ele>424.8</ele>
        <time>2021-05-09T13:55:18Z</time>
      </trkpt>
      <trkpt lat="46.88942" lon="5.77026">
        <ele>425.2</ele>
        <time>2021-05-09T13:55:22Z</time>
      </trkpt>
      <trkpt lat="46.8894" lon="5.77032">
        <ele>425.2</ele>
        <time>2021-05-09T13:55:27Z</time>
      </trkpt>
      <trkpt lat="46.88939" lon="5.77039">
        <ele>425.1</ele>
        <time>2021-05-09T13:55:31Z</time>
      </trkpt>
      <trkpt lat="46.88939" lon="5.77046">
        <ele>425</ele>
        <time>2021-05-09T13:55:36Z</time>
      </trkpt>
      <trkpt lat="46.88941" lon="5.77052">
        <ele>424.7</ele>
        <time>2021-05-09T13:55:42Z</time>
      </trkpt>
      <trkpt lat="46.88943" lon="5.77059">
        <ele>423.5</ele>
        <time>2021-05-09T13:55:55Z</time>
      </trkpt>
      <trkpt lat="46.88945" lon="5.77066">
        <ele>423</ele>
        <time>2021-05-09T13:56:02Z</time>
      </trkpt>
      <trkpt lat="46.88948" lon="5.77071">
        <ele>423</ele>
        <time>2021-05-09T13:56:07Z</time>
      </trkpt>
      <trkpt lat="46.88952" lon="5.77076">
        <ele>423.4</ele>
        <time>2021-05-09T13:56:13Z</time>
      </trkpt>
      <trkpt lat="46.88953" lon="5.77083">
        <ele>424.5</ele>
        <time>2021-05-09T13:56:19Z</time>
      </trkpt>
      <trkpt lat="46.88954" lon="5.77091">
        <ele>426</ele>
        <time>2021-05-09T13:56:24Z</time>
      </trkpt>
      <trkpt lat="46.88956" lon="5.77097">
        <ele>427.6</ele>
        <time>2021-05-09T13:56:29Z</time>
      </trkpt>
      <trkpt lat="46.88959" lon="5.77102">
        <ele>429.8</ele>
        <time>2021-05-09T13:56:35Z</time>
      </trkpt>
      <trkpt lat="46.88961" lon="5.77108">
        <ele>431.4</ele>
        <time>2021-05-09T13:56:40Z</time>
      </trkpt>
      <trkpt lat="46.88964" lon="5.77114">
        <ele>433.4</ele>
        <time>2021-05-09T13:56:49Z</time>
      </trkpt>
      <trkpt lat="46.88964" lon="5.77121">
        <ele>434.8</ele>
        <time>2021-05-09T13:56:58Z</time>
      </trkpt>
      <trkpt lat="46.88965" lon="5.77128">
        <ele>435.6</ele>
        <time>2021-05-09T13:57:04Z</time>
      </trkpt>
      <trkpt lat="46.88968" lon="5.77135">
        <ele>436</ele>
        <time>2021-05-09T13:57:09Z</time>
      </trkpt>
      <trkpt lat="46.8897" lon="5.77141">
        <ele>436.3</ele>
        <time>2021-05-09T13:57:14Z</time>
      </trkpt>
      <trkpt lat="46.88973" lon="5.77147">
        <ele>435.9</ele>
        <time>2021-05-09T13:57:20Z</time>
      </trkpt>
      <trkpt lat="46.88972" lon="5.77153">
        <ele>433.9</ele>
        <time>2021-05-09T13:57:30Z</time>
      </trkpt>
      <trkpt lat="46.88974" lon="5.7716">
        <ele>433.8</ele>
        <time>2021-05-09T13:57:37Z</time>
      </trkpt>
      <trkpt lat="46.88975" lon="5.77166">
        <ele>434.1</ele>
        <time>2021-05-09T13:57:41Z</time>
      </trkpt>
      <trkpt lat="46.88978" lon="5.77172">
        <ele>434.6</ele>
        <time>2021-05-09T13:57:45Z</time>
      </trkpt>
      <trkpt lat="46.88981" lon="5.77178">
        <ele>435.3</ele>
        <time>2021-05-09T13:57:50Z</time>
      </trkpt>
      <trkpt lat="46.88983" lon="5.77184">
        <ele>436.8</ele>
        <time>2021-05-09T13:57:56Z</time>
      </trkpt>
      <trkpt lat="46.88987" lon="5.77189">
        <ele>438.8</ele>
        <time>2021-05-09T13:58:03Z</time>
      </trkpt>
      <trkpt lat="46.88989" lon="5.77195">
        <ele>440</ele>
        <time>2021-05-09T13:58:07Z</time>
      </trkpt>
      <trkpt lat="46.88991" lon="5.77201">
        <ele>441.1</ele>
        <time>2021-05-09T13:58:11Z</time>
      </trkpt>
      <trkpt lat="46.88993" lon="5.77208">
        <ele>442</ele>
        <time>2021-05-09T13:58:16Z</time>
      </trkpt>
      <trkpt lat="46.88994" lon="5.77214">
        <ele>443</ele>
        <time>2021-05-09T13:58:22Z</time>
      </trkpt>
      <trkpt lat="46.88997" lon="5.7722">
        <ele>443.2</ele>
        <time>2021-05-09T13:58:29Z</time>
      </trkpt>
      <trkpt lat="46.88998" lon="5.77227">
        <ele>442.4</ele>
        <time>2021-05-09T13:58:35Z</time>
      </trkpt>
      <trkpt lat="46.88999" lon="5.77234">
        <ele>442.3</ele>
        <time>2021-05-09T13:58:41Z</time>
      </trkpt>
      <trkpt lat="46.88999" lon="5.77241">
        <ele>443.2</ele>
        <time>2021-05-09T13:58:49Z</time>
      </trkpt>
      <trkpt lat="46.89002" lon="5.77248">
        <ele>444.2</ele>
        <time>2021-05-09T13:58:55Z</time>
      </trkpt>
      <trkpt lat="46.89006" lon="5.77254">
        <ele>445.5</ele>
        <time>2021-05-09T13:59:01Z</time>
      </trkpt>
      <trkpt lat="46.89008" lon="5.77261">
        <ele>447.1</ele>
        <time>2021-05-09T13:59:06Z</time>
      </trkpt>
      <trkpt lat="46.89009" lon="5.77267">
        <ele>448.8</ele>
        <time>2021-05-09T13:59:12Z</time>
      </trkpt>
      <trkpt lat="46.89012" lon="5.77274">
        <ele>450.1</ele>
        <time>2021-05-09T13:59:17Z</time>
      </trkpt>
      <trkpt lat="46.89014" lon="5.77281">
        <ele>451.1</ele>
        <time>2021-05-09T13:59:23Z</time>
      </trkpt>
      <trkpt lat="46.89017" lon="5.77286">
        <ele>452.1</ele>
        <time>2021-05-09T13:59:29Z</time>
      </trkpt>
      <trkpt lat="46.8902" lon="5.77292">
        <ele>453.1</ele>
        <time>2021-05-09T13:59:35Z</time>
      </trkpt>
      <trkpt lat="46.8902" lon="5.77299">
        <ele>453.9</ele>
        <time>2021-05-09T13:59:41Z</time>
      </trkpt>
      <trkpt lat="46.89023" lon="5.77305">
        <ele>455.3</ele>
        <time>2021-05-09T13:59:50Z</time>
      </trkpt>
      <trkpt lat="46.89024" lon="5.77312">
        <ele>455.5</ele>
        <time>2021-05-09T13:59:57Z</time>
      </trkpt>
      <trkpt lat="46.89024" lon="5.77319">
        <ele>455.2</ele>
        <time>2021-05-09T14:00:01Z</time>
      </trkpt>
      <trkpt lat="46.89026" lon="5.77325">
        <ele>454.7</ele>
        <time>2021-05-09T14:00:07Z</time>
      </trkpt>
      <trkpt lat="46.89028" lon="5.77332">
        <ele>454.1</ele>
        <time>2021-05-09T14:00:13Z</time>
      </trkpt>
      <trkpt lat="46.89029" lon="5.77339">
        <ele>454.5</ele>
        <time>2021-05-09T14:00:21Z</time>
      </trkpt>
      <trkpt lat="46.8903" lon="5.77347">
        <ele>454.8</ele>
        <time>2021-05-09T14:00:29Z</time>
      </trkpt>
      <trkpt lat="46.89031" lon="5.77353">
        <ele>454.9</ele>
        <time>2021-05-09T14:00:35Z</time>
      </trkpt>
      <trkpt lat="46.89034" lon="5.77359">
        <ele>455.3</ele>
        <time>2021-05-09T14:00:40Z</time>
      </trkpt>
      <trkpt lat="46.89035" lon="5.77366">
        <ele>455.9</ele>
        <time>2021-05-09T14:00:45Z</time>
      </trkpt>
      <trkpt lat="46.89038" lon="5.77372">
        <ele>456.2</ele>
        <time>2021-05-09T14:00:52Z</time>
      </trkpt>
      <trkpt lat="46.89039" lon="5.77378">
        <ele>456.4</ele>
        <time>2021-05-09T14:00:58Z</time>
      </trkpt>
      <trkpt lat="46.89039" lon="5.77385">
        <ele>456.8</ele>
        <time>2021-05-09T14:01:03Z</time>
      </trkpt>
      <trkpt lat="46.89039" lon="5.77392">
        <ele>457.6</ele>
        <time>2021-05-09T14:01:09Z</time>
      </trkpt>
      <trkpt lat="46.8904" lon="5.77399">
        <ele>457.9</ele>
        <time>2021-05-09T14:01:14Z</time>
      </trkpt>
      <trkpt lat="46.89042" lon="5.77406">
        <ele>458.8</ele>
        <time>2021-05-09T14:01:21Z</time>
      </trkpt>
      <trkpt lat="46.89044" lon="5.77413">
        <ele>460</ele>
        <time>2021-05-09T14:01:26Z</time>
      </trkpt>
      <trkpt lat="46.89045" lon="5.7742">
        <ele>461.1</ele>
        <time>2021-05-09T14:01:33Z</time>
      </trkpt>
      <trkpt lat="46.89047" lon="5.77427">
        <ele>461.3</ele>
        <time>2021-05-09T14:01:40Z</time>
      </trkpt>
      <trkpt lat="46.89049" lon="5.77433">
        <ele>461.7</ele>
        <time>2021-05-09T14:01:44Z</time>
      </trkpt>
      <trkpt lat="46.89051" lon="5.77439">
        <ele>462.1</ele>
        <time>2021-05-09T14:01:48Z</time>
      </trkpt>
      <trkpt lat="46.89052" lon="5.77447">
        <ele>462.4</ele>
        <time>2021-05-09T14:01:52Z</time>
      </trkpt>
      <trkpt lat="46.89052" lon="5.77454">
        <ele>462.4</ele>
        <time>2021-05-09T14:01:57Z</time>
      </trkpt>
      <trkpt lat="46.89053" lon="5.77462">
        <ele>462.4</ele>
        <time>2021-05-09T14:02:04Z</time>
      </trkpt>
      <trkpt lat="46.89054" lon="5.77468">
        <ele>462.7</ele>
        <time>2021-05-09T14:02:08Z</time>
      </trkpt>
      <trkpt lat="46.89057" lon="5.77475">
        <ele>463.3</ele>
        <time>2021-05-09T14:02:13Z</time>
      </trkpt>
      <trkpt lat="46.89058" lon="5.77481">
        <ele>463.6</ele>
        <time>2021-05-09T14:02:19Z</time>
      </trkpt>
      <trkpt lat="46.89059" lon="5.77489">
        <ele>462.9</ele>
        <time>2021-05-09T14:02:26Z</time>
      </trkpt>
      <trkpt lat="46.89061" lon="5.77495">
        <ele>462.3</ele>
        <time>2021-05-09T14:02:32Z</time>
      </trkpt>
      <trkpt lat="46.89063" lon="5.77501">
        <ele>461.9</ele>
        <time>2021-05-09T14:02:39Z</time>
      </trkpt>
      <trkpt lat="46.89065" lon="5.77507">
        <ele>460.8</ele>
        <time>2021-05-09T14:02:54Z</time>
      </trkpt>
      <trkpt lat="46.89066" lon="5.77514">
        <ele>461.4</ele>
        <time>2021-05-09T14:03:10Z</time>
      </trkpt>
      <trkpt lat="46.89069" lon="5.77519">
        <ele>462.4</ele>
        <time>2021-05-09T14:03:16Z</time>
      </trkpt>
      <trkpt lat="46.89071" lon="5.77527">
        <ele>463.3</ele>
        <time>2021-05-09T14:03:23Z</time>
      </trkpt>
      <trkpt lat="46.89072" lon="5.77533">
        <ele>464.1</ele>
        <time>2021-05-09T14:03:29Z</time>
      </trkpt>
      <trkpt lat="46.89075" lon="5.77539">
        <ele>465</ele>
        <time>2021-05-09T14:03:34Z</time>
      </trkpt>
      <trkpt lat="46.89077" lon="5.77545">
        <ele>465.7</ele>
        <time>2021-05-09T14:03:41Z</time>
      </trkpt>
      <trkpt lat="46.8908" lon="5.7755">
        <ele>465.9</ele>
        <time>2021-05-09T14:03:48Z</time>
      </trkpt>
      <trkpt lat="46.89083" lon="5.77556">
        <ele>466.1</ele>
        <time>2021-05-09T14:03:55Z</time>
      </trkpt>
      <trkpt lat="46.89091" lon="5.77562">
        <ele>466.6</ele>
        <time>2021-05-09T14:03:59Z</time>
      </trkpt>
      <trkpt lat="46.89101" lon="5.77569">
        <ele>467</ele>
        <time>2021-05-09T14:04:03Z</time>
      </trkpt>
      <trkpt lat="46.89105" lon="5.77574">
        <ele>467.5</ele>
        <time>2021-05-09T14:04:09Z</time>
      </trkpt>
      <trkpt lat="46.89106" lon="5.77581">
        <ele>467.6</ele>
        <time>2021-05-09T14:04:16Z</time>
      </trkpt>
      <trkpt lat="46.89107" lon="5.77588">
        <ele>467.9</ele>
        <time>2021-05-09T14:04:22Z</time>
      </trkpt>
      <trkpt lat="46.8911" lon="5.77594">
        <ele>468.1</ele>
        <time>2021-05-09T14:04:29Z</time>
      </trkpt>
      <trkpt lat="46.89112" lon="5.77601">
        <ele>468.1</ele>
        <time>2021-05-09T14:04:37Z</time>
      </trkpt>
      <trkpt lat="46.89115" lon="5.77606">
        <ele>468</ele>
        <time>2021-05-09T14:04:42Z</time>
      </trkpt>
      <trkpt lat="46.89117" lon="5.77613">
        <ele>467.8</ele>
        <time>2021-05-09T14:04:47Z</time>
      </trkpt>
      <trkpt lat="46.8912" lon="5.77619">
        <ele>467.6</ele>
        <time>2021-05-09T14:04:51Z</time>
      </trkpt>
      <trkpt lat="46.89124" lon="5.77625">
        <ele>467.2</ele>
        <time>2021-05-09T14:04:55Z</time>
      </trkpt>
      <trkpt lat="46.89127" lon="5.77632">
        <ele>466.6</ele>
        <time>2021-05-09T14:05:01Z</time>
      </trkpt>
      <trkpt lat="46.8913" lon="5.77638">
        <ele>466</ele>
        <time>2021-05-09T14:05:06Z</time>
      </trkpt>
      <trkpt lat="46.89132" lon="5.77644">
        <ele>465.5</ele>
        <time>2021-05-09T14:05:10Z</time>
      </trkpt>
      <trkpt lat="46.89134" lon="5.77651">
        <ele>465</ele>
        <time>2021-05-09T14:05:15Z</time>
      </trkpt>
      <trkpt lat="46.89134" lon="5.77657">
        <ele>464.5</ele>
        <time>2021-05-09T14:05:20Z</time>
      </trkpt>
      <trkpt lat="46.89136" lon="5.77664">
        <ele>464.1</ele>
        <time>2021-05-09T14:05:25Z</time>
      </trkpt>
      <trkpt lat="46.89137" lon="5.77671">
        <ele>463.7</ele>
        <time>2021-05-09T14:05:32Z</time>
      </trkpt>
      <trkpt lat="46.89136" lon="5.77678">
        <ele>463.2</ele>
        <time>2021-05-09T14:05:37Z</time>
      </trkpt>
      <trkpt lat="46.89138" lon="5.77685">
        <ele>462.6</ele>
        <time>2021-05-09T14:05:42Z</time>
      </trkpt>
      <trkpt lat="46.89139" lon="5.77692">
        <ele>461.9</ele>
        <time>2021-05-09T14:05:48Z</time>
      </trkpt>
      <trkpt lat="46.89142" lon="5.77697">
        <ele>461.3</ele>
        <time>2021-05-09T14:05:54Z</time>
      </trkpt>
      <trkpt lat="46.89145" lon="5.77702">
        <ele>460.8</ele>
        <time>2021-05-09T14:05:59Z</time>
      </trkpt>
      <trkpt lat="46.89149" lon="5.77706">
        <ele>460.5</ele>
        <time>2021-05-09T14:06:03Z</time>
      </trkpt>
      <trkpt lat="46.89152" lon="5.77711">
        <ele>460.4</ele>
        <time>2021-05-09T14:06:07Z</time>
      </trkpt>
      <trkpt lat="46.89156" lon="5.77715">
        <ele>460.3</ele>
        <time>2021-05-09T14:06:14Z</time>
      </trkpt>
      <trkpt lat="46.89161" lon="5.77719">
        <ele>460.6</ele>
        <time>2021-05-09T14:06:19Z</time>
      </trkpt>
      <trkpt lat="46.89165" lon="5.77724">
        <ele>460.9</ele>
        <time>2021-05-09T14:06:24Z</time>
      </trkpt>
      <trkpt lat="46.89168" lon="5.77729">
        <ele>461.3</ele>
        <time>2021-05-09T14:06:28Z</time>
      </trkpt>
      <trkpt lat="46.89171" lon="5.77734">
        <ele>461.7</ele>
        <time>2021-05-09T14:06:32Z</time>
      </trkpt>
      <trkpt lat="46.89173" lon="5.77741">
        <ele>462.1</ele>
        <time>2021-05-09T14:06:37Z</time>
      </trkpt>
      <trkpt lat="46.89175" lon="5.77747">
        <ele>462.5</ele>
        <time>2021-05-09T14:06:43Z</time>
      </trkpt>
      <trkpt lat="46.89177" lon="5.77754">
        <ele>463.2</ele>
        <time>2021-05-09T14:06:51Z</time>
      </trkpt>
      <trkpt lat="46.8918" lon="5.77759">
        <ele>463.8</ele>
        <time>2021-05-09T14:06:58Z</time>
      </trkpt>
      <trkpt lat="46.89181" lon="5.77766">
        <ele>464.6</ele>
        <time>2021-05-09T14:07:04Z</time>
      </trkpt>
      <trkpt lat="46.89182" lon="5.77773">
        <ele>465.4</ele>
        <time>2021-05-09T14:07:10Z</time>
      </trkpt>
      <trkpt lat="46.89183" lon="5.7778">
        <ele>465.9</ele>
        <time>2021-05-09T14:07:15Z</time>
      </trkpt>
      <trkpt lat="46.89184" lon="5.77787">
        <ele>465.6</ele>
        <time>2021-05-09T14:07:20Z</time>
      </trkpt>
      <trkpt lat="46.89184" lon="5.77793">
        <ele>465.6</ele>
        <time>2021-05-09T14:07:26Z</time>
      </trkpt>
      <trkpt lat="46.89184" lon="5.77801">
        <ele>465.9</ele>
        <time>2021-05-09T14:07:32Z</time>
      </trkpt>
      <trkpt lat="46.89184" lon="5.77808">
        <ele>466.3</ele>
        <time>2021-05-09T14:07:37Z</time>
      </trkpt>
      <trkpt lat="46.89185" lon="5.77816">
        <ele>466.8</ele>
        <time>2021-05-09T14:07:42Z</time>
      </trkpt>
      <trkpt lat="46.89184" lon="5.77823">
        <ele>467.7</ele>
        <time>2021-05-09T14:07:48Z</time>
      </trkpt>
      <trkpt lat="46.89185" lon="5.7783">
        <ele>468.2</ele>
        <time>2021-05-09T14:07:54Z</time>
      </trkpt>
      <trkpt lat="46.89187" lon="5.77836">
        <ele>468.3</ele>
        <time>2021-05-09T14:07:58Z</time>
      </trkpt>
      <trkpt lat="46.89188" lon="5.77843">
        <ele>468</ele>
        <time>2021-05-09T14:08:05Z</time>
      </trkpt>
      <trkpt lat="46.89189" lon="5.77851">
        <ele>467.7</ele>
        <time>2021-05-09T14:08:11Z</time>
      </trkpt>
      <trkpt lat="46.89189" lon="5.77858">
        <ele>467.7</ele>
        <time>2021-05-09T14:08:16Z</time>
      </trkpt>
      <trkpt lat="46.89188" lon="5.77865">
        <ele>467.7</ele>
        <time>2021-05-09T14:08:22Z</time>
      </trkpt>
      <trkpt lat="46.89191" lon="5.77872">
        <ele>468</ele>
        <time>2021-05-09T14:08:43Z</time>
      </trkpt>
      <trkpt lat="46.89189" lon="5.77885">
        <ele>470.2</ele>
        <time>2021-05-09T14:08:47Z</time>
      </trkpt>
      <trkpt lat="46.89188" lon="5.77893">
        <ele>472.5</ele>
        <time>2021-05-09T14:08:52Z</time>
      </trkpt>
      <trkpt lat="46.89188" lon="5.779">
        <ele>475.4</ele>
        <time>2021-05-09T14:08:59Z</time>
      </trkpt>
      <trkpt lat="46.89188" lon="5.77907">
        <ele>475.9</ele>
        <time>2021-05-09T14:09:08Z</time>
      </trkpt>
      <trkpt lat="46.89187" lon="5.77915">
        <ele>476.2</ele>
        <time>2021-05-09T14:09:15Z</time>
      </trkpt>
      <trkpt lat="46.89185" lon="5.77922">
        <ele>476.7</ele>
        <time>2021-05-09T14:09:19Z</time>
      </trkpt>
      <trkpt lat="46.89185" lon="5.7793">
        <ele>477.1</ele>
        <time>2021-05-09T14:09:26Z</time>
      </trkpt>
      <trkpt lat="46.89184" lon="5.77938">
        <ele>476.7</ele>
        <time>2021-05-09T14:09:32Z</time>
      </trkpt>
      <trkpt lat="46.89185" lon="5.77945">
        <ele>476.3</ele>
        <time>2021-05-09T14:09:37Z</time>
      </trkpt>
      <trkpt lat="46.89186" lon="5.77953">
        <ele>475.7</ele>
        <time>2021-05-09T14:09:43Z</time>
      </trkpt>
      <trkpt lat="46.89187" lon="5.77962">
        <ele>475.5</ele>
        <time>2021-05-09T14:09:48Z</time>
      </trkpt>
      <trkpt lat="46.89188" lon="5.7797">
        <ele>475.5</ele>
        <time>2021-05-09T14:09:53Z</time>
      </trkpt>
      <trkpt lat="46.89187" lon="5.77979">
        <ele>475.8</ele>
        <time>2021-05-09T14:09:57Z</time>
      </trkpt>
      <trkpt lat="46.89187" lon="5.77987">
        <ele>476.1</ele>
        <time>2021-05-09T14:10:01Z</time>
      </trkpt>
      <trkpt lat="46.89187" lon="5.77993">
        <ele>475.9</ele>
        <time>2021-05-09T14:10:05Z</time>
      </trkpt>
      <trkpt lat="46.89186" lon="5.78">
        <ele>476</ele>
        <time>2021-05-09T14:10:09Z</time>
      </trkpt>
      <trkpt lat="46.89184" lon="5.78006">
        <ele>476.2</ele>
        <time>2021-05-09T14:10:16Z</time>
      </trkpt>
      <trkpt lat="46.89182" lon="5.78013">
        <ele>476.3</ele>
        <time>2021-05-09T14:10:21Z</time>
      </trkpt>
      <trkpt lat="46.89181" lon="5.78021">
        <ele>476</ele>
        <time>2021-05-09T14:10:25Z</time>
      </trkpt>
      <trkpt lat="46.89179" lon="5.78029">
        <ele>475.4</ele>
        <time>2021-05-09T14:10:31Z</time>
      </trkpt>
      <trkpt lat="46.89179" lon="5.78035">
        <ele>474.8</ele>
        <time>2021-05-09T14:10:36Z</time>
      </trkpt>
      <trkpt lat="46.89178" lon="5.78042">
        <ele>474.3</ele>
        <time>2021-05-09T14:10:41Z</time>
      </trkpt>
      <trkpt lat="46.89176" lon="5.78049">
        <ele>473.8</ele>
        <time>2021-05-09T14:10:47Z</time>
      </trkpt>
      <trkpt lat="46.89171" lon="5.78065">
        <ele>475.1</ele>
        <time>2021-05-09T14:10:51Z</time>
      </trkpt>
      <trkpt lat="46.89169" lon="5.78072">
        <ele>475.7</ele>
        <time>2021-05-09T14:10:56Z</time>
      </trkpt>
      <trkpt lat="46.89166" lon="5.78077">
        <ele>476</ele>
        <time>2021-05-09T14:11:01Z</time>
      </trkpt>
      <trkpt lat="46.89163" lon="5.78083">
        <ele>475.7</ele>
        <time>2021-05-09T14:11:06Z</time>
      </trkpt>
      <trkpt lat="46.89161" lon="5.7809">
        <ele>474.9</ele>
        <time>2021-05-09T14:11:11Z</time>
      </trkpt>
      <trkpt lat="46.89159" lon="5.78096">
        <ele>473</ele>
        <time>2021-05-09T14:11:18Z</time>
      </trkpt>
      <trkpt lat="46.89159" lon="5.7811">
        <ele>475.6</ele>
        <time>2021-05-09T14:11:22Z</time>
      </trkpt>
      <trkpt lat="46.89157" lon="5.78116">
        <ele>477</ele>
        <time>2021-05-09T14:11:26Z</time>
      </trkpt>
      <trkpt lat="46.89154" lon="5.78121">
        <ele>478.1</ele>
        <time>2021-05-09T14:11:33Z</time>
      </trkpt>
      <trkpt lat="46.89152" lon="5.78129">
        <ele>478.6</ele>
        <time>2021-05-09T14:11:41Z</time>
      </trkpt>
      <trkpt lat="46.89147" lon="5.7814">
        <ele>479.6</ele>
        <time>2021-05-09T14:11:46Z</time>
      </trkpt>
      <trkpt lat="46.89143" lon="5.7815">
        <ele>480.7</ele>
        <time>2021-05-09T14:11:50Z</time>
      </trkpt>
      <trkpt lat="46.89141" lon="5.78157">
        <ele>481.7</ele>
        <time>2021-05-09T14:11:55Z</time>
      </trkpt>
      <trkpt lat="46.89138" lon="5.78163">
        <ele>482.5</ele>
        <time>2021-05-09T14:12:02Z</time>
      </trkpt>
      <trkpt lat="46.89133" lon="5.78167">
        <ele>482.8</ele>
        <time>2021-05-09T14:12:09Z</time>
      </trkpt>
      <trkpt lat="46.8913" lon="5.78172">
        <ele>482.6</ele>
        <time>2021-05-09T14:12:13Z</time>
      </trkpt>
      <trkpt lat="46.89127" lon="5.78177">
        <ele>482.4</ele>
        <time>2021-05-09T14:12:18Z</time>
      </trkpt>
      <trkpt lat="46.89124" lon="5.78183">
        <ele>482.8</ele>
        <time>2021-05-09T14:12:25Z</time>
      </trkpt>
      <trkpt lat="46.89123" lon="5.7819">
        <ele>482.8</ele>
        <time>2021-05-09T14:12:32Z</time>
      </trkpt>
      <trkpt lat="46.89122" lon="5.78198">
        <ele>482.7</ele>
        <time>2021-05-09T14:12:37Z</time>
      </trkpt>
      <trkpt lat="46.89122" lon="5.78204">
        <ele>482.6</ele>
        <time>2021-05-09T14:12:42Z</time>
      </trkpt>
      <trkpt lat="46.89121" lon="5.78212">
        <ele>482.2</ele>
        <time>2021-05-09T14:12:48Z</time>
      </trkpt>
      <trkpt lat="46.89123" lon="5.78219">
        <ele>481</ele>
        <time>2021-05-09T14:12:54Z</time>
      </trkpt>
      <trkpt lat="46.89126" lon="5.78225">
        <ele>480.4</ele>
        <time>2021-05-09T14:12:59Z</time>
      </trkpt>
      <trkpt lat="46.89128" lon="5.78234">
        <ele>481.1</ele>
        <time>2021-05-09T14:13:03Z</time>
      </trkpt>
      <trkpt lat="46.89129" lon="5.78241">
        <ele>481.7</ele>
        <time>2021-05-09T14:13:08Z</time>
      </trkpt>
      <trkpt lat="46.89131" lon="5.78248">
        <ele>482</ele>
        <time>2021-05-09T14:13:13Z</time>
      </trkpt>
      <trkpt lat="46.89133" lon="5.78255">
        <ele>482.7</ele>
        <time>2021-05-09T14:13:17Z</time>
      </trkpt>
      <trkpt lat="46.89134" lon="5.78262">
        <ele>483.1</ele>
        <time>2021-05-09T14:13:22Z</time>
      </trkpt>
      <trkpt lat="46.89134" lon="5.78269">
        <ele>486.3</ele>
        <time>2021-05-09T14:14:12Z</time>
      </trkpt>
      <trkpt lat="46.89136" lon="5.78275">
        <ele>487.4</ele>
        <time>2021-05-09T14:14:23Z</time>
      </trkpt>
      <trkpt lat="46.89141" lon="5.78275">
        <ele>487.1</ele>
        <time>2021-05-09T14:14:51Z</time>
      </trkpt>
      <trkpt lat="46.89145" lon="5.78285">
        <ele>489.1</ele>
        <time>2021-05-09T14:15:37Z</time>
      </trkpt>
      <trkpt lat="46.89152" lon="5.78282">
        <ele>494.2</ele>
        <time>2021-05-09T14:16:44Z</time>
      </trkpt>
      <trkpt lat="46.8916" lon="5.78285">
        <ele>498.6</ele>
        <time>2021-05-09T14:16:48Z</time>
      </trkpt>
      <trkpt lat="46.89155" lon="5.78283">
        <ele>503.9</ele>
        <time>2021-05-09T14:17:20Z</time>
      </trkpt>
      <trkpt lat="46.8915" lon="5.78282">
        <ele>502.7</ele>
        <time>2021-05-09T14:17:52Z</time>
      </trkpt>
      <trkpt lat="46.89144" lon="5.78283">
        <ele>502.1</ele>
        <time>2021-05-09T14:18:25Z</time>
      </trkpt>
      <trkpt lat="46.89149" lon="5.78286">
        <ele>498.8</ele>
        <time>2021-05-09T14:18:51Z</time>
      </trkpt>
      <trkpt lat="46.89153" lon="5.78288">
        <ele>501</ele>
        <time>2021-05-09T14:19:10Z</time>
      </trkpt>
      <trkpt lat="46.8915" lon="5.78284">
        <ele>500.6</ele>
        <time>2021-05-09T14:19:35Z</time>
      </trkpt>
      <trkpt lat="46.89146" lon="5.78279">
        <ele>499.1</ele>
        <time>2021-05-09T14:19:45Z</time>
      </trkpt>
      <trkpt lat="46.89152" lon="5.78281">
        <ele>499.2</ele>
        <time>2021-05-09T14:20:01Z</time>
      </trkpt>
      <trkpt lat="46.89157" lon="5.78282">
        <ele>500.5</ele>
        <time>2021-05-09T14:20:05Z</time>
      </trkpt>
      <trkpt lat="46.89153" lon="5.78287">
        <ele>502.1</ele>
        <time>2021-05-09T14:20:23Z</time>
      </trkpt>
      <trkpt lat="46.89149" lon="5.7829">
        <ele>501.5</ele>
        <time>2021-05-09T14:20:28Z</time>
      </trkpt>
      <trkpt lat="46.8915" lon="5.78296">
        <ele>500.2</ele>
        <time>2021-05-09T14:20:44Z</time>
      </trkpt>
      <trkpt lat="46.89151" lon="5.78303">
        <ele>497.2</ele>
        <time>2021-05-09T14:20:48Z</time>
      </trkpt>
      <trkpt lat="46.8915" lon="5.7831">
        <ele>493.8</ele>
        <time>2021-05-09T14:20:52Z</time>
      </trkpt>
      <trkpt lat="46.8915" lon="5.78318">
        <ele>490.5</ele>
        <time>2021-05-09T14:20:57Z</time>
      </trkpt>
      <trkpt lat="46.8915" lon="5.78326">
        <ele>488.3</ele>
        <time>2021-05-09T14:21:02Z</time>
      </trkpt>
      <trkpt lat="46.89151" lon="5.78332">
        <ele>486.7</ele>
        <time>2021-05-09T14:21:07Z</time>
      </trkpt>
      <trkpt lat="46.89153" lon="5.78339">
        <ele>485.6</ele>
        <time>2021-05-09T14:21:12Z</time>
      </trkpt>
      <trkpt lat="46.89153" lon="5.78347">
        <ele>484.3</ele>
        <time>2021-05-09T14:21:19Z</time>
      </trkpt>
      <trkpt lat="46.89155" lon="5.78354">
        <ele>484.1</ele>
        <time>2021-05-09T14:21:23Z</time>
      </trkpt>
      <trkpt lat="46.89157" lon="5.78361">
        <ele>484.5</ele>
        <time>2021-05-09T14:21:27Z</time>
      </trkpt>
      <trkpt lat="46.89158" lon="5.78368">
        <ele>484.7</ele>
        <time>2021-05-09T14:21:33Z</time>
      </trkpt>
      <trkpt lat="46.89159" lon="5.78375">
        <ele>484.6</ele>
        <time>2021-05-09T14:21:38Z</time>
      </trkpt>
      <trkpt lat="46.89161" lon="5.78382">
        <ele>484.4</ele>
        <time>2021-05-09T14:21:43Z</time>
      </trkpt>
      <trkpt lat="46.89163" lon="5.78388">
        <ele>484.2</ele>
        <time>2021-05-09T14:21:47Z</time>
      </trkpt>
      <trkpt lat="46.89165" lon="5.78394">
        <ele>483.8</ele>
        <time>2021-05-09T14:21:52Z</time>
      </trkpt>
      <trkpt lat="46.89172" lon="5.78404">
        <ele>487.2</ele>
        <time>2021-05-09T14:21:56Z</time>
      </trkpt>
      <trkpt lat="46.89173" lon="5.78412">
        <ele>490.2</ele>
        <time>2021-05-09T14:22:00Z</time>
      </trkpt>
      <trkpt lat="46.89172" lon="5.78419">
        <ele>492.6</ele>
        <time>2021-05-09T14:22:04Z</time>
      </trkpt>
      <trkpt lat="46.89167" lon="5.78425">
        <ele>495.7</ele>
        <time>2021-05-09T14:22:30Z</time>
      </trkpt>
      <trkpt lat="46.89163" lon="5.78428">
        <ele>494.4</ele>
        <time>2021-05-09T14:22:34Z</time>
      </trkpt>
      <trkpt lat="46.89157" lon="5.78428">
        <ele>492.8</ele>
        <time>2021-05-09T14:22:39Z</time>
      </trkpt>
      <trkpt lat="46.89152" lon="5.78426">
        <ele>491.3</ele>
        <time>2021-05-09T14:22:44Z</time>
      </trkpt>
      <trkpt lat="46.89148" lon="5.78427">
        <ele>490.1</ele>
        <time>2021-05-09T14:22:50Z</time>
      </trkpt>
      <trkpt lat="46.89144" lon="5.78439">
        <ele>488.3</ele>
        <time>2021-05-09T14:23:14Z</time>
      </trkpt>
      <trkpt lat="46.8914" lon="5.78449">
        <ele>487.6</ele>
        <time>2021-05-09T14:23:18Z</time>
      </trkpt>
      <trkpt lat="46.89143" lon="5.78443">
        <ele>485</ele>
        <time>2021-05-09T14:23:37Z</time>
      </trkpt>
      <trkpt lat="46.89142" lon="5.78436">
        <ele>483.8</ele>
        <time>2021-05-09T14:24:10Z</time>
      </trkpt>
      <trkpt lat="46.89142" lon="5.78428">
        <ele>483.4</ele>
        <time>2021-05-09T14:24:31Z</time>
      </trkpt>
      <trkpt lat="46.89146" lon="5.78424">
        <ele>483</ele>
        <time>2021-05-09T14:24:35Z</time>
      </trkpt>
      <trkpt lat="46.89151" lon="5.78423">
        <ele>481.8</ele>
        <time>2021-05-09T14:24:55Z</time>
      </trkpt>
      <trkpt lat="46.89156" lon="5.78421">
        <ele>480.9</ele>
        <time>2021-05-09T14:25:02Z</time>
      </trkpt>
      <trkpt lat="46.89159" lon="5.78417">
        <ele>478.2</ele>
        <time>2021-05-09T14:25:15Z</time>
      </trkpt>
      <trkpt lat="46.89161" lon="5.78411">
        <ele>476.2</ele>
        <time>2021-05-09T14:25:53Z</time>
      </trkpt>
      <trkpt lat="46.8917" lon="5.78414">
        <ele>477.3</ele>
        <time>2021-05-09T14:26:39Z</time>
      </trkpt>
      <trkpt lat="46.89184" lon="5.78416">
        <ele>482.7</ele>
        <time>2021-05-09T14:26:43Z</time>
      </trkpt>
      <trkpt lat="46.89186" lon="5.78421">
        <ele>489.5</ele>
        <time>2021-05-09T14:26:58Z</time>
      </trkpt>
      <trkpt lat="46.89185" lon="5.78428">
        <ele>489.4</ele>
        <time>2021-05-09T14:27:03Z</time>
      </trkpt>
      <trkpt lat="46.89186" lon="5.78436">
        <ele>489.2</ele>
        <time>2021-05-09T14:27:08Z</time>
      </trkpt>
      <trkpt lat="46.89187" lon="5.78443">
        <ele>488.8</ele>
        <time>2021-05-09T14:27:13Z</time>
      </trkpt>
      <trkpt lat="46.89186" lon="5.7845">
        <ele>488.4</ele>
        <time>2021-05-09T14:27:18Z</time>
      </trkpt>
      <trkpt lat="46.89185" lon="5.78458">
        <ele>488</ele>
        <time>2021-05-09T14:27:22Z</time>
      </trkpt>
      <trkpt lat="46.89186" lon="5.78466">
        <ele>487.6</ele>
        <time>2021-05-09T14:27:26Z</time>
      </trkpt>
      <trkpt lat="46.89187" lon="5.78473">
        <ele>487</ele>
        <time>2021-05-09T14:27:31Z</time>
      </trkpt>
      <trkpt lat="46.89187" lon="5.7848">
        <ele>486.2</ele>
        <time>2021-05-09T14:27:36Z</time>
      </trkpt>
      <trkpt lat="46.89188" lon="5.78488">
        <ele>485.5</ele>
        <time>2021-05-09T14:27:55Z</time>
      </trkpt>
      <trkpt lat="46.89193" lon="5.78495">
        <ele>487.6</ele>
        <time>2021-05-09T14:27:59Z</time>
      </trkpt>
      <trkpt lat="46.89195" lon="5.78502">
        <ele>489.6</ele>
        <time>2021-05-09T14:28:03Z</time>
      </trkpt>
      <trkpt lat="46.89195" lon="5.78509">
        <ele>491.1</ele>
        <time>2021-05-09T14:28:07Z</time>
      </trkpt>
      <trkpt lat="46.89196" lon="5.78515">
        <ele>492.6</ele>
        <time>2021-05-09T14:28:11Z</time>
      </trkpt>
      <trkpt lat="46.89199" lon="5.78521">
        <ele>493.8</ele>
        <time>2021-05-09T14:28:15Z</time>
      </trkpt>
      <trkpt lat="46.89203" lon="5.78526">
        <ele>494.9</ele>
        <time>2021-05-09T14:28:20Z</time>
      </trkpt>
      <trkpt lat="46.89204" lon="5.78533">
        <ele>495.7</ele>
        <time>2021-05-09T14:28:26Z</time>
      </trkpt>
      <trkpt lat="46.89205" lon="5.78541">
        <ele>495.8</ele>
        <time>2021-05-09T14:28:31Z</time>
      </trkpt>
      <trkpt lat="46.89206" lon="5.78548">
        <ele>495.9</ele>
        <time>2021-05-09T14:28:37Z</time>
      </trkpt>
      <trkpt lat="46.89209" lon="5.78555">
        <ele>495</ele>
        <time>2021-05-09T14:28:42Z</time>
      </trkpt>
      <trkpt lat="46.89212" lon="5.78561">
        <ele>493.8</ele>
        <time>2021-05-09T14:28:47Z</time>
      </trkpt>
      <trkpt lat="46.89213" lon="5.78578">
        <ele>493.8</ele>
        <time>2021-05-09T14:28:51Z</time>
      </trkpt>
      <trkpt lat="46.89214" lon="5.7859">
        <ele>493.8</ele>
        <time>2021-05-09T14:28:55Z</time>
      </trkpt>
      <trkpt lat="46.89216" lon="5.78597">
        <ele>493.9</ele>
        <time>2021-05-09T14:28:59Z</time>
      </trkpt>
      <trkpt lat="46.89217" lon="5.78604">
        <ele>493.7</ele>
        <time>2021-05-09T14:29:04Z</time>
      </trkpt>
      <trkpt lat="46.89214" lon="5.78609">
        <ele>493.2</ele>
        <time>2021-05-09T14:29:09Z</time>
      </trkpt>
      <trkpt lat="46.89217" lon="5.78616">
        <ele>493.4</ele>
        <time>2021-05-09T14:29:15Z</time>
      </trkpt>
      <trkpt lat="46.8922" lon="5.78622">
        <ele>494.2</ele>
        <time>2021-05-09T14:29:19Z</time>
      </trkpt>
      <trkpt lat="46.89221" lon="5.78629">
        <ele>494.7</ele>
        <time>2021-05-09T14:29:23Z</time>
      </trkpt>
      <trkpt lat="46.89223" lon="5.78635">
        <ele>494</ele>
        <time>2021-05-09T14:29:29Z</time>
      </trkpt>
      <trkpt lat="46.89226" lon="5.7864">
        <ele>492.1</ele>
        <time>2021-05-09T14:29:35Z</time>
      </trkpt>
      <trkpt lat="46.89227" lon="5.78647">
        <ele>490.9</ele>
        <time>2021-05-09T14:29:39Z</time>
      </trkpt>
      <trkpt lat="46.89228" lon="5.78655">
        <ele>489.8</ele>
        <time>2021-05-09T14:29:44Z</time>
      </trkpt>
      <trkpt lat="46.89229" lon="5.78661">
        <ele>487.5</ele>
        <time>2021-05-09T14:29:50Z</time>
      </trkpt>
      <trkpt lat="46.89231" lon="5.78669">
        <ele>485.8</ele>
        <time>2021-05-09T14:29:55Z</time>
      </trkpt>
      <trkpt lat="46.89233" lon="5.78675">
        <ele>485.1</ele>
        <time>2021-05-09T14:29:59Z</time>
      </trkpt>
      <trkpt lat="46.89235" lon="5.78681">
        <ele>484.5</ele>
        <time>2021-05-09T14:30:03Z</time>
      </trkpt>
      <trkpt lat="46.89235" lon="5.78689">
        <ele>483.3</ele>
        <time>2021-05-09T14:30:08Z</time>
      </trkpt>
      <trkpt lat="46.89237" lon="5.787">
        <ele>484.6</ele>
        <time>2021-05-09T14:30:16Z</time>
      </trkpt>
      <trkpt lat="46.8924" lon="5.78709">
        <ele>488.4</ele>
        <time>2021-05-09T14:30:20Z</time>
      </trkpt>
      <trkpt lat="46.89243" lon="5.78716">
        <ele>491.3</ele>
        <time>2021-05-09T14:30:25Z</time>
      </trkpt>
      <trkpt lat="46.89244" lon="5.78722">
        <ele>492.2</ele>
        <time>2021-05-09T14:30:29Z</time>
      </trkpt>
      <trkpt lat="46.89247" lon="5.78729">
        <ele>492.5</ele>
        <time>2021-05-09T14:30:33Z</time>
      </trkpt>
      <trkpt lat="46.89249" lon="5.78736">
        <ele>492.7</ele>
        <time>2021-05-09T14:30:39Z</time>
      </trkpt>
      <trkpt lat="46.8925" lon="5.78742">
        <ele>492.9</ele>
        <time>2021-05-09T14:30:45Z</time>
      </trkpt>
      <trkpt lat="46.89252" lon="5.78749">
        <ele>492.8</ele>
        <time>2021-05-09T14:30:50Z</time>
      </trkpt>
      <trkpt lat="46.89256" lon="5.78755">
        <ele>492.7</ele>
        <time>2021-05-09T14:30:54Z</time>
      </trkpt>
      <trkpt lat="46.89258" lon="5.78763">
        <ele>493.4</ele>
        <time>2021-05-09T14:30:58Z</time>
      </trkpt>
      <trkpt lat="46.89259" lon="5.78771">
        <ele>494</ele>
        <time>2021-05-09T14:31:03Z</time>
      </trkpt>
      <trkpt lat="46.8926" lon="5.78778">
        <ele>494.1</ele>
        <time>2021-05-09T14:31:08Z</time>
      </trkpt>
      <trkpt lat="46.8926" lon="5.78786">
        <ele>494</ele>
        <time>2021-05-09T14:31:14Z</time>
      </trkpt>
      <trkpt lat="46.89262" lon="5.78791">
        <ele>493.6</ele>
        <time>2021-05-09T14:31:18Z</time>
      </trkpt>
      <trkpt lat="46.89263" lon="5.788">
        <ele>493.9</ele>
        <time>2021-05-09T14:31:22Z</time>
      </trkpt>
      <trkpt lat="46.89263" lon="5.78807">
        <ele>494.5</ele>
        <time>2021-05-09T14:31:30Z</time>
      </trkpt>
      <trkpt lat="46.89262" lon="5.78813">
        <ele>494.8</ele>
        <time>2021-05-09T14:31:40Z</time>
      </trkpt>
      <trkpt lat="46.89266" lon="5.78814">
        <ele>495.5</ele>
        <time>2021-05-09T14:31:49Z</time>
      </trkpt>
      <trkpt lat="46.89271" lon="5.78817">
        <ele>497.4</ele>
        <time>2021-05-09T14:32:03Z</time>
      </trkpt>
      <trkpt lat="46.89267" lon="5.78822">
        <ele>499</ele>
        <time>2021-05-09T14:32:38Z</time>
      </trkpt>
      <trkpt lat="46.89267" lon="5.78829">
        <ele>498</ele>
        <time>2021-05-09T14:33:04Z</time>
      </trkpt>
      <trkpt lat="46.89267" lon="5.78836">
        <ele>497.6</ele>
        <time>2021-05-09T14:33:12Z</time>
      </trkpt>
      <trkpt lat="46.89265" lon="5.78843">
        <ele>497.4</ele>
        <time>2021-05-09T14:33:17Z</time>
      </trkpt>
      <trkpt lat="46.89263" lon="5.78849">
        <ele>496.9</ele>
        <time>2021-05-09T14:33:22Z</time>
      </trkpt>
      <trkpt lat="46.89259" lon="5.78853">
        <ele>496.2</ele>
        <time>2021-05-09T14:33:31Z</time>
      </trkpt>
      <trkpt lat="46.8926" lon="5.78859">
        <ele>496.5</ele>
        <time>2021-05-09T14:33:53Z</time>
      </trkpt>
      <trkpt lat="46.89258" lon="5.78866">
        <ele>495.6</ele>
        <time>2021-05-09T14:34:02Z</time>
      </trkpt>
      <trkpt lat="46.89265" lon="5.78866">
        <ele>489.5</ele>
        <time>2021-05-09T14:34:28Z</time>
      </trkpt>
      <trkpt lat="46.89277" lon="5.78869">
        <ele>490.7</ele>
        <time>2021-05-09T14:34:32Z</time>
      </trkpt>
      <trkpt lat="46.89282" lon="5.78876">
        <ele>495.3</ele>
        <time>2021-05-09T14:34:36Z</time>
      </trkpt>
      <trkpt lat="46.89286" lon="5.78881">
        <ele>499</ele>
        <time>2021-05-09T14:34:41Z</time>
      </trkpt>
      <trkpt lat="46.89289" lon="5.78888">
        <ele>501.1</ele>
        <time>2021-05-09T14:34:45Z</time>
      </trkpt>
      <trkpt lat="46.89292" lon="5.78895">
        <ele>503.3</ele>
        <time>2021-05-09T14:34:49Z</time>
      </trkpt>
      <trkpt lat="46.89295" lon="5.78901">
        <ele>505.7</ele>
        <time>2021-05-09T14:34:53Z</time>
      </trkpt>
      <trkpt lat="46.89299" lon="5.78905">
        <ele>507.7</ele>
        <time>2021-05-09T14:34:57Z</time>
      </trkpt>
      <trkpt lat="46.89304" lon="5.7891">
        <ele>509.6</ele>
        <time>2021-05-09T14:35:01Z</time>
      </trkpt>
      <trkpt lat="46.89307" lon="5.78913">
        <ele>513.1</ele>
        <time>2021-05-09T14:35:09Z</time>
      </trkpt>
      <trkpt lat="46.89312" lon="5.78916">
        <ele>513.9</ele>
        <time>2021-05-09T14:35:24Z</time>
      </trkpt>
      <trkpt lat="46.89317" lon="5.78916">
        <ele>513.7</ele>
        <time>2021-05-09T14:35:29Z</time>
      </trkpt>
      <trkpt lat="46.89322" lon="5.78918">
        <ele>513.2</ele>
        <time>2021-05-09T14:35:35Z</time>
      </trkpt>
      <trkpt lat="46.89327" lon="5.78918">
        <ele>512.3</ele>
        <time>2021-05-09T14:35:44Z</time>
      </trkpt>
      <trkpt lat="46.89331" lon="5.7892">
        <ele>510.8</ele>
        <time>2021-05-09T14:35:51Z</time>
      </trkpt>
      <trkpt lat="46.89341" lon="5.78925">
        <ele>505.9</ele>
        <time>2021-05-09T14:35:57Z</time>
      </trkpt>
      <trkpt lat="46.89349" lon="5.78929">
        <ele>501.7</ele>
        <time>2021-05-09T14:36:01Z</time>
      </trkpt>
      <trkpt lat="46.89353" lon="5.78932">
        <ele>497.4</ele>
        <time>2021-05-09T14:36:08Z</time>
      </trkpt>
      <trkpt lat="46.89357" lon="5.78936">
        <ele>495.6</ele>
        <time>2021-05-09T14:36:14Z</time>
      </trkpt>
      <trkpt lat="46.89362" lon="5.78939">
        <ele>494.6</ele>
        <time>2021-05-09T14:36:19Z</time>
      </trkpt>
      <trkpt lat="46.89366" lon="5.78944">
        <ele>493.9</ele>
        <time>2021-05-09T14:36:23Z</time>
      </trkpt>
      <trkpt lat="46.8937" lon="5.78948">
        <ele>493.6</ele>
        <time>2021-05-09T14:36:27Z</time>
      </trkpt>
      <trkpt lat="46.89373" lon="5.78954">
        <ele>492.9</ele>
        <time>2021-05-09T14:36:33Z</time>
      </trkpt>
      <trkpt lat="46.89373" lon="5.78961">
        <ele>493</ele>
        <time>2021-05-09T14:36:37Z</time>
      </trkpt>
      <trkpt lat="46.89373" lon="5.78968">
        <ele>493.4</ele>
        <time>2021-05-09T14:36:43Z</time>
      </trkpt>
      <trkpt lat="46.89372" lon="5.78988">
        <ele>496.8</ele>
        <time>2021-05-09T14:36:47Z</time>
      </trkpt>
      <trkpt lat="46.8937" lon="5.78995">
        <ele>499</ele>
        <time>2021-05-09T14:36:53Z</time>
      </trkpt>
      <trkpt lat="46.89368" lon="5.79002">
        <ele>499.6</ele>
        <time>2021-05-09T14:36:59Z</time>
      </trkpt>
      <trkpt lat="46.89364" lon="5.79006">
        <ele>499.4</ele>
        <time>2021-05-09T14:37:05Z</time>
      </trkpt>
      <trkpt lat="46.8936" lon="5.79013">
        <ele>498.8</ele>
        <time>2021-05-09T14:37:11Z</time>
      </trkpt>
      <trkpt lat="46.89358" lon="5.7902">
        <ele>498.3</ele>
        <time>2021-05-09T14:37:16Z</time>
      </trkpt>
      <trkpt lat="46.89357" lon="5.79029">
        <ele>497.9</ele>
        <time>2021-05-09T14:37:20Z</time>
      </trkpt>
      <trkpt lat="46.89358" lon="5.79039">
        <ele>497.5</ele>
        <time>2021-05-09T14:37:24Z</time>
      </trkpt>
      <trkpt lat="46.89358" lon="5.79047">
        <ele>497</ele>
        <time>2021-05-09T14:37:29Z</time>
      </trkpt>
      <trkpt lat="46.89359" lon="5.79053">
        <ele>496.3</ele>
        <time>2021-05-09T14:37:34Z</time>
      </trkpt>
      <trkpt lat="46.89361" lon="5.79059">
        <ele>495.3</ele>
        <time>2021-05-09T14:37:41Z</time>
      </trkpt>
      <trkpt lat="46.89364" lon="5.79066">
        <ele>494.6</ele>
        <time>2021-05-09T14:37:48Z</time>
      </trkpt>
      <trkpt lat="46.89366" lon="5.79072">
        <ele>494.1</ele>
        <time>2021-05-09T14:37:54Z</time>
      </trkpt>
      <trkpt lat="46.89368" lon="5.79079">
        <ele>493.6</ele>
        <time>2021-05-09T14:38:00Z</time>
      </trkpt>
      <trkpt lat="46.89369" lon="5.79087">
        <ele>493</ele>
        <time>2021-05-09T14:38:05Z</time>
      </trkpt>
      <trkpt lat="46.89372" lon="5.79093">
        <ele>492.6</ele>
        <time>2021-05-09T14:38:09Z</time>
      </trkpt>
      <trkpt lat="46.89375" lon="5.79098">
        <ele>492.4</ele>
        <time>2021-05-09T14:38:13Z</time>
      </trkpt>
      <trkpt lat="46.89379" lon="5.79103">
        <ele>492</ele>
        <time>2021-05-09T14:38:19Z</time>
      </trkpt>
      <trkpt lat="46.89381" lon="5.79109">
        <ele>491.6</ele>
        <time>2021-05-09T14:38:25Z</time>
      </trkpt>
      <trkpt lat="46.89383" lon="5.79117">
        <ele>491.2</ele>
        <time>2021-05-09T14:38:31Z</time>
      </trkpt>
      <trkpt lat="46.89387" lon="5.79123">
        <ele>490.8</ele>
        <time>2021-05-09T14:38:37Z</time>
      </trkpt>
      <trkpt lat="46.89386" lon="5.7914">
        <ele>490.6</ele>
        <time>2021-05-09T14:38:41Z</time>
      </trkpt>
      <trkpt lat="46.89387" lon="5.79148">
        <ele>490.4</ele>
        <time>2021-05-09T14:38:45Z</time>
      </trkpt>
      <trkpt lat="46.8939" lon="5.79154">
        <ele>490</ele>
        <time>2021-05-09T14:38:51Z</time>
      </trkpt>
      <trkpt lat="46.89392" lon="5.7916">
        <ele>489.7</ele>
        <time>2021-05-09T14:38:58Z</time>
      </trkpt>
      <trkpt lat="46.89392" lon="5.79167">
        <ele>489.6</ele>
        <time>2021-05-09T14:39:04Z</time>
      </trkpt>
      <trkpt lat="46.89393" lon="5.79174">
        <ele>489.5</ele>
        <time>2021-05-09T14:39:10Z</time>
      </trkpt>
      <trkpt lat="46.89393" lon="5.79182">
        <ele>489.7</ele>
        <time>2021-05-09T14:39:16Z</time>
      </trkpt>
      <trkpt lat="46.89392" lon="5.79189">
        <ele>489.9</ele>
        <time>2021-05-09T14:39:23Z</time>
      </trkpt>
      <trkpt lat="46.89393" lon="5.79197">
        <ele>489.9</ele>
        <time>2021-05-09T14:39:29Z</time>
      </trkpt>
      <trkpt lat="46.89395" lon="5.79204">
        <ele>490.4</ele>
        <time>2021-05-09T14:39:33Z</time>
      </trkpt>
      <trkpt lat="46.89396" lon="5.79213">
        <ele>492.4</ele>
        <time>2021-05-09T14:39:37Z</time>
      </trkpt>
      <trkpt lat="46.89398" lon="5.79219">
        <ele>494.2</ele>
        <time>2021-05-09T14:39:41Z</time>
      </trkpt>
      <trkpt lat="46.89401" lon="5.79225">
        <ele>496.1</ele>
        <time>2021-05-09T14:39:46Z</time>
      </trkpt>
      <trkpt lat="46.89405" lon="5.7923">
        <ele>497.6</ele>
        <time>2021-05-09T14:39:51Z</time>
      </trkpt>
      <trkpt lat="46.89409" lon="5.79236">
        <ele>498.9</ele>
        <time>2021-05-09T14:39:56Z</time>
      </trkpt>
      <trkpt lat="46.89412" lon="5.79243">
        <ele>498.9</ele>
        <time>2021-05-09T14:40:00Z</time>
      </trkpt>
      <trkpt lat="46.89416" lon="5.79247">
        <ele>498.6</ele>
        <time>2021-05-09T14:40:04Z</time>
      </trkpt>
      <trkpt lat="46.89419" lon="5.79253">
        <ele>498.5</ele>
        <time>2021-05-09T14:40:08Z</time>
      </trkpt>
      <trkpt lat="46.89422" lon="5.7926">
        <ele>498.9</ele>
        <time>2021-05-09T14:40:12Z</time>
      </trkpt>
      <trkpt lat="46.89422" lon="5.79267">
        <ele>499.5</ele>
        <time>2021-05-09T14:40:17Z</time>
      </trkpt>
      <trkpt lat="46.89421" lon="5.79274">
        <ele>500.1</ele>
        <time>2021-05-09T14:40:24Z</time>
      </trkpt>
      <trkpt lat="46.89421" lon="5.79282">
        <ele>500.1</ele>
        <time>2021-05-09T14:40:33Z</time>
      </trkpt>
      <trkpt lat="46.89419" lon="5.79288">
        <ele>500.2</ele>
        <time>2021-05-09T14:40:39Z</time>
      </trkpt>
      <trkpt lat="46.89415" lon="5.79294">
        <ele>499.9</ele>
        <time>2021-05-09T14:40:48Z</time>
      </trkpt>
      <trkpt lat="46.89413" lon="5.793">
        <ele>499.4</ele>
        <time>2021-05-09T14:40:56Z</time>
      </trkpt>
      <trkpt lat="46.89407" lon="5.79303">
        <ele>498.8</ele>
        <time>2021-05-09T14:41:05Z</time>
      </trkpt>
      <trkpt lat="46.89402" lon="5.79301">
        <ele>498.4</ele>
        <time>2021-05-09T14:41:11Z</time>
      </trkpt>
      <trkpt lat="46.89398" lon="5.79301">
        <ele>498.3</ele>
        <time>2021-05-09T14:41:17Z</time>
      </trkpt>
      <trkpt lat="46.89393" lon="5.793">
        <ele>498</ele>
        <time>2021-05-09T14:41:23Z</time>
      </trkpt>
      <trkpt lat="46.89384" lon="5.79305">
        <ele>496.8</ele>
        <time>2021-05-09T14:41:30Z</time>
      </trkpt>
      <trkpt lat="46.89379" lon="5.79309">
        <ele>495.8</ele>
        <time>2021-05-09T14:41:34Z</time>
      </trkpt>
      <trkpt lat="46.89375" lon="5.79305">
        <ele>494.9</ele>
        <time>2021-05-09T14:41:47Z</time>
      </trkpt>
      <trkpt lat="46.8937" lon="5.79305">
        <ele>494.7</ele>
        <time>2021-05-09T14:41:55Z</time>
      </trkpt>
      <trkpt lat="46.89365" lon="5.79305">
        <ele>493.8</ele>
        <time>2021-05-09T14:42:09Z</time>
      </trkpt>
      <trkpt lat="46.8936" lon="5.79306">
        <ele>493.7</ele>
        <time>2021-05-09T14:42:18Z</time>
      </trkpt>
      <trkpt lat="46.89355" lon="5.79305">
        <ele>494</ele>
        <time>2021-05-09T14:42:24Z</time>
      </trkpt>
      <trkpt lat="46.89351" lon="5.79304">
        <ele>494.6</ele>
        <time>2021-05-09T14:42:29Z</time>
      </trkpt>
      <trkpt lat="46.89346" lon="5.79302">
        <ele>495.7</ele>
        <time>2021-05-09T14:42:38Z</time>
      </trkpt>
      <trkpt lat="46.89341" lon="5.79304">
        <ele>496.6</ele>
        <time>2021-05-09T14:42:47Z</time>
      </trkpt>
      <trkpt lat="46.89336" lon="5.79306">
        <ele>497.1</ele>
        <time>2021-05-09T14:42:52Z</time>
      </trkpt>
      <trkpt lat="46.89332" lon="5.7931">
        <ele>497.2</ele>
        <time>2021-05-09T14:43:00Z</time>
      </trkpt>
      <trkpt lat="46.89328" lon="5.79313">
        <ele>499.3</ele>
        <time>2021-05-09T14:43:45Z</time>
      </trkpt>
      <trkpt lat="46.89324" lon="5.79312">
        <ele>500</ele>
        <time>2021-05-09T14:44:01Z</time>
      </trkpt>
      <trkpt lat="46.8932" lon="5.79309">
        <ele>499.9</ele>
        <time>2021-05-09T14:44:09Z</time>
      </trkpt>
      <trkpt lat="46.89315" lon="5.79309">
        <ele>500.2</ele>
        <time>2021-05-09T14:44:15Z</time>
      </trkpt>
      <trkpt lat="46.89309" lon="5.7931">
        <ele>500.5</ele>
        <time>2021-05-09T14:44:22Z</time>
      </trkpt>
      <trkpt lat="46.89305" lon="5.79306">
        <ele>500.8</ele>
        <time>2021-05-09T14:44:29Z</time>
      </trkpt>
      <trkpt lat="46.893" lon="5.79306">
        <ele>500.8</ele>
        <time>2021-05-09T14:44:37Z</time>
      </trkpt>
      <trkpt lat="46.89296" lon="5.79307">
        <ele>501</ele>
        <time>2021-05-09T14:44:45Z</time>
      </trkpt>
      <trkpt lat="46.89287" lon="5.7931">
        <ele>503.4</ele>
        <time>2021-05-09T14:45:00Z</time>
      </trkpt>
      <trkpt lat="46.8928" lon="5.79315">
        <ele>505.2</ele>
        <time>2021-05-09T14:45:04Z</time>
      </trkpt>
      <trkpt lat="46.89276" lon="5.79311">
        <ele>507.3</ele>
        <time>2021-05-09T14:45:12Z</time>
      </trkpt>
      <trkpt lat="46.89273" lon="5.79306">
        <ele>508.1</ele>
        <time>2021-05-09T14:45:18Z</time>
      </trkpt>
      <trkpt lat="46.89268" lon="5.79303">
        <ele>509.1</ele>
        <time>2021-05-09T14:45:26Z</time>
      </trkpt>
      <trkpt lat="46.89263" lon="5.79305">
        <ele>510.1</ele>
        <time>2021-05-09T14:45:31Z</time>
      </trkpt>
      <trkpt lat="46.89259" lon="5.79303">
        <ele>509.8</ele>
        <time>2021-05-09T14:46:11Z</time>
      </trkpt>
      <trkpt lat="46.89254" lon="5.79307">
        <ele>510.5</ele>
        <time>2021-05-09T14:46:25Z</time>
      </trkpt>
      <trkpt lat="46.8925" lon="5.79313">
        <ele>511.8</ele>
        <time>2021-05-09T14:46:30Z</time>
      </trkpt>
      <trkpt lat="46.89246" lon="5.79317">
        <ele>516.2</ele>
        <time>2021-05-09T14:47:05Z</time>
      </trkpt>
      <trkpt lat="46.89245" lon="5.79323">
        <ele>517.2</ele>
        <time>2021-05-09T14:47:09Z</time>
      </trkpt>
      <trkpt lat="46.8924" lon="5.79323">
        <ele>518.6</ele>
        <time>2021-05-09T14:47:42Z</time>
      </trkpt>
      <trkpt lat="46.89235" lon="5.79326">
        <ele>518.7</ele>
        <time>2021-05-09T14:47:51Z</time>
      </trkpt>
      <trkpt lat="46.89231" lon="5.7933">
        <ele>518.7</ele>
        <time>2021-05-09T14:47:59Z</time>
      </trkpt>
      <trkpt lat="46.89227" lon="5.79331">
        <ele>519.8</ele>
        <time>2021-05-09T14:48:21Z</time>
      </trkpt>
      <trkpt lat="46.89222" lon="5.79331">
        <ele>520.3</ele>
        <time>2021-05-09T14:48:31Z</time>
      </trkpt>
      <trkpt lat="46.89218" lon="5.79336">
        <ele>521.6</ele>
        <time>2021-05-09T14:48:41Z</time>
      </trkpt>
      <trkpt lat="46.89216" lon="5.79342">
        <ele>530.6</ele>
        <time>2021-05-09T14:49:44Z</time>
      </trkpt>
      <trkpt lat="46.89212" lon="5.79336">
        <ele>532.3</ele>
        <time>2021-05-09T14:50:59Z</time>
      </trkpt>
      <trkpt lat="46.8921" lon="5.79329">
        <ele>532.7</ele>
        <time>2021-05-09T14:51:12Z</time>
      </trkpt>
      <trkpt lat="46.89205" lon="5.79337">
        <ele>533.1</ele>
        <time>2021-05-09T14:51:22Z</time>
      </trkpt>
      <trkpt lat="46.89202" lon="5.79344">
        <ele>533.7</ele>
        <time>2021-05-09T14:51:26Z</time>
      </trkpt>
      <trkpt lat="46.89199" lon="5.7935">
        <ele>534.3</ele>
        <time>2021-05-09T14:51:36Z</time>
      </trkpt>
      <trkpt lat="46.89195" lon="5.79355">
        <ele>533.9</ele>
        <time>2021-05-09T14:52:01Z</time>
      </trkpt>
      <trkpt lat="46.89192" lon="5.79362">
        <ele>532.7</ele>
        <time>2021-05-09T14:52:22Z</time>
      </trkpt>
      <trkpt lat="46.89189" lon="5.79367">
        <ele>531.8</ele>
        <time>2021-05-09T14:52:26Z</time>
      </trkpt>
      <trkpt lat="46.89184" lon="5.79368">
        <ele>530</ele>
        <time>2021-05-09T14:53:28Z</time>
      </trkpt>
      <trkpt lat="46.89173" lon="5.79381">
        <ele>532.8</ele>
        <time>2021-05-09T14:54:53Z</time>
      </trkpt>
      <trkpt lat="46.89177" lon="5.79384">
        <ele>530.1</ele>
        <time>2021-05-09T14:55:16Z</time>
      </trkpt>
      <trkpt lat="46.89173" lon="5.79389">
        <ele>527.6</ele>
        <time>2021-05-09T14:55:43Z</time>
      </trkpt>
      <trkpt lat="46.8917" lon="5.79394">
        <ele>525.9</ele>
        <time>2021-05-09T14:56:05Z</time>
      </trkpt>
      <trkpt lat="46.89167" lon="5.794">
        <ele>524.7</ele>
        <time>2021-05-09T14:56:15Z</time>
      </trkpt>
      <trkpt lat="46.89163" lon="5.79404">
        <ele>523.8</ele>
        <time>2021-05-09T14:56:22Z</time>
      </trkpt>
      <trkpt lat="46.89159" lon="5.79408">
        <ele>522.3</ele>
        <time>2021-05-09T14:56:33Z</time>
      </trkpt>
      <trkpt lat="46.89159" lon="5.79414">
        <ele>521.1</ele>
        <time>2021-05-09T14:56:49Z</time>
      </trkpt>
      <trkpt lat="46.89154" lon="5.79417">
        <ele>520.5</ele>
        <time>2021-05-09T14:57:10Z</time>
      </trkpt>
      <trkpt lat="46.89148" lon="5.79418">
        <ele>520.1</ele>
        <time>2021-05-09T14:57:14Z</time>
      </trkpt>
      <trkpt lat="46.89147" lon="5.79425">
        <ele>519.4</ele>
        <time>2021-05-09T14:57:20Z</time>
      </trkpt>
      <trkpt lat="46.89145" lon="5.79431">
        <ele>518</ele>
        <time>2021-05-09T14:57:33Z</time>
      </trkpt>
      <trkpt lat="46.89143" lon="5.79437">
        <ele>517.5</ele>
        <time>2021-05-09T14:57:40Z</time>
      </trkpt>
      <trkpt lat="46.89137" lon="5.79448">
        <ele>516.2</ele>
        <time>2021-05-09T14:58:01Z</time>
      </trkpt>
      <trkpt lat="46.89135" lon="5.79453">
        <ele>515.4</ele>
        <time>2021-05-09T14:58:05Z</time>
      </trkpt>
      <trkpt lat="46.89131" lon="5.79456">
        <ele>514.4</ele>
        <time>2021-05-09T14:58:19Z</time>
      </trkpt>
      <trkpt lat="46.89126" lon="5.79459">
        <ele>514.2</ele>
        <time>2021-05-09T14:58:24Z</time>
      </trkpt>
      <trkpt lat="46.89122" lon="5.79464">
        <ele>514</ele>
        <time>2021-05-09T14:58:31Z</time>
      </trkpt>
      <trkpt lat="46.89106" lon="5.79476">
        <ele>507.5</ele>
        <time>2021-05-09T14:58:35Z</time>
      </trkpt>
      <trkpt lat="46.89101" lon="5.79479">
        <ele>503.3</ele>
        <time>2021-05-09T14:58:41Z</time>
      </trkpt>
      <trkpt lat="46.89097" lon="5.79478">
        <ele>500.1</ele>
        <time>2021-05-09T14:58:49Z</time>
      </trkpt>
      <trkpt lat="46.89092" lon="5.79481">
        <ele>498.2</ele>
        <time>2021-05-09T14:58:57Z</time>
      </trkpt>
      <trkpt lat="46.89089" lon="5.79485">
        <ele>497.6</ele>
        <time>2021-05-09T14:59:03Z</time>
      </trkpt>
      <trkpt lat="46.89086" lon="5.79492">
        <ele>497.9</ele>
        <time>2021-05-09T14:59:13Z</time>
      </trkpt>
      <trkpt lat="46.89084" lon="5.79497">
        <ele>498.4</ele>
        <time>2021-05-09T14:59:17Z</time>
      </trkpt>
      <trkpt lat="46.89081" lon="5.79503">
        <ele>499.5</ele>
        <time>2021-05-09T14:59:31Z</time>
      </trkpt>
      <trkpt lat="46.89077" lon="5.79507">
        <ele>501.7</ele>
        <time>2021-05-09T14:59:52Z</time>
      </trkpt>
      <trkpt lat="46.89073" lon="5.79515">
        <ele>504.6</ele>
        <time>2021-05-09T14:59:56Z</time>
      </trkpt>
      <trkpt lat="46.89069" lon="5.79524">
        <ele>507.6</ele>
        <time>2021-05-09T15:00:00Z</time>
      </trkpt>
      <trkpt lat="46.89066" lon="5.79527">
        <ele>510.9</ele>
        <time>2021-05-09T15:00:08Z</time>
      </trkpt>
      <trkpt lat="46.89061" lon="5.79529">
        <ele>512.5</ele>
        <time>2021-05-09T15:00:16Z</time>
      </trkpt>
      <trkpt lat="46.89056" lon="5.79529">
        <ele>513</ele>
        <time>2021-05-09T15:00:22Z</time>
      </trkpt>
      <trkpt lat="46.89051" lon="5.79529">
        <ele>513.2</ele>
        <time>2021-05-09T15:00:29Z</time>
      </trkpt>
      <trkpt lat="46.89046" lon="5.79529">
        <ele>513</ele>
        <time>2021-05-09T15:00:37Z</time>
      </trkpt>
      <trkpt lat="46.89041" lon="5.7953">
        <ele>512.6</ele>
        <time>2021-05-09T15:00:43Z</time>
      </trkpt>
      <trkpt lat="46.89037" lon="5.79529">
        <ele>509.7</ele>
        <time>2021-05-09T15:01:13Z</time>
      </trkpt>
      <trkpt lat="46.89033" lon="5.79526">
        <ele>509</ele>
        <time>2021-05-09T15:01:20Z</time>
      </trkpt>
      <trkpt lat="46.89028" lon="5.79525">
        <ele>508.4</ele>
        <time>2021-05-09T15:01:24Z</time>
      </trkpt>
      <trkpt lat="46.89023" lon="5.79525">
        <ele>507.6</ele>
        <time>2021-05-09T15:01:31Z</time>
      </trkpt>
      <trkpt lat="46.89013" lon="5.79539">
        <ele>510.2</ele>
        <time>2021-05-09T15:01:37Z</time>
      </trkpt>
      <trkpt lat="46.89002" lon="5.79549">
        <ele>512.2</ele>
        <time>2021-05-09T15:01:41Z</time>
      </trkpt>
      <trkpt lat="46.88998" lon="5.79554">
        <ele>514.2</ele>
        <time>2021-05-09T15:01:47Z</time>
      </trkpt>
      <trkpt lat="46.88994" lon="5.79555">
        <ele>515.6</ele>
        <time>2021-05-09T15:02:01Z</time>
      </trkpt>
      <trkpt lat="46.8899" lon="5.79549">
        <ele>515.5</ele>
        <time>2021-05-09T15:02:11Z</time>
      </trkpt>
      <trkpt lat="46.88985" lon="5.79546">
        <ele>515.2</ele>
        <time>2021-05-09T15:02:18Z</time>
      </trkpt>
      <trkpt lat="46.8898" lon="5.79547">
        <ele>514.8</ele>
        <time>2021-05-09T15:02:24Z</time>
      </trkpt>
      <trkpt lat="46.88976" lon="5.7955">
        <ele>514.6</ele>
        <time>2021-05-09T15:02:32Z</time>
      </trkpt>
      <trkpt lat="46.88969" lon="5.79562">
        <ele>513.5</ele>
        <time>2021-05-09T15:02:37Z</time>
      </trkpt>
      <trkpt lat="46.88964" lon="5.79572">
        <ele>512.2</ele>
        <time>2021-05-09T15:02:41Z</time>
      </trkpt>
      <trkpt lat="46.8896" lon="5.79577">
        <ele>510.7</ele>
        <time>2021-05-09T15:02:49Z</time>
      </trkpt>
      <trkpt lat="46.88955" lon="5.79579">
        <ele>509.9</ele>
        <time>2021-05-09T15:02:59Z</time>
      </trkpt>
      <trkpt lat="46.88951" lon="5.7958">
        <ele>508.8</ele>
        <time>2021-05-09T15:03:09Z</time>
      </trkpt>
      <trkpt lat="46.88942" lon="5.7959">
        <ele>509</ele>
        <time>2021-05-09T15:03:22Z</time>
      </trkpt>
      <trkpt lat="46.88936" lon="5.796">
        <ele>509.8</ele>
        <time>2021-05-09T15:03:26Z</time>
      </trkpt>
      <trkpt lat="46.88932" lon="5.79604">
        <ele>510.3</ele>
        <time>2021-05-09T15:03:33Z</time>
      </trkpt>
      <trkpt lat="46.88928" lon="5.79605">
        <ele>510.6</ele>
        <time>2021-05-09T15:03:44Z</time>
      </trkpt>
      <trkpt lat="46.88923" lon="5.79608">
        <ele>511.4</ele>
        <time>2021-05-09T15:03:52Z</time>
      </trkpt>
      <trkpt lat="46.88925" lon="5.79615">
        <ele>514.2</ele>
        <time>2021-05-09T15:04:30Z</time>
      </trkpt>
      <trkpt lat="46.88921" lon="5.79619">
        <ele>514.4</ele>
        <time>2021-05-09T15:04:44Z</time>
      </trkpt>
      <trkpt lat="46.88917" lon="5.79622">
        <ele>513.8</ele>
        <time>2021-05-09T15:04:55Z</time>
      </trkpt>
      <trkpt lat="46.88912" lon="5.79624">
        <ele>513.5</ele>
        <time>2021-05-09T15:05:03Z</time>
      </trkpt>
      <trkpt lat="46.88907" lon="5.79625">
        <ele>513.6</ele>
        <time>2021-05-09T15:05:08Z</time>
      </trkpt>
      <trkpt lat="46.88903" lon="5.79628">
        <ele>513.5</ele>
        <time>2021-05-09T15:05:12Z</time>
      </trkpt>
      <trkpt lat="46.88902" lon="5.79634">
        <ele>512.9</ele>
        <time>2021-05-09T15:05:43Z</time>
      </trkpt>
      <trkpt lat="46.88898" lon="5.79639">
        <ele>512.7</ele>
        <time>2021-05-09T15:05:49Z</time>
      </trkpt>
      <trkpt lat="46.88893" lon="5.79641">
        <ele>512.6</ele>
        <time>2021-05-09T15:05:56Z</time>
      </trkpt>
      <trkpt lat="46.88888" lon="5.79643">
        <ele>512.5</ele>
        <time>2021-05-09T15:06:02Z</time>
      </trkpt>
      <trkpt lat="46.88881" lon="5.79648">
        <ele>513</ele>
        <time>2021-05-09T15:06:22Z</time>
      </trkpt>
      <trkpt lat="46.88875" lon="5.79653">
        <ele>513.2</ele>
        <time>2021-05-09T15:06:26Z</time>
      </trkpt>
      <trkpt lat="46.8887" lon="5.79658">
        <ele>513.7</ele>
        <time>2021-05-09T15:07:04Z</time>
      </trkpt>
      <trkpt lat="46.88865" lon="5.7966">
        <ele>514.6</ele>
        <time>2021-05-09T15:07:11Z</time>
      </trkpt>
      <trkpt lat="46.88861" lon="5.79664">
        <ele>515.1</ele>
        <time>2021-05-09T15:07:17Z</time>
      </trkpt>
      <trkpt lat="46.88859" lon="5.7967">
        <ele>515.7</ele>
        <time>2021-05-09T15:07:23Z</time>
      </trkpt>
      <trkpt lat="46.88855" lon="5.79673">
        <ele>515.9</ele>
        <time>2021-05-09T15:07:30Z</time>
      </trkpt>
      <trkpt lat="46.8885" lon="5.79675">
        <ele>516.3</ele>
        <time>2021-05-09T15:07:43Z</time>
      </trkpt>
      <trkpt lat="46.88846" lon="5.79676">
        <ele>517.2</ele>
        <time>2021-05-09T15:07:58Z</time>
      </trkpt>
      <trkpt lat="46.88841" lon="5.79677">
        <ele>518.3</ele>
        <time>2021-05-09T15:08:04Z</time>
      </trkpt>
      <trkpt lat="46.88836" lon="5.79677">
        <ele>519.3</ele>
        <time>2021-05-09T15:08:26Z</time>
      </trkpt>
      <trkpt lat="46.88832" lon="5.79676">
        <ele>519.5</ele>
        <time>2021-05-09T15:08:30Z</time>
      </trkpt>
      <trkpt lat="46.88822" lon="5.79686">
        <ele>519.4</ele>
        <time>2021-05-09T15:08:34Z</time>
      </trkpt>
      <trkpt lat="46.88818" lon="5.79687">
        <ele>519.3</ele>
        <time>2021-05-09T15:08:40Z</time>
      </trkpt>
      <trkpt lat="46.8881" lon="5.79687">
        <ele>517.8</ele>
        <time>2021-05-09T15:09:00Z</time>
      </trkpt>
      <trkpt lat="46.88805" lon="5.79688">
        <ele>517</ele>
        <time>2021-05-09T15:09:04Z</time>
      </trkpt>
      <trkpt lat="46.88797" lon="5.7969">
        <ele>515.2</ele>
        <time>2021-05-09T15:09:08Z</time>
      </trkpt>
      <trkpt lat="46.8879" lon="5.79691">
        <ele>513.4</ele>
        <time>2021-05-09T15:09:27Z</time>
      </trkpt>
      <trkpt lat="46.88785" lon="5.79693">
        <ele>513.3</ele>
        <time>2021-05-09T15:09:31Z</time>
      </trkpt>
      <trkpt lat="46.88775" lon="5.79701">
        <ele>513.4</ele>
        <time>2021-05-09T15:09:39Z</time>
      </trkpt>
      <trkpt lat="46.88763" lon="5.79711">
        <ele>513.6</ele>
        <time>2021-05-09T15:09:43Z</time>
      </trkpt>
      <trkpt lat="46.8876" lon="5.79706">
        <ele>512.7</ele>
        <time>2021-05-09T15:10:03Z</time>
      </trkpt>
      <trkpt lat="46.88755" lon="5.79707">
        <ele>512.1</ele>
        <time>2021-05-09T15:10:19Z</time>
      </trkpt>
      <trkpt lat="46.8875" lon="5.7971">
        <ele>511.5</ele>
        <time>2021-05-09T15:10:24Z</time>
      </trkpt>
      <trkpt lat="46.88746" lon="5.79705">
        <ele>510.4</ele>
        <time>2021-05-09T15:10:31Z</time>
      </trkpt>
      <trkpt lat="46.88742" lon="5.79703">
        <ele>509.6</ele>
        <time>2021-05-09T15:10:39Z</time>
      </trkpt>
      <trkpt lat="46.88729" lon="5.79714">
        <ele>508.4</ele>
        <time>2021-05-09T15:10:43Z</time>
      </trkpt>
      <trkpt lat="46.88722" lon="5.79718">
        <ele>507.3</ele>
        <time>2021-05-09T15:10:47Z</time>
      </trkpt>
      <trkpt lat="46.88717" lon="5.79719">
        <ele>506.2</ele>
        <time>2021-05-09T15:10:52Z</time>
      </trkpt>
      <trkpt lat="46.88712" lon="5.79717">
        <ele>505.3</ele>
        <time>2021-05-09T15:10:59Z</time>
      </trkpt>
      <trkpt lat="46.88708" lon="5.79712">
        <ele>504.5</ele>
        <time>2021-05-09T15:11:07Z</time>
      </trkpt>
      <trkpt lat="46.88704" lon="5.79711">
        <ele>503.8</ele>
        <time>2021-05-09T15:11:13Z</time>
      </trkpt>
      <trkpt lat="46.88702" lon="5.79705">
        <ele>502.4</ele>
        <time>2021-05-09T15:11:22Z</time>
      </trkpt>
      <trkpt lat="46.88699" lon="5.797">
        <ele>501.1</ele>
        <time>2021-05-09T15:11:35Z</time>
      </trkpt>
      <trkpt lat="46.88694" lon="5.79697">
        <ele>501.2</ele>
        <time>2021-05-09T15:11:42Z</time>
      </trkpt>
      <trkpt lat="46.88687" lon="5.79704">
        <ele>505.1</ele>
        <time>2021-05-09T15:11:47Z</time>
      </trkpt>
      <trkpt lat="46.88681" lon="5.79708">
        <ele>509</ele>
        <time>2021-05-09T15:11:51Z</time>
      </trkpt>
      <trkpt lat="46.88676" lon="5.79708">
        <ele>513.1</ele>
        <time>2021-05-09T15:12:04Z</time>
      </trkpt>
      <trkpt lat="46.88671" lon="5.79709">
        <ele>513.8</ele>
        <time>2021-05-09T15:12:14Z</time>
      </trkpt>
      <trkpt lat="46.88667" lon="5.79706">
        <ele>513</ele>
        <time>2021-05-09T15:12:22Z</time>
      </trkpt>
      <trkpt lat="46.88662" lon="5.79704">
        <ele>512</ele>
        <time>2021-05-09T15:13:04Z</time>
      </trkpt>
      <trkpt lat="46.88658" lon="5.79706">
        <ele>511.9</ele>
        <time>2021-05-09T15:13:59Z</time>
      </trkpt>
      <trkpt lat="46.88653" lon="5.79705">
        <ele>511.3</ele>
        <time>2021-05-09T15:14:04Z</time>
      </trkpt>
      <trkpt lat="46.88648" lon="5.79703">
        <ele>510.3</ele>
        <time>2021-05-09T15:14:51Z</time>
      </trkpt>
      <trkpt lat="46.88644" lon="5.79698">
        <ele>509.1</ele>
        <time>2021-05-09T15:14:55Z</time>
      </trkpt>
      <trkpt lat="46.8864" lon="5.79694">
        <ele>508</ele>
        <time>2021-05-09T15:16:14Z</time>
      </trkpt>
      <trkpt lat="46.88636" lon="5.79691">
        <ele>509.2</ele>
        <time>2021-05-09T15:16:26Z</time>
      </trkpt>
      <trkpt lat="46.88633" lon="5.79685">
        <ele>509.3</ele>
        <time>2021-05-09T15:16:37Z</time>
      </trkpt>
      <trkpt lat="46.88631" lon="5.79679">
        <ele>509</ele>
        <time>2021-05-09T15:16:46Z</time>
      </trkpt>
      <trkpt lat="46.88621" lon="5.79674">
        <ele>511.2</ele>
        <time>2021-05-09T15:16:50Z</time>
      </trkpt>
      <trkpt lat="46.88617" lon="5.79671">
        <ele>513.7</ele>
        <time>2021-05-09T15:17:00Z</time>
      </trkpt>
      <trkpt lat="46.88612" lon="5.79671">
        <ele>514.4</ele>
        <time>2021-05-09T15:17:14Z</time>
      </trkpt>
      <trkpt lat="46.88608" lon="5.79671">
        <ele>515</ele>
        <time>2021-05-09T15:17:21Z</time>
      </trkpt>
      <trkpt lat="46.88608" lon="5.79664">
        <ele>513</ele>
        <time>2021-05-09T15:18:41Z</time>
      </trkpt>
      <trkpt lat="46.88609" lon="5.79657">
        <ele>513</ele>
        <time>2021-05-09T15:18:49Z</time>
      </trkpt>
      <trkpt lat="46.88604" lon="5.79655">
        <ele>514.2</ele>
        <time>2021-05-09T15:19:03Z</time>
      </trkpt>
      <trkpt lat="46.886" lon="5.79653">
        <ele>516.4</ele>
        <time>2021-05-09T15:19:10Z</time>
      </trkpt>
      <trkpt lat="46.88595" lon="5.79652">
        <ele>522.1</ele>
        <time>2021-05-09T15:19:25Z</time>
      </trkpt>
      <trkpt lat="46.88591" lon="5.79657">
        <ele>528.5</ele>
        <time>2021-05-09T15:19:48Z</time>
      </trkpt>
      <trkpt lat="46.88588" lon="5.79662">
        <ele>530.1</ele>
        <time>2021-05-09T15:19:52Z</time>
      </trkpt>
      <trkpt lat="46.88584" lon="5.79665">
        <ele>532.4</ele>
        <time>2021-05-09T15:19:59Z</time>
      </trkpt>
      <trkpt lat="46.8858" lon="5.79661">
        <ele>534.8</ele>
        <time>2021-05-09T15:20:11Z</time>
      </trkpt>
      <trkpt lat="46.88576" lon="5.79664">
        <ele>537</ele>
        <time>2021-05-09T15:20:21Z</time>
      </trkpt>
      <trkpt lat="46.88572" lon="5.79659">
        <ele>543.8</ele>
        <time>2021-05-09T15:20:48Z</time>
      </trkpt>
      <trkpt lat="46.8857" lon="5.79665">
        <ele>547.4</ele>
        <time>2021-05-09T15:21:36Z</time>
      </trkpt>
      <trkpt lat="46.88565" lon="5.79667">
        <ele>546.8</ele>
        <time>2021-05-09T15:21:47Z</time>
      </trkpt>
      <trkpt lat="46.88561" lon="5.79666">
        <ele>546</ele>
        <time>2021-05-09T15:21:53Z</time>
      </trkpt>
      <trkpt lat="46.88556" lon="5.79668">
        <ele>546</ele>
        <time>2021-05-09T15:22:03Z</time>
      </trkpt>
      <trkpt lat="46.88551" lon="5.7967">
        <ele>545.8</ele>
        <time>2021-05-09T15:22:11Z</time>
      </trkpt>
      <trkpt lat="46.88547" lon="5.7966">
        <ele>548.4</ele>
        <time>2021-05-09T15:22:15Z</time>
      </trkpt>
      <trkpt lat="46.88545" lon="5.79654">
        <ele>550.4</ele>
        <time>2021-05-09T15:22:19Z</time>
      </trkpt>
      <trkpt lat="46.88541" lon="5.79651">
        <ele>552.1</ele>
        <time>2021-05-09T15:22:31Z</time>
      </trkpt>
      <trkpt lat="46.88536" lon="5.79649">
        <ele>552.1</ele>
        <time>2021-05-09T15:22:38Z</time>
      </trkpt>
      <trkpt lat="46.88532" lon="5.79652">
        <ele>552</ele>
        <time>2021-05-09T15:22:44Z</time>
      </trkpt>
      <trkpt lat="46.88527" lon="5.79653">
        <ele>552.1</ele>
        <time>2021-05-09T15:22:50Z</time>
      </trkpt>
      <trkpt lat="46.88522" lon="5.79652">
        <ele>552.3</ele>
        <time>2021-05-09T15:22:57Z</time>
      </trkpt>
      <trkpt lat="46.88518" lon="5.79648">
        <ele>552.5</ele>
        <time>2021-05-09T15:23:05Z</time>
      </trkpt>
      <trkpt lat="46.88513" lon="5.79647">
        <ele>552.4</ele>
        <time>2021-05-09T15:23:11Z</time>
      </trkpt>
      <trkpt lat="46.8851" lon="5.79643">
        <ele>552.3</ele>
        <time>2021-05-09T15:23:18Z</time>
      </trkpt>
      <trkpt lat="46.88505" lon="5.7964">
        <ele>552.5</ele>
        <time>2021-05-09T15:23:27Z</time>
      </trkpt>
      <trkpt lat="46.88501" lon="5.79636">
        <ele>552.8</ele>
        <time>2021-05-09T15:23:35Z</time>
      </trkpt>
      <trkpt lat="46.88496" lon="5.79636">
        <ele>552.9</ele>
        <time>2021-05-09T15:23:42Z</time>
      </trkpt>
      <trkpt lat="46.88491" lon="5.79634">
        <ele>553.1</ele>
        <time>2021-05-09T15:23:51Z</time>
      </trkpt>
      <trkpt lat="46.88487" lon="5.79636">
        <ele>553.5</ele>
        <time>2021-05-09T15:24:05Z</time>
      </trkpt>
      <trkpt lat="46.88482" lon="5.79638">
        <ele>554.6</ele>
        <time>2021-05-09T15:24:12Z</time>
      </trkpt>
      <trkpt lat="46.88482" lon="5.79649">
        <ele>557.3</ele>
        <time>2021-05-09T15:24:31Z</time>
      </trkpt>
      <trkpt lat="46.88482" lon="5.79656">
        <ele>559.4</ele>
        <time>2021-05-09T15:24:35Z</time>
      </trkpt>
      <trkpt lat="46.88479" lon="5.79663">
        <ele>562.6</ele>
        <time>2021-05-09T15:24:42Z</time>
      </trkpt>
      <trkpt lat="46.88474" lon="5.79662">
        <ele>563.9</ele>
        <time>2021-05-09T15:25:26Z</time>
      </trkpt>
      <trkpt lat="46.88469" lon="5.7966">
        <ele>562.7</ele>
        <time>2021-05-09T15:25:34Z</time>
      </trkpt>
      <trkpt lat="46.88465" lon="5.79662">
        <ele>562.5</ele>
        <time>2021-05-09T15:25:42Z</time>
      </trkpt>
      <trkpt lat="46.8846" lon="5.7966">
        <ele>562.2</ele>
        <time>2021-05-09T15:25:49Z</time>
      </trkpt>
      <trkpt lat="46.88454" lon="5.79653">
        <ele>564.1</ele>
        <time>2021-05-09T15:25:55Z</time>
      </trkpt>
      <trkpt lat="46.88451" lon="5.79649">
        <ele>566.4</ele>
        <time>2021-05-09T15:26:00Z</time>
      </trkpt>
      <trkpt lat="46.88446" lon="5.79643">
        <ele>568.8</ele>
        <time>2021-05-09T15:26:05Z</time>
      </trkpt>
      <trkpt lat="46.88441" lon="5.79639">
        <ele>570.5</ele>
        <time>2021-05-09T15:26:09Z</time>
      </trkpt>
      <trkpt lat="46.88437" lon="5.79635">
        <ele>572</ele>
        <time>2021-05-09T15:26:16Z</time>
      </trkpt>
      <trkpt lat="46.88435" lon="5.7963">
        <ele>572.6</ele>
        <time>2021-05-09T15:26:25Z</time>
      </trkpt>
      <trkpt lat="46.88431" lon="5.7962">
        <ele>572.9</ele>
        <time>2021-05-09T15:26:38Z</time>
      </trkpt>
      <trkpt lat="46.88428" lon="5.79615">
        <ele>573</ele>
        <time>2021-05-09T15:26:45Z</time>
      </trkpt>
      <trkpt lat="46.88424" lon="5.79611">
        <ele>572.3</ele>
        <time>2021-05-09T15:26:53Z</time>
      </trkpt>
      <trkpt lat="46.8842" lon="5.79607">
        <ele>571.6</ele>
        <time>2021-05-09T15:26:57Z</time>
      </trkpt>
      <trkpt lat="46.88419" lon="5.796">
        <ele>571.3</ele>
        <time>2021-05-09T15:27:03Z</time>
      </trkpt>
      <trkpt lat="46.88415" lon="5.79597">
        <ele>571.5</ele>
        <time>2021-05-09T15:27:11Z</time>
      </trkpt>
      <trkpt lat="46.88411" lon="5.7959">
        <ele>576.2</ele>
        <time>2021-05-09T15:27:15Z</time>
      </trkpt>
      <trkpt lat="46.88409" lon="5.79583">
        <ele>580.6</ele>
        <time>2021-05-09T15:27:20Z</time>
      </trkpt>
      <trkpt lat="46.88406" lon="5.79578">
        <ele>583.1</ele>
        <time>2021-05-09T15:27:28Z</time>
      </trkpt>
      <trkpt lat="46.88403" lon="5.79568">
        <ele>582.7</ele>
        <time>2021-05-09T15:27:40Z</time>
      </trkpt>
      <trkpt lat="46.884" lon="5.79559">
        <ele>581.5</ele>
        <time>2021-05-09T15:27:44Z</time>
      </trkpt>
      <trkpt lat="46.88396" lon="5.79555">
        <ele>580.3</ele>
        <time>2021-05-09T15:27:50Z</time>
      </trkpt>
      <trkpt lat="46.88392" lon="5.79552">
        <ele>579.6</ele>
        <time>2021-05-09T15:27:58Z</time>
      </trkpt>
      <trkpt lat="46.88387" lon="5.79546">
        <ele>579.2</ele>
        <time>2021-05-09T15:28:13Z</time>
      </trkpt>
      <trkpt lat="46.88381" lon="5.79542">
        <ele>579.1</ele>
        <time>2021-05-09T15:28:17Z</time>
      </trkpt>
      <trkpt lat="46.88376" lon="5.79541">
        <ele>579.2</ele>
        <time>2021-05-09T15:28:22Z</time>
      </trkpt>
      <trkpt lat="46.88371" lon="5.79541">
        <ele>579.1</ele>
        <time>2021-05-09T15:28:27Z</time>
      </trkpt>
      <trkpt lat="46.88366" lon="5.7954">
        <ele>578.7</ele>
        <time>2021-05-09T15:28:34Z</time>
      </trkpt>
      <trkpt lat="46.88361" lon="5.79538">
        <ele>578.2</ele>
        <time>2021-05-09T15:28:41Z</time>
      </trkpt>
      <trkpt lat="46.88357" lon="5.7954">
        <ele>578</ele>
        <time>2021-05-09T15:28:45Z</time>
      </trkpt>
      <trkpt lat="46.88351" lon="5.7954">
        <ele>577.6</ele>
        <time>2021-05-09T15:28:51Z</time>
      </trkpt>
      <trkpt lat="46.88346" lon="5.79542">
        <ele>577.3</ele>
        <time>2021-05-09T15:28:55Z</time>
      </trkpt>
      <trkpt lat="46.88339" lon="5.7954">
        <ele>580.6</ele>
        <time>2021-05-09T15:28:59Z</time>
      </trkpt>
      <trkpt lat="46.88334" lon="5.79538">
        <ele>583.6</ele>
        <time>2021-05-09T15:29:03Z</time>
      </trkpt>
      <trkpt lat="46.88329" lon="5.79535">
        <ele>586.1</ele>
        <time>2021-05-09T15:29:10Z</time>
      </trkpt>
      <trkpt lat="46.88325" lon="5.79531">
        <ele>586.7</ele>
        <time>2021-05-09T15:29:15Z</time>
      </trkpt>
      <trkpt lat="46.8832" lon="5.79527">
        <ele>586.6</ele>
        <time>2021-05-09T15:29:20Z</time>
      </trkpt>
      <trkpt lat="46.88316" lon="5.79524">
        <ele>585.9</ele>
        <time>2021-05-09T15:29:27Z</time>
      </trkpt>
      <trkpt lat="46.88311" lon="5.79524">
        <ele>584.7</ele>
        <time>2021-05-09T15:29:33Z</time>
      </trkpt>
      <trkpt lat="46.88308" lon="5.79519">
        <ele>583.4</ele>
        <time>2021-05-09T15:29:40Z</time>
      </trkpt>
      <trkpt lat="46.88306" lon="5.79513">
        <ele>580</ele>
        <time>2021-05-09T15:29:50Z</time>
      </trkpt>
      <trkpt lat="46.88302" lon="5.79512">
        <ele>578.1</ele>
        <time>2021-05-09T15:29:57Z</time>
      </trkpt>
      <trkpt lat="46.88297" lon="5.79512">
        <ele>577.3</ele>
        <time>2021-05-09T15:30:02Z</time>
      </trkpt>
      <trkpt lat="46.88292" lon="5.79513">
        <ele>576.7</ele>
        <time>2021-05-09T15:30:07Z</time>
      </trkpt>
      <trkpt lat="46.88286" lon="5.79514">
        <ele>576.1</ele>
        <time>2021-05-09T15:30:12Z</time>
      </trkpt>
      <trkpt lat="46.88281" lon="5.79517">
        <ele>575.3</ele>
        <time>2021-05-09T15:30:16Z</time>
      </trkpt>
      <trkpt lat="46.88271" lon="5.79524">
        <ele>579</ele>
        <time>2021-05-09T15:30:21Z</time>
      </trkpt>
      <trkpt lat="46.88261" lon="5.79534">
        <ele>584.5</ele>
        <time>2021-05-09T15:30:25Z</time>
      </trkpt>
      <trkpt lat="46.88256" lon="5.79535">
        <ele>588.3</ele>
        <time>2021-05-09T15:30:30Z</time>
      </trkpt>
      <trkpt lat="46.88252" lon="5.79531">
        <ele>590.8</ele>
        <time>2021-05-09T15:30:37Z</time>
      </trkpt>
      <trkpt lat="46.88247" lon="5.79529">
        <ele>591.5</ele>
        <time>2021-05-09T15:30:42Z</time>
      </trkpt>
      <trkpt lat="46.88242" lon="5.79529">
        <ele>591.5</ele>
        <time>2021-05-09T15:30:47Z</time>
      </trkpt>
      <trkpt lat="46.88237" lon="5.79528">
        <ele>591.2</ele>
        <time>2021-05-09T15:30:53Z</time>
      </trkpt>
      <trkpt lat="46.88231" lon="5.79529">
        <ele>588.7</ele>
        <time>2021-05-09T15:30:57Z</time>
      </trkpt>
      <trkpt lat="46.88225" lon="5.79532">
        <ele>586</ele>
        <time>2021-05-09T15:31:01Z</time>
      </trkpt>
      <trkpt lat="46.88221" lon="5.79534">
        <ele>583.1</ele>
        <time>2021-05-09T15:31:07Z</time>
      </trkpt>
      <trkpt lat="46.88216" lon="5.79535">
        <ele>579.4</ele>
        <time>2021-05-09T15:31:17Z</time>
      </trkpt>
      <trkpt lat="46.88212" lon="5.79531">
        <ele>577.3</ele>
        <time>2021-05-09T15:31:24Z</time>
      </trkpt>
      <trkpt lat="46.88208" lon="5.79528">
        <ele>575.8</ele>
        <time>2021-05-09T15:31:30Z</time>
      </trkpt>
      <trkpt lat="46.88203" lon="5.79528">
        <ele>574.2</ele>
        <time>2021-05-09T15:31:37Z</time>
      </trkpt>
      <trkpt lat="46.88198" lon="5.79529">
        <ele>572.6</ele>
        <time>2021-05-09T15:31:44Z</time>
      </trkpt>
      <trkpt lat="46.88193" lon="5.79531">
        <ele>571.5</ele>
        <time>2021-05-09T15:31:49Z</time>
      </trkpt>
      <trkpt lat="46.88185" lon="5.79539">
        <ele>569.9</ele>
        <time>2021-05-09T15:31:53Z</time>
      </trkpt>
      <trkpt lat="46.88177" lon="5.79545">
        <ele>568.4</ele>
        <time>2021-05-09T15:31:57Z</time>
      </trkpt>
      <trkpt lat="46.88172" lon="5.79542">
        <ele>566.5</ele>
        <time>2021-05-09T15:32:02Z</time>
      </trkpt>
      <trkpt lat="46.88169" lon="5.79537">
        <ele>564.3</ele>
        <time>2021-05-09T15:32:08Z</time>
      </trkpt>
      <trkpt lat="46.88164" lon="5.79533">
        <ele>561.5</ele>
        <time>2021-05-09T15:32:15Z</time>
      </trkpt>
      <trkpt lat="46.88159" lon="5.79534">
        <ele>559.5</ele>
        <time>2021-05-09T15:32:21Z</time>
      </trkpt>
      <trkpt lat="46.8815" lon="5.79543">
        <ele>560.6</ele>
        <time>2021-05-09T15:32:25Z</time>
      </trkpt>
      <trkpt lat="46.88143" lon="5.7955">
        <ele>561.8</ele>
        <time>2021-05-09T15:32:29Z</time>
      </trkpt>
      <trkpt lat="46.88138" lon="5.79551">
        <ele>562.2</ele>
        <time>2021-05-09T15:32:35Z</time>
      </trkpt>
      <trkpt lat="46.88133" lon="5.79551">
        <ele>561.6</ele>
        <time>2021-05-09T15:32:41Z</time>
      </trkpt>
      <trkpt lat="46.88128" lon="5.79551">
        <ele>560</ele>
        <time>2021-05-09T15:32:52Z</time>
      </trkpt>
      <trkpt lat="46.88125" lon="5.79555">
        <ele>559.6</ele>
        <time>2021-05-09T15:32:57Z</time>
      </trkpt>
      <trkpt lat="46.88121" lon="5.79558">
        <ele>558.3</ele>
        <time>2021-05-09T15:33:07Z</time>
      </trkpt>
      <trkpt lat="46.88117" lon="5.79562">
        <ele>557.8</ele>
        <time>2021-05-09T15:33:13Z</time>
      </trkpt>
      <trkpt lat="46.88112" lon="5.79567">
        <ele>557.4</ele>
        <time>2021-05-09T15:33:17Z</time>
      </trkpt>
      <trkpt lat="46.88107" lon="5.7957">
        <ele>556.8</ele>
        <time>2021-05-09T15:33:22Z</time>
      </trkpt>
      <trkpt lat="46.88103" lon="5.79572">
        <ele>556.2</ele>
        <time>2021-05-09T15:33:28Z</time>
      </trkpt>
      <trkpt lat="46.88097" lon="5.7958">
        <ele>556.5</ele>
        <time>2021-05-09T15:33:32Z</time>
      </trkpt>
      <trkpt lat="46.88081" lon="5.79601">
        <ele>560.5</ele>
        <time>2021-05-09T15:33:36Z</time>
      </trkpt>
      <trkpt lat="46.88077" lon="5.79604">
        <ele>562.8</ele>
        <time>2021-05-09T15:33:40Z</time>
      </trkpt>
      <trkpt lat="46.88073" lon="5.79599">
        <ele>564</ele>
        <time>2021-05-09T15:33:46Z</time>
      </trkpt>
      <trkpt lat="46.8807" lon="5.79594">
        <ele>563.9</ele>
        <time>2021-05-09T15:33:54Z</time>
      </trkpt>
      <trkpt lat="46.88064" lon="5.79594">
        <ele>562.9</ele>
        <time>2021-05-09T15:34:00Z</time>
      </trkpt>
      <trkpt lat="46.8806" lon="5.79593">
        <ele>562.1</ele>
        <time>2021-05-09T15:34:04Z</time>
      </trkpt>
      <trkpt lat="46.88054" lon="5.79593">
        <ele>561.7</ele>
        <time>2021-05-09T15:34:08Z</time>
      </trkpt>
      <trkpt lat="46.88049" lon="5.79591">
        <ele>561.5</ele>
        <time>2021-05-09T15:34:12Z</time>
      </trkpt>
      <trkpt lat="46.88044" lon="5.79592">
        <ele>561.6</ele>
        <time>2021-05-09T15:34:16Z</time>
      </trkpt>
      <trkpt lat="46.8804" lon="5.79591">
        <ele>561.2</ele>
        <time>2021-05-09T15:34:22Z</time>
      </trkpt>
      <trkpt lat="46.88035" lon="5.79588">
        <ele>560.6</ele>
        <time>2021-05-09T15:34:27Z</time>
      </trkpt>
      <trkpt lat="46.88031" lon="5.79584">
        <ele>559.6</ele>
        <time>2021-05-09T15:34:33Z</time>
      </trkpt>
      <trkpt lat="46.88026" lon="5.79584">
        <ele>558.7</ele>
        <time>2021-05-09T15:34:40Z</time>
      </trkpt>
      <trkpt lat="46.8802" lon="5.79586">
        <ele>558.5</ele>
        <time>2021-05-09T15:34:47Z</time>
      </trkpt>
      <trkpt lat="46.88016" lon="5.79583">
        <ele>558.2</ele>
        <time>2021-05-09T15:34:55Z</time>
      </trkpt>
      <trkpt lat="46.88011" lon="5.7958">
        <ele>557.7</ele>
        <time>2021-05-09T15:35:00Z</time>
      </trkpt>
      <trkpt lat="46.88006" lon="5.79578">
        <ele>557.2</ele>
        <time>2021-05-09T15:35:05Z</time>
      </trkpt>
      <trkpt lat="46.88" lon="5.79578">
        <ele>556.8</ele>
        <time>2021-05-09T15:35:09Z</time>
      </trkpt>
      <trkpt lat="46.87995" lon="5.79581">
        <ele>556.5</ele>
        <time>2021-05-09T15:35:13Z</time>
      </trkpt>
      <trkpt lat="46.8799" lon="5.79584">
        <ele>556.3</ele>
        <time>2021-05-09T15:35:17Z</time>
      </trkpt>
      <trkpt lat="46.87983" lon="5.79587">
        <ele>556.5</ele>
        <time>2021-05-09T15:35:21Z</time>
      </trkpt>
      <trkpt lat="46.87978" lon="5.79587">
        <ele>556.6</ele>
        <time>2021-05-09T15:35:26Z</time>
      </trkpt>
      <trkpt lat="46.87969" lon="5.79589">
        <ele>560.1</ele>
        <time>2021-05-09T15:35:30Z</time>
      </trkpt>
      <trkpt lat="46.87964" lon="5.79589">
        <ele>563.8</ele>
        <time>2021-05-09T15:35:34Z</time>
      </trkpt>
      <trkpt lat="46.8796" lon="5.79587">
        <ele>567.7</ele>
        <time>2021-05-09T15:35:40Z</time>
      </trkpt>
      <trkpt lat="46.87955" lon="5.79586">
        <ele>570</ele>
        <time>2021-05-09T15:35:45Z</time>
      </trkpt>
      <trkpt lat="46.8795" lon="5.79586">
        <ele>572.2</ele>
        <time>2021-05-09T15:35:50Z</time>
      </trkpt>
      <trkpt lat="46.87945" lon="5.79585">
        <ele>575.2</ele>
        <time>2021-05-09T15:35:58Z</time>
      </trkpt>
      <trkpt lat="46.87936" lon="5.79591">
        <ele>576.8</ele>
        <time>2021-05-09T15:36:05Z</time>
      </trkpt>
      <trkpt lat="46.87928" lon="5.79599">
        <ele>577.3</ele>
        <time>2021-05-09T15:36:09Z</time>
      </trkpt>
      <trkpt lat="46.87924" lon="5.79602">
        <ele>578</ele>
        <time>2021-05-09T15:36:14Z</time>
      </trkpt>
      <trkpt lat="46.87919" lon="5.79599">
        <ele>579.2</ele>
        <time>2021-05-09T15:36:22Z</time>
      </trkpt>
      <trkpt lat="46.87915" lon="5.79597">
        <ele>579.7</ele>
        <time>2021-05-09T15:36:29Z</time>
      </trkpt>
      <trkpt lat="46.8791" lon="5.79598">
        <ele>579.7</ele>
        <time>2021-05-09T15:36:34Z</time>
      </trkpt>
      <trkpt lat="46.87907" lon="5.79602">
        <ele>578.9</ele>
        <time>2021-05-09T15:36:42Z</time>
      </trkpt>
      <trkpt lat="46.87907" lon="5.79609">
        <ele>577.7</ele>
        <time>2021-05-09T15:36:49Z</time>
      </trkpt>
      <trkpt lat="46.87905" lon="5.79615">
        <ele>576.9</ele>
        <time>2021-05-09T15:36:55Z</time>
      </trkpt>
      <trkpt lat="46.87901" lon="5.79618">
        <ele>576.3</ele>
        <time>2021-05-09T15:36:59Z</time>
      </trkpt>
      <trkpt lat="46.87897" lon="5.79621">
        <ele>575.5</ele>
        <time>2021-05-09T15:37:04Z</time>
      </trkpt>
      <trkpt lat="46.87893" lon="5.79625">
        <ele>574.4</ele>
        <time>2021-05-09T15:37:09Z</time>
      </trkpt>
      <trkpt lat="46.87889" lon="5.79631">
        <ele>573.3</ele>
        <time>2021-05-09T15:37:14Z</time>
      </trkpt>
      <trkpt lat="46.87885" lon="5.79634">
        <ele>572.1</ele>
        <time>2021-05-09T15:37:21Z</time>
      </trkpt>
      <trkpt lat="46.87881" lon="5.79642">
        <ele>571.2</ele>
        <time>2021-05-09T15:37:25Z</time>
      </trkpt>
      <trkpt lat="46.87878" lon="5.79648">
        <ele>569.8</ele>
        <time>2021-05-09T15:37:30Z</time>
      </trkpt>
      <trkpt lat="46.87876" lon="5.79654">
        <ele>567.1</ele>
        <time>2021-05-09T15:37:39Z</time>
      </trkpt>
      <trkpt lat="46.87873" lon="5.7966">
        <ele>564.5</ele>
        <time>2021-05-09T15:37:59Z</time>
      </trkpt>
      <trkpt lat="46.87869" lon="5.79668">
        <ele>563.3</ele>
        <time>2021-05-09T15:38:03Z</time>
      </trkpt>
      <trkpt lat="46.87866" lon="5.79674">
        <ele>562.1</ele>
        <time>2021-05-09T15:38:08Z</time>
      </trkpt>
      <trkpt lat="46.87863" lon="5.7968">
        <ele>561.2</ele>
        <time>2021-05-09T15:38:14Z</time>
      </trkpt>
      <trkpt lat="46.87859" lon="5.79688">
        <ele>560.6</ele>
        <time>2021-05-09T15:38:20Z</time>
      </trkpt>
      <trkpt lat="46.87853" lon="5.79698">
        <ele>560.5</ele>
        <time>2021-05-09T15:38:24Z</time>
      </trkpt>
      <trkpt lat="46.8785" lon="5.79703">
        <ele>560.4</ele>
        <time>2021-05-09T15:38:28Z</time>
      </trkpt>
      <trkpt lat="46.87847" lon="5.79709">
        <ele>560.3</ele>
        <time>2021-05-09T15:38:34Z</time>
      </trkpt>
      <trkpt lat="46.87844" lon="5.79715">
        <ele>560.4</ele>
        <time>2021-05-09T15:38:43Z</time>
      </trkpt>
      <trkpt lat="46.87841" lon="5.79723">
        <ele>560.8</ele>
        <time>2021-05-09T15:38:47Z</time>
      </trkpt>
      <trkpt lat="46.87838" lon="5.79729">
        <ele>561.7</ele>
        <time>2021-05-09T15:38:58Z</time>
      </trkpt>
      <trkpt lat="46.87835" lon="5.79734">
        <ele>561.2</ele>
        <time>2021-05-09T15:39:06Z</time>
      </trkpt>
      <trkpt lat="46.87832" lon="5.7974">
        <ele>560.9</ele>
        <time>2021-05-09T15:39:10Z</time>
      </trkpt>
      <trkpt lat="46.87829" lon="5.79745">
        <ele>560.9</ele>
        <time>2021-05-09T15:39:14Z</time>
      </trkpt>
      <trkpt lat="46.87824" lon="5.79747">
        <ele>561.3</ele>
        <time>2021-05-09T15:39:21Z</time>
      </trkpt>
      <trkpt lat="46.87824" lon="5.79739">
        <ele>564.4</ele>
        <time>2021-05-09T15:40:22Z</time>
      </trkpt>
      <trkpt lat="46.87819" lon="5.79739">
        <ele>566.9</ele>
        <time>2021-05-09T15:40:35Z</time>
      </trkpt>
      <trkpt lat="46.87814" lon="5.79736">
        <ele>567.7</ele>
        <time>2021-05-09T15:40:42Z</time>
      </trkpt>
      <trkpt lat="46.87811" lon="5.79732">
        <ele>567.8</ele>
        <time>2021-05-09T15:40:49Z</time>
      </trkpt>
      <trkpt lat="46.87806" lon="5.79729">
        <ele>568.4</ele>
        <time>2021-05-09T15:40:53Z</time>
      </trkpt>
      <trkpt lat="46.878" lon="5.79725">
        <ele>571.3</ele>
        <time>2021-05-09T15:40:58Z</time>
      </trkpt>
      <trkpt lat="46.87795" lon="5.79721">
        <ele>573.9</ele>
        <time>2021-05-09T15:41:02Z</time>
      </trkpt>
      <trkpt lat="46.87791" lon="5.79717">
        <ele>576.8</ele>
        <time>2021-05-09T15:41:10Z</time>
      </trkpt>
      <trkpt lat="46.87789" lon="5.79711">
        <ele>577.7</ele>
        <time>2021-05-09T15:41:17Z</time>
      </trkpt>
      <trkpt lat="46.87785" lon="5.79703">
        <ele>578.7</ele>
        <time>2021-05-09T15:41:23Z</time>
      </trkpt>
      <trkpt lat="46.87778" lon="5.79696">
        <ele>581.3</ele>
        <time>2021-05-09T15:41:27Z</time>
      </trkpt>
      <trkpt lat="46.87775" lon="5.79691">
        <ele>583.5</ele>
        <time>2021-05-09T15:41:32Z</time>
      </trkpt>
      <trkpt lat="46.87775" lon="5.79683">
        <ele>585.7</ele>
        <time>2021-05-09T15:41:41Z</time>
      </trkpt>
      <trkpt lat="46.87773" lon="5.79676">
        <ele>586.1</ele>
        <time>2021-05-09T15:41:48Z</time>
      </trkpt>
      <trkpt lat="46.87771" lon="5.79667">
        <ele>585.7</ele>
        <time>2021-05-09T15:41:53Z</time>
      </trkpt>
      <trkpt lat="46.87768" lon="5.79661">
        <ele>585.2</ele>
        <time>2021-05-09T15:41:57Z</time>
      </trkpt>
      <trkpt lat="46.87763" lon="5.79657">
        <ele>584.7</ele>
        <time>2021-05-09T15:42:05Z</time>
      </trkpt>
      <trkpt lat="46.87758" lon="5.79658">
        <ele>584.2</ele>
        <time>2021-05-09T15:42:11Z</time>
      </trkpt>
      <trkpt lat="46.87753" lon="5.79657">
        <ele>583.2</ele>
        <time>2021-05-09T15:42:21Z</time>
      </trkpt>
      <trkpt lat="46.8775" lon="5.79652">
        <ele>580.8</ele>
        <time>2021-05-09T15:42:45Z</time>
      </trkpt>
      <trkpt lat="46.87745" lon="5.79653">
        <ele>580</ele>
        <time>2021-05-09T15:42:49Z</time>
      </trkpt>
      <trkpt lat="46.8774" lon="5.79651">
        <ele>578.8</ele>
        <time>2021-05-09T15:42:55Z</time>
      </trkpt>
      <trkpt lat="46.87731" lon="5.79663">
        <ele>579.1</ele>
        <time>2021-05-09T15:42:59Z</time>
      </trkpt>
      <trkpt lat="46.87724" lon="5.79671">
        <ele>580.3</ele>
        <time>2021-05-09T15:43:03Z</time>
      </trkpt>
      <trkpt lat="46.8772" lon="5.79675">
        <ele>581.4</ele>
        <time>2021-05-09T15:43:07Z</time>
      </trkpt>
      <trkpt lat="46.87715" lon="5.79679">
        <ele>582.5</ele>
        <time>2021-05-09T15:43:12Z</time>
      </trkpt>
      <trkpt lat="46.87711" lon="5.79683">
        <ele>583</ele>
        <time>2021-05-09T15:43:16Z</time>
      </trkpt>
      <trkpt lat="46.87706" lon="5.79684">
        <ele>584</ele>
        <time>2021-05-09T15:43:25Z</time>
      </trkpt>
      <trkpt lat="46.87703" lon="5.79679">
        <ele>583.4</ele>
        <time>2021-05-09T15:43:34Z</time>
      </trkpt>
      <trkpt lat="46.87698" lon="5.79678">
        <ele>583.3</ele>
        <time>2021-05-09T15:43:40Z</time>
      </trkpt>
      <trkpt lat="46.87693" lon="5.79682">
        <ele>582.7</ele>
        <time>2021-05-09T15:43:44Z</time>
      </trkpt>
      <trkpt lat="46.87686" lon="5.7969">
        <ele>581.5</ele>
        <time>2021-05-09T15:43:48Z</time>
      </trkpt>
      <trkpt lat="46.87681" lon="5.79691">
        <ele>579.4</ele>
        <time>2021-05-09T15:43:56Z</time>
      </trkpt>
      <trkpt lat="46.87674" lon="5.79695">
        <ele>576.9</ele>
        <time>2021-05-09T15:44:05Z</time>
      </trkpt>
      <trkpt lat="46.87668" lon="5.79702">
        <ele>575.2</ele>
        <time>2021-05-09T15:44:09Z</time>
      </trkpt>
      <trkpt lat="46.87663" lon="5.79703">
        <ele>572.8</ele>
        <time>2021-05-09T15:44:17Z</time>
      </trkpt>
      <trkpt lat="46.87658" lon="5.79704">
        <ele>571.5</ele>
        <time>2021-05-09T15:44:23Z</time>
      </trkpt>
      <trkpt lat="46.87654" lon="5.79705">
        <ele>570.7</ele>
        <time>2021-05-09T15:44:28Z</time>
      </trkpt>
      <trkpt lat="46.87648" lon="5.79705">
        <ele>570.2</ele>
        <time>2021-05-09T15:44:32Z</time>
      </trkpt>
      <trkpt lat="46.87642" lon="5.79706">
        <ele>570.2</ele>
        <time>2021-05-09T15:44:36Z</time>
      </trkpt>
      <trkpt lat="46.87637" lon="5.79708">
        <ele>570</ele>
        <time>2021-05-09T15:44:41Z</time>
      </trkpt>
      <trkpt lat="46.87632" lon="5.79709">
        <ele>569.9</ele>
        <time>2021-05-09T15:44:50Z</time>
      </trkpt>
      <trkpt lat="46.87627" lon="5.7971">
        <ele>569.7</ele>
        <time>2021-05-09T15:44:56Z</time>
      </trkpt>
      <trkpt lat="46.87623" lon="5.79709">
        <ele>569.5</ele>
        <time>2021-05-09T15:45:02Z</time>
      </trkpt>
      <trkpt lat="46.87618" lon="5.79712">
        <ele>569.3</ele>
        <time>2021-05-09T15:45:06Z</time>
      </trkpt>
      <trkpt lat="46.87612" lon="5.79713">
        <ele>568.8</ele>
        <time>2021-05-09T15:45:10Z</time>
      </trkpt>
      <trkpt lat="46.87607" lon="5.79714">
        <ele>568.3</ele>
        <time>2021-05-09T15:45:14Z</time>
      </trkpt>
      <trkpt lat="46.87602" lon="5.79712">
        <ele>567.7</ele>
        <time>2021-05-09T15:45:19Z</time>
      </trkpt>
      <trkpt lat="46.87593" lon="5.79715">
        <ele>569.1</ele>
        <time>2021-05-09T15:45:23Z</time>
      </trkpt>
      <trkpt lat="46.87585" lon="5.79718">
        <ele>570.7</ele>
        <time>2021-05-09T15:45:27Z</time>
      </trkpt>
      <trkpt lat="46.8758" lon="5.79715">
        <ele>572</ele>
        <time>2021-05-09T15:45:34Z</time>
      </trkpt>
      <trkpt lat="46.87576" lon="5.79714">
        <ele>572.1</ele>
        <time>2021-05-09T15:45:40Z</time>
      </trkpt>
      <trkpt lat="46.87569" lon="5.79717">
        <ele>572.2</ele>
        <time>2021-05-09T15:45:44Z</time>
      </trkpt>
      <trkpt lat="46.87563" lon="5.79718">
        <ele>572.2</ele>
        <time>2021-05-09T15:45:48Z</time>
      </trkpt>
      <trkpt lat="46.87559" lon="5.79716">
        <ele>572.2</ele>
        <time>2021-05-09T15:45:52Z</time>
      </trkpt>
      <trkpt lat="46.87554" lon="5.79714">
        <ele>571.5</ele>
        <time>2021-05-09T15:45:59Z</time>
      </trkpt>
      <trkpt lat="46.87549" lon="5.79715">
        <ele>570.3</ele>
        <time>2021-05-09T15:46:07Z</time>
      </trkpt>
      <trkpt lat="46.87544" lon="5.79716">
        <ele>568.9</ele>
        <time>2021-05-09T15:46:14Z</time>
      </trkpt>
      <trkpt lat="46.87539" lon="5.79716">
        <ele>567.2</ele>
        <time>2021-05-09T15:46:20Z</time>
      </trkpt>
      <trkpt lat="46.87534" lon="5.79718">
        <ele>565.4</ele>
        <time>2021-05-09T15:46:26Z</time>
      </trkpt>
      <trkpt lat="46.8753" lon="5.79721">
        <ele>563.2</ele>
        <time>2021-05-09T15:46:34Z</time>
      </trkpt>
      <trkpt lat="46.87526" lon="5.79726">
        <ele>561.5</ele>
        <time>2021-05-09T15:46:40Z</time>
      </trkpt>
      <trkpt lat="46.87528" lon="5.79734">
        <ele>559.1</ele>
        <time>2021-05-09T15:47:26Z</time>
      </trkpt>
      <trkpt lat="46.87526" lon="5.79742">
        <ele>558.7</ele>
        <time>2021-05-09T15:47:53Z</time>
      </trkpt>
      <trkpt lat="46.87525" lon="5.79749">
        <ele>558.7</ele>
        <time>2021-05-09T15:47:58Z</time>
      </trkpt>
      <trkpt lat="46.87526" lon="5.79756">
        <ele>558.3</ele>
        <time>2021-05-09T15:48:06Z</time>
      </trkpt>
      <trkpt lat="46.87529" lon="5.79761">
        <ele>557.9</ele>
        <time>2021-05-09T15:48:11Z</time>
      </trkpt>
      <trkpt lat="46.87532" lon="5.79765">
        <ele>557.3</ele>
        <time>2021-05-09T15:48:15Z</time>
      </trkpt>
      <trkpt lat="46.87537" lon="5.79768">
        <ele>554.1</ele>
        <time>2021-05-09T15:48:25Z</time>
      </trkpt>
      <trkpt lat="46.87537" lon="5.79776">
        <ele>552.5</ele>
        <time>2021-05-09T15:48:30Z</time>
      </trkpt>
      <trkpt lat="46.87537" lon="5.79784">
        <ele>550.8</ele>
        <time>2021-05-09T15:48:35Z</time>
      </trkpt>
      <trkpt lat="46.87541" lon="5.79793">
        <ele>551.2</ele>
        <time>2021-05-09T15:48:39Z</time>
      </trkpt>
      <trkpt lat="46.87545" lon="5.79806">
        <ele>554.4</ele>
        <time>2021-05-09T15:48:43Z</time>
      </trkpt>
      <trkpt lat="46.87546" lon="5.79813">
        <ele>556.7</ele>
        <time>2021-05-09T15:48:48Z</time>
      </trkpt>
      <trkpt lat="46.87546" lon="5.79822">
        <ele>558.6</ele>
        <time>2021-05-09T15:48:52Z</time>
      </trkpt>
      <trkpt lat="46.87546" lon="5.79829">
        <ele>561.2</ele>
        <time>2021-05-09T15:49:01Z</time>
      </trkpt>
      <trkpt lat="46.87543" lon="5.79835">
        <ele>562.6</ele>
        <time>2021-05-09T15:49:09Z</time>
      </trkpt>
      <trkpt lat="46.87541" lon="5.79828">
        <ele>561.1</ele>
        <time>2021-05-09T15:49:23Z</time>
      </trkpt>
      <trkpt lat="46.87543" lon="5.79822">
        <ele>559.7</ele>
        <time>2021-05-09T15:49:28Z</time>
      </trkpt>
      <trkpt lat="46.87541" lon="5.79816">
        <ele>557.8</ele>
        <time>2021-05-09T15:49:35Z</time>
      </trkpt>
      <trkpt lat="46.87539" lon="5.79809">
        <ele>557.8</ele>
        <time>2021-05-09T15:49:39Z</time>
      </trkpt>
      <trkpt lat="46.87537" lon="5.79802">
        <ele>557.9</ele>
        <time>2021-05-09T15:49:44Z</time>
      </trkpt>
      <trkpt lat="46.87536" lon="5.79794">
        <ele>558.3</ele>
        <time>2021-05-09T15:49:50Z</time>
      </trkpt>
      <trkpt lat="46.87536" lon="5.79788">
        <ele>558.8</ele>
        <time>2021-05-09T15:49:55Z</time>
      </trkpt>
      <trkpt lat="46.87534" lon="5.79781">
        <ele>559.7</ele>
        <time>2021-05-09T15:50:01Z</time>
      </trkpt>
      <trkpt lat="46.8753" lon="5.79776">
        <ele>560.7</ele>
        <time>2021-05-09T15:50:06Z</time>
      </trkpt>
      <trkpt lat="46.87526" lon="5.79772">
        <ele>561.3</ele>
        <time>2021-05-09T15:50:10Z</time>
      </trkpt>
      <trkpt lat="46.87522" lon="5.79767">
        <ele>562.4</ele>
        <time>2021-05-09T15:50:16Z</time>
      </trkpt>
      <trkpt lat="46.8752" lon="5.79761">
        <ele>563.9</ele>
        <time>2021-05-09T15:50:25Z</time>
      </trkpt>
      <trkpt lat="46.87515" lon="5.79761">
        <ele>564.7</ele>
        <time>2021-05-09T15:50:32Z</time>
      </trkpt>
      <trkpt lat="46.87511" lon="5.79765">
        <ele>564.6</ele>
        <time>2021-05-09T15:50:40Z</time>
      </trkpt>
      <trkpt lat="46.87508" lon="5.7977">
        <ele>563.7</ele>
        <time>2021-05-09T15:50:46Z</time>
      </trkpt>
      <trkpt lat="46.87502" lon="5.79772">
        <ele>562.6</ele>
        <time>2021-05-09T15:50:51Z</time>
      </trkpt>
      <trkpt lat="46.87498" lon="5.79772">
        <ele>560.9</ele>
        <time>2021-05-09T15:50:58Z</time>
      </trkpt>
      <trkpt lat="46.87493" lon="5.7977">
        <ele>559.3</ele>
        <time>2021-05-09T15:51:04Z</time>
      </trkpt>
      <trkpt lat="46.87488" lon="5.7977">
        <ele>558.8</ele>
        <time>2021-05-09T15:51:10Z</time>
      </trkpt>
      <trkpt lat="46.87483" lon="5.79771">
        <ele>558.7</ele>
        <time>2021-05-09T15:51:14Z</time>
      </trkpt>
      <trkpt lat="46.87478" lon="5.79772">
        <ele>558.6</ele>
        <time>2021-05-09T15:51:19Z</time>
      </trkpt>
      <trkpt lat="46.87473" lon="5.79771">
        <ele>558.7</ele>
        <time>2021-05-09T15:51:24Z</time>
      </trkpt>
      <trkpt lat="46.87469" lon="5.79768">
        <ele>558.9</ele>
        <time>2021-05-09T15:51:28Z</time>
      </trkpt>
      <trkpt lat="46.87456" lon="5.7977">
        <ele>559.4</ele>
        <time>2021-05-09T15:51:32Z</time>
      </trkpt>
      <trkpt lat="46.87449" lon="5.79771">
        <ele>559.9</ele>
        <time>2021-05-09T15:51:36Z</time>
      </trkpt>
      <trkpt lat="46.87443" lon="5.79772">
        <ele>559.9</ele>
        <time>2021-05-09T15:51:44Z</time>
      </trkpt>
      <trkpt lat="46.87438" lon="5.79773">
        <ele>559.6</ele>
        <time>2021-05-09T15:51:49Z</time>
      </trkpt>
      <trkpt lat="46.87434" lon="5.79771">
        <ele>558.8</ele>
        <time>2021-05-09T15:51:58Z</time>
      </trkpt>
      <trkpt lat="46.8743" lon="5.79767">
        <ele>557.9</ele>
        <time>2021-05-09T15:52:04Z</time>
      </trkpt>
      <trkpt lat="46.87426" lon="5.79762">
        <ele>557</ele>
        <time>2021-05-09T15:52:12Z</time>
      </trkpt>
      <trkpt lat="46.87421" lon="5.79758">
        <ele>556.7</ele>
        <time>2021-05-09T15:52:17Z</time>
      </trkpt>
      <trkpt lat="46.87416" lon="5.79758">
        <ele>556.2</ele>
        <time>2021-05-09T15:52:22Z</time>
      </trkpt>
      <trkpt lat="46.87411" lon="5.79759">
        <ele>555.8</ele>
        <time>2021-05-09T15:52:26Z</time>
      </trkpt>
      <trkpt lat="46.87398" lon="5.79772">
        <ele>558</ele>
        <time>2021-05-09T15:52:30Z</time>
      </trkpt>
      <trkpt lat="46.8739" lon="5.79778">
        <ele>560</ele>
        <time>2021-05-09T15:52:34Z</time>
      </trkpt>
      <trkpt lat="46.87385" lon="5.79779">
        <ele>561.5</ele>
        <time>2021-05-09T15:52:41Z</time>
      </trkpt>
      <trkpt lat="46.87382" lon="5.79774">
        <ele>561.7</ele>
        <time>2021-05-09T15:52:49Z</time>
      </trkpt>
      <trkpt lat="46.87377" lon="5.79773">
        <ele>561</ele>
        <time>2021-05-09T15:52:55Z</time>
      </trkpt>
      <trkpt lat="46.87372" lon="5.79771">
        <ele>560.3</ele>
        <time>2021-05-09T15:53:00Z</time>
      </trkpt>
      <trkpt lat="46.87367" lon="5.79769">
        <ele>559.8</ele>
        <time>2021-05-09T15:53:05Z</time>
      </trkpt>
      <trkpt lat="46.87362" lon="5.79766">
        <ele>559</ele>
        <time>2021-05-09T15:53:11Z</time>
      </trkpt>
      <trkpt lat="46.87358" lon="5.79764">
        <ele>558.5</ele>
        <time>2021-05-09T15:53:15Z</time>
      </trkpt>
      <trkpt lat="46.87353" lon="5.79761">
        <ele>557.6</ele>
        <time>2021-05-09T15:53:20Z</time>
      </trkpt>
      <trkpt lat="46.87349" lon="5.7976">
        <ele>556.8</ele>
        <time>2021-05-09T15:53:25Z</time>
      </trkpt>
      <trkpt lat="46.87344" lon="5.79759">
        <ele>555.9</ele>
        <time>2021-05-09T15:53:30Z</time>
      </trkpt>
      <trkpt lat="46.87339" lon="5.79758">
        <ele>555</ele>
        <time>2021-05-09T15:53:35Z</time>
      </trkpt>
      <trkpt lat="46.87334" lon="5.7976">
        <ele>554.4</ele>
        <time>2021-05-09T15:53:39Z</time>
      </trkpt>
      <trkpt lat="46.8733" lon="5.79763">
        <ele>553.6</ele>
        <time>2021-05-09T15:53:43Z</time>
      </trkpt>
      <trkpt lat="46.87323" lon="5.79768">
        <ele>553.1</ele>
        <time>2021-05-09T15:53:47Z</time>
      </trkpt>
      <trkpt lat="46.87318" lon="5.79769">
        <ele>552.2</ele>
        <time>2021-05-09T15:53:52Z</time>
      </trkpt>
      <trkpt lat="46.87313" lon="5.79767">
        <ele>551.3</ele>
        <time>2021-05-09T15:53:57Z</time>
      </trkpt>
      <trkpt lat="46.87309" lon="5.79764">
        <ele>550.4</ele>
        <time>2021-05-09T15:54:02Z</time>
      </trkpt>
      <trkpt lat="46.87305" lon="5.79763">
        <ele>549.5</ele>
        <time>2021-05-09T15:54:07Z</time>
      </trkpt>
      <trkpt lat="46.87299" lon="5.79761">
        <ele>548.6</ele>
        <time>2021-05-09T15:54:12Z</time>
      </trkpt>
      <trkpt lat="46.87294" lon="5.79762">
        <ele>547.6</ele>
        <time>2021-05-09T15:54:16Z</time>
      </trkpt>
      <trkpt lat="46.8729" lon="5.7976">
        <ele>546</ele>
        <time>2021-05-09T15:54:23Z</time>
      </trkpt>
      <trkpt lat="46.87285" lon="5.7976">
        <ele>544.9</ele>
        <time>2021-05-09T15:54:29Z</time>
      </trkpt>
      <trkpt lat="46.87279" lon="5.7976">
        <ele>544.1</ele>
        <time>2021-05-09T15:54:34Z</time>
      </trkpt>
      <trkpt lat="46.87274" lon="5.79759">
        <ele>543.6</ele>
        <time>2021-05-09T15:54:39Z</time>
      </trkpt>
      <trkpt lat="46.8727" lon="5.79761">
        <ele>542.8</ele>
        <time>2021-05-09T15:54:45Z</time>
      </trkpt>
      <trkpt lat="46.87265" lon="5.79762">
        <ele>542.3</ele>
        <time>2021-05-09T15:54:49Z</time>
      </trkpt>
      <trkpt lat="46.87261" lon="5.79764">
        <ele>541.8</ele>
        <time>2021-05-09T15:54:53Z</time>
      </trkpt>
      <trkpt lat="46.87256" lon="5.79766">
        <ele>541.4</ele>
        <time>2021-05-09T15:54:57Z</time>
      </trkpt>
      <trkpt lat="46.87251" lon="5.79768">
        <ele>540.7</ele>
        <time>2021-05-09T15:55:02Z</time>
      </trkpt>
      <trkpt lat="46.87246" lon="5.79767">
        <ele>539.7</ele>
        <time>2021-05-09T15:55:08Z</time>
      </trkpt>
      <trkpt lat="46.87241" lon="5.79769">
        <ele>539.2</ele>
        <time>2021-05-09T15:55:12Z</time>
      </trkpt>
      <trkpt lat="46.87236" lon="5.7977">
        <ele>538.2</ele>
        <time>2021-05-09T15:55:18Z</time>
      </trkpt>
      <trkpt lat="46.87231" lon="5.7977">
        <ele>537.3</ele>
        <time>2021-05-09T15:55:22Z</time>
      </trkpt>
      <trkpt lat="46.87226" lon="5.79769">
        <ele>536.2</ele>
        <time>2021-05-09T15:55:26Z</time>
      </trkpt>
      <trkpt lat="46.87221" lon="5.7977">
        <ele>535</ele>
        <time>2021-05-09T15:55:31Z</time>
      </trkpt>
      <trkpt lat="46.87207" lon="5.7979">
        <ele>540.4</ele>
        <time>2021-05-09T15:55:35Z</time>
      </trkpt>
      <trkpt lat="46.87202" lon="5.79795">
        <ele>543.8</ele>
        <time>2021-05-09T15:55:39Z</time>
      </trkpt>
      <trkpt lat="46.87198" lon="5.79796">
        <ele>546.6</ele>
        <time>2021-05-09T15:55:44Z</time>
      </trkpt>
      <trkpt lat="46.87192" lon="5.79797">
        <ele>548.6</ele>
        <time>2021-05-09T15:55:50Z</time>
      </trkpt>
      <trkpt lat="46.87188" lon="5.79797">
        <ele>549.4</ele>
        <time>2021-05-09T15:55:56Z</time>
      </trkpt>
      <trkpt lat="46.87183" lon="5.79797">
        <ele>549.9</ele>
        <time>2021-05-09T15:56:02Z</time>
      </trkpt>
      <trkpt lat="46.87178" lon="5.79795">
        <ele>550</ele>
        <time>2021-05-09T15:56:09Z</time>
      </trkpt>
      <trkpt lat="46.87173" lon="5.79792">
        <ele>549.8</ele>
        <time>2021-05-09T15:56:15Z</time>
      </trkpt>
      <trkpt lat="46.87169" lon="5.79789">
        <ele>549.5</ele>
        <time>2021-05-09T15:56:21Z</time>
      </trkpt>
      <trkpt lat="46.87164" lon="5.79788">
        <ele>549.2</ele>
        <time>2021-05-09T15:56:25Z</time>
      </trkpt>
      <trkpt lat="46.87159" lon="5.79789">
        <ele>548.6</ele>
        <time>2021-05-09T15:56:30Z</time>
      </trkpt>
      <trkpt lat="46.87154" lon="5.79789">
        <ele>547.9</ele>
        <time>2021-05-09T15:56:35Z</time>
      </trkpt>
      <trkpt lat="46.87149" lon="5.79789">
        <ele>546.5</ele>
        <time>2021-05-09T15:56:42Z</time>
      </trkpt>
      <trkpt lat="46.87144" lon="5.7979">
        <ele>545.5</ele>
        <time>2021-05-09T15:56:47Z</time>
      </trkpt>
      <trkpt lat="46.87139" lon="5.79791">
        <ele>544.6</ele>
        <time>2021-05-09T15:56:52Z</time>
      </trkpt>
      <trkpt lat="46.87134" lon="5.79792">
        <ele>543.3</ele>
        <time>2021-05-09T15:57:00Z</time>
      </trkpt>
      <trkpt lat="46.8713" lon="5.79795">
        <ele>542.4</ele>
        <time>2021-05-09T15:57:06Z</time>
      </trkpt>
      <trkpt lat="46.87126" lon="5.79797">
        <ele>541.6</ele>
        <time>2021-05-09T15:57:11Z</time>
      </trkpt>
      <trkpt lat="46.87121" lon="5.798">
        <ele>540.7</ele>
        <time>2021-05-09T15:57:17Z</time>
      </trkpt>
      <trkpt lat="46.87117" lon="5.79805">
        <ele>540</ele>
        <time>2021-05-09T15:57:22Z</time>
      </trkpt>
      <trkpt lat="46.87112" lon="5.79808">
        <ele>539.1</ele>
        <time>2021-05-09T15:57:26Z</time>
      </trkpt>
      <trkpt lat="46.87109" lon="5.79813">
        <ele>538.2</ele>
        <time>2021-05-09T15:57:30Z</time>
      </trkpt>
      <trkpt lat="46.87105" lon="5.79819">
        <ele>537.4</ele>
        <time>2021-05-09T15:57:34Z</time>
      </trkpt>
      <trkpt lat="46.87102" lon="5.79826">
        <ele>536.4</ele>
        <time>2021-05-09T15:57:39Z</time>
      </trkpt>
      <trkpt lat="46.871" lon="5.79834">
        <ele>536.1</ele>
        <time>2021-05-09T15:57:43Z</time>
      </trkpt>
      <trkpt lat="46.87091" lon="5.79852">
        <ele>538.5</ele>
        <time>2021-05-09T15:57:47Z</time>
      </trkpt>
      <trkpt lat="46.87088" lon="5.79861">
        <ele>540.5</ele>
        <time>2021-05-09T15:57:51Z</time>
      </trkpt>
      <trkpt lat="46.87084" lon="5.79866">
        <ele>542.3</ele>
        <time>2021-05-09T15:57:57Z</time>
      </trkpt>
      <trkpt lat="46.87081" lon="5.79872">
        <ele>543.2</ele>
        <time>2021-05-09T15:58:05Z</time>
      </trkpt>
      <trkpt lat="46.8708" lon="5.79879">
        <ele>543.5</ele>
        <time>2021-05-09T15:58:10Z</time>
      </trkpt>
      <trkpt lat="46.87078" lon="5.79885">
        <ele>543.8</ele>
        <time>2021-05-09T15:58:14Z</time>
      </trkpt>
      <trkpt lat="46.87076" lon="5.79891">
        <ele>544.3</ele>
        <time>2021-05-09T15:58:18Z</time>
      </trkpt>
      <trkpt lat="46.87073" lon="5.79897">
        <ele>544.7</ele>
        <time>2021-05-09T15:58:23Z</time>
      </trkpt>
      <trkpt lat="46.87069" lon="5.79904">
        <ele>545.1</ele>
        <time>2021-05-09T15:58:28Z</time>
      </trkpt>
      <trkpt lat="46.87066" lon="5.7991">
        <ele>545.5</ele>
        <time>2021-05-09T15:58:33Z</time>
      </trkpt>
      <trkpt lat="46.87064" lon="5.79915">
        <ele>545.9</ele>
        <time>2021-05-09T15:58:39Z</time>
      </trkpt>
      <trkpt lat="46.87061" lon="5.79922">
        <ele>545.8</ele>
        <time>2021-05-09T15:58:45Z</time>
      </trkpt>
      <trkpt lat="46.87058" lon="5.79928">
        <ele>545.8</ele>
        <time>2021-05-09T15:58:51Z</time>
      </trkpt>
      <trkpt lat="46.87055" lon="5.79934">
        <ele>545.7</ele>
        <time>2021-05-09T15:58:57Z</time>
      </trkpt>
      <trkpt lat="46.87052" lon="5.79939">
        <ele>545.9</ele>
        <time>2021-05-09T15:59:03Z</time>
      </trkpt>
      <trkpt lat="46.87049" lon="5.79945">
        <ele>546</ele>
        <time>2021-05-09T15:59:08Z</time>
      </trkpt>
      <trkpt lat="46.87047" lon="5.79952">
        <ele>545.9</ele>
        <time>2021-05-09T15:59:13Z</time>
      </trkpt>
      <trkpt lat="46.87046" lon="5.79959">
        <ele>545.9</ele>
        <time>2021-05-09T15:59:18Z</time>
      </trkpt>
      <trkpt lat="46.87044" lon="5.79965">
        <ele>545.7</ele>
        <time>2021-05-09T15:59:23Z</time>
      </trkpt>
      <trkpt lat="46.8704" lon="5.79973">
        <ele>545.2</ele>
        <time>2021-05-09T15:59:36Z</time>
      </trkpt>
      <trkpt lat="46.87039" lon="5.7998">
        <ele>545.7</ele>
        <time>2021-05-09T15:59:40Z</time>
      </trkpt>
      <trkpt lat="46.8704" lon="5.79986">
        <ele>547.3</ele>
        <time>2021-05-09T15:59:46Z</time>
      </trkpt>
      <trkpt lat="46.87039" lon="5.79994">
        <ele>548.7</ele>
        <time>2021-05-09T15:59:50Z</time>
      </trkpt>
      <trkpt lat="46.87036" lon="5.80005">
        <ele>550.2</ele>
        <time>2021-05-09T15:59:54Z</time>
      </trkpt>
      <trkpt lat="46.87033" lon="5.80011">
        <ele>552.2</ele>
        <time>2021-05-09T16:00:14Z</time>
      </trkpt>
      <trkpt lat="46.87027" lon="5.80009">
        <ele>552.2</ele>
        <time>2021-05-09T16:00:39Z</time>
      </trkpt>
      <trkpt lat="46.87023" lon="5.80011">
        <ele>551.8</ele>
        <time>2021-05-09T16:00:43Z</time>
      </trkpt>
      <trkpt lat="46.87018" lon="5.80014">
        <ele>551.2</ele>
        <time>2021-05-09T16:00:49Z</time>
      </trkpt>
      <trkpt lat="46.87007" lon="5.80039">
        <ele>551.8</ele>
        <time>2021-05-09T16:00:53Z</time>
      </trkpt>
      <trkpt lat="46.87003" lon="5.80048">
        <ele>552.1</ele>
        <time>2021-05-09T16:00:57Z</time>
      </trkpt>
      <trkpt lat="46.87002" lon="5.80055">
        <ele>550.8</ele>
        <time>2021-05-09T16:01:13Z</time>
      </trkpt>
      <trkpt lat="46.86998" lon="5.8006">
        <ele>550.4</ele>
        <time>2021-05-09T16:01:18Z</time>
      </trkpt>
      <trkpt lat="46.86994" lon="5.80062">
        <ele>549.6</ele>
        <time>2021-05-09T16:01:25Z</time>
      </trkpt>
      <trkpt lat="46.8699" lon="5.80065">
        <ele>548.4</ele>
        <time>2021-05-09T16:01:33Z</time>
      </trkpt>
      <trkpt lat="46.86987" lon="5.8007">
        <ele>547.8</ele>
        <time>2021-05-09T16:01:37Z</time>
      </trkpt>
      <trkpt lat="46.86984" lon="5.80076">
        <ele>547.1</ele>
        <time>2021-05-09T16:01:42Z</time>
      </trkpt>
      <trkpt lat="46.8698" lon="5.80079">
        <ele>546.3</ele>
        <time>2021-05-09T16:01:49Z</time>
      </trkpt>
      <trkpt lat="46.86974" lon="5.80082">
        <ele>545.6</ele>
        <time>2021-05-09T16:01:55Z</time>
      </trkpt>
      <trkpt lat="46.8697" lon="5.80085">
        <ele>545</ele>
        <time>2021-05-09T16:02:00Z</time>
      </trkpt>
      <trkpt lat="46.86964" lon="5.80085">
        <ele>544.4</ele>
        <time>2021-05-09T16:02:04Z</time>
      </trkpt>
      <trkpt lat="46.86959" lon="5.80084">
        <ele>543.7</ele>
        <time>2021-05-09T16:02:09Z</time>
      </trkpt>
      <trkpt lat="46.86954" lon="5.80083">
        <ele>542.9</ele>
        <time>2021-05-09T16:02:17Z</time>
      </trkpt>
      <trkpt lat="46.8695" lon="5.80084">
        <ele>543.4</ele>
        <time>2021-05-09T16:02:26Z</time>
      </trkpt>
      <trkpt lat="46.86946" lon="5.80087">
        <ele>544.4</ele>
        <time>2021-05-09T16:02:31Z</time>
      </trkpt>
      <trkpt lat="46.86942" lon="5.80091">
        <ele>545.5</ele>
        <time>2021-05-09T16:02:36Z</time>
      </trkpt>
      <trkpt lat="46.86936" lon="5.80093">
        <ele>546.6</ele>
        <time>2021-05-09T16:02:42Z</time>
      </trkpt>
      <trkpt lat="46.86932" lon="5.80093">
        <ele>546.8</ele>
        <time>2021-05-09T16:02:46Z</time>
      </trkpt>
      <trkpt lat="46.86927" lon="5.80095">
        <ele>546.9</ele>
        <time>2021-05-09T16:02:50Z</time>
      </trkpt>
      <trkpt lat="46.86922" lon="5.80098">
        <ele>546.7</ele>
        <time>2021-05-09T16:02:55Z</time>
      </trkpt>
      <trkpt lat="46.86917" lon="5.80102">
        <ele>546.3</ele>
        <time>2021-05-09T16:02:59Z</time>
      </trkpt>
      <trkpt lat="46.86912" lon="5.80106">
        <ele>546</ele>
        <time>2021-05-09T16:03:05Z</time>
      </trkpt>
      <trkpt lat="46.86908" lon="5.8011">
        <ele>545.6</ele>
        <time>2021-05-09T16:03:12Z</time>
      </trkpt>
      <trkpt lat="46.86903" lon="5.8011">
        <ele>545.5</ele>
        <time>2021-05-09T16:03:17Z</time>
      </trkpt>
      <trkpt lat="46.86898" lon="5.80108">
        <ele>545.5</ele>
        <time>2021-05-09T16:03:23Z</time>
      </trkpt>
      <trkpt lat="46.86893" lon="5.80108">
        <ele>545.3</ele>
        <time>2021-05-09T16:03:27Z</time>
      </trkpt>
      <trkpt lat="46.86887" lon="5.80111">
        <ele>544.7</ele>
        <time>2021-05-09T16:03:31Z</time>
      </trkpt>
      <trkpt lat="46.86877" lon="5.8012">
        <ele>547.5</ele>
        <time>2021-05-09T16:03:35Z</time>
      </trkpt>
      <trkpt lat="46.86869" lon="5.80129">
        <ele>550.1</ele>
        <time>2021-05-09T16:03:39Z</time>
      </trkpt>
      <trkpt lat="46.86864" lon="5.80131">
        <ele>552.5</ele>
        <time>2021-05-09T16:03:53Z</time>
      </trkpt>
      <trkpt lat="46.86858" lon="5.80133">
        <ele>552.3</ele>
        <time>2021-05-09T16:03:57Z</time>
      </trkpt>
      <trkpt lat="46.86853" lon="5.80136">
        <ele>552.1</ele>
        <time>2021-05-09T16:04:01Z</time>
      </trkpt>
      <trkpt lat="46.86848" lon="5.80135">
        <ele>551.9</ele>
        <time>2021-05-09T16:04:07Z</time>
      </trkpt>
      <trkpt lat="46.86843" lon="5.80137">
        <ele>551.4</ele>
        <time>2021-05-09T16:04:13Z</time>
      </trkpt>
      <trkpt lat="46.86838" lon="5.80138">
        <ele>551.2</ele>
        <time>2021-05-09T16:04:18Z</time>
      </trkpt>
      <trkpt lat="46.86834" lon="5.80136">
        <ele>551.5</ele>
        <time>2021-05-09T16:04:24Z</time>
      </trkpt>
      <trkpt lat="46.86829" lon="5.80138">
        <ele>551.6</ele>
        <time>2021-05-09T16:04:31Z</time>
      </trkpt>
      <trkpt lat="46.86824" lon="5.80141">
        <ele>551.7</ele>
        <time>2021-05-09T16:04:41Z</time>
      </trkpt>
      <trkpt lat="46.86819" lon="5.80145">
        <ele>551.7</ele>
        <time>2021-05-09T16:04:46Z</time>
      </trkpt>
      <trkpt lat="46.86814" lon="5.80149">
        <ele>551.9</ele>
        <time>2021-05-09T16:04:50Z</time>
      </trkpt>
      <trkpt lat="46.86808" lon="5.80151">
        <ele>551.5</ele>
        <time>2021-05-09T16:04:55Z</time>
      </trkpt>
      <trkpt lat="46.86803" lon="5.80153">
        <ele>551.2</ele>
        <time>2021-05-09T16:04:59Z</time>
      </trkpt>
      <trkpt lat="46.86798" lon="5.80158">
        <ele>551.3</ele>
        <time>2021-05-09T16:05:03Z</time>
      </trkpt>
      <trkpt lat="46.86791" lon="5.80165">
        <ele>552.9</ele>
        <time>2021-05-09T16:05:07Z</time>
      </trkpt>
      <trkpt lat="46.86788" lon="5.8017">
        <ele>554.7</ele>
        <time>2021-05-09T16:05:12Z</time>
      </trkpt>
      <trkpt lat="46.86785" lon="5.80175">
        <ele>556.2</ele>
        <time>2021-05-09T16:05:21Z</time>
      </trkpt>
      <trkpt lat="46.86782" lon="5.8018">
        <ele>557</ele>
        <time>2021-05-09T16:05:25Z</time>
      </trkpt>
      <trkpt lat="46.86778" lon="5.80185">
        <ele>558.1</ele>
        <time>2021-05-09T16:05:29Z</time>
      </trkpt>
      <trkpt lat="46.86775" lon="5.80191">
        <ele>559</ele>
        <time>2021-05-09T16:05:37Z</time>
      </trkpt>
      <trkpt lat="46.86776" lon="5.80197">
        <ele>558.6</ele>
        <time>2021-05-09T16:05:43Z</time>
      </trkpt>
      <trkpt lat="46.86776" lon="5.80205">
        <ele>557.5</ele>
        <time>2021-05-09T16:05:48Z</time>
      </trkpt>
      <trkpt lat="46.86778" lon="5.80212">
        <ele>556.3</ele>
        <time>2021-05-09T16:05:52Z</time>
      </trkpt>
      <trkpt lat="46.86778" lon="5.80223">
        <ele>558.1</ele>
        <time>2021-05-09T16:05:56Z</time>
      </trkpt>
      <trkpt lat="46.86781" lon="5.80229">
        <ele>559.2</ele>
        <time>2021-05-09T16:06:00Z</time>
      </trkpt>
      <trkpt lat="46.86784" lon="5.80234">
        <ele>560.9</ele>
        <time>2021-05-09T16:06:04Z</time>
      </trkpt>
      <trkpt lat="46.86786" lon="5.80247">
        <ele>564.6</ele>
        <time>2021-05-09T16:06:08Z</time>
      </trkpt>
      <trkpt lat="46.86787" lon="5.80262">
        <ele>568.7</ele>
        <time>2021-05-09T16:06:12Z</time>
      </trkpt>
      <trkpt lat="46.86785" lon="5.80277">
        <ele>571.1</ele>
        <time>2021-05-09T16:06:16Z</time>
      </trkpt>
      <trkpt lat="46.86786" lon="5.80283">
        <ele>572.6</ele>
        <time>2021-05-09T16:06:20Z</time>
      </trkpt>
      <trkpt lat="46.86785" lon="5.8029">
        <ele>573.8</ele>
        <time>2021-05-09T16:06:32Z</time>
      </trkpt>
      <trkpt lat="46.86781" lon="5.80294">
        <ele>571.9</ele>
        <time>2021-05-09T16:06:43Z</time>
      </trkpt>
      <trkpt lat="46.86778" lon="5.803">
        <ele>569.6</ele>
        <time>2021-05-09T16:06:47Z</time>
      </trkpt>
      <trkpt lat="46.86773" lon="5.80309">
        <ele>567.9</ele>
        <time>2021-05-09T16:06:51Z</time>
      </trkpt>
      <trkpt lat="46.8677" lon="5.80318">
        <ele>566.5</ele>
        <time>2021-05-09T16:06:55Z</time>
      </trkpt>
      <trkpt lat="46.86768" lon="5.80324">
        <ele>565.2</ele>
        <time>2021-05-09T16:06:59Z</time>
      </trkpt>
      <trkpt lat="46.86766" lon="5.80331">
        <ele>563</ele>
        <time>2021-05-09T16:07:05Z</time>
      </trkpt>
      <trkpt lat="46.86762" lon="5.80338">
        <ele>561.4</ele>
        <time>2021-05-09T16:07:10Z</time>
      </trkpt>
      <trkpt lat="46.86756" lon="5.8035">
        <ele>559.8</ele>
        <time>2021-05-09T16:07:14Z</time>
      </trkpt>
      <trkpt lat="46.86751" lon="5.80355">
        <ele>558.4</ele>
        <time>2021-05-09T16:07:18Z</time>
      </trkpt>
      <trkpt lat="46.86746" lon="5.80359">
        <ele>557.3</ele>
        <time>2021-05-09T16:07:22Z</time>
      </trkpt>
      <trkpt lat="46.8674" lon="5.8036">
        <ele>556.5</ele>
        <time>2021-05-09T16:07:28Z</time>
      </trkpt>
      <trkpt lat="46.86735" lon="5.8036">
        <ele>556.2</ele>
        <time>2021-05-09T16:07:32Z</time>
      </trkpt>
      <trkpt lat="46.86731" lon="5.80358">
        <ele>555.5</ele>
        <time>2021-05-09T16:07:37Z</time>
      </trkpt>
      <trkpt lat="46.86725" lon="5.80353">
        <ele>552.4</ele>
        <time>2021-05-09T16:07:43Z</time>
      </trkpt>
      <trkpt lat="46.8672" lon="5.80352">
        <ele>549.7</ele>
        <time>2021-05-09T16:07:47Z</time>
      </trkpt>
      <trkpt lat="46.86715" lon="5.80353">
        <ele>547.2</ele>
        <time>2021-05-09T16:07:52Z</time>
      </trkpt>
      <trkpt lat="46.8671" lon="5.80352">
        <ele>545.1</ele>
        <time>2021-05-09T16:07:58Z</time>
      </trkpt>
      <trkpt lat="46.86705" lon="5.80354">
        <ele>543.7</ele>
        <time>2021-05-09T16:08:03Z</time>
      </trkpt>
      <trkpt lat="46.86701" lon="5.80355">
        <ele>543.1</ele>
        <time>2021-05-09T16:08:08Z</time>
      </trkpt>
      <trkpt lat="46.86696" lon="5.80353">
        <ele>540.9</ele>
        <time>2021-05-09T16:08:15Z</time>
      </trkpt>
      <trkpt lat="46.86692" lon="5.80352">
        <ele>538.9</ele>
        <time>2021-05-09T16:08:20Z</time>
      </trkpt>
      <trkpt lat="46.86687" lon="5.80351">
        <ele>536.2</ele>
        <time>2021-05-09T16:08:26Z</time>
      </trkpt>
      <trkpt lat="46.86682" lon="5.80351">
        <ele>533.4</ele>
        <time>2021-05-09T16:08:33Z</time>
      </trkpt>
      <trkpt lat="46.86678" lon="5.80349">
        <ele>531.6</ele>
        <time>2021-05-09T16:08:38Z</time>
      </trkpt>
      <trkpt lat="46.86673" lon="5.8035">
        <ele>530.4</ele>
        <time>2021-05-09T16:08:46Z</time>
      </trkpt>
      <trkpt lat="46.86668" lon="5.80347">
        <ele>530.6</ele>
        <time>2021-05-09T16:08:52Z</time>
      </trkpt>
      <trkpt lat="46.86663" lon="5.80345">
        <ele>530.8</ele>
        <time>2021-05-09T16:08:58Z</time>
      </trkpt>
      <trkpt lat="46.86659" lon="5.80349">
        <ele>531.5</ele>
        <time>2021-05-09T16:09:03Z</time>
      </trkpt>
      <trkpt lat="46.86653" lon="5.80352">
        <ele>531.9</ele>
        <time>2021-05-09T16:09:07Z</time>
      </trkpt>
      <trkpt lat="46.86648" lon="5.80351">
        <ele>532.3</ele>
        <time>2021-05-09T16:09:12Z</time>
      </trkpt>
      <trkpt lat="46.86643" lon="5.80355">
        <ele>532.8</ele>
        <time>2021-05-09T16:09:17Z</time>
      </trkpt>
      <trkpt lat="46.86636" lon="5.80362">
        <ele>533.6</ele>
        <time>2021-05-09T16:09:21Z</time>
      </trkpt>
      <trkpt lat="46.86628" lon="5.80366">
        <ele>534.1</ele>
        <time>2021-05-09T16:09:25Z</time>
      </trkpt>
      <trkpt lat="46.86621" lon="5.80365">
        <ele>534.6</ele>
        <time>2021-05-09T16:09:29Z</time>
      </trkpt>
      <trkpt lat="46.86617" lon="5.80364">
        <ele>535.3</ele>
        <time>2021-05-09T16:09:34Z</time>
      </trkpt>
      <trkpt lat="46.86611" lon="5.80362">
        <ele>535.8</ele>
        <time>2021-05-09T16:09:40Z</time>
      </trkpt>
      <trkpt lat="46.86606" lon="5.80359">
        <ele>536.1</ele>
        <time>2021-05-09T16:09:45Z</time>
      </trkpt>
      <trkpt lat="46.86596" lon="5.80357">
        <ele>535.5</ele>
        <time>2021-05-09T16:09:49Z</time>
      </trkpt>
      <trkpt lat="46.8659" lon="5.80359">
        <ele>535.3</ele>
        <time>2021-05-09T16:09:53Z</time>
      </trkpt>
      <trkpt lat="46.86585" lon="5.80366">
        <ele>535.6</ele>
        <time>2021-05-09T16:09:57Z</time>
      </trkpt>
      <trkpt lat="46.86582" lon="5.8037">
        <ele>536.1</ele>
        <time>2021-05-09T16:10:01Z</time>
      </trkpt>
      <trkpt lat="46.86578" lon="5.80375">
        <ele>535.6</ele>
        <time>2021-05-09T16:10:07Z</time>
      </trkpt>
      <trkpt lat="46.86574" lon="5.80379">
        <ele>533.8</ele>
        <time>2021-05-09T16:10:12Z</time>
      </trkpt>
      <trkpt lat="46.86571" lon="5.80385">
        <ele>528.9</ele>
        <time>2021-05-09T16:10:21Z</time>
      </trkpt>
      <trkpt lat="46.86568" lon="5.8039">
        <ele>526.9</ele>
        <time>2021-05-09T16:10:25Z</time>
      </trkpt>
      <trkpt lat="46.86564" lon="5.80399">
        <ele>526.2</ele>
        <time>2021-05-09T16:10:29Z</time>
      </trkpt>
      <trkpt lat="46.86561" lon="5.8041">
        <ele>526.8</ele>
        <time>2021-05-09T16:10:33Z</time>
      </trkpt>
      <trkpt lat="46.86559" lon="5.80417">
        <ele>529.4</ele>
        <time>2021-05-09T16:10:39Z</time>
      </trkpt>
      <trkpt lat="46.86555" lon="5.80423">
        <ele>529.6</ele>
        <time>2021-05-09T16:10:45Z</time>
      </trkpt>
      <trkpt lat="46.86552" lon="5.80429">
        <ele>528.7</ele>
        <time>2021-05-09T16:10:50Z</time>
      </trkpt>
      <trkpt lat="46.86547" lon="5.80433">
        <ele>527.2</ele>
        <time>2021-05-09T16:10:56Z</time>
      </trkpt>
      <trkpt lat="46.86543" lon="5.80437">
        <ele>525.8</ele>
        <time>2021-05-09T16:11:01Z</time>
      </trkpt>
      <trkpt lat="46.86539" lon="5.80442">
        <ele>524.4</ele>
        <time>2021-05-09T16:11:06Z</time>
      </trkpt>
      <trkpt lat="46.86534" lon="5.80445">
        <ele>525</ele>
        <time>2021-05-09T16:11:11Z</time>
      </trkpt>
      <trkpt lat="46.8653" lon="5.80448">
        <ele>525.2</ele>
        <time>2021-05-09T16:11:18Z</time>
      </trkpt>
      <trkpt lat="46.86526" lon="5.80451">
        <ele>525.1</ele>
        <time>2021-05-09T16:11:24Z</time>
      </trkpt>
      <trkpt lat="46.86521" lon="5.80454">
        <ele>525</ele>
        <time>2021-05-09T16:11:30Z</time>
      </trkpt>
      <trkpt lat="46.86517" lon="5.80458">
        <ele>525.1</ele>
        <time>2021-05-09T16:11:35Z</time>
      </trkpt>
      <trkpt lat="46.86511" lon="5.80462">
        <ele>526.5</ele>
        <time>2021-05-09T16:11:39Z</time>
      </trkpt>
      <trkpt lat="46.86505" lon="5.80464">
        <ele>528.5</ele>
        <time>2021-05-09T16:11:43Z</time>
      </trkpt>
      <trkpt lat="46.86501" lon="5.80463">
        <ele>529.9</ele>
        <time>2021-05-09T16:11:48Z</time>
      </trkpt>
      <trkpt lat="46.86496" lon="5.80463">
        <ele>530.6</ele>
        <time>2021-05-09T16:11:53Z</time>
      </trkpt>
      <trkpt lat="46.86491" lon="5.80465">
        <ele>530.9</ele>
        <time>2021-05-09T16:11:59Z</time>
      </trkpt>
      <trkpt lat="46.86486" lon="5.80466">
        <ele>530.7</ele>
        <time>2021-05-09T16:12:11Z</time>
      </trkpt>
      <trkpt lat="46.86481" lon="5.80465">
        <ele>531.9</ele>
        <time>2021-05-09T16:12:18Z</time>
      </trkpt>
      <trkpt lat="46.86477" lon="5.80461">
        <ele>533.6</ele>
        <time>2021-05-09T16:12:23Z</time>
      </trkpt>
      <trkpt lat="46.86473" lon="5.80456">
        <ele>535.2</ele>
        <time>2021-05-09T16:12:31Z</time>
      </trkpt>
      <trkpt lat="46.86469" lon="5.8045">
        <ele>535.6</ele>
        <time>2021-05-09T16:12:37Z</time>
      </trkpt>
      <trkpt lat="46.86465" lon="5.8045">
        <ele>535.7</ele>
        <time>2021-05-09T16:12:47Z</time>
      </trkpt>
      <trkpt lat="46.86465" lon="5.80443">
        <ele>544.1</ele>
        <time>2021-05-09T16:13:02Z</time>
      </trkpt>
      <trkpt lat="46.86463" lon="5.80449">
        <ele>545.9</ele>
        <time>2021-05-09T16:13:13Z</time>
      </trkpt>
      <trkpt lat="46.86462" lon="5.80457">
        <ele>546.8</ele>
        <time>2021-05-09T16:13:17Z</time>
      </trkpt>
      <trkpt lat="46.8646" lon="5.80463">
        <ele>548.7</ele>
        <time>2021-05-09T16:13:23Z</time>
      </trkpt>
      <trkpt lat="46.86456" lon="5.80469">
        <ele>550.4</ele>
        <time>2021-05-09T16:13:28Z</time>
      </trkpt>
      <trkpt lat="46.86453" lon="5.80476">
        <ele>551.5</ele>
        <time>2021-05-09T16:13:32Z</time>
      </trkpt>
      <trkpt lat="46.86449" lon="5.8048">
        <ele>552.3</ele>
        <time>2021-05-09T16:13:44Z</time>
      </trkpt>
      <trkpt lat="46.86445" lon="5.80483">
        <ele>552.2</ele>
        <time>2021-05-09T16:13:57Z</time>
      </trkpt>
      <trkpt lat="46.86443" lon="5.80489">
        <ele>554.4</ele>
        <time>2021-05-09T16:14:16Z</time>
      </trkpt>
      <trkpt lat="46.86443" lon="5.80496">
        <ele>555.9</ele>
        <time>2021-05-09T16:14:33Z</time>
      </trkpt>
      <trkpt lat="46.86444" lon="5.80503">
        <ele>558.1</ele>
        <time>2021-05-09T16:14:39Z</time>
      </trkpt>
      <trkpt lat="46.86439" lon="5.80503">
        <ele>558</ele>
        <time>2021-05-09T16:14:51Z</time>
      </trkpt>
      <trkpt lat="46.86436" lon="5.80508">
        <ele>557.4</ele>
        <time>2021-05-09T16:14:55Z</time>
      </trkpt>
      <trkpt lat="46.86434" lon="5.80514">
        <ele>556.6</ele>
        <time>2021-05-09T16:15:01Z</time>
      </trkpt>
      <trkpt lat="46.86434" lon="5.80522">
        <ele>555.4</ele>
        <time>2021-05-09T16:15:08Z</time>
      </trkpt>
      <trkpt lat="46.86431" lon="5.80528">
        <ele>554.7</ele>
        <time>2021-05-09T16:15:12Z</time>
      </trkpt>
      <trkpt lat="46.86429" lon="5.80535">
        <ele>554.1</ele>
        <time>2021-05-09T16:15:16Z</time>
      </trkpt>
      <trkpt lat="46.86425" lon="5.80543">
        <ele>554.2</ele>
        <time>2021-05-09T16:15:20Z</time>
      </trkpt>
      <trkpt lat="46.86422" lon="5.80549">
        <ele>554.3</ele>
        <time>2021-05-09T16:15:24Z</time>
      </trkpt>
      <trkpt lat="46.86418" lon="5.80553">
        <ele>554.3</ele>
        <time>2021-05-09T16:15:30Z</time>
      </trkpt>
      <trkpt lat="46.86418" lon="5.80546">
        <ele>553.4</ele>
        <time>2021-05-09T16:15:38Z</time>
      </trkpt>
      <trkpt lat="46.8642" lon="5.8054">
        <ele>552.3</ele>
        <time>2021-05-09T16:15:43Z</time>
      </trkpt>
      <trkpt lat="46.86416" lon="5.80544">
        <ele>550.5</ele>
        <time>2021-05-09T16:15:54Z</time>
      </trkpt>
      <trkpt lat="46.86411" lon="5.80556">
        <ele>549.4</ele>
        <time>2021-05-09T16:15:58Z</time>
      </trkpt>
      <trkpt lat="46.86402" lon="5.80572">
        <ele>546.4</ele>
        <time>2021-05-09T16:16:02Z</time>
      </trkpt>
      <trkpt lat="46.864" lon="5.80578">
        <ele>544.5</ele>
        <time>2021-05-09T16:16:06Z</time>
      </trkpt>
      <trkpt lat="46.86397" lon="5.80584">
        <ele>542.6</ele>
        <time>2021-05-09T16:16:12Z</time>
      </trkpt>
      <trkpt lat="46.86394" lon="5.80589">
        <ele>542.1</ele>
        <time>2021-05-09T16:16:17Z</time>
      </trkpt>
      <trkpt lat="46.86392" lon="5.80595">
        <ele>541.5</ele>
        <time>2021-05-09T16:16:22Z</time>
      </trkpt>
      <trkpt lat="46.86392" lon="5.80602">
        <ele>540.7</ele>
        <time>2021-05-09T16:16:27Z</time>
      </trkpt>
      <trkpt lat="46.86395" lon="5.80607">
        <ele>539.7</ele>
        <time>2021-05-09T16:16:32Z</time>
      </trkpt>
      <trkpt lat="46.86396" lon="5.80614">
        <ele>539.1</ele>
        <time>2021-05-09T16:16:37Z</time>
      </trkpt>
      <trkpt lat="46.86394" lon="5.8063">
        <ele>541.1</ele>
        <time>2021-05-09T16:16:41Z</time>
      </trkpt>
      <trkpt lat="46.86401" lon="5.80631">
        <ele>544.9</ele>
        <time>2021-05-09T16:16:53Z</time>
      </trkpt>
      <trkpt lat="46.86416" lon="5.80617">
        <ele>545</ele>
        <time>2021-05-09T16:16:57Z</time>
      </trkpt>
      <trkpt lat="46.86422" lon="5.80619">
        <ele>544.1</ele>
        <time>2021-05-09T16:17:01Z</time>
      </trkpt>
      <trkpt lat="46.86423" lon="5.80626">
        <ele>543.3</ele>
        <time>2021-05-09T16:17:10Z</time>
      </trkpt>
      <trkpt lat="46.8642" lon="5.80635">
        <ele>543.2</ele>
        <time>2021-05-09T16:17:14Z</time>
      </trkpt>
      <trkpt lat="46.86419" lon="5.80641">
        <ele>543</ele>
        <time>2021-05-09T16:17:18Z</time>
      </trkpt>
      <trkpt lat="46.86419" lon="5.80649">
        <ele>542</ele>
        <time>2021-05-09T16:17:23Z</time>
      </trkpt>
      <trkpt lat="46.86418" lon="5.80659">
        <ele>541</ele>
        <time>2021-05-09T16:17:28Z</time>
      </trkpt>
      <trkpt lat="46.86424" lon="5.80663">
        <ele>538.7</ele>
        <time>2021-05-09T16:17:35Z</time>
      </trkpt>
      <trkpt lat="46.86428" lon="5.80671">
        <ele>537.6</ele>
        <time>2021-05-09T16:17:39Z</time>
      </trkpt>
      <trkpt lat="46.86432" lon="5.80674">
        <ele>536.3</ele>
        <time>2021-05-09T16:17:43Z</time>
      </trkpt>
      <trkpt lat="46.86436" lon="5.80677">
        <ele>535.5</ele>
        <time>2021-05-09T16:17:50Z</time>
      </trkpt>
      <trkpt lat="46.86441" lon="5.80682">
        <ele>534.8</ele>
        <time>2021-05-09T16:17:56Z</time>
      </trkpt>
      <trkpt lat="46.86444" lon="5.8069">
        <ele>534</ele>
        <time>2021-05-09T16:18:00Z</time>
      </trkpt>
      <trkpt lat="46.86447" lon="5.80694">
        <ele>532.8</ele>
        <time>2021-05-09T16:18:04Z</time>
      </trkpt>
      <trkpt lat="46.86452" lon="5.80694">
        <ele>531.1</ele>
        <time>2021-05-09T16:18:08Z</time>
      </trkpt>
      <trkpt lat="46.86461" lon="5.80707">
        <ele>529.6</ele>
        <time>2021-05-09T16:18:27Z</time>
      </trkpt>
      <trkpt lat="46.86466" lon="5.80705">
        <ele>529.7</ele>
        <time>2021-05-09T16:18:31Z</time>
      </trkpt>
      <trkpt lat="46.86472" lon="5.80704">
        <ele>529.4</ele>
        <time>2021-05-09T16:18:36Z</time>
      </trkpt>
      <trkpt lat="46.86476" lon="5.80709">
        <ele>528.5</ele>
        <time>2021-05-09T16:18:43Z</time>
      </trkpt>
      <trkpt lat="46.86476" lon="5.80717">
        <ele>527.9</ele>
        <time>2021-05-09T16:18:47Z</time>
      </trkpt>
      <trkpt lat="46.86478" lon="5.80724">
        <ele>527.4</ele>
        <time>2021-05-09T16:18:51Z</time>
      </trkpt>
      <trkpt lat="46.86482" lon="5.80731">
        <ele>527.1</ele>
        <time>2021-05-09T16:18:55Z</time>
      </trkpt>
      <trkpt lat="46.86485" lon="5.80738">
        <ele>527</ele>
        <time>2021-05-09T16:18:59Z</time>
      </trkpt>
      <trkpt lat="46.86486" lon="5.80745">
        <ele>527</ele>
        <time>2021-05-09T16:19:04Z</time>
      </trkpt>
      <trkpt lat="46.86489" lon="5.80751">
        <ele>527.1</ele>
        <time>2021-05-09T16:19:09Z</time>
      </trkpt>
      <trkpt lat="46.86496" lon="5.80757">
        <ele>529.9</ele>
        <time>2021-05-09T16:19:13Z</time>
      </trkpt>
      <trkpt lat="46.86502" lon="5.80761">
        <ele>532.4</ele>
        <time>2021-05-09T16:19:17Z</time>
      </trkpt>
      <trkpt lat="46.86511" lon="5.80762">
        <ele>536</ele>
        <time>2021-05-09T16:19:21Z</time>
      </trkpt>
      <trkpt lat="46.86517" lon="5.80763">
        <ele>538.5</ele>
        <time>2021-05-09T16:19:25Z</time>
      </trkpt>
      <trkpt lat="46.86521" lon="5.80766">
        <ele>540.2</ele>
        <time>2021-05-09T16:19:30Z</time>
      </trkpt>
      <trkpt lat="46.86528" lon="5.80771">
        <ele>542</ele>
        <time>2021-05-09T16:19:34Z</time>
      </trkpt>
      <trkpt lat="46.86537" lon="5.80785">
        <ele>546.3</ele>
        <time>2021-05-09T16:19:38Z</time>
      </trkpt>
      <trkpt lat="46.86541" lon="5.80789">
        <ele>548.3</ele>
        <time>2021-05-09T16:19:42Z</time>
      </trkpt>
      <trkpt lat="46.86545" lon="5.80793">
        <ele>549.3</ele>
        <time>2021-05-09T16:19:48Z</time>
      </trkpt>
      <trkpt lat="46.86549" lon="5.80796">
        <ele>548.6</ele>
        <time>2021-05-09T16:19:55Z</time>
      </trkpt>
      <trkpt lat="46.86553" lon="5.80802">
        <ele>547.8</ele>
        <time>2021-05-09T16:20:01Z</time>
      </trkpt>
      <trkpt lat="46.86552" lon="5.80809">
        <ele>546.1</ele>
        <time>2021-05-09T16:20:07Z</time>
      </trkpt>
      <trkpt lat="46.86553" lon="5.80817">
        <ele>544</ele>
        <time>2021-05-09T16:20:14Z</time>
      </trkpt>
      <trkpt lat="46.8656" lon="5.80815">
        <ele>542.6</ele>
        <time>2021-05-09T16:20:18Z</time>
      </trkpt>
      <trkpt lat="46.86565" lon="5.80815">
        <ele>540.5</ele>
        <time>2021-05-09T16:20:25Z</time>
      </trkpt>
      <trkpt lat="46.8657" lon="5.80818">
        <ele>538.9</ele>
        <time>2021-05-09T16:20:31Z</time>
      </trkpt>
      <trkpt lat="46.86573" lon="5.80824">
        <ele>537.9</ele>
        <time>2021-05-09T16:20:35Z</time>
      </trkpt>
      <trkpt lat="46.86576" lon="5.80832">
        <ele>537.2</ele>
        <time>2021-05-09T16:20:39Z</time>
      </trkpt>
      <trkpt lat="46.8658" lon="5.80839">
        <ele>536.4</ele>
        <time>2021-05-09T16:20:43Z</time>
      </trkpt>
      <trkpt lat="46.86583" lon="5.80845">
        <ele>535.6</ele>
        <time>2021-05-09T16:20:48Z</time>
      </trkpt>
      <trkpt lat="46.86584" lon="5.80852">
        <ele>534.7</ele>
        <time>2021-05-09T16:20:54Z</time>
      </trkpt>
      <trkpt lat="46.86584" lon="5.80859">
        <ele>534.1</ele>
        <time>2021-05-09T16:20:58Z</time>
      </trkpt>
      <trkpt lat="46.86585" lon="5.80867">
        <ele>533.3</ele>
        <time>2021-05-09T16:21:02Z</time>
      </trkpt>
      <trkpt lat="46.86583" lon="5.80874">
        <ele>532.9</ele>
        <time>2021-05-09T16:21:06Z</time>
      </trkpt>
      <trkpt lat="46.86582" lon="5.80881">
        <ele>533.8</ele>
        <time>2021-05-09T16:21:10Z</time>
      </trkpt>
      <trkpt lat="46.86582" lon="5.80887">
        <ele>534.2</ele>
        <time>2021-05-09T16:21:14Z</time>
      </trkpt>
      <trkpt lat="46.86581" lon="5.80895">
        <ele>533.9</ele>
        <time>2021-05-09T16:21:18Z</time>
      </trkpt>
      <trkpt lat="46.86581" lon="5.80902">
        <ele>533.7</ele>
        <time>2021-05-09T16:21:22Z</time>
      </trkpt>
      <trkpt lat="46.86581" lon="5.80909">
        <ele>534.7</ele>
        <time>2021-05-09T16:21:32Z</time>
      </trkpt>
      <trkpt lat="46.86582" lon="5.80915">
        <ele>534.9</ele>
        <time>2021-05-09T16:21:38Z</time>
      </trkpt>
      <trkpt lat="46.86581" lon="5.80922">
        <ele>535.8</ele>
        <time>2021-05-09T16:21:45Z</time>
      </trkpt>
      <trkpt lat="46.86577" lon="5.8093">
        <ele>534.7</ele>
        <time>2021-05-09T16:21:50Z</time>
      </trkpt>
      <trkpt lat="46.8657" lon="5.80927">
        <ele>532.7</ele>
        <time>2021-05-09T16:21:54Z</time>
      </trkpt>
      <trkpt lat="46.86565" lon="5.80929">
        <ele>530.4</ele>
        <time>2021-05-09T16:21:58Z</time>
      </trkpt>
      <trkpt lat="46.86566" lon="5.80942">
        <ele>530.9</ele>
        <time>2021-05-09T16:22:02Z</time>
      </trkpt>
      <trkpt lat="46.86569" lon="5.80952">
        <ele>531.4</ele>
        <time>2021-05-09T16:22:06Z</time>
      </trkpt>
      <trkpt lat="46.86571" lon="5.80959">
        <ele>532.1</ele>
        <time>2021-05-09T16:22:10Z</time>
      </trkpt>
      <trkpt lat="46.86574" lon="5.80965">
        <ele>533.2</ele>
        <time>2021-05-09T16:22:14Z</time>
      </trkpt>
      <trkpt lat="46.86579" lon="5.80972">
        <ele>535.2</ele>
        <time>2021-05-09T16:22:18Z</time>
      </trkpt>
      <trkpt lat="46.86581" lon="5.80981">
        <ele>537.2</ele>
        <time>2021-05-09T16:22:22Z</time>
      </trkpt>
      <trkpt lat="46.86584" lon="5.80987">
        <ele>539.4</ele>
        <time>2021-05-09T16:22:26Z</time>
      </trkpt>
      <trkpt lat="46.86589" lon="5.80993">
        <ele>541.2</ele>
        <time>2021-05-09T16:22:30Z</time>
      </trkpt>
      <trkpt lat="46.86593" lon="5.80996">
        <ele>543.3</ele>
        <time>2021-05-09T16:22:37Z</time>
      </trkpt>
      <trkpt lat="46.86597" lon="5.81">
        <ele>544.1</ele>
        <time>2021-05-09T16:22:45Z</time>
      </trkpt>
      <trkpt lat="46.86605" lon="5.81001">
        <ele>544.1</ele>
        <time>2021-05-09T16:22:49Z</time>
      </trkpt>
      <trkpt lat="46.8661" lon="5.81002">
        <ele>543.8</ele>
        <time>2021-05-09T16:22:53Z</time>
      </trkpt>
      <trkpt lat="46.86614" lon="5.81005">
        <ele>543.3</ele>
        <time>2021-05-09T16:22:58Z</time>
      </trkpt>
      <trkpt lat="46.86617" lon="5.81011">
        <ele>543</ele>
        <time>2021-05-09T16:23:03Z</time>
      </trkpt>
      <trkpt lat="46.86622" lon="5.81015">
        <ele>543.7</ele>
        <time>2021-05-09T16:23:07Z</time>
      </trkpt>
      <trkpt lat="46.86626" lon="5.8102">
        <ele>544.1</ele>
        <time>2021-05-09T16:23:11Z</time>
      </trkpt>
      <trkpt lat="46.86631" lon="5.81022">
        <ele>544.6</ele>
        <time>2021-05-09T16:23:20Z</time>
      </trkpt>
      <trkpt lat="46.86642" lon="5.81025">
        <ele>544.8</ele>
        <time>2021-05-09T16:23:24Z</time>
      </trkpt>
      <trkpt lat="46.86652" lon="5.81028">
        <ele>544.7</ele>
        <time>2021-05-09T16:23:28Z</time>
      </trkpt>
      <trkpt lat="46.86656" lon="5.81029">
        <ele>544.1</ele>
        <time>2021-05-09T16:23:32Z</time>
      </trkpt>
      <trkpt lat="46.86658" lon="5.81021">
        <ele>541.1</ele>
        <time>2021-05-09T16:23:43Z</time>
      </trkpt>
      <trkpt lat="46.8666" lon="5.81015">
        <ele>539.8</ele>
        <time>2021-05-09T16:23:48Z</time>
      </trkpt>
      <trkpt lat="46.86662" lon="5.81008">
        <ele>538.8</ele>
        <time>2021-05-09T16:23:53Z</time>
      </trkpt>
      <trkpt lat="46.86662" lon="5.81">
        <ele>537.9</ele>
        <time>2021-05-09T16:24:05Z</time>
      </trkpt>
      <trkpt lat="46.86666" lon="5.80995">
        <ele>537.1</ele>
        <time>2021-05-09T16:24:11Z</time>
      </trkpt>
      <trkpt lat="46.8667" lon="5.80993">
        <ele>536.6</ele>
        <time>2021-05-09T16:24:16Z</time>
      </trkpt>
      <trkpt lat="46.86676" lon="5.80994">
        <ele>537.4</ele>
        <time>2021-05-09T16:25:07Z</time>
      </trkpt>
      <trkpt lat="46.86671" lon="5.80993">
        <ele>538.2</ele>
        <time>2021-05-09T16:28:08Z</time>
      </trkpt>
      <trkpt lat="46.86668" lon="5.80998">
        <ele>538.8</ele>
        <time>2021-05-09T16:28:14Z</time>
      </trkpt>
    </trkseg>
  </trk>
</gpx>